<?xml version="1.0" encoding="UTF-8" standalone="no" ?>
<gpx xmlns="http://www.topografix.com/GPX/1/1" xmlns:xsi="http://www.w3.org/2001/XMLSchema-instance" xsi:schemaLocation="http://www.topografix.com/GPX/1/1 http://www.topografix.com/GPX/1/1/gpx.xsd" version="1.1" creator="VisuGPX - https://www.visugpx.com">
  <metadata>
    <name>Riviera/Côte d'Azur Day 1: Diano Marina -&amp;gt; Ventimiglia</name>
  </metadata>
  <trk>
    <name><![CDATA[Riviera/Côte d'Azur Day 1: Diano Marina -> Ventimiglia]]></name>
    <extensions>
      <line xmlns="http://www.topografix.com/GPX/gpx_style/0/2">
        <color>0000FF</color>
        <width>4</width>
      </line>
    </extensions>
    <trkseg>
      <trkpt lat="43.91428" lon="8.08717">
        <ele>47.095727</ele>
        <time>2024-01-27T09:07:17.139Z</time>
      </trkpt>
      <trkpt lat="43.91438" lon="8.08717">
        <ele>47.095727</ele>
        <time>2024-01-27T09:09:05.691Z</time>
      </trkpt>
      <trkpt lat="43.91439" lon="8.08704">
        <ele>47.095727</ele>
        <time>2024-01-27T09:09:11.703Z</time>
      </trkpt>
      <trkpt lat="43.9143" lon="8.08694">
        <ele>47.095727</ele>
        <time>2024-01-27T09:09:16.715Z</time>
      </trkpt>
      <trkpt lat="43.91422" lon="8.08687">
        <ele>47.095727</ele>
        <time>2024-01-27T09:09:20.726Z</time>
      </trkpt>
      <trkpt lat="43.91413" lon="8.08679">
        <ele>47.095727</ele>
        <time>2024-01-27T09:09:25.704Z</time>
      </trkpt>
      <trkpt lat="43.91405" lon="8.0867">
        <ele>47.095727</ele>
        <time>2024-01-27T09:09:31.696Z</time>
      </trkpt>
      <trkpt lat="43.91395" lon="8.0866">
        <ele>47.095727</ele>
        <time>2024-01-27T09:09:52.699Z</time>
      </trkpt>
      <trkpt lat="43.91387" lon="8.08655">
        <ele>47.095727</ele>
        <time>2024-01-27T09:09:56.706Z</time>
      </trkpt>
      <trkpt lat="43.91379" lon="8.08646">
        <ele>47.19497</ele>
        <time>2024-01-27T09:10:00.697Z</time>
      </trkpt>
      <trkpt lat="43.9137" lon="8.08638">
        <ele>47.49322</ele>
        <time>2024-01-27T09:10:04.701Z</time>
      </trkpt>
      <trkpt lat="43.9136" lon="8.08629">
        <ele>47.843251</ele>
        <time>2024-01-27T09:10:08.701Z</time>
      </trkpt>
      <trkpt lat="43.91351" lon="8.08619">
        <ele>48.19811</ele>
        <time>2024-01-27T09:10:12.706Z</time>
      </trkpt>
      <trkpt lat="43.91342" lon="8.08611">
        <ele>48.508436</ele>
        <time>2024-01-27T09:10:15.710Z</time>
      </trkpt>
      <trkpt lat="43.91333" lon="8.08602">
        <ele>48.822259</ele>
        <time>2024-01-27T09:10:18.706Z</time>
      </trkpt>
      <trkpt lat="43.91323" lon="8.08595">
        <ele>49.159475</ele>
        <time>2024-01-27T09:10:21.698Z</time>
      </trkpt>
      <trkpt lat="43.91313" lon="8.08587">
        <ele>49.503733</ele>
        <time>2024-01-27T09:10:24.705Z</time>
      </trkpt>
      <trkpt lat="43.91303" lon="8.08578">
        <ele>49.83947</ele>
        <time>2024-01-27T09:10:27.715Z</time>
      </trkpt>
      <trkpt lat="43.91293" lon="8.08572">
        <ele>50.17462</ele>
        <time>2024-01-27T09:10:30.760Z</time>
      </trkpt>
      <trkpt lat="43.91283" lon="8.08562">
        <ele>50.523532</ele>
        <time>2024-01-27T09:10:33.697Z</time>
      </trkpt>
      <trkpt lat="43.91273" lon="8.08554">
        <ele>50.870887</ele>
        <time>2024-01-27T09:10:36.708Z</time>
      </trkpt>
      <trkpt lat="43.91264" lon="8.08545">
        <ele>51.20045</ele>
        <time>2024-01-27T09:10:39.715Z</time>
      </trkpt>
      <trkpt lat="43.91255" lon="8.08536">
        <ele>51.512257</ele>
        <time>2024-01-27T09:10:42.702Z</time>
      </trkpt>
      <trkpt lat="43.91246" lon="8.08527">
        <ele>51.856383</ele>
        <time>2024-01-27T09:10:45.786Z</time>
      </trkpt>
      <trkpt lat="43.91236" lon="8.08519">
        <ele>52.198087</ele>
        <time>2024-01-27T09:10:48.696Z</time>
      </trkpt>
      <trkpt lat="43.91226" lon="8.08511">
        <ele>52.42192</ele>
        <time>2024-01-27T09:10:51.689Z</time>
      </trkpt>
      <trkpt lat="43.91216" lon="8.08501">
        <ele>52.513673</ele>
        <time>2024-01-27T09:10:54.702Z</time>
      </trkpt>
      <trkpt lat="43.91206" lon="8.08491">
        <ele>52.609848</ele>
        <time>2024-01-27T09:10:57.703Z</time>
      </trkpt>
      <trkpt lat="43.91195" lon="8.08482">
        <ele>52.707029</ele>
        <time>2024-01-27T09:11:00.689Z</time>
      </trkpt>
      <trkpt lat="43.91186" lon="8.08473">
        <ele>52.79045</ele>
        <time>2024-01-27T09:11:03.692Z</time>
      </trkpt>
      <trkpt lat="43.91178" lon="8.08466">
        <ele>52.866035</ele>
        <time>2024-01-27T09:11:06.705Z</time>
      </trkpt>
      <trkpt lat="43.91171" lon="8.08458">
        <ele>52.935803</ele>
        <time>2024-01-27T09:11:09.702Z</time>
      </trkpt>
      <trkpt lat="43.91164" lon="8.08449">
        <ele>53.007728</ele>
        <time>2024-01-27T09:11:12.712Z</time>
      </trkpt>
      <trkpt lat="43.91157" lon="8.08438">
        <ele>53.089506</ele>
        <time>2024-01-27T09:11:15.714Z</time>
      </trkpt>
      <trkpt lat="43.91147" lon="8.08427">
        <ele>53.183589</ele>
        <time>2024-01-27T09:11:18.700Z</time>
      </trkpt>
      <trkpt lat="43.91139" lon="8.08419">
        <ele>53.264001</ele>
        <time>2024-01-27T09:11:21.700Z</time>
      </trkpt>
      <trkpt lat="43.91129" lon="8.08426">
        <ele>53.344861</ele>
        <time>2024-01-27T09:11:24.683Z</time>
      </trkpt>
      <trkpt lat="43.91119" lon="8.08436">
        <ele>53.436629</ele>
        <time>2024-01-27T09:11:27.710Z</time>
      </trkpt>
      <trkpt lat="43.9111" lon="8.08447">
        <ele>53.534484</ele>
        <time>2024-01-27T09:11:30.717Z</time>
      </trkpt>
      <trkpt lat="43.91103" lon="8.08456">
        <ele>53.606823</ele>
        <time>2024-01-27T09:11:32.703Z</time>
      </trkpt>
      <trkpt lat="43.91094" lon="8.08463">
        <ele>53.682605</ele>
        <time>2024-01-27T09:11:34.708Z</time>
      </trkpt>
      <trkpt lat="43.91086" lon="8.08471">
        <ele>53.761495</ele>
        <time>2024-01-27T09:11:36.720Z</time>
      </trkpt>
      <trkpt lat="43.91078" lon="8.08479">
        <ele>53.628825</ele>
        <time>2024-01-27T09:11:38.716Z</time>
      </trkpt>
      <trkpt lat="43.91069" lon="8.08488">
        <ele>53.493377</ele>
        <time>2024-01-27T09:11:40.706Z</time>
      </trkpt>
      <trkpt lat="43.91061" lon="8.08496">
        <ele>53.361918</ele>
        <time>2024-01-27T09:11:42.687Z</time>
      </trkpt>
      <trkpt lat="43.91053" lon="8.08504">
        <ele>53.230963</ele>
        <time>2024-01-27T09:11:44.703Z</time>
      </trkpt>
      <trkpt lat="43.91045" lon="8.0851">
        <ele>53.110064</ele>
        <time>2024-01-27T09:11:46.708Z</time>
      </trkpt>
      <trkpt lat="43.91035" lon="8.08515">
        <ele>52.966646</ele>
        <time>2024-01-27T09:11:49.707Z</time>
      </trkpt>
      <trkpt lat="43.91024" lon="8.08514">
        <ele>52.829486</ele>
        <time>2024-01-27T09:11:52.702Z</time>
      </trkpt>
      <trkpt lat="43.91015" lon="8.08502">
        <ele>52.659808</ele>
        <time>2024-01-27T09:11:55.694Z</time>
      </trkpt>
      <trkpt lat="43.91008" lon="8.08489">
        <ele>52.506417</ele>
        <time>2024-01-27T09:11:58.698Z</time>
      </trkpt>
      <trkpt lat="43.91002" lon="8.08479">
        <ele>52.382322</ele>
        <time>2024-01-27T09:12:01.722Z</time>
      </trkpt>
      <trkpt lat="43.90996" lon="8.08468">
        <ele>52.252187</ele>
        <time>2024-01-27T09:12:05.709Z</time>
      </trkpt>
      <trkpt lat="43.90988" lon="8.08473">
        <ele>52.13386</ele>
        <time>2024-01-27T09:12:09.710Z</time>
      </trkpt>
      <trkpt lat="43.90984" lon="8.08485">
        <ele>52.007768</ele>
        <time>2024-01-27T09:12:16.699Z</time>
      </trkpt>
      <trkpt lat="43.90976" lon="8.08491">
        <ele>51.880682</ele>
        <time>2024-01-27T09:12:21.696Z</time>
      </trkpt>
      <trkpt lat="43.90966" lon="8.08488">
        <ele>51.755568</ele>
        <time>2024-01-27T09:12:25.689Z</time>
      </trkpt>
      <trkpt lat="43.9096" lon="8.08479">
        <ele>51.636056</ele>
        <time>2024-01-27T09:12:29.704Z</time>
      </trkpt>
      <trkpt lat="43.90956" lon="8.08467">
        <ele>51.511772</ele>
        <time>2024-01-27T09:12:33.693Z</time>
      </trkpt>
      <trkpt lat="43.9095" lon="8.08457">
        <ele>51.394979</ele>
        <time>2024-01-27T09:12:37.699Z</time>
      </trkpt>
      <trkpt lat="43.90943" lon="8.08445">
        <ele>51.430815</ele>
        <time>2024-01-27T09:12:41.704Z</time>
      </trkpt>
      <trkpt lat="43.90936" lon="8.08436">
        <ele>51.459534</ele>
        <time>2024-01-27T09:12:44.709Z</time>
      </trkpt>
      <trkpt lat="43.90929" lon="8.08428">
        <ele>51.489121</ele>
        <time>2024-01-27T09:12:47.703Z</time>
      </trkpt>
      <trkpt lat="43.90922" lon="8.08418">
        <ele>51.519398</ele>
        <time>2024-01-27T09:12:50.685Z</time>
      </trkpt>
      <trkpt lat="43.90916" lon="8.08406">
        <ele>51.551578</ele>
        <time>2024-01-27T09:12:53.694Z</time>
      </trkpt>
      <trkpt lat="43.9091" lon="8.08395">
        <ele>51.582573</ele>
        <time>2024-01-27T09:12:56.688Z</time>
      </trkpt>
      <trkpt lat="43.90903" lon="8.08386">
        <ele>51.611393</ele>
        <time>2024-01-27T09:12:59.710Z</time>
      </trkpt>
      <trkpt lat="43.90895" lon="8.08374">
        <ele>51.648072</ele>
        <time>2024-01-27T09:13:03.708Z</time>
      </trkpt>
      <trkpt lat="43.90889" lon="8.08365">
        <ele>51.67787</ele>
        <time>2024-01-27T09:13:06.693Z</time>
      </trkpt>
      <trkpt lat="43.90882" lon="8.08355">
        <ele>51.708695</ele>
        <time>2024-01-27T09:13:09.702Z</time>
      </trkpt>
      <trkpt lat="43.90874" lon="8.08345">
        <ele>51.741756</ele>
        <time>2024-01-27T09:13:12.702Z</time>
      </trkpt>
      <trkpt lat="43.90867" lon="8.08335">
        <ele>51.774857</ele>
        <time>2024-01-27T09:13:15.710Z</time>
      </trkpt>
      <trkpt lat="43.9086" lon="8.08325">
        <ele>51.804219</ele>
        <time>2024-01-27T09:13:18.717Z</time>
      </trkpt>
      <trkpt lat="43.90856" lon="8.08313">
        <ele>51.835911</ele>
        <time>2024-01-27T09:13:21.698Z</time>
      </trkpt>
      <trkpt lat="43.90856" lon="8.08299">
        <ele>51.867693</ele>
        <time>2024-01-27T09:13:24.712Z</time>
      </trkpt>
      <trkpt lat="43.90855" lon="8.08286">
        <ele>51.897124</ele>
        <time>2024-01-27T09:13:27.705Z</time>
      </trkpt>
      <trkpt lat="43.9085" lon="8.08274">
        <ele>51.927509</ele>
        <time>2024-01-27T09:13:30.687Z</time>
      </trkpt>
      <trkpt lat="43.90844" lon="8.08263">
        <ele>51.958036</ele>
        <time>2024-01-27T09:13:33.705Z</time>
      </trkpt>
      <trkpt lat="43.90838" lon="8.08252">
        <ele>51.983898</ele>
        <time>2024-01-27T09:13:36.694Z</time>
      </trkpt>
      <trkpt lat="43.90833" lon="8.08242">
        <ele>52.009151</ele>
        <time>2024-01-27T09:13:39.703Z</time>
      </trkpt>
      <trkpt lat="43.90826" lon="8.08232">
        <ele>52.034784</ele>
        <time>2024-01-27T09:13:42.694Z</time>
      </trkpt>
      <trkpt lat="43.9082" lon="8.08222">
        <ele>52.059923</ele>
        <time>2024-01-27T09:13:45.672Z</time>
      </trkpt>
      <trkpt lat="43.90816" lon="8.0821">
        <ele>52.085868</ele>
        <time>2024-01-27T09:13:48.703Z</time>
      </trkpt>
      <trkpt lat="43.9081" lon="8.08199">
        <ele>52.112204</ele>
        <time>2024-01-27T09:13:51.707Z</time>
      </trkpt>
      <trkpt lat="43.90804" lon="8.08189">
        <ele>52.137253</ele>
        <time>2024-01-27T09:13:54.697Z</time>
      </trkpt>
      <trkpt lat="43.90796" lon="8.0818">
        <ele>52.164022</ele>
        <time>2024-01-27T09:13:57.691Z</time>
      </trkpt>
      <trkpt lat="43.90788" lon="8.08171">
        <ele>52.192008</ele>
        <time>2024-01-27T09:14:00.723Z</time>
      </trkpt>
      <trkpt lat="43.9078" lon="8.08164">
        <ele>52.217903</ele>
        <time>2024-01-27T09:14:03.713Z</time>
      </trkpt>
      <trkpt lat="43.90773" lon="8.08154">
        <ele>52.243584</ele>
        <time>2024-01-27T09:14:06.704Z</time>
      </trkpt>
      <trkpt lat="43.90766" lon="8.08144">
        <ele>52.270571</ele>
        <time>2024-01-27T09:14:09.701Z</time>
      </trkpt>
      <trkpt lat="43.90758" lon="8.08136">
        <ele>52.297999</ele>
        <time>2024-01-27T09:14:12.686Z</time>
      </trkpt>
      <trkpt lat="43.9075" lon="8.08128">
        <ele>52.325028</ele>
        <time>2024-01-27T09:14:15.705Z</time>
      </trkpt>
      <trkpt lat="43.90742" lon="8.08121">
        <ele>52.350698</ele>
        <time>2024-01-27T09:14:18.701Z</time>
      </trkpt>
      <trkpt lat="43.90734" lon="8.08113">
        <ele>52.377077</ele>
        <time>2024-01-27T09:14:21.680Z</time>
      </trkpt>
      <trkpt lat="43.90727" lon="8.08104">
        <ele>52.401942</ele>
        <time>2024-01-27T09:14:24.689Z</time>
      </trkpt>
      <trkpt lat="43.9072" lon="8.08094">
        <ele>52.427761</ele>
        <time>2024-01-27T09:14:27.678Z</time>
      </trkpt>
      <trkpt lat="43.90713" lon="8.08082">
        <ele>52.473223</ele>
        <time>2024-01-27T09:14:31.685Z</time>
      </trkpt>
      <trkpt lat="43.90705" lon="8.08074">
        <ele>52.515976</ele>
        <time>2024-01-27T09:14:34.683Z</time>
      </trkpt>
      <trkpt lat="43.90698" lon="8.08064">
        <ele>52.559191</ele>
        <time>2024-01-27T09:14:37.692Z</time>
      </trkpt>
      <trkpt lat="43.90689" lon="8.08057">
        <ele>52.602662</ele>
        <time>2024-01-27T09:14:40.705Z</time>
      </trkpt>
      <trkpt lat="43.90681" lon="8.08047">
        <ele>52.651309</ele>
        <time>2024-01-27T09:14:44.704Z</time>
      </trkpt>
      <trkpt lat="43.90674" lon="8.08038">
        <ele>52.691642</ele>
        <time>2024-01-27T09:14:48.693Z</time>
      </trkpt>
      <trkpt lat="43.90663" lon="8.08026">
        <ele>52.754194</ele>
        <time>2024-01-27T09:15:12.716Z</time>
      </trkpt>
      <trkpt lat="43.90654" lon="8.08018">
        <ele>52.798742</ele>
        <time>2024-01-27T09:15:16.702Z</time>
      </trkpt>
      <trkpt lat="43.90645" lon="8.08009">
        <ele>52.848714</ele>
        <time>2024-01-27T09:15:20.704Z</time>
      </trkpt>
      <trkpt lat="43.90638" lon="8.08001">
        <ele>52.888609</ele>
        <time>2024-01-27T09:15:23.696Z</time>
      </trkpt>
      <trkpt lat="43.90629" lon="8.07993">
        <ele>52.934242</ele>
        <time>2024-01-27T09:15:27.703Z</time>
      </trkpt>
      <trkpt lat="43.9062" lon="8.07983">
        <ele>52.98471</ele>
        <time>2024-01-27T09:15:31.714Z</time>
      </trkpt>
      <trkpt lat="43.90612" lon="8.07973">
        <ele>53.030494</ele>
        <time>2024-01-27T09:15:35.704Z</time>
      </trkpt>
      <trkpt lat="43.90604" lon="8.07966">
        <ele>53.070932</ele>
        <time>2024-01-27T09:15:40.693Z</time>
      </trkpt>
      <trkpt lat="43.90597" lon="8.0796">
        <ele>53.110073</ele>
        <time>2024-01-27T09:15:44.701Z</time>
      </trkpt>
      <trkpt lat="43.90588" lon="8.07951">
        <ele>53.160236</ele>
        <time>2024-01-27T09:15:48.707Z</time>
      </trkpt>
      <trkpt lat="43.90579" lon="8.07941">
        <ele>53.208591</ele>
        <time>2024-01-27T09:15:52.707Z</time>
      </trkpt>
      <trkpt lat="43.9057" lon="8.07934">
        <ele>53.208257</ele>
        <time>2024-01-27T09:15:55.680Z</time>
      </trkpt>
      <trkpt lat="43.90562" lon="8.07925">
        <ele>53.182807</ele>
        <time>2024-01-27T09:15:58.697Z</time>
      </trkpt>
      <trkpt lat="43.90555" lon="8.07917">
        <ele>53.160618</ele>
        <time>2024-01-27T09:16:01.713Z</time>
      </trkpt>
      <trkpt lat="43.90547" lon="8.07911">
        <ele>53.138305</ele>
        <time>2024-01-27T09:16:04.697Z</time>
      </trkpt>
      <trkpt lat="43.90539" lon="8.07901">
        <ele>53.11162</ele>
        <time>2024-01-27T09:16:08.688Z</time>
      </trkpt>
      <trkpt lat="43.90529" lon="8.07893">
        <ele>53.084286</ele>
        <time>2024-01-27T09:16:13.702Z</time>
      </trkpt>
      <trkpt lat="43.90522" lon="8.07883">
        <ele>53.060011</ele>
        <time>2024-01-27T09:16:17.709Z</time>
      </trkpt>
      <trkpt lat="43.90512" lon="8.07874">
        <ele>53.030446</ele>
        <time>2024-01-27T09:16:21.714Z</time>
      </trkpt>
      <trkpt lat="43.90505" lon="8.07867">
        <ele>53.008155</ele>
        <time>2024-01-27T09:16:24.729Z</time>
      </trkpt>
      <trkpt lat="43.90495" lon="8.07858">
        <ele>52.97941</ele>
        <time>2024-01-27T09:16:28.703Z</time>
      </trkpt>
      <trkpt lat="43.90486" lon="8.07847">
        <ele>52.950543</ele>
        <time>2024-01-27T09:16:32.756Z</time>
      </trkpt>
      <trkpt lat="43.90477" lon="8.07839">
        <ele>52.925227</ele>
        <time>2024-01-27T09:16:35.709Z</time>
      </trkpt>
      <trkpt lat="43.90469" lon="8.07832">
        <ele>52.900624</ele>
        <time>2024-01-27T09:16:38.700Z</time>
      </trkpt>
      <trkpt lat="43.9046" lon="8.07823">
        <ele>52.87439</ele>
        <time>2024-01-27T09:16:41.704Z</time>
      </trkpt>
      <trkpt lat="43.9045" lon="8.07815">
        <ele>52.84562</ele>
        <time>2024-01-27T09:16:44.705Z</time>
      </trkpt>
      <trkpt lat="43.90441" lon="8.07807">
        <ele>52.820147</ele>
        <time>2024-01-27T09:16:47.710Z</time>
      </trkpt>
      <trkpt lat="43.90433" lon="8.07803">
        <ele>52.798102</ele>
        <time>2024-01-27T09:16:50.693Z</time>
      </trkpt>
      <trkpt lat="43.90424" lon="8.07795">
        <ele>52.806416</ele>
        <time>2024-01-27T09:16:54.704Z</time>
      </trkpt>
      <trkpt lat="43.90414" lon="8.0779">
        <ele>52.860856</ele>
        <time>2024-01-27T09:16:58.701Z</time>
      </trkpt>
      <trkpt lat="43.90408" lon="8.07779">
        <ele>52.90965</ele>
        <time>2024-01-27T09:17:02.684Z</time>
      </trkpt>
      <trkpt lat="43.90399" lon="8.07771">
        <ele>52.966939</ele>
        <time>2024-01-27T09:17:06.696Z</time>
      </trkpt>
      <trkpt lat="43.90389" lon="8.07766">
        <ele>53.022066</ele>
        <time>2024-01-27T09:17:09.722Z</time>
      </trkpt>
      <trkpt lat="43.90379" lon="8.07761">
        <ele>53.076321</ele>
        <time>2024-01-27T09:17:12.705Z</time>
      </trkpt>
      <trkpt lat="43.90368" lon="8.07756">
        <ele>53.134521</ele>
        <time>2024-01-27T09:17:15.717Z</time>
      </trkpt>
      <trkpt lat="43.90357" lon="8.0775">
        <ele>53.194509</ele>
        <time>2024-01-27T09:17:18.691Z</time>
      </trkpt>
      <trkpt lat="43.90347" lon="8.07744">
        <ele>53.255175</ele>
        <time>2024-01-27T09:17:21.674Z</time>
      </trkpt>
      <trkpt lat="43.90335" lon="8.0774">
        <ele>53.31639</ele>
        <time>2024-01-27T09:17:24.703Z</time>
      </trkpt>
      <trkpt lat="43.90324" lon="8.07733">
        <ele>53.380897</ele>
        <time>2024-01-27T09:17:27.710Z</time>
      </trkpt>
      <trkpt lat="43.90315" lon="8.07728">
        <ele>53.427968</ele>
        <time>2024-01-27T09:17:29.709Z</time>
      </trkpt>
      <trkpt lat="43.90306" lon="8.07723">
        <ele>53.478851</ele>
        <time>2024-01-27T09:17:31.708Z</time>
      </trkpt>
      <trkpt lat="43.90296" lon="8.07719">
        <ele>53.530198</ele>
        <time>2024-01-27T09:17:33.706Z</time>
      </trkpt>
      <trkpt lat="43.90287" lon="8.07715">
        <ele>53.579339</ele>
        <time>2024-01-27T09:17:35.702Z</time>
      </trkpt>
      <trkpt lat="43.90279" lon="8.07709">
        <ele>53.626279</ele>
        <time>2024-01-27T09:17:37.696Z</time>
      </trkpt>
      <trkpt lat="43.90268" lon="8.07704">
        <ele>53.688802</ele>
        <time>2024-01-27T09:17:40.699Z</time>
      </trkpt>
      <trkpt lat="43.90257" lon="8.07697">
        <ele>53.776303</ele>
        <time>2024-01-27T09:17:43.691Z</time>
      </trkpt>
      <trkpt lat="43.90245" lon="8.07691">
        <ele>53.879754</ele>
        <time>2024-01-27T09:17:46.691Z</time>
      </trkpt>
      <trkpt lat="43.90234" lon="8.07685">
        <ele>53.984215</ele>
        <time>2024-01-27T09:17:49.707Z</time>
      </trkpt>
      <trkpt lat="43.90222" lon="8.07681">
        <ele>54.0858</ele>
        <time>2024-01-27T09:17:52.685Z</time>
      </trkpt>
      <trkpt lat="43.90211" lon="8.07678">
        <ele>54.18407</ele>
        <time>2024-01-27T09:17:55.699Z</time>
      </trkpt>
      <trkpt lat="43.90199" lon="8.07677">
        <ele>54.279703</ele>
        <time>2024-01-27T09:17:58.718Z</time>
      </trkpt>
      <trkpt lat="43.90189" lon="8.07673">
        <ele>54.375962</ele>
        <time>2024-01-27T09:18:01.688Z</time>
      </trkpt>
      <trkpt lat="43.90178" lon="8.07669">
        <ele>54.470406</ele>
        <time>2024-01-27T09:18:04.702Z</time>
      </trkpt>
      <trkpt lat="43.90167" lon="8.07667">
        <ele>54.558366</ele>
        <time>2024-01-27T09:18:07.697Z</time>
      </trkpt>
      <trkpt lat="43.90157" lon="8.07664">
        <ele>54.646461</ele>
        <time>2024-01-27T09:18:10.703Z</time>
      </trkpt>
      <trkpt lat="43.90146" lon="8.07663">
        <ele>54.737785</ele>
        <time>2024-01-27T09:18:13.701Z</time>
      </trkpt>
      <trkpt lat="43.90134" lon="8.07662">
        <ele>54.839395</ele>
        <time>2024-01-27T09:18:16.702Z</time>
      </trkpt>
      <trkpt lat="43.90122" lon="8.07662">
        <ele>54.940831</ele>
        <time>2024-01-27T09:18:19.722Z</time>
      </trkpt>
      <trkpt lat="43.90112" lon="8.07663">
        <ele>55.032958</ele>
        <time>2024-01-27T09:18:22.709Z</time>
      </trkpt>
      <trkpt lat="43.90101" lon="8.07664">
        <ele>55.125255</ele>
        <time>2024-01-27T09:18:25.707Z</time>
      </trkpt>
      <trkpt lat="43.90091" lon="8.07666">
        <ele>55.211636</ele>
        <time>2024-01-27T09:18:28.710Z</time>
      </trkpt>
      <trkpt lat="43.90082" lon="8.07671">
        <ele>55.486972</ele>
        <time>2024-01-27T09:18:31.725Z</time>
      </trkpt>
      <trkpt lat="43.90072" lon="8.07678">
        <ele>55.849026</ele>
        <time>2024-01-27T09:18:34.702Z</time>
      </trkpt>
      <trkpt lat="43.90063" lon="8.07686">
        <ele>56.216924</ele>
        <time>2024-01-27T09:18:37.713Z</time>
      </trkpt>
      <trkpt lat="43.90053" lon="8.07694">
        <ele>56.600535</ele>
        <time>2024-01-27T09:18:40.709Z</time>
      </trkpt>
      <trkpt lat="43.90044" lon="8.07702">
        <ele>56.948705</ele>
        <time>2024-01-27T09:18:43.701Z</time>
      </trkpt>
      <trkpt lat="43.90034" lon="8.07709">
        <ele>57.341704</ele>
        <time>2024-01-27T09:18:46.705Z</time>
      </trkpt>
      <trkpt lat="43.90024" lon="8.07715">
        <ele>57.697464</ele>
        <time>2024-01-27T09:18:49.707Z</time>
      </trkpt>
      <trkpt lat="43.90014" lon="8.07722">
        <ele>58.059298</ele>
        <time>2024-01-27T09:18:52.700Z</time>
      </trkpt>
      <trkpt lat="43.90005" lon="8.07729">
        <ele>58.408798</ele>
        <time>2024-01-27T09:18:55.708Z</time>
      </trkpt>
      <trkpt lat="43.89996" lon="8.07737">
        <ele>58.771953</ele>
        <time>2024-01-27T09:18:58.709Z</time>
      </trkpt>
      <trkpt lat="43.89986" lon="8.07743">
        <ele>59.137866</ele>
        <time>2024-01-27T09:19:01.686Z</time>
      </trkpt>
      <trkpt lat="43.89978" lon="8.07749">
        <ele>59.450394</ele>
        <time>2024-01-27T09:19:04.722Z</time>
      </trkpt>
      <trkpt lat="43.89971" lon="8.07757">
        <ele>59.752641</ele>
        <time>2024-01-27T09:19:07.677Z</time>
      </trkpt>
      <trkpt lat="43.89962" lon="8.07767">
        <ele>60.143703</ele>
        <time>2024-01-27T09:19:11.686Z</time>
      </trkpt>
      <trkpt lat="43.89954" lon="8.07777">
        <ele>60.498851</ele>
        <time>2024-01-27T09:19:15.705Z</time>
      </trkpt>
      <trkpt lat="43.89946" lon="8.07786">
        <ele>60.853057</ele>
        <time>2024-01-27T09:19:19.696Z</time>
      </trkpt>
      <trkpt lat="43.89938" lon="8.07796">
        <ele>61.218833</ele>
        <time>2024-01-27T09:19:23.698Z</time>
      </trkpt>
      <trkpt lat="43.8993" lon="8.07806">
        <ele>61.332578</ele>
        <time>2024-01-27T09:19:27.709Z</time>
      </trkpt>
      <trkpt lat="43.89923" lon="8.07814">
        <ele>61.397616</ele>
        <time>2024-01-27T09:19:30.704Z</time>
      </trkpt>
      <trkpt lat="43.89915" lon="8.07819">
        <ele>61.46154</ele>
        <time>2024-01-27T09:19:33.693Z</time>
      </trkpt>
      <trkpt lat="43.89906" lon="8.07824">
        <ele>61.531661</ele>
        <time>2024-01-27T09:19:37.695Z</time>
      </trkpt>
      <trkpt lat="43.89896" lon="8.07828">
        <ele>61.598793</ele>
        <time>2024-01-27T09:19:41.713Z</time>
      </trkpt>
      <trkpt lat="43.89886" lon="8.0783">
        <ele>61.673116</ele>
        <time>2024-01-27T09:19:46.715Z</time>
      </trkpt>
      <trkpt lat="43.89878" lon="8.07823">
        <ele>61.741398</ele>
        <time>2024-01-27T09:19:51.705Z</time>
      </trkpt>
      <trkpt lat="43.89868" lon="8.07826">
        <ele>61.813098</ele>
        <time>2024-01-27T09:19:56.689Z</time>
      </trkpt>
      <trkpt lat="43.89857" lon="8.07829">
        <ele>61.888583</ele>
        <time>2024-01-27T09:20:00.709Z</time>
      </trkpt>
      <trkpt lat="43.89847" lon="8.07832">
        <ele>61.966602</ele>
        <time>2024-01-27T09:20:04.757Z</time>
      </trkpt>
      <trkpt lat="43.89836" lon="8.07835">
        <ele>62.044494</ele>
        <time>2024-01-27T09:20:08.701Z</time>
      </trkpt>
      <trkpt lat="43.89827" lon="8.07838">
        <ele>62.107826</ele>
        <time>2024-01-27T09:20:11.704Z</time>
      </trkpt>
      <trkpt lat="43.89815" lon="8.07844">
        <ele>62.197052</ele>
        <time>2024-01-27T09:20:14.701Z</time>
      </trkpt>
      <trkpt lat="43.89807" lon="8.07851">
        <ele>62.266236</ele>
        <time>2024-01-27T09:20:16.709Z</time>
      </trkpt>
      <trkpt lat="43.89795" lon="8.0786">
        <ele>62.362106</ele>
        <time>2024-01-27T09:20:19.706Z</time>
      </trkpt>
      <trkpt lat="43.89784" lon="8.07868">
        <ele>62.448691</ele>
        <time>2024-01-27T09:20:22.696Z</time>
      </trkpt>
      <trkpt lat="43.89772" lon="8.07871">
        <ele>62.536704</ele>
        <time>2024-01-27T09:20:25.680Z</time>
      </trkpt>
      <trkpt lat="43.89763" lon="8.07873">
        <ele>62.585974</ele>
        <time>2024-01-27T09:20:27.698Z</time>
      </trkpt>
      <trkpt lat="43.8975" lon="8.07876">
        <ele>62.65393</ele>
        <time>2024-01-27T09:20:30.699Z</time>
      </trkpt>
      <trkpt lat="43.89741" lon="8.07878">
        <ele>62.705043</ele>
        <time>2024-01-27T09:20:32.718Z</time>
      </trkpt>
      <trkpt lat="43.89731" lon="8.0788">
        <ele>62.755758</ele>
        <time>2024-01-27T09:20:34.695Z</time>
      </trkpt>
      <trkpt lat="43.89722" lon="8.07881">
        <ele>62.807575</ele>
        <time>2024-01-27T09:20:36.701Z</time>
      </trkpt>
      <trkpt lat="43.89712" lon="8.07883">
        <ele>62.857731</ele>
        <time>2024-01-27T09:20:38.713Z</time>
      </trkpt>
      <trkpt lat="43.89699" lon="8.07885">
        <ele>62.926835</ele>
        <time>2024-01-27T09:20:41.697Z</time>
      </trkpt>
      <trkpt lat="43.89687" lon="8.07885">
        <ele>62.991658</ele>
        <time>2024-01-27T09:20:44.713Z</time>
      </trkpt>
      <trkpt lat="43.89675" lon="8.07886">
        <ele>63.053596</ele>
        <time>2024-01-27T09:20:47.697Z</time>
      </trkpt>
      <trkpt lat="43.89663" lon="8.07889">
        <ele>63.118251</ele>
        <time>2024-01-27T09:20:50.702Z</time>
      </trkpt>
      <trkpt lat="43.89652" lon="8.07888">
        <ele>63.180474</ele>
        <time>2024-01-27T09:20:53.709Z</time>
      </trkpt>
      <trkpt lat="43.8964" lon="8.07887">
        <ele>63.245433</ele>
        <time>2024-01-27T09:20:56.704Z</time>
      </trkpt>
      <trkpt lat="43.89627" lon="8.07883">
        <ele>63.312313</ele>
        <time>2024-01-27T09:20:59.688Z</time>
      </trkpt>
      <trkpt lat="43.89615" lon="8.07879">
        <ele>63.378064</ele>
        <time>2024-01-27T09:21:02.706Z</time>
      </trkpt>
      <trkpt lat="43.89604" lon="8.07874">
        <ele>63.442578</ele>
        <time>2024-01-27T09:21:05.693Z</time>
      </trkpt>
      <trkpt lat="43.89592" lon="8.07866">
        <ele>63.49159</ele>
        <time>2024-01-27T09:21:08.702Z</time>
      </trkpt>
      <trkpt lat="43.89581" lon="8.07858">
        <ele>63.463072</ele>
        <time>2024-01-27T09:21:11.699Z</time>
      </trkpt>
      <trkpt lat="43.89571" lon="8.07849">
        <ele>63.435945</ele>
        <time>2024-01-27T09:21:14.699Z</time>
      </trkpt>
      <trkpt lat="43.89562" lon="8.07838">
        <ele>63.408536</ele>
        <time>2024-01-27T09:21:17.710Z</time>
      </trkpt>
      <trkpt lat="43.89552" lon="8.07828">
        <ele>63.382146</ele>
        <time>2024-01-27T09:21:20.711Z</time>
      </trkpt>
      <trkpt lat="43.89542" lon="8.07818">
        <ele>63.354632</ele>
        <time>2024-01-27T09:21:23.712Z</time>
      </trkpt>
      <trkpt lat="43.89532" lon="8.07808">
        <ele>63.326107</ele>
        <time>2024-01-27T09:21:26.709Z</time>
      </trkpt>
      <trkpt lat="43.89521" lon="8.078">
        <ele>63.298088</ele>
        <time>2024-01-27T09:21:29.710Z</time>
      </trkpt>
      <trkpt lat="43.8951" lon="8.0779">
        <ele>63.269208</ele>
        <time>2024-01-27T09:21:32.705Z</time>
      </trkpt>
      <trkpt lat="43.89499" lon="8.0778">
        <ele>63.23976</ele>
        <time>2024-01-27T09:21:35.700Z</time>
      </trkpt>
      <trkpt lat="43.89488" lon="8.07772">
        <ele>63.211715</ele>
        <time>2024-01-27T09:21:38.708Z</time>
      </trkpt>
      <trkpt lat="43.89478" lon="8.07763">
        <ele>63.185124</ele>
        <time>2024-01-27T09:21:41.708Z</time>
      </trkpt>
      <trkpt lat="43.89466" lon="8.07757">
        <ele>63.157108</ele>
        <time>2024-01-27T09:21:44.711Z</time>
      </trkpt>
      <trkpt lat="43.89457" lon="8.07749">
        <ele>63.131321</ele>
        <time>2024-01-27T09:21:47.708Z</time>
      </trkpt>
      <trkpt lat="43.89448" lon="8.0774">
        <ele>63.106477</ele>
        <time>2024-01-27T09:21:50.708Z</time>
      </trkpt>
      <trkpt lat="43.89438" lon="8.07732">
        <ele>63.090375</ele>
        <time>2024-01-27T09:21:53.707Z</time>
      </trkpt>
      <trkpt lat="43.8943" lon="8.07722">
        <ele>63.084523</ele>
        <time>2024-01-27T09:21:56.709Z</time>
      </trkpt>
      <trkpt lat="43.89422" lon="8.07711">
        <ele>63.078892</ele>
        <time>2024-01-27T09:21:59.705Z</time>
      </trkpt>
      <trkpt lat="43.89415" lon="8.077">
        <ele>63.073265</ele>
        <time>2024-01-27T09:22:02.697Z</time>
      </trkpt>
      <trkpt lat="43.89408" lon="8.07688">
        <ele>63.067774</ele>
        <time>2024-01-27T09:22:05.715Z</time>
      </trkpt>
      <trkpt lat="43.89401" lon="8.07677">
        <ele>63.062097</ele>
        <time>2024-01-27T09:22:08.712Z</time>
      </trkpt>
      <trkpt lat="43.89393" lon="8.07666">
        <ele>63.056207</ele>
        <time>2024-01-27T09:22:11.698Z</time>
      </trkpt>
      <trkpt lat="43.89384" lon="8.07655">
        <ele>63.050355</ele>
        <time>2024-01-27T09:22:14.710Z</time>
      </trkpt>
      <trkpt lat="43.89377" lon="8.07645">
        <ele>63.044845</ele>
        <time>2024-01-27T09:22:17.707Z</time>
      </trkpt>
      <trkpt lat="43.89371" lon="8.07632">
        <ele>63.03912</ele>
        <time>2024-01-27T09:22:20.688Z</time>
      </trkpt>
      <trkpt lat="43.89365" lon="8.0762">
        <ele>63.033736</ele>
        <time>2024-01-27T09:22:23.713Z</time>
      </trkpt>
      <trkpt lat="43.8936" lon="8.07609">
        <ele>63.029042</ele>
        <time>2024-01-27T09:22:26.698Z</time>
      </trkpt>
      <trkpt lat="43.89356" lon="8.07597">
        <ele>63.024053</ele>
        <time>2024-01-27T09:22:29.693Z</time>
      </trkpt>
      <trkpt lat="43.8935" lon="8.07587">
        <ele>63.019001</ele>
        <time>2024-01-27T09:22:32.703Z</time>
      </trkpt>
      <trkpt lat="43.89343" lon="8.07577">
        <ele>63.014033</ele>
        <time>2024-01-27T09:22:35.694Z</time>
      </trkpt>
      <trkpt lat="43.89335" lon="8.07566">
        <ele>63.008166</ele>
        <time>2024-01-27T09:22:38.680Z</time>
      </trkpt>
      <trkpt lat="43.89327" lon="8.07555">
        <ele>63.002158</ele>
        <time>2024-01-27T09:22:41.689Z</time>
      </trkpt>
      <trkpt lat="43.89319" lon="8.07544">
        <ele>62.962674</ele>
        <time>2024-01-27T09:22:44.672Z</time>
      </trkpt>
      <trkpt lat="43.89311" lon="8.07533">
        <ele>62.906328</ele>
        <time>2024-01-27T09:22:47.683Z</time>
      </trkpt>
      <trkpt lat="43.89303" lon="8.07523">
        <ele>62.850129</ele>
        <time>2024-01-27T09:22:50.714Z</time>
      </trkpt>
      <trkpt lat="43.89295" lon="8.07513">
        <ele>62.795013</ele>
        <time>2024-01-27T09:22:53.695Z</time>
      </trkpt>
      <trkpt lat="43.89286" lon="8.07503">
        <ele>62.736892</ele>
        <time>2024-01-27T09:22:56.703Z</time>
      </trkpt>
      <trkpt lat="43.89277" lon="8.07492">
        <ele>62.676923</ele>
        <time>2024-01-27T09:22:59.707Z</time>
      </trkpt>
      <trkpt lat="43.89269" lon="8.0748">
        <ele>62.613685</ele>
        <time>2024-01-27T09:23:02.701Z</time>
      </trkpt>
      <trkpt lat="43.8926" lon="8.07469">
        <ele>62.553331</ele>
        <time>2024-01-27T09:23:05.696Z</time>
      </trkpt>
      <trkpt lat="43.89251" lon="8.07458">
        <ele>62.49274</ele>
        <time>2024-01-27T09:23:08.708Z</time>
      </trkpt>
      <trkpt lat="43.89243" lon="8.07447">
        <ele>62.435657</ele>
        <time>2024-01-27T09:23:11.705Z</time>
      </trkpt>
      <trkpt lat="43.89235" lon="8.07438">
        <ele>62.382194</ele>
        <time>2024-01-27T09:23:14.682Z</time>
      </trkpt>
      <trkpt lat="43.89228" lon="8.07429">
        <ele>62.332917</ele>
        <time>2024-01-27T09:23:17.699Z</time>
      </trkpt>
      <trkpt lat="43.89222" lon="8.07418">
        <ele>62.279027</ele>
        <time>2024-01-27T09:23:20.709Z</time>
      </trkpt>
      <trkpt lat="43.89214" lon="8.07407">
        <ele>62.223937</ele>
        <time>2024-01-27T09:23:23.695Z</time>
      </trkpt>
      <trkpt lat="43.89207" lon="8.07395">
        <ele>62.166411</ele>
        <time>2024-01-27T09:23:26.706Z</time>
      </trkpt>
      <trkpt lat="43.89201" lon="8.07382">
        <ele>62.108078</ele>
        <time>2024-01-27T09:23:29.708Z</time>
      </trkpt>
      <trkpt lat="43.89194" lon="8.07369">
        <ele>62.027028</ele>
        <time>2024-01-27T09:23:32.685Z</time>
      </trkpt>
      <trkpt lat="43.89189" lon="8.07357">
        <ele>61.932999</ele>
        <time>2024-01-27T09:23:35.714Z</time>
      </trkpt>
      <trkpt lat="43.89183" lon="8.07345">
        <ele>61.836343</ele>
        <time>2024-01-27T09:23:38.695Z</time>
      </trkpt>
      <trkpt lat="43.89177" lon="8.07333">
        <ele>61.743796</ele>
        <time>2024-01-27T09:23:41.669Z</time>
      </trkpt>
      <trkpt lat="43.89173" lon="8.07322">
        <ele>61.653585</ele>
        <time>2024-01-27T09:23:44.698Z</time>
      </trkpt>
      <trkpt lat="43.89168" lon="8.07309">
        <ele>61.559094</ele>
        <time>2024-01-27T09:23:47.699Z</time>
      </trkpt>
      <trkpt lat="43.89162" lon="8.07297">
        <ele>61.458901</ele>
        <time>2024-01-27T09:23:50.695Z</time>
      </trkpt>
      <trkpt lat="43.89157" lon="8.07282">
        <ele>61.35456</ele>
        <time>2024-01-27T09:23:53.698Z</time>
      </trkpt>
      <trkpt lat="43.89152" lon="8.07271">
        <ele>61.260023</ele>
        <time>2024-01-27T09:23:56.707Z</time>
      </trkpt>
      <trkpt lat="43.89146" lon="8.07259">
        <ele>61.166332</ele>
        <time>2024-01-27T09:23:59.704Z</time>
      </trkpt>
      <trkpt lat="43.89142" lon="8.07245">
        <ele>61.065808</ele>
        <time>2024-01-27T09:24:02.698Z</time>
      </trkpt>
      <trkpt lat="43.89139" lon="8.0723">
        <ele>60.959465</ele>
        <time>2024-01-27T09:24:05.694Z</time>
      </trkpt>
      <trkpt lat="43.89133" lon="8.07217">
        <ele>60.859007</ele>
        <time>2024-01-27T09:24:08.688Z</time>
      </trkpt>
      <trkpt lat="43.89126" lon="8.07206">
        <ele>60.76064</ele>
        <time>2024-01-27T09:24:11.678Z</time>
      </trkpt>
      <trkpt lat="43.89121" lon="8.07193">
        <ele>60.664981</ele>
        <time>2024-01-27T09:24:14.692Z</time>
      </trkpt>
      <trkpt lat="43.89116" lon="8.07181">
        <ele>60.566663</ele>
        <time>2024-01-27T09:24:17.702Z</time>
      </trkpt>
      <trkpt lat="43.8911" lon="8.07168">
        <ele>60.462395</ele>
        <time>2024-01-27T09:24:20.695Z</time>
      </trkpt>
      <trkpt lat="43.89104" lon="8.07154">
        <ele>60.363568</ele>
        <time>2024-01-27T09:24:23.708Z</time>
      </trkpt>
      <trkpt lat="43.89098" lon="8.0714">
        <ele>60.274627</ele>
        <time>2024-01-27T09:24:26.685Z</time>
      </trkpt>
      <trkpt lat="43.89091" lon="8.07126">
        <ele>60.178492</ele>
        <time>2024-01-27T09:24:29.698Z</time>
      </trkpt>
      <trkpt lat="43.89085" lon="8.07112">
        <ele>60.086249</ele>
        <time>2024-01-27T09:24:32.704Z</time>
      </trkpt>
      <trkpt lat="43.89078" lon="8.07098">
        <ele>59.988835</ele>
        <time>2024-01-27T09:24:35.699Z</time>
      </trkpt>
      <trkpt lat="43.89072" lon="8.07084">
        <ele>59.897076</ele>
        <time>2024-01-27T09:24:38.698Z</time>
      </trkpt>
      <trkpt lat="43.89066" lon="8.07069">
        <ele>59.804638</ele>
        <time>2024-01-27T09:24:41.707Z</time>
      </trkpt>
      <trkpt lat="43.8906" lon="8.07055">
        <ele>59.71255</ele>
        <time>2024-01-27T09:24:44.693Z</time>
      </trkpt>
      <trkpt lat="43.89054" lon="8.0704">
        <ele>59.613545</ele>
        <time>2024-01-27T09:24:47.693Z</time>
      </trkpt>
      <trkpt lat="43.89048" lon="8.07025">
        <ele>59.517228</ele>
        <time>2024-01-27T09:24:50.698Z</time>
      </trkpt>
      <trkpt lat="43.89041" lon="8.07012">
        <ele>59.425823</ele>
        <time>2024-01-27T09:24:53.699Z</time>
      </trkpt>
      <trkpt lat="43.89037" lon="8.06997">
        <ele>59.338886</ele>
        <time>2024-01-27T09:24:56.687Z</time>
      </trkpt>
      <trkpt lat="43.89031" lon="8.06983">
        <ele>59.24284</ele>
        <time>2024-01-27T09:24:59.710Z</time>
      </trkpt>
      <trkpt lat="43.89026" lon="8.06967">
        <ele>59.143129</ele>
        <time>2024-01-27T09:25:02.686Z</time>
      </trkpt>
      <trkpt lat="43.89021" lon="8.06951">
        <ele>59.044619</ele>
        <time>2024-01-27T09:25:05.706Z</time>
      </trkpt>
      <trkpt lat="43.89015" lon="8.06935">
        <ele>58.961428</ele>
        <time>2024-01-27T09:25:08.695Z</time>
      </trkpt>
      <trkpt lat="43.8901" lon="8.06919">
        <ele>58.893941</ele>
        <time>2024-01-27T09:25:11.704Z</time>
      </trkpt>
      <trkpt lat="43.89004" lon="8.06904">
        <ele>58.828685</ele>
        <time>2024-01-27T09:25:14.697Z</time>
      </trkpt>
      <trkpt lat="43.89" lon="8.06888">
        <ele>58.761953</ele>
        <time>2024-01-27T09:25:17.713Z</time>
      </trkpt>
      <trkpt lat="43.88995" lon="8.06872">
        <ele>58.693623</ele>
        <time>2024-01-27T09:25:20.707Z</time>
      </trkpt>
      <trkpt lat="43.88991" lon="8.06855">
        <ele>58.627013</ele>
        <time>2024-01-27T09:25:23.703Z</time>
      </trkpt>
      <trkpt lat="43.88986" lon="8.06841">
        <ele>58.565369</ele>
        <time>2024-01-27T09:25:26.704Z</time>
      </trkpt>
      <trkpt lat="43.88981" lon="8.06826">
        <ele>58.501157</ele>
        <time>2024-01-27T09:25:29.697Z</time>
      </trkpt>
      <trkpt lat="43.88976" lon="8.0681">
        <ele>58.434601</ele>
        <time>2024-01-27T09:25:32.688Z</time>
      </trkpt>
      <trkpt lat="43.88971" lon="8.06795">
        <ele>58.36791</ele>
        <time>2024-01-27T09:25:35.709Z</time>
      </trkpt>
      <trkpt lat="43.88967" lon="8.06778">
        <ele>58.301375</ele>
        <time>2024-01-27T09:25:38.698Z</time>
      </trkpt>
      <trkpt lat="43.88963" lon="8.06763">
        <ele>58.235005</ele>
        <time>2024-01-27T09:25:41.698Z</time>
      </trkpt>
      <trkpt lat="43.88958" lon="8.06747">
        <ele>58.167959</ele>
        <time>2024-01-27T09:25:44.688Z</time>
      </trkpt>
      <trkpt lat="43.88953" lon="8.06731">
        <ele>58.100413</ele>
        <time>2024-01-27T09:25:47.675Z</time>
      </trkpt>
      <trkpt lat="43.88947" lon="8.06715">
        <ele>58.03247</ele>
        <time>2024-01-27T09:25:50.696Z</time>
      </trkpt>
      <trkpt lat="43.88942" lon="8.06699">
        <ele>58.113516</ele>
        <time>2024-01-27T09:25:53.683Z</time>
      </trkpt>
      <trkpt lat="43.8894" lon="8.06682">
        <ele>58.196718</ele>
        <time>2024-01-27T09:25:56.695Z</time>
      </trkpt>
      <trkpt lat="43.88937" lon="8.06669">
        <ele>58.263953</ele>
        <time>2024-01-27T09:26:00.684Z</time>
      </trkpt>
      <trkpt lat="43.88932" lon="8.06654">
        <ele>58.342954</ele>
        <time>2024-01-27T09:26:04.699Z</time>
      </trkpt>
      <trkpt lat="43.8893" lon="8.06642">
        <ele>58.406038</ele>
        <time>2024-01-27T09:26:07.705Z</time>
      </trkpt>
      <trkpt lat="43.88927" lon="8.06629">
        <ele>58.475248</ele>
        <time>2024-01-27T09:26:10.707Z</time>
      </trkpt>
      <trkpt lat="43.88923" lon="8.06615">
        <ele>58.54795</ele>
        <time>2024-01-27T09:26:13.697Z</time>
      </trkpt>
      <trkpt lat="43.88922" lon="8.06599">
        <ele>58.627024</ele>
        <time>2024-01-27T09:26:16.697Z</time>
      </trkpt>
      <trkpt lat="43.8892" lon="8.06583">
        <ele>58.70502</ele>
        <time>2024-01-27T09:26:19.709Z</time>
      </trkpt>
      <trkpt lat="43.88917" lon="8.06567">
        <ele>58.783941</ele>
        <time>2024-01-27T09:26:22.700Z</time>
      </trkpt>
      <trkpt lat="43.88914" lon="8.0655">
        <ele>58.872369</ele>
        <time>2024-01-27T09:26:25.695Z</time>
      </trkpt>
      <trkpt lat="43.88912" lon="8.06532">
        <ele>58.960975</ele>
        <time>2024-01-27T09:26:28.691Z</time>
      </trkpt>
      <trkpt lat="43.88908" lon="8.06514">
        <ele>59.05227</ele>
        <time>2024-01-27T09:26:31.701Z</time>
      </trkpt>
      <trkpt lat="43.88906" lon="8.06496">
        <ele>59.141858</ele>
        <time>2024-01-27T09:26:34.704Z</time>
      </trkpt>
      <trkpt lat="43.88902" lon="8.06479">
        <ele>59.227587</ele>
        <time>2024-01-27T09:26:37.705Z</time>
      </trkpt>
      <trkpt lat="43.88901" lon="8.06463">
        <ele>59.140243</ele>
        <time>2024-01-27T09:26:40.717Z</time>
      </trkpt>
      <trkpt lat="43.88898" lon="8.06448">
        <ele>58.973254</ele>
        <time>2024-01-27T09:26:43.707Z</time>
      </trkpt>
      <trkpt lat="43.88896" lon="8.06432">
        <ele>58.792711</ele>
        <time>2024-01-27T09:26:46.704Z</time>
      </trkpt>
      <trkpt lat="43.88893" lon="8.06415">
        <ele>58.607219</ele>
        <time>2024-01-27T09:26:49.710Z</time>
      </trkpt>
      <trkpt lat="43.88891" lon="8.06397">
        <ele>58.417535</ele>
        <time>2024-01-27T09:26:52.693Z</time>
      </trkpt>
      <trkpt lat="43.88888" lon="8.06381">
        <ele>58.23247</ele>
        <time>2024-01-27T09:26:55.688Z</time>
      </trkpt>
      <trkpt lat="43.88887" lon="8.06364">
        <ele>58.049735</ele>
        <time>2024-01-27T09:26:58.713Z</time>
      </trkpt>
      <trkpt lat="43.88885" lon="8.06346">
        <ele>57.859229</ele>
        <time>2024-01-27T09:27:01.695Z</time>
      </trkpt>
      <trkpt lat="43.88882" lon="8.06329">
        <ele>57.668104</ele>
        <time>2024-01-27T09:27:04.701Z</time>
      </trkpt>
      <trkpt lat="43.8888" lon="8.06316">
        <ele>57.528907</ele>
        <time>2024-01-27T09:27:06.692Z</time>
      </trkpt>
      <trkpt lat="43.88878" lon="8.06303">
        <ele>57.386579</ele>
        <time>2024-01-27T09:27:08.704Z</time>
      </trkpt>
      <trkpt lat="43.88876" lon="8.06285">
        <ele>57.191878</ele>
        <time>2024-01-27T09:27:11.669Z</time>
      </trkpt>
      <trkpt lat="43.88873" lon="8.06267">
        <ele>56.991471</ele>
        <time>2024-01-27T09:27:14.702Z</time>
      </trkpt>
      <trkpt lat="43.88869" lon="8.0625">
        <ele>56.798479</ele>
        <time>2024-01-27T09:27:17.687Z</time>
      </trkpt>
      <trkpt lat="43.88865" lon="8.06233">
        <ele>56.601654</ele>
        <time>2024-01-27T09:27:20.691Z</time>
      </trkpt>
      <trkpt lat="43.88863" lon="8.0622">
        <ele>56.577662</ele>
        <time>2024-01-27T09:27:22.701Z</time>
      </trkpt>
      <trkpt lat="43.88863" lon="8.06202">
        <ele>56.589032</ele>
        <time>2024-01-27T09:27:25.687Z</time>
      </trkpt>
      <trkpt lat="43.88862" lon="8.06184">
        <ele>56.60078</ele>
        <time>2024-01-27T09:27:28.705Z</time>
      </trkpt>
      <trkpt lat="43.88862" lon="8.06166">
        <ele>56.611647</ele>
        <time>2024-01-27T09:27:31.690Z</time>
      </trkpt>
      <trkpt lat="43.8886" lon="8.06153">
        <ele>56.620402</ele>
        <time>2024-01-27T09:27:34.690Z</time>
      </trkpt>
      <trkpt lat="43.88858" lon="8.06139">
        <ele>56.629483</ele>
        <time>2024-01-27T09:27:36.702Z</time>
      </trkpt>
      <trkpt lat="43.88856" lon="8.06125">
        <ele>56.63822</ele>
        <time>2024-01-27T09:27:38.707Z</time>
      </trkpt>
      <trkpt lat="43.88855" lon="8.06112">
        <ele>56.646519</ele>
        <time>2024-01-27T09:27:40.703Z</time>
      </trkpt>
      <trkpt lat="43.88855" lon="8.06098">
        <ele>56.655251</ele>
        <time>2024-01-27T09:27:42.696Z</time>
      </trkpt>
      <trkpt lat="43.88855" lon="8.06084">
        <ele>56.664049</ele>
        <time>2024-01-27T09:27:44.705Z</time>
      </trkpt>
      <trkpt lat="43.88854" lon="8.06071">
        <ele>56.672448</ele>
        <time>2024-01-27T09:27:46.698Z</time>
      </trkpt>
      <trkpt lat="43.88854" lon="8.06058">
        <ele>56.680626</ele>
        <time>2024-01-27T09:27:48.690Z</time>
      </trkpt>
      <trkpt lat="43.88853" lon="8.06044">
        <ele>56.689035</ele>
        <time>2024-01-27T09:27:50.705Z</time>
      </trkpt>
      <trkpt lat="43.88852" lon="8.06031">
        <ele>56.697725</ele>
        <time>2024-01-27T09:27:52.689Z</time>
      </trkpt>
      <trkpt lat="43.88851" lon="8.06017">
        <ele>56.706409</ele>
        <time>2024-01-27T09:27:54.703Z</time>
      </trkpt>
      <trkpt lat="43.88851" lon="8.06003">
        <ele>56.715287</ele>
        <time>2024-01-27T09:27:56.705Z</time>
      </trkpt>
      <trkpt lat="43.88849" lon="8.05989">
        <ele>56.723979</ele>
        <time>2024-01-27T09:27:58.692Z</time>
      </trkpt>
      <trkpt lat="43.88847" lon="8.05975">
        <ele>56.705255</ele>
        <time>2024-01-27T09:28:00.716Z</time>
      </trkpt>
      <trkpt lat="43.88845" lon="8.05961">
        <ele>56.664211</ele>
        <time>2024-01-27T09:28:02.693Z</time>
      </trkpt>
      <trkpt lat="43.88841" lon="8.05948">
        <ele>56.621776</ele>
        <time>2024-01-27T09:28:04.705Z</time>
      </trkpt>
      <trkpt lat="43.88836" lon="8.05935">
        <ele>56.580191</ele>
        <time>2024-01-27T09:28:06.709Z</time>
      </trkpt>
      <trkpt lat="43.88831" lon="8.05923">
        <ele>56.538477</ele>
        <time>2024-01-27T09:28:08.691Z</time>
      </trkpt>
      <trkpt lat="43.88828" lon="8.05909">
        <ele>56.497011</ele>
        <time>2024-01-27T09:28:10.680Z</time>
      </trkpt>
      <trkpt lat="43.88824" lon="8.05896">
        <ele>56.455835</ele>
        <time>2024-01-27T09:28:12.708Z</time>
      </trkpt>
      <trkpt lat="43.88821" lon="8.05882">
        <ele>56.413892</ele>
        <time>2024-01-27T09:28:14.693Z</time>
      </trkpt>
      <trkpt lat="43.88818" lon="8.05868">
        <ele>56.36955</ele>
        <time>2024-01-27T09:28:16.717Z</time>
      </trkpt>
      <trkpt lat="43.88815" lon="8.05853">
        <ele>56.326876</ele>
        <time>2024-01-27T09:28:18.696Z</time>
      </trkpt>
      <trkpt lat="43.88812" lon="8.05839">
        <ele>56.283979</ele>
        <time>2024-01-27T09:28:20.706Z</time>
      </trkpt>
      <trkpt lat="43.88809" lon="8.05825">
        <ele>56.240563</ele>
        <time>2024-01-27T09:28:22.711Z</time>
      </trkpt>
      <trkpt lat="43.88807" lon="8.05811">
        <ele>56.198901</ele>
        <time>2024-01-27T09:28:24.697Z</time>
      </trkpt>
      <trkpt lat="43.88804" lon="8.05798">
        <ele>56.157631</ele>
        <time>2024-01-27T09:28:26.699Z</time>
      </trkpt>
      <trkpt lat="43.88801" lon="8.05784">
        <ele>56.115332</ele>
        <time>2024-01-27T09:28:28.720Z</time>
      </trkpt>
      <trkpt lat="43.88797" lon="8.0577">
        <ele>56.072039</ele>
        <time>2024-01-27T09:28:30.701Z</time>
      </trkpt>
      <trkpt lat="43.88795" lon="8.05756">
        <ele>56.029671</ele>
        <time>2024-01-27T09:28:32.700Z</time>
      </trkpt>
      <trkpt lat="43.88792" lon="8.05742">
        <ele>55.986688</ele>
        <time>2024-01-27T09:28:34.710Z</time>
      </trkpt>
      <trkpt lat="43.88791" lon="8.05727">
        <ele>55.938126</ele>
        <time>2024-01-27T09:28:36.701Z</time>
      </trkpt>
      <trkpt lat="43.8879" lon="8.05713">
        <ele>55.893063</ele>
        <time>2024-01-27T09:28:38.701Z</time>
      </trkpt>
      <trkpt lat="43.88791" lon="8.057">
        <ele>55.847961</ele>
        <time>2024-01-27T09:28:40.697Z</time>
      </trkpt>
      <trkpt lat="43.88794" lon="8.05686">
        <ele>55.799526</ele>
        <time>2024-01-27T09:28:42.712Z</time>
      </trkpt>
      <trkpt lat="43.88799" lon="8.05673">
        <ele>55.75222</ele>
        <time>2024-01-27T09:28:44.723Z</time>
      </trkpt>
      <trkpt lat="43.88804" lon="8.05659">
        <ele>55.701882</ele>
        <time>2024-01-27T09:28:46.679Z</time>
      </trkpt>
      <trkpt lat="43.88807" lon="8.05645">
        <ele>55.653136</ele>
        <time>2024-01-27T09:28:48.707Z</time>
      </trkpt>
      <trkpt lat="43.88808" lon="8.0563">
        <ele>55.603462</ele>
        <time>2024-01-27T09:28:50.694Z</time>
      </trkpt>
      <trkpt lat="43.88808" lon="8.05615">
        <ele>55.555888</ele>
        <time>2024-01-27T09:28:52.696Z</time>
      </trkpt>
      <trkpt lat="43.88806" lon="8.05601">
        <ele>55.509065</ele>
        <time>2024-01-27T09:28:54.700Z</time>
      </trkpt>
      <trkpt lat="43.88805" lon="8.05587">
        <ele>55.462402</ele>
        <time>2024-01-27T09:28:56.765Z</time>
      </trkpt>
      <trkpt lat="43.88803" lon="8.05573">
        <ele>55.414265</ele>
        <time>2024-01-27T09:28:58.705Z</time>
      </trkpt>
      <trkpt lat="43.88799" lon="8.05559">
        <ele>55.36738</ele>
        <time>2024-01-27T09:29:00.707Z</time>
      </trkpt>
      <trkpt lat="43.88796" lon="8.05547">
        <ele>55.324815</ele>
        <time>2024-01-27T09:29:02.686Z</time>
      </trkpt>
      <trkpt lat="43.88795" lon="8.0553">
        <ele>55.267295</ele>
        <time>2024-01-27T09:29:05.699Z</time>
      </trkpt>
      <trkpt lat="43.88791" lon="8.05514">
        <ele>55.212391</ele>
        <time>2024-01-27T09:29:08.694Z</time>
      </trkpt>
      <trkpt lat="43.88791" lon="8.05528">
        <ele>55.1482</ele>
        <time>2024-01-27T09:29:15.693Z</time>
      </trkpt>
      <trkpt lat="43.88797" lon="8.05539">
        <ele>55.050736</ele>
        <time>2024-01-27T09:29:18.699Z</time>
      </trkpt>
      <trkpt lat="43.88801" lon="8.05526">
        <ele>54.947759</ele>
        <time>2024-01-27T09:29:23.697Z</time>
      </trkpt>
      <trkpt lat="43.88796" lon="8.05512">
        <ele>54.835799</ele>
        <time>2024-01-27T09:29:26.679Z</time>
      </trkpt>
      <trkpt lat="43.88792" lon="8.05497">
        <ele>54.72304</ele>
        <time>2024-01-27T09:29:29.691Z</time>
      </trkpt>
      <trkpt lat="43.88788" lon="8.05481">
        <ele>54.603287</ele>
        <time>2024-01-27T09:29:32.709Z</time>
      </trkpt>
      <trkpt lat="43.88784" lon="8.05465">
        <ele>54.48114</ele>
        <time>2024-01-27T09:29:35.692Z</time>
      </trkpt>
      <trkpt lat="43.8878" lon="8.05449">
        <ele>54.357628</ele>
        <time>2024-01-27T09:29:38.696Z</time>
      </trkpt>
      <trkpt lat="43.88777" lon="8.05432">
        <ele>54.231446</ele>
        <time>2024-01-27T09:29:41.691Z</time>
      </trkpt>
      <trkpt lat="43.88773" lon="8.05417">
        <ele>54.115216</ele>
        <time>2024-01-27T09:29:44.691Z</time>
      </trkpt>
      <trkpt lat="43.88772" lon="8.05399">
        <ele>53.989783</ele>
        <time>2024-01-27T09:29:47.703Z</time>
      </trkpt>
      <trkpt lat="43.8877" lon="8.05382">
        <ele>53.860379</ele>
        <time>2024-01-27T09:29:50.695Z</time>
      </trkpt>
      <trkpt lat="43.88768" lon="8.05364">
        <ele>53.731535</ele>
        <time>2024-01-27T09:29:53.708Z</time>
      </trkpt>
      <trkpt lat="43.88766" lon="8.05346">
        <ele>53.604264</ele>
        <time>2024-01-27T09:29:56.699Z</time>
      </trkpt>
      <trkpt lat="43.88765" lon="8.05328">
        <ele>53.474571</ele>
        <time>2024-01-27T09:29:59.701Z</time>
      </trkpt>
      <trkpt lat="43.88765" lon="8.0531">
        <ele>53.341405</ele>
        <time>2024-01-27T09:30:02.699Z</time>
      </trkpt>
      <trkpt lat="43.88765" lon="8.05293">
        <ele>53.201553</ele>
        <time>2024-01-27T09:30:05.698Z</time>
      </trkpt>
      <trkpt lat="43.88766" lon="8.05276">
        <ele>53.063556</ele>
        <time>2024-01-27T09:30:08.696Z</time>
      </trkpt>
      <trkpt lat="43.88767" lon="8.05257">
        <ele>52.913955</ele>
        <time>2024-01-27T09:30:11.697Z</time>
      </trkpt>
      <trkpt lat="43.88769" lon="8.05238">
        <ele>52.760614</ele>
        <time>2024-01-27T09:30:14.693Z</time>
      </trkpt>
      <trkpt lat="43.8877" lon="8.05225">
        <ele>52.656079</ele>
        <time>2024-01-27T09:30:16.694Z</time>
      </trkpt>
      <trkpt lat="43.88771" lon="8.05212">
        <ele>52.553591</ele>
        <time>2024-01-27T09:30:18.693Z</time>
      </trkpt>
      <trkpt lat="43.88773" lon="8.05199">
        <ele>52.447809</ele>
        <time>2024-01-27T09:30:20.695Z</time>
      </trkpt>
      <trkpt lat="43.88774" lon="8.05185">
        <ele>52.340362</ele>
        <time>2024-01-27T09:30:22.696Z</time>
      </trkpt>
      <trkpt lat="43.88776" lon="8.05172">
        <ele>52.233299</ele>
        <time>2024-01-27T09:30:24.694Z</time>
      </trkpt>
      <trkpt lat="43.88778" lon="8.05159">
        <ele>52.128764</ele>
        <time>2024-01-27T09:30:26.683Z</time>
      </trkpt>
      <trkpt lat="43.88779" lon="8.05146">
        <ele>52.023914</ele>
        <time>2024-01-27T09:30:28.692Z</time>
      </trkpt>
      <trkpt lat="43.88779" lon="8.05133">
        <ele>51.923573</ele>
        <time>2024-01-27T09:30:30.694Z</time>
      </trkpt>
      <trkpt lat="43.8878" lon="8.0512">
        <ele>51.816378</ele>
        <time>2024-01-27T09:30:32.698Z</time>
      </trkpt>
      <trkpt lat="43.8878" lon="8.05106">
        <ele>51.70755</ele>
        <time>2024-01-27T09:30:34.695Z</time>
      </trkpt>
      <trkpt lat="43.8878" lon="8.05092">
        <ele>51.599561</ele>
        <time>2024-01-27T09:30:36.691Z</time>
      </trkpt>
      <trkpt lat="43.8878" lon="8.05078">
        <ele>51.483637</ele>
        <time>2024-01-27T09:30:38.692Z</time>
      </trkpt>
      <trkpt lat="43.8878" lon="8.05064">
        <ele>51.438734</ele>
        <time>2024-01-27T09:30:40.698Z</time>
      </trkpt>
      <trkpt lat="43.88779" lon="8.0505">
        <ele>51.553759</ele>
        <time>2024-01-27T09:30:42.689Z</time>
      </trkpt>
      <trkpt lat="43.88778" lon="8.05036">
        <ele>51.671648</ele>
        <time>2024-01-27T09:30:44.706Z</time>
      </trkpt>
      <trkpt lat="43.88778" lon="8.05023">
        <ele>51.78721</ele>
        <time>2024-01-27T09:30:46.693Z</time>
      </trkpt>
      <trkpt lat="43.88777" lon="8.05009">
        <ele>51.899171</ele>
        <time>2024-01-27T09:30:48.686Z</time>
      </trkpt>
      <trkpt lat="43.88777" lon="8.04995">
        <ele>52.016991</ele>
        <time>2024-01-27T09:30:50.701Z</time>
      </trkpt>
      <trkpt lat="43.88777" lon="8.04982">
        <ele>52.130586</ele>
        <time>2024-01-27T09:30:52.694Z</time>
      </trkpt>
      <trkpt lat="43.88778" lon="8.04969">
        <ele>52.241805</ele>
        <time>2024-01-27T09:30:54.697Z</time>
      </trkpt>
      <trkpt lat="43.88778" lon="8.04955">
        <ele>52.357367</ele>
        <time>2024-01-27T09:30:56.692Z</time>
      </trkpt>
      <trkpt lat="43.8878" lon="8.04942">
        <ele>52.469464</ele>
        <time>2024-01-27T09:30:58.688Z</time>
      </trkpt>
      <trkpt lat="43.8878" lon="8.04928">
        <ele>52.583437</ele>
        <time>2024-01-27T09:31:00.705Z</time>
      </trkpt>
      <trkpt lat="43.88782" lon="8.04915">
        <ele>52.695534</ele>
        <time>2024-01-27T09:31:02.682Z</time>
      </trkpt>
      <trkpt lat="43.88784" lon="8.04901">
        <ele>52.814455</ele>
        <time>2024-01-27T09:31:04.695Z</time>
      </trkpt>
      <trkpt lat="43.88786" lon="8.04888">
        <ele>52.931423</ele>
        <time>2024-01-27T09:31:06.709Z</time>
      </trkpt>
      <trkpt lat="43.88788" lon="8.04875">
        <ele>53.043236</ele>
        <time>2024-01-27T09:31:08.700Z</time>
      </trkpt>
      <trkpt lat="43.88791" lon="8.04858">
        <ele>53.189683</ele>
        <time>2024-01-27T09:31:11.703Z</time>
      </trkpt>
      <trkpt lat="43.88794" lon="8.04846">
        <ele>53.295011</ele>
        <time>2024-01-27T09:31:15.708Z</time>
      </trkpt>
      <trkpt lat="43.88797" lon="8.04833">
        <ele>53.412956</ele>
        <time>2024-01-27T09:31:36.681Z</time>
      </trkpt>
      <trkpt lat="43.88799" lon="8.0482">
        <ele>53.541008</ele>
        <time>2024-01-27T09:31:40.685Z</time>
      </trkpt>
      <trkpt lat="43.88803" lon="8.04807">
        <ele>53.78281</ele>
        <time>2024-01-27T09:31:43.674Z</time>
      </trkpt>
      <trkpt lat="43.88808" lon="8.04791">
        <ele>54.068944</ele>
        <time>2024-01-27T09:31:46.687Z</time>
      </trkpt>
      <trkpt lat="43.88812" lon="8.04778">
        <ele>54.327336</ele>
        <time>2024-01-27T09:31:49.692Z</time>
      </trkpt>
      <trkpt lat="43.88808" lon="8.0476">
        <ele>54.642907</ele>
        <time>2024-01-27T09:31:52.691Z</time>
      </trkpt>
      <trkpt lat="43.88804" lon="8.0474">
        <ele>55.002608</ele>
        <time>2024-01-27T09:31:55.670Z</time>
      </trkpt>
      <trkpt lat="43.88796" lon="8.0472">
        <ele>55.402251</ele>
        <time>2024-01-27T09:31:57.669Z</time>
      </trkpt>
      <trkpt lat="43.888" lon="8.04705">
        <ele>55.674152</ele>
        <time>2024-01-27T09:31:59.672Z</time>
      </trkpt>
      <trkpt lat="43.88813" lon="8.04695">
        <ele>56.014056</ele>
        <time>2024-01-27T09:32:02.677Z</time>
      </trkpt>
      <trkpt lat="43.88829" lon="8.04696">
        <ele>56.396675</ele>
        <time>2024-01-27T09:32:04.673Z</time>
      </trkpt>
      <trkpt lat="43.8884" lon="8.04695">
        <ele>56.669991</ele>
        <time>2024-01-27T09:32:06.695Z</time>
      </trkpt>
      <trkpt lat="43.88847" lon="8.04682">
        <ele>56.953421</ele>
        <time>2024-01-27T09:32:09.694Z</time>
      </trkpt>
      <trkpt lat="43.88855" lon="8.04669">
        <ele>57.243285</ele>
        <time>2024-01-27T09:32:12.692Z</time>
      </trkpt>
      <trkpt lat="43.88862" lon="8.04658">
        <ele>57.498073</ele>
        <time>2024-01-27T09:32:15.668Z</time>
      </trkpt>
      <trkpt lat="43.8887" lon="8.04646">
        <ele>57.776755</ele>
        <time>2024-01-27T09:32:18.689Z</time>
      </trkpt>
      <trkpt lat="43.88878" lon="8.04635">
        <ele>58.176431</ele>
        <time>2024-01-27T09:32:21.700Z</time>
      </trkpt>
      <trkpt lat="43.88887" lon="8.04623">
        <ele>58.601139</ele>
        <time>2024-01-27T09:32:24.694Z</time>
      </trkpt>
      <trkpt lat="43.88895" lon="8.04612">
        <ele>59.014732</ele>
        <time>2024-01-27T09:32:27.873Z</time>
      </trkpt>
      <trkpt lat="43.88903" lon="8.04601">
        <ele>59.418203</ele>
        <time>2024-01-27T09:32:30.723Z</time>
      </trkpt>
      <trkpt lat="43.88912" lon="8.04589">
        <ele>59.856398</ele>
        <time>2024-01-27T09:32:33.702Z</time>
      </trkpt>
      <trkpt lat="43.88922" lon="8.04577">
        <ele>60.317422</ele>
        <time>2024-01-27T09:32:36.683Z</time>
      </trkpt>
      <trkpt lat="43.88932" lon="8.04566">
        <ele>60.771273</ele>
        <time>2024-01-27T09:32:39.700Z</time>
      </trkpt>
      <trkpt lat="43.88942" lon="8.04554">
        <ele>61.240027</ele>
        <time>2024-01-27T09:32:42.705Z</time>
      </trkpt>
      <trkpt lat="43.88951" lon="8.04542">
        <ele>61.691686</ele>
        <time>2024-01-27T09:32:45.679Z</time>
      </trkpt>
      <trkpt lat="43.88959" lon="8.04526">
        <ele>62.196508</ele>
        <time>2024-01-27T09:32:48.683Z</time>
      </trkpt>
      <trkpt lat="43.88961" lon="8.04508">
        <ele>62.669588</ele>
        <time>2024-01-27T09:32:50.668Z</time>
      </trkpt>
      <trkpt lat="43.89242" lon="8.03968">
        <ele>78.722704</ele>
        <time>2024-01-27T09:34:22.686Z</time>
      </trkpt>
      <trkpt lat="43.89235" lon="8.03955">
        <ele>76.545327</ele>
        <time>2024-01-27T09:34:27.710Z</time>
      </trkpt>
      <trkpt lat="43.89234" lon="8.0394">
        <ele>74.335116</ele>
        <time>2024-01-27T09:34:35.695Z</time>
      </trkpt>
      <trkpt lat="43.89234" lon="8.03927">
        <ele>72.583813</ele>
        <time>2024-01-27T09:34:37.690Z</time>
      </trkpt>
      <trkpt lat="43.89232" lon="8.03914">
        <ele>70.761189</ele>
        <time>2024-01-27T09:34:39.693Z</time>
      </trkpt>
      <trkpt lat="43.89231" lon="8.03901">
        <ele>68.948079</ele>
        <time>2024-01-27T09:34:41.714Z</time>
      </trkpt>
      <trkpt lat="43.8923" lon="8.03888">
        <ele>67.112579</ele>
        <time>2024-01-27T09:34:43.706Z</time>
      </trkpt>
      <trkpt lat="43.8923" lon="8.03873">
        <ele>65.000022</ele>
        <time>2024-01-27T09:34:46.707Z</time>
      </trkpt>
      <trkpt lat="43.89228" lon="8.0386">
        <ele>63.161953</ele>
        <time>2024-01-27T09:35:01.691Z</time>
      </trkpt>
      <trkpt lat="43.89226" lon="8.03846">
        <ele>61.216153</ele>
        <time>2024-01-27T09:35:05.685Z</time>
      </trkpt>
      <trkpt lat="43.89224" lon="8.0383">
        <ele>59.124684</ele>
        <time>2024-01-27T09:35:09.688Z</time>
      </trkpt>
      <trkpt lat="43.89222" lon="8.03815">
        <ele>59.143842</ele>
        <time>2024-01-27T09:35:12.687Z</time>
      </trkpt>
      <trkpt lat="43.89219" lon="8.03801">
        <ele>59.162038</ele>
        <time>2024-01-27T09:35:15.704Z</time>
      </trkpt>
      <trkpt lat="43.89216" lon="8.03787">
        <ele>59.178827</ele>
        <time>2024-01-27T09:35:18.703Z</time>
      </trkpt>
      <trkpt lat="43.89214" lon="8.03775">
        <ele>59.194328</ele>
        <time>2024-01-27T09:35:21.698Z</time>
      </trkpt>
      <trkpt lat="43.89212" lon="8.03762">
        <ele>59.211153</ele>
        <time>2024-01-27T09:35:24.681Z</time>
      </trkpt>
      <trkpt lat="43.89209" lon="8.03747">
        <ele>59.230789</ele>
        <time>2024-01-27T09:35:28.703Z</time>
      </trkpt>
      <trkpt lat="43.89205" lon="8.03733">
        <ele>59.248807</ele>
        <time>2024-01-27T09:35:32.702Z</time>
      </trkpt>
      <trkpt lat="43.89204" lon="8.0372">
        <ele>59.266196</ele>
        <time>2024-01-27T09:35:36.680Z</time>
      </trkpt>
      <trkpt lat="43.89199" lon="8.03704">
        <ele>59.286669</ele>
        <time>2024-01-27T09:36:08.713Z</time>
      </trkpt>
      <trkpt lat="43.89196" lon="8.0369">
        <ele>59.30522</ele>
        <time>2024-01-27T09:36:12.681Z</time>
      </trkpt>
      <trkpt lat="43.89193" lon="8.03677">
        <ele>59.322368</ele>
        <time>2024-01-27T09:36:15.683Z</time>
      </trkpt>
      <trkpt lat="43.89189" lon="8.03662">
        <ele>59.341565</ele>
        <time>2024-01-27T09:36:18.697Z</time>
      </trkpt>
      <trkpt lat="43.89184" lon="8.03647">
        <ele>59.36199</ele>
        <time>2024-01-27T09:36:21.714Z</time>
      </trkpt>
      <trkpt lat="43.89179" lon="8.03632">
        <ele>59.38269</ele>
        <time>2024-01-27T09:36:24.695Z</time>
      </trkpt>
      <trkpt lat="43.89173" lon="8.03616">
        <ele>59.405026</ele>
        <time>2024-01-27T09:36:27.706Z</time>
      </trkpt>
      <trkpt lat="43.89167" lon="8.036">
        <ele>59.427137</ele>
        <time>2024-01-27T09:36:30.700Z</time>
      </trkpt>
      <trkpt lat="43.89163" lon="8.03589">
        <ele>59.451833</ele>
        <time>2024-01-27T09:36:32.716Z</time>
      </trkpt>
      <trkpt lat="43.89155" lon="8.03575">
        <ele>59.492932</ele>
        <time>2024-01-27T09:36:35.717Z</time>
      </trkpt>
      <trkpt lat="43.89149" lon="8.03561">
        <ele>59.531333</ele>
        <time>2024-01-27T09:36:38.692Z</time>
      </trkpt>
      <trkpt lat="43.89144" lon="8.03547">
        <ele>59.567814</ele>
        <time>2024-01-27T09:36:41.700Z</time>
      </trkpt>
      <trkpt lat="43.89138" lon="8.03533">
        <ele>59.607589</ele>
        <time>2024-01-27T09:36:44.695Z</time>
      </trkpt>
      <trkpt lat="43.89131" lon="8.03518">
        <ele>59.646521</ele>
        <time>2024-01-27T09:36:47.720Z</time>
      </trkpt>
      <trkpt lat="43.89125" lon="8.03504">
        <ele>59.686788</ele>
        <time>2024-01-27T09:36:50.719Z</time>
      </trkpt>
      <trkpt lat="43.89118" lon="8.03489">
        <ele>59.72623</ele>
        <time>2024-01-27T09:36:53.715Z</time>
      </trkpt>
      <trkpt lat="43.89113" lon="8.03476">
        <ele>59.761801</ele>
        <time>2024-01-27T09:36:56.716Z</time>
      </trkpt>
      <trkpt lat="43.89107" lon="8.03463">
        <ele>59.797736</ele>
        <time>2024-01-27T09:36:59.706Z</time>
      </trkpt>
      <trkpt lat="43.89101" lon="8.03452">
        <ele>59.829181</ele>
        <time>2024-01-27T09:37:02.696Z</time>
      </trkpt>
      <trkpt lat="43.89093" lon="8.03442">
        <ele>59.864756</ele>
        <time>2024-01-27T09:37:06.705Z</time>
      </trkpt>
      <trkpt lat="43.89085" lon="8.03434">
        <ele>59.895771</ele>
        <time>2024-01-27T09:37:10.689Z</time>
      </trkpt>
      <trkpt lat="43.89075" lon="8.03433">
        <ele>59.929297</ele>
        <time>2024-01-27T09:37:14.691Z</time>
      </trkpt>
      <trkpt lat="43.89066" lon="8.03439">
        <ele>59.960543</ele>
        <time>2024-01-27T09:37:17.696Z</time>
      </trkpt>
      <trkpt lat="43.89057" lon="8.03448">
        <ele>59.996455</ele>
        <time>2024-01-27T09:37:21.740Z</time>
      </trkpt>
      <trkpt lat="43.8905" lon="8.03459">
        <ele>59.973776</ele>
        <time>2024-01-27T09:37:24.715Z</time>
      </trkpt>
      <trkpt lat="43.89043" lon="8.0347">
        <ele>59.903992</ele>
        <time>2024-01-27T09:37:26.691Z</time>
      </trkpt>
      <trkpt lat="43.89032" lon="8.03477">
        <ele>59.819907</ele>
        <time>2024-01-27T09:37:29.691Z</time>
      </trkpt>
      <trkpt lat="43.89023" lon="8.03481">
        <ele>59.750918</ele>
        <time>2024-01-27T09:37:31.703Z</time>
      </trkpt>
      <trkpt lat="43.89013" lon="8.03486">
        <ele>59.673605</ele>
        <time>2024-01-27T09:37:33.710Z</time>
      </trkpt>
      <trkpt lat="43.89003" lon="8.03492">
        <ele>59.595053</ele>
        <time>2024-01-27T09:37:35.700Z</time>
      </trkpt>
      <trkpt lat="43.88992" lon="8.03497">
        <ele>59.516362</ele>
        <time>2024-01-27T09:37:37.711Z</time>
      </trkpt>
      <trkpt lat="43.8898" lon="8.03503">
        <ele>59.423225</ele>
        <time>2024-01-27T09:37:39.698Z</time>
      </trkpt>
      <trkpt lat="43.88967" lon="8.03506">
        <ele>59.330874</ele>
        <time>2024-01-27T09:37:41.707Z</time>
      </trkpt>
      <trkpt lat="43.88955" lon="8.03513">
        <ele>59.24159</ele>
        <time>2024-01-27T09:37:43.784Z</time>
      </trkpt>
      <trkpt lat="43.88944" lon="8.0352">
        <ele>59.154731</ele>
        <time>2024-01-27T09:37:45.705Z</time>
      </trkpt>
      <trkpt lat="43.88932" lon="8.03526">
        <ele>59.066255</ele>
        <time>2024-01-27T09:37:47.694Z</time>
      </trkpt>
      <trkpt lat="43.8892" lon="8.03531">
        <ele>58.974578</ele>
        <time>2024-01-27T09:37:49.712Z</time>
      </trkpt>
      <trkpt lat="43.88908" lon="8.03538">
        <ele>58.884429</ele>
        <time>2024-01-27T09:37:51.706Z</time>
      </trkpt>
      <trkpt lat="43.88896" lon="8.03543">
        <ele>58.799787</ele>
        <time>2024-01-27T09:37:53.720Z</time>
      </trkpt>
      <trkpt lat="43.88885" lon="8.03549">
        <ele>58.702666</ele>
        <time>2024-01-27T09:37:55.672Z</time>
      </trkpt>
      <trkpt lat="43.88873" lon="8.03554">
        <ele>58.574441</ele>
        <time>2024-01-27T09:37:57.695Z</time>
      </trkpt>
      <trkpt lat="43.88861" lon="8.0356">
        <ele>58.446978</ele>
        <time>2024-01-27T09:37:59.702Z</time>
      </trkpt>
      <trkpt lat="43.88849" lon="8.03565">
        <ele>58.318839</ele>
        <time>2024-01-27T09:38:01.702Z</time>
      </trkpt>
      <trkpt lat="43.88837" lon="8.0357">
        <ele>58.19029</ele>
        <time>2024-01-27T09:38:03.684Z</time>
      </trkpt>
      <trkpt lat="43.88826" lon="8.03575">
        <ele>58.06836</ele>
        <time>2024-01-27T09:38:05.704Z</time>
      </trkpt>
      <trkpt lat="43.88814" lon="8.0358">
        <ele>57.942518</ele>
        <time>2024-01-27T09:38:07.706Z</time>
      </trkpt>
      <trkpt lat="43.88803" lon="8.03586">
        <ele>57.821791</ele>
        <time>2024-01-27T09:38:09.703Z</time>
      </trkpt>
      <trkpt lat="43.88792" lon="8.03591">
        <ele>57.702503</ele>
        <time>2024-01-27T09:38:11.707Z</time>
      </trkpt>
      <trkpt lat="43.88783" lon="8.03594">
        <ele>57.609248</ele>
        <time>2024-01-27T09:38:13.733Z</time>
      </trkpt>
      <trkpt lat="43.88777" lon="8.03581">
        <ele>57.494798</ele>
        <time>2024-01-27T09:38:16.721Z</time>
      </trkpt>
      <trkpt lat="43.88773" lon="8.03566">
        <ele>57.383602</ele>
        <time>2024-01-27T09:38:19.703Z</time>
      </trkpt>
      <trkpt lat="43.8877" lon="8.03553">
        <ele>57.275881</ele>
        <time>2024-01-27T09:38:22.690Z</time>
      </trkpt>
      <trkpt lat="43.88766" lon="8.03538">
        <ele>57.159898</ele>
        <time>2024-01-27T09:38:25.714Z</time>
      </trkpt>
      <trkpt lat="43.88761" lon="8.03526">
        <ele>57.063055</ele>
        <time>2024-01-27T09:38:28.683Z</time>
      </trkpt>
      <trkpt lat="43.88757" lon="8.0351">
        <ele>56.939807</ele>
        <time>2024-01-27T09:38:32.685Z</time>
      </trkpt>
      <trkpt lat="43.88753" lon="8.03497">
        <ele>56.869167</ele>
        <time>2024-01-27T09:38:35.720Z</time>
      </trkpt>
      <trkpt lat="43.88748" lon="8.03483">
        <ele>56.809917</ele>
        <time>2024-01-27T09:38:38.699Z</time>
      </trkpt>
      <trkpt lat="43.88744" lon="8.0347">
        <ele>56.753181</ele>
        <time>2024-01-27T09:38:41.700Z</time>
      </trkpt>
      <trkpt lat="43.88734" lon="8.03462">
        <ele>56.691922</ele>
        <time>2024-01-27T09:38:46.703Z</time>
      </trkpt>
      <trkpt lat="43.88727" lon="8.03449">
        <ele>56.628132</ele>
        <time>2024-01-27T09:38:50.689Z</time>
      </trkpt>
      <trkpt lat="43.88724" lon="8.03436">
        <ele>56.576102</ele>
        <time>2024-01-27T09:38:53.687Z</time>
      </trkpt>
      <trkpt lat="43.88721" lon="8.03424">
        <ele>56.525166</ele>
        <time>2024-01-27T09:38:56.709Z</time>
      </trkpt>
      <trkpt lat="43.88717" lon="8.03412">
        <ele>56.474964</ele>
        <time>2024-01-27T09:38:59.701Z</time>
      </trkpt>
      <trkpt lat="43.88721" lon="8.03399">
        <ele>56.419546</ele>
        <time>2024-01-27T09:39:09.695Z</time>
      </trkpt>
      <trkpt lat="43.88726" lon="8.03387">
        <ele>56.363399</ele>
        <time>2024-01-27T09:39:14.679Z</time>
      </trkpt>
      <trkpt lat="43.88723" lon="8.03372">
        <ele>56.305002</ele>
        <time>2024-01-27T09:39:17.690Z</time>
      </trkpt>
      <trkpt lat="43.88719" lon="8.03357">
        <ele>56.240125</ele>
        <time>2024-01-27T09:39:20.705Z</time>
      </trkpt>
      <trkpt lat="43.88714" lon="8.03342">
        <ele>56.176235</ele>
        <time>2024-01-27T09:39:23.704Z</time>
      </trkpt>
      <trkpt lat="43.88712" lon="8.03325">
        <ele>56.107081</ele>
        <time>2024-01-27T09:39:26.683Z</time>
      </trkpt>
      <trkpt lat="43.88708" lon="8.03308">
        <ele>56.037357</ele>
        <time>2024-01-27T09:39:29.678Z</time>
      </trkpt>
      <trkpt lat="43.88703" lon="8.03292">
        <ele>55.967798</ele>
        <time>2024-01-27T09:39:32.700Z</time>
      </trkpt>
      <trkpt lat="43.88699" lon="8.03275">
        <ele>55.931785</ele>
        <time>2024-01-27T09:39:35.706Z</time>
      </trkpt>
      <trkpt lat="43.88694" lon="8.03258">
        <ele>55.940966</ele>
        <time>2024-01-27T09:39:38.697Z</time>
      </trkpt>
      <trkpt lat="43.88691" lon="8.03246">
        <ele>55.94732</ele>
        <time>2024-01-27T09:39:40.685Z</time>
      </trkpt>
      <trkpt lat="43.88689" lon="8.03233">
        <ele>55.953701</ele>
        <time>2024-01-27T09:39:42.689Z</time>
      </trkpt>
      <trkpt lat="43.88685" lon="8.03221">
        <ele>55.960169</ele>
        <time>2024-01-27T09:39:44.693Z</time>
      </trkpt>
      <trkpt lat="43.88681" lon="8.0321">
        <ele>55.966581</ele>
        <time>2024-01-27T09:39:46.693Z</time>
      </trkpt>
      <trkpt lat="43.88675" lon="8.03199">
        <ele>55.972997</ele>
        <time>2024-01-27T09:39:48.684Z</time>
      </trkpt>
      <trkpt lat="43.88669" lon="8.03183">
        <ele>55.982172</ele>
        <time>2024-01-27T09:39:51.720Z</time>
      </trkpt>
      <trkpt lat="43.88665" lon="8.03171">
        <ele>55.988455</ele>
        <time>2024-01-27T09:39:53.704Z</time>
      </trkpt>
      <trkpt lat="43.88661" lon="8.0316">
        <ele>55.994976</ele>
        <time>2024-01-27T09:39:55.700Z</time>
      </trkpt>
      <trkpt lat="43.88655" lon="8.03148">
        <ele>56.001679</ele>
        <time>2024-01-27T09:39:57.706Z</time>
      </trkpt>
      <trkpt lat="43.88651" lon="8.03136">
        <ele>56.00857</ele>
        <time>2024-01-27T09:39:59.695Z</time>
      </trkpt>
      <trkpt lat="43.88646" lon="8.03124">
        <ele>56.015446</ele>
        <time>2024-01-27T09:40:01.700Z</time>
      </trkpt>
      <trkpt lat="43.8864" lon="8.03112">
        <ele>56.022527</ele>
        <time>2024-01-27T09:40:03.681Z</time>
      </trkpt>
      <trkpt lat="43.88636" lon="8.03099">
        <ele>56.029406</ele>
        <time>2024-01-27T09:40:05.686Z</time>
      </trkpt>
      <trkpt lat="43.8863" lon="8.03087">
        <ele>56.03635</ele>
        <time>2024-01-27T09:40:07.711Z</time>
      </trkpt>
      <trkpt lat="43.88625" lon="8.03075">
        <ele>56.043455</ele>
        <time>2024-01-27T09:40:09.700Z</time>
      </trkpt>
      <trkpt lat="43.8862" lon="8.03064">
        <ele>56.049839</ele>
        <time>2024-01-27T09:40:11.678Z</time>
      </trkpt>
      <trkpt lat="43.88613" lon="8.03049">
        <ele>56.130977</ele>
        <time>2024-01-27T09:40:14.676Z</time>
      </trkpt>
      <trkpt lat="43.88607" lon="8.03039">
        <ele>56.19978</ele>
        <time>2024-01-27T09:40:16.708Z</time>
      </trkpt>
      <trkpt lat="43.886" lon="8.03026">
        <ele>56.29252</ele>
        <time>2024-01-27T09:40:19.708Z</time>
      </trkpt>
      <trkpt lat="43.88593" lon="8.03011">
        <ele>56.388432</ele>
        <time>2024-01-27T09:40:22.702Z</time>
      </trkpt>
      <trkpt lat="43.88587" lon="8.02997">
        <ele>56.480178</ele>
        <time>2024-01-27T09:40:25.695Z</time>
      </trkpt>
      <trkpt lat="43.88581" lon="8.02983">
        <ele>56.569527</ele>
        <time>2024-01-27T09:40:28.694Z</time>
      </trkpt>
      <trkpt lat="43.88574" lon="8.02969">
        <ele>56.657036</ele>
        <time>2024-01-27T09:40:31.695Z</time>
      </trkpt>
      <trkpt lat="43.88568" lon="8.02957">
        <ele>56.741389</ele>
        <time>2024-01-27T09:40:34.765Z</time>
      </trkpt>
      <trkpt lat="43.88561" lon="8.02944">
        <ele>56.829301</ele>
        <time>2024-01-27T09:40:37.701Z</time>
      </trkpt>
      <trkpt lat="43.88555" lon="8.02932">
        <ele>56.907954</ele>
        <time>2024-01-27T09:40:40.701Z</time>
      </trkpt>
      <trkpt lat="43.88548" lon="8.02923">
        <ele>56.981343</ele>
        <time>2024-01-27T09:40:43.683Z</time>
      </trkpt>
      <trkpt lat="43.8854" lon="8.02913">
        <ele>57.062695</ele>
        <time>2024-01-27T09:40:46.718Z</time>
      </trkpt>
      <trkpt lat="43.88533" lon="8.02903">
        <ele>57.136709</ele>
        <time>2024-01-27T09:40:49.704Z</time>
      </trkpt>
      <trkpt lat="43.88528" lon="8.02893">
        <ele>57.207264</ele>
        <time>2024-01-27T09:40:53.679Z</time>
      </trkpt>
      <trkpt lat="43.88518" lon="8.02893">
        <ele>57.277851</ele>
        <time>2024-01-27T09:41:01.729Z</time>
      </trkpt>
      <trkpt lat="43.8851" lon="8.02881">
        <ele>57.366461</ele>
        <time>2024-01-27T09:41:05.691Z</time>
      </trkpt>
      <trkpt lat="43.88505" lon="8.0287">
        <ele>57.370338</ele>
        <time>2024-01-27T09:41:08.775Z</time>
      </trkpt>
      <trkpt lat="43.88499" lon="8.02857">
        <ele>57.210304</ele>
        <time>2024-01-27T09:41:11.704Z</time>
      </trkpt>
      <trkpt lat="43.88493" lon="8.02847">
        <ele>57.076883</ele>
        <time>2024-01-27T09:41:13.716Z</time>
      </trkpt>
      <trkpt lat="43.88485" lon="8.02835">
        <ele>56.908714</ele>
        <time>2024-01-27T09:41:16.674Z</time>
      </trkpt>
      <trkpt lat="43.88479" lon="8.02824">
        <ele>56.768683</ele>
        <time>2024-01-27T09:41:19.718Z</time>
      </trkpt>
      <trkpt lat="43.88472" lon="8.02811">
        <ele>56.602588</ele>
        <time>2024-01-27T09:41:22.705Z</time>
      </trkpt>
      <trkpt lat="43.88462" lon="8.028">
        <ele>56.422866</ele>
        <time>2024-01-27T09:41:25.678Z</time>
      </trkpt>
      <trkpt lat="43.88455" lon="8.02792">
        <ele>56.295035</ele>
        <time>2024-01-27T09:41:27.688Z</time>
      </trkpt>
      <trkpt lat="43.88445" lon="8.0278">
        <ele>56.102869</ele>
        <time>2024-01-27T09:41:30.700Z</time>
      </trkpt>
      <trkpt lat="43.88438" lon="8.02771">
        <ele>55.967769</ele>
        <time>2024-01-27T09:41:32.713Z</time>
      </trkpt>
      <trkpt lat="43.88431" lon="8.02762">
        <ele>55.83513</ele>
        <time>2024-01-27T09:41:34.707Z</time>
      </trkpt>
      <trkpt lat="43.88424" lon="8.02753">
        <ele>55.699086</ele>
        <time>2024-01-27T09:41:36.711Z</time>
      </trkpt>
      <trkpt lat="43.88418" lon="8.02744">
        <ele>55.568973</ele>
        <time>2024-01-27T09:41:38.693Z</time>
      </trkpt>
      <trkpt lat="43.88411" lon="8.02736">
        <ele>55.435715</ele>
        <time>2024-01-27T09:41:40.711Z</time>
      </trkpt>
      <trkpt lat="43.88404" lon="8.02727">
        <ele>55.30136</ele>
        <time>2024-01-27T09:41:42.710Z</time>
      </trkpt>
      <trkpt lat="43.88397" lon="8.02718">
        <ele>55.166013</ele>
        <time>2024-01-27T09:41:44.695Z</time>
      </trkpt>
      <trkpt lat="43.8839" lon="8.02709">
        <ele>55.026823</ele>
        <time>2024-01-27T09:41:46.702Z</time>
      </trkpt>
      <trkpt lat="43.88383" lon="8.027">
        <ele>54.894965</ele>
        <time>2024-01-27T09:41:48.695Z</time>
      </trkpt>
      <trkpt lat="43.88376" lon="8.02691">
        <ele>54.814686</ele>
        <time>2024-01-27T09:41:50.708Z</time>
      </trkpt>
      <trkpt lat="43.88369" lon="8.02682">
        <ele>54.759105</ele>
        <time>2024-01-27T09:41:52.701Z</time>
      </trkpt>
      <trkpt lat="43.88362" lon="8.02672">
        <ele>54.702379</ele>
        <time>2024-01-27T09:41:54.711Z</time>
      </trkpt>
      <trkpt lat="43.88355" lon="8.02663">
        <ele>54.644349</ele>
        <time>2024-01-27T09:41:56.711Z</time>
      </trkpt>
      <trkpt lat="43.88348" lon="8.02654">
        <ele>54.587755</ele>
        <time>2024-01-27T09:41:58.701Z</time>
      </trkpt>
      <trkpt lat="43.88342" lon="8.02645">
        <ele>54.533477</ele>
        <time>2024-01-27T09:42:00.695Z</time>
      </trkpt>
      <trkpt lat="43.88334" lon="8.02636">
        <ele>54.477137</ele>
        <time>2024-01-27T09:42:02.695Z</time>
      </trkpt>
      <trkpt lat="43.88327" lon="8.02627">
        <ele>54.420558</ele>
        <time>2024-01-27T09:42:04.692Z</time>
      </trkpt>
      <trkpt lat="43.8832" lon="8.02618">
        <ele>54.364548</ele>
        <time>2024-01-27T09:42:06.715Z</time>
      </trkpt>
      <trkpt lat="43.88313" lon="8.02609">
        <ele>54.305932</ele>
        <time>2024-01-27T09:42:08.693Z</time>
      </trkpt>
      <trkpt lat="43.88305" lon="8.02601">
        <ele>54.247777</ele>
        <time>2024-01-27T09:42:10.692Z</time>
      </trkpt>
      <trkpt lat="43.88296" lon="8.02593">
        <ele>54.188018</ele>
        <time>2024-01-27T09:42:12.704Z</time>
      </trkpt>
      <trkpt lat="43.88287" lon="8.02585">
        <ele>54.121845</ele>
        <time>2024-01-27T09:42:14.699Z</time>
      </trkpt>
      <trkpt lat="43.88278" lon="8.02576">
        <ele>54.058273</ele>
        <time>2024-01-27T09:42:16.695Z</time>
      </trkpt>
      <trkpt lat="43.88271" lon="8.02566">
        <ele>53.995644</ele>
        <time>2024-01-27T09:42:18.715Z</time>
      </trkpt>
      <trkpt lat="43.88263" lon="8.02555">
        <ele>53.932001</ele>
        <time>2024-01-27T09:42:20.713Z</time>
      </trkpt>
      <trkpt lat="43.88255" lon="8.02545">
        <ele>53.868814</ele>
        <time>2024-01-27T09:42:22.699Z</time>
      </trkpt>
      <trkpt lat="43.88248" lon="8.02534">
        <ele>53.806432</ele>
        <time>2024-01-27T09:42:24.705Z</time>
      </trkpt>
      <trkpt lat="43.88241" lon="8.02523">
        <ele>53.811893</ele>
        <time>2024-01-27T09:42:26.704Z</time>
      </trkpt>
      <trkpt lat="43.88234" lon="8.02513">
        <ele>53.833479</ele>
        <time>2024-01-27T09:42:28.690Z</time>
      </trkpt>
      <trkpt lat="43.88227" lon="8.02503">
        <ele>53.854338</ele>
        <time>2024-01-27T09:42:30.715Z</time>
      </trkpt>
      <trkpt lat="43.8822" lon="8.02492">
        <ele>53.876029</ele>
        <time>2024-01-27T09:42:32.714Z</time>
      </trkpt>
      <trkpt lat="43.88213" lon="8.02482">
        <ele>53.896961</ele>
        <time>2024-01-27T09:42:34.704Z</time>
      </trkpt>
      <trkpt lat="43.88206" lon="8.02473">
        <ele>53.917098</ele>
        <time>2024-01-27T09:42:36.704Z</time>
      </trkpt>
      <trkpt lat="43.88199" lon="8.02463">
        <ele>53.936806</ele>
        <time>2024-01-27T09:42:38.692Z</time>
      </trkpt>
      <trkpt lat="43.88193" lon="8.02454">
        <ele>53.956222</ele>
        <time>2024-01-27T09:42:40.696Z</time>
      </trkpt>
      <trkpt lat="43.88186" lon="8.02445">
        <ele>53.975615</ele>
        <time>2024-01-27T09:42:42.718Z</time>
      </trkpt>
      <trkpt lat="43.8818" lon="8.02435">
        <ele>53.99548</ele>
        <time>2024-01-27T09:42:44.711Z</time>
      </trkpt>
      <trkpt lat="43.88173" lon="8.02425">
        <ele>54.01497</ele>
        <time>2024-01-27T09:42:46.703Z</time>
      </trkpt>
      <trkpt lat="43.88167" lon="8.02416">
        <ele>54.03457</ele>
        <time>2024-01-27T09:42:48.704Z</time>
      </trkpt>
      <trkpt lat="43.8816" lon="8.02407">
        <ele>54.054068</ele>
        <time>2024-01-27T09:42:50.687Z</time>
      </trkpt>
      <trkpt lat="43.88154" lon="8.02397">
        <ele>54.073838</ele>
        <time>2024-01-27T09:42:52.695Z</time>
      </trkpt>
      <trkpt lat="43.88148" lon="8.02388">
        <ele>54.093293</ele>
        <time>2024-01-27T09:42:54.696Z</time>
      </trkpt>
      <trkpt lat="43.88141" lon="8.02378">
        <ele>54.113322</ele>
        <time>2024-01-27T09:42:56.692Z</time>
      </trkpt>
      <trkpt lat="43.88134" lon="8.02368">
        <ele>54.133064</ele>
        <time>2024-01-27T09:42:58.701Z</time>
      </trkpt>
      <trkpt lat="43.88128" lon="8.02358">
        <ele>54.15367</ele>
        <time>2024-01-27T09:43:00.703Z</time>
      </trkpt>
      <trkpt lat="43.88121" lon="8.02348">
        <ele>54.166712</ele>
        <time>2024-01-27T09:43:02.701Z</time>
      </trkpt>
      <trkpt lat="43.88115" lon="8.02338">
        <ele>54.161106</ele>
        <time>2024-01-27T09:43:04.676Z</time>
      </trkpt>
      <trkpt lat="43.88108" lon="8.02328">
        <ele>54.155436</ele>
        <time>2024-01-27T09:43:06.748Z</time>
      </trkpt>
      <trkpt lat="43.88101" lon="8.02318">
        <ele>54.149635</ele>
        <time>2024-01-27T09:43:08.673Z</time>
      </trkpt>
      <trkpt lat="43.88095" lon="8.02308">
        <ele>54.144122</ele>
        <time>2024-01-27T09:43:10.707Z</time>
      </trkpt>
      <trkpt lat="43.88088" lon="8.02299">
        <ele>54.138664</ele>
        <time>2024-01-27T09:43:12.704Z</time>
      </trkpt>
      <trkpt lat="43.88082" lon="8.02289">
        <ele>54.133105</ele>
        <time>2024-01-27T09:43:14.705Z</time>
      </trkpt>
      <trkpt lat="43.88075" lon="8.02279">
        <ele>54.127452</ele>
        <time>2024-01-27T09:43:16.710Z</time>
      </trkpt>
      <trkpt lat="43.88069" lon="8.0227">
        <ele>54.122075</ele>
        <time>2024-01-27T09:43:18.709Z</time>
      </trkpt>
      <trkpt lat="43.88063" lon="8.02261">
        <ele>54.116757</ele>
        <time>2024-01-27T09:43:20.711Z</time>
      </trkpt>
      <trkpt lat="43.88056" lon="8.02252">
        <ele>54.111501</ele>
        <time>2024-01-27T09:43:22.700Z</time>
      </trkpt>
      <trkpt lat="43.88047" lon="8.02239">
        <ele>54.103734</ele>
        <time>2024-01-27T09:43:25.693Z</time>
      </trkpt>
      <trkpt lat="43.8804" lon="8.02231">
        <ele>54.098452</ele>
        <time>2024-01-27T09:43:27.673Z</time>
      </trkpt>
      <trkpt lat="43.88032" lon="8.02223">
        <ele>54.093106</ele>
        <time>2024-01-27T09:43:29.707Z</time>
      </trkpt>
      <trkpt lat="43.88022" lon="8.02212">
        <ele>54.08555</ele>
        <time>2024-01-27T09:43:32.692Z</time>
      </trkpt>
      <trkpt lat="43.88015" lon="8.02201">
        <ele>54.079164</ele>
        <time>2024-01-27T09:43:35.707Z</time>
      </trkpt>
      <trkpt lat="43.88011" lon="8.0219">
        <ele>54.073804</ele>
        <time>2024-01-27T09:43:38.694Z</time>
      </trkpt>
      <trkpt lat="43.88015" lon="8.02178">
        <ele>54.068355</ele>
        <time>2024-01-27T09:43:41.702Z</time>
      </trkpt>
      <trkpt lat="43.88019" lon="8.02165">
        <ele>54.069057</ele>
        <time>2024-01-27T09:43:44.673Z</time>
      </trkpt>
      <trkpt lat="43.88023" lon="8.02152">
        <ele>54.100138</ele>
        <time>2024-01-27T09:43:47.695Z</time>
      </trkpt>
      <trkpt lat="43.88026" lon="8.02137">
        <ele>54.133656</ele>
        <time>2024-01-27T09:43:50.684Z</time>
      </trkpt>
      <trkpt lat="43.88028" lon="8.02121">
        <ele>54.168775</ele>
        <time>2024-01-27T09:43:53.675Z</time>
      </trkpt>
      <trkpt lat="43.8803" lon="8.02106">
        <ele>54.202871</ele>
        <time>2024-01-27T09:43:56.680Z</time>
      </trkpt>
      <trkpt lat="43.88031" lon="8.02089">
        <ele>54.239815</ele>
        <time>2024-01-27T09:43:59.676Z</time>
      </trkpt>
      <trkpt lat="43.8803" lon="8.02071">
        <ele>54.279062</ele>
        <time>2024-01-27T09:44:02.693Z</time>
      </trkpt>
      <trkpt lat="43.88031" lon="8.02053">
        <ele>54.318541</ele>
        <time>2024-01-27T09:44:05.690Z</time>
      </trkpt>
      <trkpt lat="43.88031" lon="8.02036">
        <ele>54.355187</ele>
        <time>2024-01-27T09:44:08.700Z</time>
      </trkpt>
      <trkpt lat="43.88031" lon="8.02019">
        <ele>54.393559</ele>
        <time>2024-01-27T09:44:11.700Z</time>
      </trkpt>
      <trkpt lat="43.88031" lon="8.02001">
        <ele>54.432812</ele>
        <time>2024-01-27T09:44:14.695Z</time>
      </trkpt>
      <trkpt lat="43.8803" lon="8.01983">
        <ele>54.471632</ele>
        <time>2024-01-27T09:44:17.708Z</time>
      </trkpt>
      <trkpt lat="43.8803" lon="8.01969">
        <ele>54.501756</ele>
        <time>2024-01-27T09:44:20.696Z</time>
      </trkpt>
      <trkpt lat="43.88028" lon="8.01954">
        <ele>54.535829</ele>
        <time>2024-01-27T09:44:24.681Z</time>
      </trkpt>
      <trkpt lat="43.88025" lon="8.01941">
        <ele>54.565497</ele>
        <time>2024-01-27T09:44:28.687Z</time>
      </trkpt>
      <trkpt lat="43.88023" lon="8.01927">
        <ele>54.596246</ele>
        <time>2024-01-27T09:44:33.697Z</time>
      </trkpt>
      <trkpt lat="43.88016" lon="8.01917">
        <ele>54.743759</ele>
        <time>2024-01-27T09:44:37.694Z</time>
      </trkpt>
      <trkpt lat="43.88006" lon="8.01916">
        <ele>54.977703</ele>
        <time>2024-01-27T09:44:43.683Z</time>
      </trkpt>
      <trkpt lat="43.87998" lon="8.01912">
        <ele>55.188293</ele>
        <time>2024-01-27T09:44:46.683Z</time>
      </trkpt>
      <trkpt lat="43.87988" lon="8.01906">
        <ele>55.43192</ele>
        <time>2024-01-27T09:44:49.712Z</time>
      </trkpt>
      <trkpt lat="43.87977" lon="8.01902">
        <ele>55.696403</ele>
        <time>2024-01-27T09:44:52.697Z</time>
      </trkpt>
      <trkpt lat="43.87966" lon="8.01897">
        <ele>55.970261</ele>
        <time>2024-01-27T09:44:55.696Z</time>
      </trkpt>
      <trkpt lat="43.87956" lon="8.01887">
        <ele>56.249499</ele>
        <time>2024-01-27T09:44:58.688Z</time>
      </trkpt>
      <trkpt lat="43.87952" lon="8.0187">
        <ele>56.550184</ele>
        <time>2024-01-27T09:45:01.711Z</time>
      </trkpt>
      <trkpt lat="43.87956" lon="8.01854">
        <ele>56.83282</ele>
        <time>2024-01-27T09:45:04.686Z</time>
      </trkpt>
      <trkpt lat="43.87961" lon="8.0184">
        <ele>57.095997</ele>
        <time>2024-01-27T09:45:08.693Z</time>
      </trkpt>
      <trkpt lat="43.87964" lon="8.01826">
        <ele>57.342222</ele>
        <time>2024-01-27T09:45:12.709Z</time>
      </trkpt>
      <trkpt lat="43.8796" lon="8.01811">
        <ele>57.618593</ele>
        <time>2024-01-27T09:45:16.680Z</time>
      </trkpt>
      <trkpt lat="43.87953" lon="8.01801">
        <ele>57.852063</ele>
        <time>2024-01-27T09:45:19.705Z</time>
      </trkpt>
      <trkpt lat="43.87945" lon="8.01792">
        <ele>58.081896</ele>
        <time>2024-01-27T09:45:22.694Z</time>
      </trkpt>
      <trkpt lat="43.87938" lon="8.01785">
        <ele>58.294526</ele>
        <time>2024-01-27T09:45:25.689Z</time>
      </trkpt>
      <trkpt lat="43.8793" lon="8.01777">
        <ele>58.527859</ele>
        <time>2024-01-27T09:45:28.716Z</time>
      </trkpt>
      <trkpt lat="43.87921" lon="8.01769">
        <ele>58.762331</ele>
        <time>2024-01-27T09:45:31.708Z</time>
      </trkpt>
      <trkpt lat="43.87913" lon="8.01762">
        <ele>59.136461</ele>
        <time>2024-01-27T09:45:34.694Z</time>
      </trkpt>
      <trkpt lat="43.87906" lon="8.01755">
        <ele>59.521775</ele>
        <time>2024-01-27T09:45:37.672Z</time>
      </trkpt>
      <trkpt lat="43.87897" lon="8.01746">
        <ele>59.948189</ele>
        <time>2024-01-27T09:45:40.695Z</time>
      </trkpt>
      <trkpt lat="43.87889" lon="8.01738">
        <ele>60.365999</ele>
        <time>2024-01-27T09:45:43.697Z</time>
      </trkpt>
      <trkpt lat="43.87881" lon="8.01731">
        <ele>60.754684</ele>
        <time>2024-01-27T09:45:46.693Z</time>
      </trkpt>
      <trkpt lat="43.87872" lon="8.01725">
        <ele>61.177211</ele>
        <time>2024-01-27T09:45:49.694Z</time>
      </trkpt>
      <trkpt lat="43.87864" lon="8.01717">
        <ele>61.597043</ele>
        <time>2024-01-27T09:45:52.671Z</time>
      </trkpt>
      <trkpt lat="43.87856" lon="8.0171">
        <ele>62.002907</ele>
        <time>2024-01-27T09:45:55.692Z</time>
      </trkpt>
      <trkpt lat="43.87846" lon="8.01702">
        <ele>62.490626</ele>
        <time>2024-01-27T09:45:59.677Z</time>
      </trkpt>
      <trkpt lat="43.87837" lon="8.01692">
        <ele>62.952556</ele>
        <time>2024-01-27T09:46:03.697Z</time>
      </trkpt>
      <trkpt lat="43.87828" lon="8.01684">
        <ele>63.392635</ele>
        <time>2024-01-27T09:46:07.706Z</time>
      </trkpt>
      <trkpt lat="43.8782" lon="8.01674">
        <ele>63.840559</ele>
        <time>2024-01-27T09:46:11.689Z</time>
      </trkpt>
      <trkpt lat="43.87811" lon="8.01665">
        <ele>64.299455</ele>
        <time>2024-01-27T09:46:15.700Z</time>
      </trkpt>
      <trkpt lat="43.87802" lon="8.01659">
        <ele>64.733459</ele>
        <time>2024-01-27T09:46:19.675Z</time>
      </trkpt>
      <trkpt lat="43.87794" lon="8.01649">
        <ele>65.156981</ele>
        <time>2024-01-27T09:46:23.699Z</time>
      </trkpt>
      <trkpt lat="43.87783" lon="8.01648">
        <ele>65.60463</ele>
        <time>2024-01-27T09:46:27.701Z</time>
      </trkpt>
      <trkpt lat="43.87773" lon="8.01645">
        <ele>66.041141</ele>
        <time>2024-01-27T09:46:31.705Z</time>
      </trkpt>
      <trkpt lat="43.87763" lon="8.01643">
        <ele>66.504491</ele>
        <time>2024-01-27T09:46:35.695Z</time>
      </trkpt>
      <trkpt lat="43.87752" lon="8.01643">
        <ele>67.053932</ele>
        <time>2024-01-27T09:46:39.695Z</time>
      </trkpt>
      <trkpt lat="43.87742" lon="8.01644">
        <ele>67.593258</ele>
        <time>2024-01-27T09:46:43.684Z</time>
      </trkpt>
      <trkpt lat="43.87732" lon="8.01644">
        <ele>68.122228</ele>
        <time>2024-01-27T09:46:47.695Z</time>
      </trkpt>
      <trkpt lat="43.87721" lon="8.01642">
        <ele>68.659909</ele>
        <time>2024-01-27T09:46:51.688Z</time>
      </trkpt>
      <trkpt lat="43.87711" lon="8.01641">
        <ele>69.195447</ele>
        <time>2024-01-27T09:46:55.703Z</time>
      </trkpt>
      <trkpt lat="43.877" lon="8.01642">
        <ele>69.745449</ele>
        <time>2024-01-27T09:46:59.705Z</time>
      </trkpt>
      <trkpt lat="43.8769" lon="8.01642">
        <ele>70.284686</ele>
        <time>2024-01-27T09:47:03.681Z</time>
      </trkpt>
      <trkpt lat="43.87679" lon="8.01646">
        <ele>70.834161</ele>
        <time>2024-01-27T09:47:07.698Z</time>
      </trkpt>
      <trkpt lat="43.87671" lon="8.01652">
        <ele>71.331379</ele>
        <time>2024-01-27T09:47:11.707Z</time>
      </trkpt>
      <trkpt lat="43.87662" lon="8.01659">
        <ele>71.850988</ele>
        <time>2024-01-27T09:47:15.704Z</time>
      </trkpt>
      <trkpt lat="43.87653" lon="8.01667">
        <ele>72.388899</ele>
        <time>2024-01-27T09:47:19.688Z</time>
      </trkpt>
      <trkpt lat="43.87644" lon="8.01676">
        <ele>72.95012</ele>
        <time>2024-01-27T09:47:23.695Z</time>
      </trkpt>
      <trkpt lat="43.87635" lon="8.01681">
        <ele>73.484835</ele>
        <time>2024-01-27T09:47:28.704Z</time>
      </trkpt>
      <trkpt lat="43.87625" lon="8.01681">
        <ele>73.993635</ele>
        <time>2024-01-27T09:47:32.686Z</time>
      </trkpt>
      <trkpt lat="43.87616" lon="8.01685">
        <ele>74.465568</ele>
        <time>2024-01-27T09:47:36.695Z</time>
      </trkpt>
      <trkpt lat="43.87608" lon="8.01694">
        <ele>74.978894</ele>
        <time>2024-01-27T09:47:43.689Z</time>
      </trkpt>
      <trkpt lat="43.87599" lon="8.01703">
        <ele>75.525036</ele>
        <time>2024-01-27T09:47:48.683Z</time>
      </trkpt>
      <trkpt lat="43.8759" lon="8.01712">
        <ele>75.513009</ele>
        <time>2024-01-27T09:47:52.716Z</time>
      </trkpt>
      <trkpt lat="43.87582" lon="8.01719">
        <ele>75.503</ele>
        <time>2024-01-27T09:47:55.702Z</time>
      </trkpt>
      <trkpt lat="43.87573" lon="8.01728">
        <ele>75.491963</ele>
        <time>2024-01-27T09:47:58.706Z</time>
      </trkpt>
      <trkpt lat="43.87564" lon="8.01737">
        <ele>75.480068</ele>
        <time>2024-01-27T09:48:01.715Z</time>
      </trkpt>
      <trkpt lat="43.87554" lon="8.01747">
        <ele>75.466708</ele>
        <time>2024-01-27T09:48:04.690Z</time>
      </trkpt>
      <trkpt lat="43.87545" lon="8.01756">
        <ele>75.455582</ele>
        <time>2024-01-27T09:48:07.686Z</time>
      </trkpt>
      <trkpt lat="43.87536" lon="8.01764">
        <ele>75.444288</ele>
        <time>2024-01-27T09:48:10.700Z</time>
      </trkpt>
      <trkpt lat="43.87526" lon="8.01771">
        <ele>75.432427</ele>
        <time>2024-01-27T09:48:13.698Z</time>
      </trkpt>
      <trkpt lat="43.87514" lon="8.01775">
        <ele>75.419346</ele>
        <time>2024-01-27T09:48:16.684Z</time>
      </trkpt>
      <trkpt lat="43.87501" lon="8.01776">
        <ele>75.406244</ele>
        <time>2024-01-27T09:48:19.700Z</time>
      </trkpt>
      <trkpt lat="43.87489" lon="8.01776">
        <ele>75.394007</ele>
        <time>2024-01-27T09:48:22.697Z</time>
      </trkpt>
      <trkpt lat="43.87479" lon="8.01777">
        <ele>75.383135</ele>
        <time>2024-01-27T09:48:25.696Z</time>
      </trkpt>
      <trkpt lat="43.87469" lon="8.01777">
        <ele>75.372565</ele>
        <time>2024-01-27T09:48:28.701Z</time>
      </trkpt>
      <trkpt lat="43.87459" lon="8.01776">
        <ele>75.362251</ele>
        <time>2024-01-27T09:48:31.710Z</time>
      </trkpt>
      <trkpt lat="43.87451" lon="8.01769">
        <ele>75.352033</ele>
        <time>2024-01-27T09:48:34.677Z</time>
      </trkpt>
      <trkpt lat="43.87442" lon="8.01761">
        <ele>75.34164</ele>
        <time>2024-01-27T09:48:37.707Z</time>
      </trkpt>
      <trkpt lat="43.87435" lon="8.01754">
        <ele>75.196714</ele>
        <time>2024-01-27T09:48:40.695Z</time>
      </trkpt>
      <trkpt lat="43.87425" lon="8.01745">
        <ele>74.902666</ele>
        <time>2024-01-27T09:48:44.707Z</time>
      </trkpt>
      <trkpt lat="43.87414" lon="8.01737">
        <ele>74.593396</ele>
        <time>2024-01-27T09:48:48.696Z</time>
      </trkpt>
      <trkpt lat="43.87407" lon="8.01731">
        <ele>74.359235</ele>
        <time>2024-01-27T09:48:51.691Z</time>
      </trkpt>
      <trkpt lat="43.87397" lon="8.01721">
        <ele>74.052774</ele>
        <time>2024-01-27T09:48:55.692Z</time>
      </trkpt>
      <trkpt lat="43.87388" lon="8.01712">
        <ele>73.763093</ele>
        <time>2024-01-27T09:48:59.692Z</time>
      </trkpt>
      <trkpt lat="43.8738" lon="8.01702">
        <ele>73.505937</ele>
        <time>2024-01-27T09:49:04.691Z</time>
      </trkpt>
      <trkpt lat="43.87373" lon="8.01709">
        <ele>73.276305</ele>
        <time>2024-01-27T09:49:27.680Z</time>
      </trkpt>
      <trkpt lat="43.87362" lon="8.01703">
        <ele>72.979819</ele>
        <time>2024-01-27T09:49:32.698Z</time>
      </trkpt>
      <trkpt lat="43.87353" lon="8.017">
        <ele>72.725509</ele>
        <time>2024-01-27T09:49:36.716Z</time>
      </trkpt>
      <trkpt lat="43.87346" lon="8.0169">
        <ele>72.473985</ele>
        <time>2024-01-27T09:49:41.674Z</time>
      </trkpt>
      <trkpt lat="43.87336" lon="8.01676">
        <ele>72.107226</ele>
        <time>2024-01-27T09:54:19.687Z</time>
      </trkpt>
      <trkpt lat="43.87328" lon="8.01666">
        <ele>71.839718</ele>
        <time>2024-01-27T09:54:24.679Z</time>
      </trkpt>
      <trkpt lat="43.87319" lon="8.01657">
        <ele>71.564731</ele>
        <time>2024-01-27T09:54:28.667Z</time>
      </trkpt>
      <trkpt lat="43.87312" lon="8.01645">
        <ele>71.256722</ele>
        <time>2024-01-27T09:54:32.691Z</time>
      </trkpt>
      <trkpt lat="43.87305" lon="8.01632">
        <ele>70.965421</ele>
        <time>2024-01-27T09:54:36.698Z</time>
      </trkpt>
      <trkpt lat="43.87297" lon="8.0162">
        <ele>70.686774</ele>
        <time>2024-01-27T09:54:40.708Z</time>
      </trkpt>
      <trkpt lat="43.8729" lon="8.01607">
        <ele>70.488437</ele>
        <time>2024-01-27T09:54:44.727Z</time>
      </trkpt>
      <trkpt lat="43.87285" lon="8.01597">
        <ele>70.330466</ele>
        <time>2024-01-27T09:54:47.705Z</time>
      </trkpt>
      <trkpt lat="43.87278" lon="8.01587">
        <ele>70.158984</ele>
        <time>2024-01-27T09:54:50.692Z</time>
      </trkpt>
      <trkpt lat="43.87271" lon="8.01576">
        <ele>69.977365</ele>
        <time>2024-01-27T09:54:53.703Z</time>
      </trkpt>
      <trkpt lat="43.87264" lon="8.01565">
        <ele>69.79462</ele>
        <time>2024-01-27T09:54:56.690Z</time>
      </trkpt>
      <trkpt lat="43.87258" lon="8.01553">
        <ele>69.609508</ele>
        <time>2024-01-27T09:54:59.691Z</time>
      </trkpt>
      <trkpt lat="43.87252" lon="8.01541">
        <ele>69.423221</ele>
        <time>2024-01-27T09:55:02.701Z</time>
      </trkpt>
      <trkpt lat="43.87246" lon="8.0153">
        <ele>69.260372</ele>
        <time>2024-01-27T09:55:05.710Z</time>
      </trkpt>
      <trkpt lat="43.87245" lon="8.01517">
        <ele>69.095935</ele>
        <time>2024-01-27T09:55:08.677Z</time>
      </trkpt>
      <trkpt lat="43.87243" lon="8.01504">
        <ele>68.921302</ele>
        <time>2024-01-27T09:55:11.702Z</time>
      </trkpt>
      <trkpt lat="43.87241" lon="8.01489">
        <ele>68.738778</ele>
        <time>2024-01-27T09:55:14.696Z</time>
      </trkpt>
      <trkpt lat="43.87238" lon="8.01475">
        <ele>68.553563</ele>
        <time>2024-01-27T09:55:17.703Z</time>
      </trkpt>
      <trkpt lat="43.87235" lon="8.0146">
        <ele>68.361402</ele>
        <time>2024-01-27T09:55:20.698Z</time>
      </trkpt>
      <trkpt lat="43.87233" lon="8.01445">
        <ele>68.169326</ele>
        <time>2024-01-27T09:55:23.693Z</time>
      </trkpt>
      <trkpt lat="43.87231" lon="8.01428">
        <ele>67.95475</ele>
        <time>2024-01-27T09:55:26.696Z</time>
      </trkpt>
      <trkpt lat="43.87232" lon="8.01411">
        <ele>67.741938</ele>
        <time>2024-01-27T09:55:29.682Z</time>
      </trkpt>
      <trkpt lat="43.87235" lon="8.01396">
        <ele>67.542944</ele>
        <time>2024-01-27T09:55:32.695Z</time>
      </trkpt>
      <trkpt lat="43.87237" lon="8.01383">
        <ele>67.381483</ele>
        <time>2024-01-27T09:55:35.694Z</time>
      </trkpt>
      <trkpt lat="43.87242" lon="8.0137">
        <ele>67.1938</ele>
        <time>2024-01-27T09:55:39.673Z</time>
      </trkpt>
      <trkpt lat="43.87245" lon="8.01358">
        <ele>67.024368</ele>
        <time>2024-01-27T09:55:42.679Z</time>
      </trkpt>
      <trkpt lat="43.87246" lon="8.01345">
        <ele>66.862394</ele>
        <time>2024-01-27T09:55:45.698Z</time>
      </trkpt>
      <trkpt lat="43.87248" lon="8.0133">
        <ele>66.655992</ele>
        <time>2024-01-27T09:55:49.706Z</time>
      </trkpt>
      <trkpt lat="43.8725" lon="8.01317">
        <ele>66.481994</ele>
        <time>2024-01-27T09:55:52.698Z</time>
      </trkpt>
      <trkpt lat="43.87253" lon="8.01303">
        <ele>66.298342</ele>
        <time>2024-01-27T09:55:55.707Z</time>
      </trkpt>
      <trkpt lat="43.87257" lon="8.01289">
        <ele>66.108787</ele>
        <time>2024-01-27T09:55:58.711Z</time>
      </trkpt>
      <trkpt lat="43.87261" lon="8.01275">
        <ele>65.905762</ele>
        <time>2024-01-27T09:56:01.707Z</time>
      </trkpt>
      <trkpt lat="43.87267" lon="8.01264">
        <ele>65.727593</ele>
        <time>2024-01-27T09:56:04.681Z</time>
      </trkpt>
      <trkpt lat="43.87277" lon="8.01253">
        <ele>65.5045</ele>
        <time>2024-01-27T09:56:07.700Z</time>
      </trkpt>
      <trkpt lat="43.87289" lon="8.01245">
        <ele>65.276946</ele>
        <time>2024-01-27T09:56:10.684Z</time>
      </trkpt>
      <trkpt lat="43.87299" lon="8.01241">
        <ele>65.080958</ele>
        <time>2024-01-27T09:56:13.712Z</time>
      </trkpt>
      <trkpt lat="43.8731" lon="8.0124">
        <ele>64.89008</ele>
        <time>2024-01-27T09:56:16.688Z</time>
      </trkpt>
      <trkpt lat="43.87319" lon="8.0124">
        <ele>64.714567</ele>
        <time>2024-01-27T09:56:19.709Z</time>
      </trkpt>
      <trkpt lat="43.8733" lon="8.0124">
        <ele>64.521121</ele>
        <time>2024-01-27T09:56:22.683Z</time>
      </trkpt>
      <trkpt lat="43.87341" lon="8.01241">
        <ele>64.188993</ele>
        <time>2024-01-27T09:56:26.701Z</time>
      </trkpt>
      <trkpt lat="43.87348" lon="8.01229">
        <ele>63.64563</ele>
        <time>2024-01-27T09:56:31.697Z</time>
      </trkpt>
      <trkpt lat="43.87343" lon="8.01216">
        <ele>63.118134</ele>
        <time>2024-01-27T09:56:37.670Z</time>
      </trkpt>
      <trkpt lat="43.87329" lon="8.01216">
        <ele>62.444068</ele>
        <time>2024-01-27T09:56:40.677Z</time>
      </trkpt>
      <trkpt lat="43.8732" lon="8.01218">
        <ele>61.960484</ele>
        <time>2024-01-27T09:56:42.694Z</time>
      </trkpt>
      <trkpt lat="43.8731" lon="8.01219">
        <ele>61.504169</ele>
        <time>2024-01-27T09:56:44.681Z</time>
      </trkpt>
      <trkpt lat="43.873" lon="8.01219">
        <ele>60.984895</ele>
        <time>2024-01-27T09:56:46.680Z</time>
      </trkpt>
      <trkpt lat="43.87288" lon="8.01218">
        <ele>60.403642</ele>
        <time>2024-01-27T09:56:48.671Z</time>
      </trkpt>
      <trkpt lat="43.87277" lon="8.01217">
        <ele>59.843607</ele>
        <time>2024-01-27T09:56:50.683Z</time>
      </trkpt>
      <trkpt lat="43.87267" lon="8.01215">
        <ele>59.335277</ele>
        <time>2024-01-27T09:56:52.690Z</time>
      </trkpt>
      <trkpt lat="43.87256" lon="8.01214">
        <ele>58.775763</ele>
        <time>2024-01-27T09:56:56.694Z</time>
      </trkpt>
      <trkpt lat="43.8725" lon="8.01203">
        <ele>58.285335</ele>
        <time>2024-01-27T09:57:01.683Z</time>
      </trkpt>
      <trkpt lat="43.8725" lon="8.0119">
        <ele>57.788501</ele>
        <time>2024-01-27T09:57:04.703Z</time>
      </trkpt>
      <trkpt lat="43.87248" lon="8.01177">
        <ele>57.327728</ele>
        <time>2024-01-27T09:57:06.679Z</time>
      </trkpt>
      <trkpt lat="43.87245" lon="8.01163">
        <ele>56.79951</ele>
        <time>2024-01-27T09:57:08.684Z</time>
      </trkpt>
      <trkpt lat="43.8724" lon="8.01149">
        <ele>56.235285</ele>
        <time>2024-01-27T09:57:10.687Z</time>
      </trkpt>
      <trkpt lat="43.87235" lon="8.01136">
        <ele>55.687727</ele>
        <time>2024-01-27T09:57:12.683Z</time>
      </trkpt>
      <trkpt lat="43.87228" lon="8.0112">
        <ele>55.415991</ele>
        <time>2024-01-27T09:57:15.680Z</time>
      </trkpt>
      <trkpt lat="43.87225" lon="8.01106">
        <ele>55.412526</ele>
        <time>2024-01-27T09:57:18.696Z</time>
      </trkpt>
      <trkpt lat="43.8722" lon="8.01094">
        <ele>55.409346</ele>
        <time>2024-01-27T09:57:22.693Z</time>
      </trkpt>
      <trkpt lat="43.87216" lon="8.01083">
        <ele>55.406471</ele>
        <time>2024-01-27T09:57:25.678Z</time>
      </trkpt>
      <trkpt lat="43.87212" lon="8.0107">
        <ele>55.403227</ele>
        <time>2024-01-27T09:57:27.695Z</time>
      </trkpt>
      <trkpt lat="43.87207" lon="8.01056">
        <ele>55.399799</ele>
        <time>2024-01-27T09:57:29.693Z</time>
      </trkpt>
      <trkpt lat="43.87203" lon="8.01044">
        <ele>55.396644</ele>
        <time>2024-01-27T09:57:31.681Z</time>
      </trkpt>
      <trkpt lat="43.87197" lon="8.01031">
        <ele>55.393135</ele>
        <time>2024-01-27T09:57:34.675Z</time>
      </trkpt>
      <trkpt lat="43.87192" lon="8.01019">
        <ele>55.38993</ele>
        <time>2024-01-27T09:57:37.695Z</time>
      </trkpt>
      <trkpt lat="43.87187" lon="8.01007">
        <ele>55.386756</ele>
        <time>2024-01-27T09:57:40.684Z</time>
      </trkpt>
      <trkpt lat="43.87183" lon="8.00994">
        <ele>55.383473</ele>
        <time>2024-01-27T09:57:44.678Z</time>
      </trkpt>
      <trkpt lat="43.87177" lon="8.00982">
        <ele>55.380229</ele>
        <time>2024-01-27T09:57:48.688Z</time>
      </trkpt>
      <trkpt lat="43.87172" lon="8.00969">
        <ele>55.376901</ele>
        <time>2024-01-27T09:57:53.706Z</time>
      </trkpt>
      <trkpt lat="43.87167" lon="8.00958">
        <ele>55.373806</ele>
        <time>2024-01-27T09:57:59.672Z</time>
      </trkpt>
      <trkpt lat="43.87162" lon="8.00946">
        <ele>55.370712</ele>
        <time>2024-01-27T09:58:04.700Z</time>
      </trkpt>
      <trkpt lat="43.87157" lon="8.00933">
        <ele>55.367189</ele>
        <time>2024-01-27T09:58:09.732Z</time>
      </trkpt>
      <trkpt lat="43.8715" lon="8.00921">
        <ele>55.363801</ele>
        <time>2024-01-27T09:58:13.715Z</time>
      </trkpt>
      <trkpt lat="43.87145" lon="8.0091">
        <ele>55.354622</ele>
        <time>2024-01-27T09:58:17.703Z</time>
      </trkpt>
      <trkpt lat="43.87141" lon="8.00897">
        <ele>55.274814</ele>
        <time>2024-01-27T09:58:22.682Z</time>
      </trkpt>
      <trkpt lat="43.87138" lon="8.00882">
        <ele>55.192166</ele>
        <time>2024-01-27T09:58:26.692Z</time>
      </trkpt>
      <trkpt lat="43.87133" lon="8.00871">
        <ele>55.122415</ele>
        <time>2024-01-27T09:58:29.681Z</time>
      </trkpt>
      <trkpt lat="43.87129" lon="8.00858">
        <ele>55.045291</ele>
        <time>2024-01-27T09:58:32.717Z</time>
      </trkpt>
      <trkpt lat="43.87122" lon="8.00847">
        <ele>54.964988</ele>
        <time>2024-01-27T09:58:35.697Z</time>
      </trkpt>
      <trkpt lat="43.87114" lon="8.00835">
        <ele>54.8809</ele>
        <time>2024-01-27T09:58:38.693Z</time>
      </trkpt>
      <trkpt lat="43.87107" lon="8.00823">
        <ele>54.792303</ele>
        <time>2024-01-27T09:58:41.714Z</time>
      </trkpt>
      <trkpt lat="43.87097" lon="8.00812">
        <ele>54.699332</ele>
        <time>2024-01-27T09:58:44.683Z</time>
      </trkpt>
      <trkpt lat="43.87088" lon="8.00801">
        <ele>54.610749</ele>
        <time>2024-01-27T09:58:47.692Z</time>
      </trkpt>
      <trkpt lat="43.87077" lon="8.0079">
        <ele>54.510017</ele>
        <time>2024-01-27T09:58:50.695Z</time>
      </trkpt>
      <trkpt lat="43.8707" lon="8.00782">
        <ele>54.438563</ele>
        <time>2024-01-27T09:58:52.688Z</time>
      </trkpt>
      <trkpt lat="43.87063" lon="8.00773">
        <ele>54.367005</ele>
        <time>2024-01-27T09:58:54.687Z</time>
      </trkpt>
      <trkpt lat="43.87056" lon="8.00764">
        <ele>54.297857</ele>
        <time>2024-01-27T09:58:56.702Z</time>
      </trkpt>
      <trkpt lat="43.87047" lon="8.00751">
        <ele>54.198275</ele>
        <time>2024-01-27T09:58:59.692Z</time>
      </trkpt>
      <trkpt lat="43.87039" lon="8.00737">
        <ele>54.100965</ele>
        <time>2024-01-27T09:59:02.702Z</time>
      </trkpt>
      <trkpt lat="43.87033" lon="8.00721">
        <ele>54.011368</ele>
        <time>2024-01-27T09:59:05.712Z</time>
      </trkpt>
      <trkpt lat="43.87027" lon="8.00706">
        <ele>53.982551</ele>
        <time>2024-01-27T09:59:08.681Z</time>
      </trkpt>
      <trkpt lat="43.87021" lon="8.00692">
        <ele>53.955438</ele>
        <time>2024-01-27T09:59:11.694Z</time>
      </trkpt>
      <trkpt lat="43.87015" lon="8.00678">
        <ele>53.928831</ele>
        <time>2024-01-27T09:59:14.679Z</time>
      </trkpt>
      <trkpt lat="43.8701" lon="8.00663">
        <ele>53.901277</ele>
        <time>2024-01-27T09:59:17.695Z</time>
      </trkpt>
      <trkpt lat="43.87009" lon="8.00645">
        <ele>53.870817</ele>
        <time>2024-01-27T09:59:20.687Z</time>
      </trkpt>
      <trkpt lat="43.87009" lon="8.00632">
        <ele>53.849646</ele>
        <time>2024-01-27T09:59:22.702Z</time>
      </trkpt>
      <trkpt lat="43.8701" lon="8.00618">
        <ele>53.826914</ele>
        <time>2024-01-27T09:59:24.679Z</time>
      </trkpt>
      <trkpt lat="43.8701" lon="8.00605">
        <ele>53.805267</ele>
        <time>2024-01-27T09:59:26.688Z</time>
      </trkpt>
      <trkpt lat="43.87011" lon="8.00591">
        <ele>53.78294</ele>
        <time>2024-01-27T09:59:28.676Z</time>
      </trkpt>
      <trkpt lat="43.87011" lon="8.00578">
        <ele>53.761124</ele>
        <time>2024-01-27T09:59:30.702Z</time>
      </trkpt>
      <trkpt lat="43.87011" lon="8.00565">
        <ele>53.739282</ele>
        <time>2024-01-27T09:59:32.669Z</time>
      </trkpt>
      <trkpt lat="43.87012" lon="8.00552">
        <ele>53.717795</ele>
        <time>2024-01-27T09:59:34.687Z</time>
      </trkpt>
      <trkpt lat="43.87012" lon="8.00539">
        <ele>53.696474</ele>
        <time>2024-01-27T09:59:36.693Z</time>
      </trkpt>
      <trkpt lat="43.87012" lon="8.00527">
        <ele>53.675653</ele>
        <time>2024-01-27T09:59:38.691Z</time>
      </trkpt>
      <trkpt lat="43.87011" lon="8.00512">
        <ele>53.650993</ele>
        <time>2024-01-27T09:59:41.699Z</time>
      </trkpt>
      <trkpt lat="43.87011" lon="8.00497">
        <ele>53.626702</ele>
        <time>2024-01-27T09:59:44.698Z</time>
      </trkpt>
      <trkpt lat="43.87012" lon="8.0048">
        <ele>53.612367</ele>
        <time>2024-01-27T09:59:47.690Z</time>
      </trkpt>
      <trkpt lat="43.87012" lon="8.00463">
        <ele>53.756726</ele>
        <time>2024-01-27T09:59:50.681Z</time>
      </trkpt>
      <trkpt lat="43.87013" lon="8.00445">
        <ele>53.905688</ele>
        <time>2024-01-27T09:59:53.678Z</time>
      </trkpt>
      <trkpt lat="43.87014" lon="8.00429">
        <ele>54.046771</ele>
        <time>2024-01-27T09:59:56.701Z</time>
      </trkpt>
      <trkpt lat="43.87015" lon="8.00412">
        <ele>54.182939</ele>
        <time>2024-01-27T09:59:59.669Z</time>
      </trkpt>
      <trkpt lat="43.87016" lon="8.00395">
        <ele>54.332103</ele>
        <time>2024-01-27T10:00:02.701Z</time>
      </trkpt>
      <trkpt lat="43.87015" lon="8.00377">
        <ele>54.479835</ele>
        <time>2024-01-27T10:00:05.674Z</time>
      </trkpt>
      <trkpt lat="43.87015" lon="8.0036">
        <ele>54.622604</ele>
        <time>2024-01-27T10:00:08.690Z</time>
      </trkpt>
      <trkpt lat="43.87015" lon="8.00344">
        <ele>54.757732</ele>
        <time>2024-01-27T10:00:11.692Z</time>
      </trkpt>
      <trkpt lat="43.87016" lon="8.00331">
        <ele>54.86933</ele>
        <time>2024-01-27T10:00:14.693Z</time>
      </trkpt>
      <trkpt lat="43.87016" lon="8.00315">
        <ele>55.00522</ele>
        <time>2024-01-27T10:00:18.705Z</time>
      </trkpt>
      <trkpt lat="43.87018" lon="8.003">
        <ele>55.138342</ele>
        <time>2024-01-27T10:00:22.697Z</time>
      </trkpt>
      <trkpt lat="43.87014" lon="8.00288">
        <ele>55.250657</ele>
        <time>2024-01-27T10:00:25.701Z</time>
      </trkpt>
      <trkpt lat="43.87008" lon="8.00275">
        <ele>55.379161</ele>
        <time>2024-01-27T10:00:28.702Z</time>
      </trkpt>
      <trkpt lat="43.87002" lon="8.00261">
        <ele>55.517613</ele>
        <time>2024-01-27T10:00:31.701Z</time>
      </trkpt>
      <trkpt lat="43.86994" lon="8.00247">
        <ele>55.665485</ele>
        <time>2024-01-27T10:00:34.682Z</time>
      </trkpt>
      <trkpt lat="43.86986" lon="8.00232">
        <ele>55.796739</ele>
        <time>2024-01-27T10:00:37.712Z</time>
      </trkpt>
      <trkpt lat="43.86981" lon="8.00221">
        <ele>55.881191</ele>
        <time>2024-01-27T10:00:39.697Z</time>
      </trkpt>
      <trkpt lat="43.86974" lon="8.00205">
        <ele>56.007903</ele>
        <time>2024-01-27T10:00:42.703Z</time>
      </trkpt>
      <trkpt lat="43.86968" lon="8.00194">
        <ele>56.096047</ele>
        <time>2024-01-27T10:00:44.719Z</time>
      </trkpt>
      <trkpt lat="43.86963" lon="8.00183">
        <ele>56.185302</ele>
        <time>2024-01-27T10:00:46.716Z</time>
      </trkpt>
      <trkpt lat="43.86958" lon="8.00172">
        <ele>56.271315</ele>
        <time>2024-01-27T10:00:48.710Z</time>
      </trkpt>
      <trkpt lat="43.86953" lon="8.00161">
        <ele>56.361688</ele>
        <time>2024-01-27T10:00:50.677Z</time>
      </trkpt>
      <trkpt lat="43.86948" lon="8.0015">
        <ele>56.446702</ele>
        <time>2024-01-27T10:00:52.700Z</time>
      </trkpt>
      <trkpt lat="43.86943" lon="8.00139">
        <ele>56.532125</ele>
        <time>2024-01-27T10:00:54.700Z</time>
      </trkpt>
      <trkpt lat="43.86938" lon="8.00128">
        <ele>56.621338</ele>
        <time>2024-01-27T10:00:56.695Z</time>
      </trkpt>
      <trkpt lat="43.86933" lon="8.00117">
        <ele>56.708355</ele>
        <time>2024-01-27T10:00:58.689Z</time>
      </trkpt>
      <trkpt lat="43.86927" lon="8.00106">
        <ele>56.795395</ele>
        <time>2024-01-27T10:01:00.684Z</time>
      </trkpt>
      <trkpt lat="43.86922" lon="8.00096">
        <ele>56.884567</ele>
        <time>2024-01-27T10:01:02.703Z</time>
      </trkpt>
      <trkpt lat="43.86917" lon="8.00084">
        <ele>56.973353</ele>
        <time>2024-01-27T10:01:04.694Z</time>
      </trkpt>
      <trkpt lat="43.86912" lon="8.00072">
        <ele>57.065949</ele>
        <time>2024-01-27T10:01:06.688Z</time>
      </trkpt>
      <trkpt lat="43.86906" lon="8.00061">
        <ele>57.15626</ele>
        <time>2024-01-27T10:01:08.708Z</time>
      </trkpt>
      <trkpt lat="43.86901" lon="8.0005">
        <ele>57.24435</ele>
        <time>2024-01-27T10:01:10.695Z</time>
      </trkpt>
      <trkpt lat="43.86896" lon="8.00039">
        <ele>57.33173</ele>
        <time>2024-01-27T10:01:12.702Z</time>
      </trkpt>
      <trkpt lat="43.86891" lon="8.00028">
        <ele>57.420746</ele>
        <time>2024-01-27T10:01:14.698Z</time>
      </trkpt>
      <trkpt lat="43.86885" lon="8.00018">
        <ele>57.513018</ele>
        <time>2024-01-27T10:01:16.699Z</time>
      </trkpt>
      <trkpt lat="43.8688" lon="8.00007">
        <ele>57.607722</ele>
        <time>2024-01-27T10:01:18.693Z</time>
      </trkpt>
      <trkpt lat="43.86875" lon="7.99996">
        <ele>57.69989</ele>
        <time>2024-01-27T10:01:20.704Z</time>
      </trkpt>
      <trkpt lat="43.86867" lon="7.99982">
        <ele>57.827783</ele>
        <time>2024-01-27T10:01:23.680Z</time>
      </trkpt>
      <trkpt lat="43.86861" lon="7.99969">
        <ele>57.940049</ele>
        <time>2024-01-27T10:01:26.704Z</time>
      </trkpt>
      <trkpt lat="43.86856" lon="7.99957">
        <ele>58.043206</ele>
        <time>2024-01-27T10:01:29.693Z</time>
      </trkpt>
      <trkpt lat="43.86848" lon="7.99944">
        <ele>58.160279</ele>
        <time>2024-01-27T10:01:32.675Z</time>
      </trkpt>
      <trkpt lat="43.86842" lon="7.99929">
        <ele>58.28662</ele>
        <time>2024-01-27T10:01:35.704Z</time>
      </trkpt>
      <trkpt lat="43.86836" lon="7.99916">
        <ele>58.401402</ele>
        <time>2024-01-27T10:01:38.705Z</time>
      </trkpt>
      <trkpt lat="43.8683" lon="7.99903">
        <ele>58.512523</ele>
        <time>2024-01-27T10:01:41.695Z</time>
      </trkpt>
      <trkpt lat="43.86824" lon="7.99889">
        <ele>58.627642</ele>
        <time>2024-01-27T10:01:44.695Z</time>
      </trkpt>
      <trkpt lat="43.86818" lon="7.99875">
        <ele>58.743957</ele>
        <time>2024-01-27T10:01:47.677Z</time>
      </trkpt>
      <trkpt lat="43.86811" lon="7.99861">
        <ele>58.865737</ele>
        <time>2024-01-27T10:01:50.697Z</time>
      </trkpt>
      <trkpt lat="43.86804" lon="7.99846">
        <ele>58.992485</ele>
        <time>2024-01-27T10:01:53.704Z</time>
      </trkpt>
      <trkpt lat="43.86797" lon="7.99831">
        <ele>59.123826</ele>
        <time>2024-01-27T10:01:56.698Z</time>
      </trkpt>
      <trkpt lat="43.86791" lon="7.99815">
        <ele>59.055939</ele>
        <time>2024-01-27T10:01:59.687Z</time>
      </trkpt>
      <trkpt lat="43.86784" lon="7.998">
        <ele>58.893877</ele>
        <time>2024-01-27T10:02:02.704Z</time>
      </trkpt>
      <trkpt lat="43.86777" lon="7.99785">
        <ele>58.735632</ele>
        <time>2024-01-27T10:02:05.692Z</time>
      </trkpt>
      <trkpt lat="43.8677" lon="7.9977">
        <ele>58.578579</ele>
        <time>2024-01-27T10:02:08.702Z</time>
      </trkpt>
      <trkpt lat="43.86765" lon="7.9976">
        <ele>58.46529</ele>
        <time>2024-01-27T10:02:10.699Z</time>
      </trkpt>
      <trkpt lat="43.86761" lon="7.99749">
        <ele>58.352954</ele>
        <time>2024-01-27T10:02:12.694Z</time>
      </trkpt>
      <trkpt lat="43.86754" lon="7.99733">
        <ele>58.18786</ele>
        <time>2024-01-27T10:02:15.694Z</time>
      </trkpt>
      <trkpt lat="43.86747" lon="7.99717">
        <ele>58.022648</ele>
        <time>2024-01-27T10:02:18.698Z</time>
      </trkpt>
      <trkpt lat="43.86742" lon="7.99706">
        <ele>57.90861</ele>
        <time>2024-01-27T10:02:20.694Z</time>
      </trkpt>
      <trkpt lat="43.86737" lon="7.99695">
        <ele>57.79231</ele>
        <time>2024-01-27T10:02:22.678Z</time>
      </trkpt>
      <trkpt lat="43.86732" lon="7.99684">
        <ele>57.673169</ele>
        <time>2024-01-27T10:02:24.700Z</time>
      </trkpt>
      <trkpt lat="43.86727" lon="7.99673">
        <ele>57.552296</ele>
        <time>2024-01-27T10:02:26.693Z</time>
      </trkpt>
      <trkpt lat="43.86722" lon="7.99661">
        <ele>57.43448</ele>
        <time>2024-01-27T10:02:28.689Z</time>
      </trkpt>
      <trkpt lat="43.86717" lon="7.9965">
        <ele>57.314662</ele>
        <time>2024-01-27T10:02:30.677Z</time>
      </trkpt>
      <trkpt lat="43.86712" lon="7.99639">
        <ele>57.200931</ele>
        <time>2024-01-27T10:02:32.695Z</time>
      </trkpt>
      <trkpt lat="43.86707" lon="7.99628">
        <ele>57.085936</ele>
        <time>2024-01-27T10:02:34.699Z</time>
      </trkpt>
      <trkpt lat="43.86702" lon="7.99618">
        <ele>56.971269</ele>
        <time>2024-01-27T10:02:36.702Z</time>
      </trkpt>
      <trkpt lat="43.86698" lon="7.99606">
        <ele>56.998002</ele>
        <time>2024-01-27T10:02:38.682Z</time>
      </trkpt>
      <trkpt lat="43.86693" lon="7.99595">
        <ele>57.093767</ele>
        <time>2024-01-27T10:02:40.683Z</time>
      </trkpt>
      <trkpt lat="43.86688" lon="7.99584">
        <ele>57.192698</ele>
        <time>2024-01-27T10:02:42.694Z</time>
      </trkpt>
      <trkpt lat="43.86683" lon="7.99573">
        <ele>57.288369</ele>
        <time>2024-01-27T10:02:44.706Z</time>
      </trkpt>
      <trkpt lat="43.86677" lon="7.99558">
        <ele>57.421218</ele>
        <time>2024-01-27T10:02:47.708Z</time>
      </trkpt>
      <trkpt lat="43.8667" lon="7.99542">
        <ele>57.557842</ele>
        <time>2024-01-27T10:02:50.690Z</time>
      </trkpt>
      <trkpt lat="43.86666" lon="7.99526">
        <ele>57.68502</ele>
        <time>2024-01-27T10:02:53.672Z</time>
      </trkpt>
      <trkpt lat="43.86661" lon="7.99512">
        <ele>57.806924</ele>
        <time>2024-01-27T10:02:56.674Z</time>
      </trkpt>
      <trkpt lat="43.86656" lon="7.995">
        <ele>57.903743</ele>
        <time>2024-01-27T10:03:00.665Z</time>
      </trkpt>
      <trkpt lat="43.86664" lon="7.99487">
        <ele>58.031435</ele>
        <time>2024-01-27T10:03:05.669Z</time>
      </trkpt>
      <trkpt lat="43.86561" lon="7.99318">
        <ele>59.459482</ele>
        <time>2024-01-27T10:03:32.684Z</time>
      </trkpt>
      <trkpt lat="43.86554" lon="7.99306">
        <ele>59.545685</ele>
        <time>2024-01-27T10:03:34.669Z</time>
      </trkpt>
      <trkpt lat="43.86549" lon="7.9929">
        <ele>59.643472</ele>
        <time>2024-01-27T10:03:37.682Z</time>
      </trkpt>
      <trkpt lat="43.86543" lon="7.99279">
        <ele>59.714453</ele>
        <time>2024-01-27T10:03:39.678Z</time>
      </trkpt>
      <trkpt lat="43.86536" lon="7.99264">
        <ele>59.813713</ele>
        <time>2024-01-27T10:03:42.684Z</time>
      </trkpt>
      <trkpt lat="43.86532" lon="7.99247">
        <ele>59.913241</ele>
        <time>2024-01-27T10:03:45.663Z</time>
      </trkpt>
      <trkpt lat="43.86527" lon="7.99231">
        <ele>60.010791</ele>
        <time>2024-01-27T10:03:48.679Z</time>
      </trkpt>
      <trkpt lat="43.86522" lon="7.99214">
        <ele>60.109964</ele>
        <time>2024-01-27T10:03:51.682Z</time>
      </trkpt>
      <trkpt lat="43.86518" lon="7.99196">
        <ele>60.189394</ele>
        <time>2024-01-27T10:03:54.679Z</time>
      </trkpt>
      <trkpt lat="43.86515" lon="7.99184">
        <ele>60.211041</ele>
        <time>2024-01-27T10:03:56.685Z</time>
      </trkpt>
      <trkpt lat="43.86513" lon="7.99172">
        <ele>60.232138</ele>
        <time>2024-01-27T10:03:58.689Z</time>
      </trkpt>
      <trkpt lat="43.8651" lon="7.9916">
        <ele>60.253423</ele>
        <time>2024-01-27T10:04:00.682Z</time>
      </trkpt>
      <trkpt lat="43.86508" lon="7.99148">
        <ele>60.274547</ele>
        <time>2024-01-27T10:04:02.698Z</time>
      </trkpt>
      <trkpt lat="43.86504" lon="7.9913">
        <ele>60.305835</ele>
        <time>2024-01-27T10:04:05.700Z</time>
      </trkpt>
      <trkpt lat="43.86502" lon="7.99117">
        <ele>60.327811</ele>
        <time>2024-01-27T10:04:07.705Z</time>
      </trkpt>
      <trkpt lat="43.865" lon="7.99105">
        <ele>60.348922</ele>
        <time>2024-01-27T10:04:09.692Z</time>
      </trkpt>
      <trkpt lat="43.86497" lon="7.99087">
        <ele>60.379436</ele>
        <time>2024-01-27T10:04:12.684Z</time>
      </trkpt>
      <trkpt lat="43.86494" lon="7.9907">
        <ele>60.409631</ele>
        <time>2024-01-27T10:04:15.693Z</time>
      </trkpt>
      <trkpt lat="43.86491" lon="7.99057">
        <ele>60.430854</ele>
        <time>2024-01-27T10:04:17.670Z</time>
      </trkpt>
      <trkpt lat="43.86489" lon="7.99045">
        <ele>60.452181</ele>
        <time>2024-01-27T10:04:19.685Z</time>
      </trkpt>
      <trkpt lat="43.86485" lon="7.99028">
        <ele>60.482587</ele>
        <time>2024-01-27T10:04:22.691Z</time>
      </trkpt>
      <trkpt lat="43.86482" lon="7.9901">
        <ele>60.51349</ele>
        <time>2024-01-27T10:04:25.704Z</time>
      </trkpt>
      <trkpt lat="43.8648" lon="7.98998">
        <ele>60.534377</ele>
        <time>2024-01-27T10:04:27.686Z</time>
      </trkpt>
      <trkpt lat="43.86476" lon="7.9898">
        <ele>60.565989</ele>
        <time>2024-01-27T10:04:30.687Z</time>
      </trkpt>
      <trkpt lat="43.86474" lon="7.98962">
        <ele>60.596215</ele>
        <time>2024-01-27T10:04:33.698Z</time>
      </trkpt>
      <trkpt lat="43.86471" lon="7.98944">
        <ele>60.78455</ele>
        <time>2024-01-27T10:04:36.702Z</time>
      </trkpt>
      <trkpt lat="43.86469" lon="7.98927">
        <ele>60.983012</ele>
        <time>2024-01-27T10:04:39.697Z</time>
      </trkpt>
      <trkpt lat="43.86467" lon="7.98915">
        <ele>61.121748</ele>
        <time>2024-01-27T10:04:41.692Z</time>
      </trkpt>
      <trkpt lat="43.86464" lon="7.98897">
        <ele>61.324746</ele>
        <time>2024-01-27T10:04:44.675Z</time>
      </trkpt>
      <trkpt lat="43.86463" lon="7.98879">
        <ele>61.528222</ele>
        <time>2024-01-27T10:04:47.679Z</time>
      </trkpt>
      <trkpt lat="43.86461" lon="7.98866">
        <ele>61.670499</ele>
        <time>2024-01-27T10:04:49.693Z</time>
      </trkpt>
      <trkpt lat="43.86459" lon="7.98854">
        <ele>61.811122</ele>
        <time>2024-01-27T10:04:51.694Z</time>
      </trkpt>
      <trkpt lat="43.86458" lon="7.98836">
        <ele>62.013771</ele>
        <time>2024-01-27T10:04:54.677Z</time>
      </trkpt>
      <trkpt lat="43.86457" lon="7.98817">
        <ele>62.219468</ele>
        <time>2024-01-27T10:04:57.691Z</time>
      </trkpt>
      <trkpt lat="43.86455" lon="7.98799">
        <ele>62.429266</ele>
        <time>2024-01-27T10:05:00.691Z</time>
      </trkpt>
      <trkpt lat="43.86454" lon="7.9878">
        <ele>62.636074</ele>
        <time>2024-01-27T10:05:03.681Z</time>
      </trkpt>
      <trkpt lat="43.86454" lon="7.98768">
        <ele>62.776866</ele>
        <time>2024-01-27T10:05:05.692Z</time>
      </trkpt>
      <trkpt lat="43.86453" lon="7.98755">
        <ele>62.915712</ele>
        <time>2024-01-27T10:05:07.686Z</time>
      </trkpt>
      <trkpt lat="43.86452" lon="7.98737">
        <ele>63.117417</ele>
        <time>2024-01-27T10:05:10.688Z</time>
      </trkpt>
      <trkpt lat="43.86452" lon="7.9872">
        <ele>63.311571</ele>
        <time>2024-01-27T10:05:13.713Z</time>
      </trkpt>
      <trkpt lat="43.86449" lon="7.98701">
        <ele>63.475666</ele>
        <time>2024-01-27T10:05:16.688Z</time>
      </trkpt>
      <trkpt lat="43.8645" lon="7.98689">
        <ele>63.572153</ele>
        <time>2024-01-27T10:05:18.705Z</time>
      </trkpt>
      <trkpt lat="43.86451" lon="7.9867">
        <ele>63.717522</ele>
        <time>2024-01-27T10:05:21.700Z</time>
      </trkpt>
      <trkpt lat="43.86451" lon="7.98651">
        <ele>63.860889</ele>
        <time>2024-01-27T10:05:24.690Z</time>
      </trkpt>
      <trkpt lat="43.8645" lon="7.98639">
        <ele>63.957606</ele>
        <time>2024-01-27T10:05:26.688Z</time>
      </trkpt>
      <trkpt lat="43.8645" lon="7.98626">
        <ele>64.055509</ele>
        <time>2024-01-27T10:05:28.695Z</time>
      </trkpt>
      <trkpt lat="43.86451" lon="7.98614">
        <ele>64.152712</ele>
        <time>2024-01-27T10:05:30.700Z</time>
      </trkpt>
      <trkpt lat="43.8645" lon="7.98595">
        <ele>64.293241</ele>
        <time>2024-01-27T10:05:33.701Z</time>
      </trkpt>
      <trkpt lat="43.8645" lon="7.98578">
        <ele>64.427382</ele>
        <time>2024-01-27T10:05:36.690Z</time>
      </trkpt>
      <trkpt lat="43.86449" lon="7.9856">
        <ele>64.56652</ele>
        <time>2024-01-27T10:05:39.691Z</time>
      </trkpt>
      <trkpt lat="43.86448" lon="7.98548">
        <ele>64.663338</ele>
        <time>2024-01-27T10:05:41.688Z</time>
      </trkpt>
      <trkpt lat="43.86447" lon="7.98529">
        <ele>64.80717</ele>
        <time>2024-01-27T10:05:44.688Z</time>
      </trkpt>
      <trkpt lat="43.86445" lon="7.98511">
        <ele>64.948139</ele>
        <time>2024-01-27T10:05:47.686Z</time>
      </trkpt>
      <trkpt lat="43.86442" lon="7.98493">
        <ele>65.090174</ele>
        <time>2024-01-27T10:05:50.699Z</time>
      </trkpt>
      <trkpt lat="43.8644" lon="7.98474">
        <ele>65.234099</ele>
        <time>2024-01-27T10:05:53.700Z</time>
      </trkpt>
      <trkpt lat="43.86438" lon="7.98462">
        <ele>65.318421</ele>
        <time>2024-01-27T10:05:55.698Z</time>
      </trkpt>
      <trkpt lat="43.86435" lon="7.98443">
        <ele>65.402061</ele>
        <time>2024-01-27T10:05:58.701Z</time>
      </trkpt>
      <trkpt lat="43.86433" lon="7.98431">
        <ele>65.458921</ele>
        <time>2024-01-27T10:06:00.706Z</time>
      </trkpt>
      <trkpt lat="43.86431" lon="7.98414">
        <ele>65.537658</ele>
        <time>2024-01-27T10:06:03.691Z</time>
      </trkpt>
      <trkpt lat="43.86428" lon="7.98402">
        <ele>65.593228</ele>
        <time>2024-01-27T10:06:05.686Z</time>
      </trkpt>
      <trkpt lat="43.86425" lon="7.98383">
        <ele>65.677036</ele>
        <time>2024-01-27T10:06:08.705Z</time>
      </trkpt>
      <trkpt lat="43.86422" lon="7.98371">
        <ele>65.733035</ele>
        <time>2024-01-27T10:06:10.682Z</time>
      </trkpt>
      <trkpt lat="43.86419" lon="7.98354">
        <ele>65.812401</ele>
        <time>2024-01-27T10:06:13.696Z</time>
      </trkpt>
      <trkpt lat="43.86416" lon="7.98336">
        <ele>65.894448</ele>
        <time>2024-01-27T10:06:16.690Z</time>
      </trkpt>
      <trkpt lat="43.86412" lon="7.98318">
        <ele>65.97714</ele>
        <time>2024-01-27T10:06:19.687Z</time>
      </trkpt>
      <trkpt lat="43.86409" lon="7.98301">
        <ele>66.057039</ele>
        <time>2024-01-27T10:06:22.694Z</time>
      </trkpt>
      <trkpt lat="43.86406" lon="7.98289">
        <ele>66.112608</ele>
        <time>2024-01-27T10:06:24.701Z</time>
      </trkpt>
      <trkpt lat="43.86403" lon="7.98271">
        <ele>66.194514</ele>
        <time>2024-01-27T10:06:27.675Z</time>
      </trkpt>
      <trkpt lat="43.86401" lon="7.98258">
        <ele>66.253677</ele>
        <time>2024-01-27T10:06:29.668Z</time>
      </trkpt>
      <trkpt lat="43.86399" lon="7.98245">
        <ele>66.31241</ele>
        <time>2024-01-27T10:06:31.700Z</time>
      </trkpt>
      <trkpt lat="43.86396" lon="7.98232">
        <ele>66.369981</ele>
        <time>2024-01-27T10:06:33.690Z</time>
      </trkpt>
      <trkpt lat="43.86395" lon="7.9822">
        <ele>66.394072</ele>
        <time>2024-01-27T10:06:35.694Z</time>
      </trkpt>
      <trkpt lat="43.86394" lon="7.98207">
        <ele>66.351926</ele>
        <time>2024-01-27T10:06:37.706Z</time>
      </trkpt>
      <trkpt lat="43.86392" lon="7.98194">
        <ele>66.308145</ele>
        <time>2024-01-27T10:06:39.684Z</time>
      </trkpt>
      <trkpt lat="43.86389" lon="7.98176">
        <ele>66.246585</ele>
        <time>2024-01-27T10:06:42.685Z</time>
      </trkpt>
      <trkpt lat="43.86386" lon="7.98163">
        <ele>66.202697</ele>
        <time>2024-01-27T10:06:44.704Z</time>
      </trkpt>
      <trkpt lat="43.86384" lon="7.9815">
        <ele>66.159859</ele>
        <time>2024-01-27T10:06:46.689Z</time>
      </trkpt>
      <trkpt lat="43.86382" lon="7.98137">
        <ele>66.116181</ele>
        <time>2024-01-27T10:06:48.669Z</time>
      </trkpt>
      <trkpt lat="43.8638" lon="7.98124">
        <ele>66.07035</ele>
        <time>2024-01-27T10:06:50.696Z</time>
      </trkpt>
      <trkpt lat="43.86376" lon="7.98112">
        <ele>66.026385</ele>
        <time>2024-01-27T10:06:52.696Z</time>
      </trkpt>
      <trkpt lat="43.86374" lon="7.98098">
        <ele>65.981387</ele>
        <time>2024-01-27T10:06:54.693Z</time>
      </trkpt>
      <trkpt lat="43.86371" lon="7.98086">
        <ele>65.937023</ele>
        <time>2024-01-27T10:06:56.691Z</time>
      </trkpt>
      <trkpt lat="43.86367" lon="7.98074">
        <ele>65.894096</ele>
        <time>2024-01-27T10:06:58.674Z</time>
      </trkpt>
      <trkpt lat="43.86364" lon="7.98061">
        <ele>65.848577</ele>
        <time>2024-01-27T10:07:00.700Z</time>
      </trkpt>
      <trkpt lat="43.8636" lon="7.98048">
        <ele>65.804614</ele>
        <time>2024-01-27T10:07:02.683Z</time>
      </trkpt>
      <trkpt lat="43.86356" lon="7.98036">
        <ele>65.76095</ele>
        <time>2024-01-27T10:07:04.690Z</time>
      </trkpt>
      <trkpt lat="43.86352" lon="7.98024">
        <ele>65.717057</ele>
        <time>2024-01-27T10:07:06.692Z</time>
      </trkpt>
      <trkpt lat="43.86348" lon="7.98012">
        <ele>65.671467</ele>
        <time>2024-01-27T10:07:08.701Z</time>
      </trkpt>
      <trkpt lat="43.86344" lon="7.97999">
        <ele>65.62562</ele>
        <time>2024-01-27T10:07:10.702Z</time>
      </trkpt>
      <trkpt lat="43.86341" lon="7.97986">
        <ele>65.583825</ele>
        <time>2024-01-27T10:07:12.701Z</time>
      </trkpt>
      <trkpt lat="43.86337" lon="7.97974">
        <ele>65.579064</ele>
        <time>2024-01-27T10:07:14.688Z</time>
      </trkpt>
      <trkpt lat="43.86332" lon="7.97961">
        <ele>65.574145</ele>
        <time>2024-01-27T10:07:16.714Z</time>
      </trkpt>
      <trkpt lat="43.86329" lon="7.97949">
        <ele>65.569344</ele>
        <time>2024-01-27T10:07:18.703Z</time>
      </trkpt>
      <trkpt lat="43.86325" lon="7.97936">
        <ele>65.564579</ele>
        <time>2024-01-27T10:07:20.684Z</time>
      </trkpt>
      <trkpt lat="43.86322" lon="7.97923">
        <ele>65.559816</ele>
        <time>2024-01-27T10:07:22.714Z</time>
      </trkpt>
      <trkpt lat="43.86319" lon="7.97911">
        <ele>65.555084</ele>
        <time>2024-01-27T10:07:24.698Z</time>
      </trkpt>
      <trkpt lat="43.86317" lon="7.97898">
        <ele>65.550507</ele>
        <time>2024-01-27T10:07:26.697Z</time>
      </trkpt>
      <trkpt lat="43.86314" lon="7.97886">
        <ele>65.545984</ele>
        <time>2024-01-27T10:07:28.701Z</time>
      </trkpt>
      <trkpt lat="43.86312" lon="7.97873">
        <ele>65.541375</ele>
        <time>2024-01-27T10:07:30.679Z</time>
      </trkpt>
      <trkpt lat="43.86309" lon="7.9786">
        <ele>65.536583</ele>
        <time>2024-01-27T10:07:32.690Z</time>
      </trkpt>
      <trkpt lat="43.86308" lon="7.97846">
        <ele>65.5316</ele>
        <time>2024-01-27T10:07:34.687Z</time>
      </trkpt>
      <trkpt lat="43.86305" lon="7.97832">
        <ele>65.526396</ele>
        <time>2024-01-27T10:07:36.693Z</time>
      </trkpt>
      <trkpt lat="43.86303" lon="7.97817">
        <ele>65.521048</ele>
        <time>2024-01-27T10:07:38.683Z</time>
      </trkpt>
      <trkpt lat="43.86302" lon="7.97801">
        <ele>65.515395</ele>
        <time>2024-01-27T10:07:40.689Z</time>
      </trkpt>
      <trkpt lat="43.86301" lon="7.97785">
        <ele>65.509864</ele>
        <time>2024-01-27T10:07:42.690Z</time>
      </trkpt>
      <trkpt lat="43.863" lon="7.97769">
        <ele>65.504232</ele>
        <time>2024-01-27T10:07:44.691Z</time>
      </trkpt>
      <trkpt lat="43.86299" lon="7.97753">
        <ele>65.498446</ele>
        <time>2024-01-27T10:07:46.686Z</time>
      </trkpt>
      <trkpt lat="43.86297" lon="7.97737">
        <ele>65.425736</ele>
        <time>2024-01-27T10:07:48.698Z</time>
      </trkpt>
      <trkpt lat="43.86296" lon="7.97722">
        <ele>65.304538</ele>
        <time>2024-01-27T10:07:50.682Z</time>
      </trkpt>
      <trkpt lat="43.86294" lon="7.97706">
        <ele>65.187031</ele>
        <time>2024-01-27T10:07:52.680Z</time>
      </trkpt>
      <trkpt lat="43.86291" lon="7.97691">
        <ele>65.065496</ele>
        <time>2024-01-27T10:07:54.702Z</time>
      </trkpt>
      <trkpt lat="43.86289" lon="7.97675">
        <ele>64.943219</ele>
        <time>2024-01-27T10:07:56.694Z</time>
      </trkpt>
      <trkpt lat="43.86286" lon="7.9766">
        <ele>64.823168</ele>
        <time>2024-01-27T10:07:58.691Z</time>
      </trkpt>
      <trkpt lat="43.86283" lon="7.97644">
        <ele>64.702013</ele>
        <time>2024-01-27T10:08:00.694Z</time>
      </trkpt>
      <trkpt lat="43.8628" lon="7.97629">
        <ele>64.577643</ele>
        <time>2024-01-27T10:08:02.714Z</time>
      </trkpt>
      <trkpt lat="43.86276" lon="7.97613">
        <ele>64.449572</ele>
        <time>2024-01-27T10:08:04.695Z</time>
      </trkpt>
      <trkpt lat="43.86271" lon="7.97597">
        <ele>64.323977</ele>
        <time>2024-01-27T10:08:06.704Z</time>
      </trkpt>
      <trkpt lat="43.86266" lon="7.97583">
        <ele>64.202854</ele>
        <time>2024-01-27T10:08:08.703Z</time>
      </trkpt>
      <trkpt lat="43.86261" lon="7.97569">
        <ele>64.081249</ele>
        <time>2024-01-27T10:08:10.705Z</time>
      </trkpt>
      <trkpt lat="43.86255" lon="7.97556">
        <ele>63.963984</ele>
        <time>2024-01-27T10:08:12.690Z</time>
      </trkpt>
      <trkpt lat="43.86249" lon="7.97543">
        <ele>63.842443</ele>
        <time>2024-01-27T10:08:14.691Z</time>
      </trkpt>
      <trkpt lat="43.86243" lon="7.97529">
        <ele>63.721994</ele>
        <time>2024-01-27T10:08:16.684Z</time>
      </trkpt>
      <trkpt lat="43.86236" lon="7.97517">
        <ele>63.604785</ele>
        <time>2024-01-27T10:08:18.695Z</time>
      </trkpt>
      <trkpt lat="43.8623" lon="7.97504">
        <ele>63.616536</ele>
        <time>2024-01-27T10:08:20.683Z</time>
      </trkpt>
      <trkpt lat="43.86224" lon="7.97493">
        <ele>63.635067</ele>
        <time>2024-01-27T10:08:22.680Z</time>
      </trkpt>
      <trkpt lat="43.86217" lon="7.97481">
        <ele>63.653492</ele>
        <time>2024-01-27T10:08:24.701Z</time>
      </trkpt>
      <trkpt lat="43.86211" lon="7.97469">
        <ele>63.671915</ele>
        <time>2024-01-27T10:08:26.690Z</time>
      </trkpt>
      <trkpt lat="43.86206" lon="7.97457">
        <ele>63.689879</ele>
        <time>2024-01-27T10:08:28.689Z</time>
      </trkpt>
      <trkpt lat="43.862" lon="7.97444">
        <ele>63.708026</ele>
        <time>2024-01-27T10:08:30.691Z</time>
      </trkpt>
      <trkpt lat="43.86194" lon="7.97433">
        <ele>63.724926</ele>
        <time>2024-01-27T10:08:32.698Z</time>
      </trkpt>
      <trkpt lat="43.86189" lon="7.97421">
        <ele>63.742862</ele>
        <time>2024-01-27T10:08:34.685Z</time>
      </trkpt>
      <trkpt lat="43.86184" lon="7.97408">
        <ele>63.760973</ele>
        <time>2024-01-27T10:08:36.687Z</time>
      </trkpt>
      <trkpt lat="43.86179" lon="7.97396">
        <ele>63.778696</ele>
        <time>2024-01-27T10:08:38.699Z</time>
      </trkpt>
      <trkpt lat="43.86174" lon="7.97383">
        <ele>63.796584</ele>
        <time>2024-01-27T10:08:40.691Z</time>
      </trkpt>
      <trkpt lat="43.8617" lon="7.97371">
        <ele>63.813636</ele>
        <time>2024-01-27T10:08:42.693Z</time>
      </trkpt>
      <trkpt lat="43.86166" lon="7.97358">
        <ele>63.830904</ele>
        <time>2024-01-27T10:08:44.701Z</time>
      </trkpt>
      <trkpt lat="43.86162" lon="7.97345">
        <ele>63.848332</ele>
        <time>2024-01-27T10:08:46.704Z</time>
      </trkpt>
      <trkpt lat="43.86159" lon="7.97332">
        <ele>63.865705</ele>
        <time>2024-01-27T10:08:48.689Z</time>
      </trkpt>
      <trkpt lat="43.86156" lon="7.97319">
        <ele>63.88231</ele>
        <time>2024-01-27T10:08:50.667Z</time>
      </trkpt>
      <trkpt lat="43.86152" lon="7.97306">
        <ele>63.899796</ele>
        <time>2024-01-27T10:08:52.698Z</time>
      </trkpt>
      <trkpt lat="43.8615" lon="7.97293">
        <ele>63.913125</ele>
        <time>2024-01-27T10:08:54.674Z</time>
      </trkpt>
      <trkpt lat="43.86147" lon="7.97281">
        <ele>63.920649</ele>
        <time>2024-01-27T10:08:56.701Z</time>
      </trkpt>
      <trkpt lat="43.86145" lon="7.97268">
        <ele>63.92836</ele>
        <time>2024-01-27T10:08:58.681Z</time>
      </trkpt>
      <trkpt lat="43.86144" lon="7.97254">
        <ele>63.936197</ele>
        <time>2024-01-27T10:09:00.698Z</time>
      </trkpt>
      <trkpt lat="43.86143" lon="7.97241">
        <ele>63.944013</ele>
        <time>2024-01-27T10:09:02.696Z</time>
      </trkpt>
      <trkpt lat="43.86141" lon="7.97228">
        <ele>63.951553</ele>
        <time>2024-01-27T10:09:04.687Z</time>
      </trkpt>
      <trkpt lat="43.8614" lon="7.97215">
        <ele>63.959129</ele>
        <time>2024-01-27T10:09:06.681Z</time>
      </trkpt>
      <trkpt lat="43.86138" lon="7.97202">
        <ele>63.966654</ele>
        <time>2024-01-27T10:09:08.689Z</time>
      </trkpt>
      <trkpt lat="43.86136" lon="7.97189">
        <ele>63.974543</ele>
        <time>2024-01-27T10:09:10.698Z</time>
      </trkpt>
      <trkpt lat="43.86134" lon="7.97176">
        <ele>63.982448</ele>
        <time>2024-01-27T10:09:12.685Z</time>
      </trkpt>
      <trkpt lat="43.86131" lon="7.97161">
        <ele>63.991378</ele>
        <time>2024-01-27T10:09:14.693Z</time>
      </trkpt>
      <trkpt lat="43.86128" lon="7.97144">
        <ele>64.001324</ele>
        <time>2024-01-27T10:09:16.689Z</time>
      </trkpt>
      <trkpt lat="43.86124" lon="7.97126">
        <ele>64.012337</ele>
        <time>2024-01-27T10:09:18.687Z</time>
      </trkpt>
      <trkpt lat="43.86119" lon="7.97106">
        <ele>64.024317</ele>
        <time>2024-01-27T10:09:20.669Z</time>
      </trkpt>
      <trkpt lat="43.86113" lon="7.97086">
        <ele>64.036951</ele>
        <time>2024-01-27T10:09:22.684Z</time>
      </trkpt>
      <trkpt lat="43.86106" lon="7.97067">
        <ele>64.049316</ele>
        <time>2024-01-27T10:09:24.691Z</time>
      </trkpt>
      <trkpt lat="43.86099" lon="7.97049">
        <ele>63.999001</ele>
        <time>2024-01-27T10:09:26.693Z</time>
      </trkpt>
      <trkpt lat="43.86093" lon="7.97033">
        <ele>63.912705</ele>
        <time>2024-01-27T10:09:28.693Z</time>
      </trkpt>
      <trkpt lat="43.86088" lon="7.97019">
        <ele>63.838528</ele>
        <time>2024-01-27T10:09:30.683Z</time>
      </trkpt>
      <trkpt lat="43.86083" lon="7.97007">
        <ele>63.773698</ele>
        <time>2024-01-27T10:09:32.710Z</time>
      </trkpt>
      <trkpt lat="43.86075" lon="7.96992">
        <ele>63.689001</ele>
        <time>2024-01-27T10:09:35.695Z</time>
      </trkpt>
      <trkpt lat="43.86067" lon="7.96979">
        <ele>63.607473</ele>
        <time>2024-01-27T10:09:38.697Z</time>
      </trkpt>
      <trkpt lat="43.86059" lon="7.96965">
        <ele>63.523773</ele>
        <time>2024-01-27T10:09:41.692Z</time>
      </trkpt>
      <trkpt lat="43.8605" lon="7.96953">
        <ele>63.438724</ele>
        <time>2024-01-27T10:09:44.689Z</time>
      </trkpt>
      <trkpt lat="43.86041" lon="7.9694">
        <ele>63.356266</ele>
        <time>2024-01-27T10:09:47.690Z</time>
      </trkpt>
      <trkpt lat="43.86035" lon="7.96931">
        <ele>63.296673</ele>
        <time>2024-01-27T10:09:49.695Z</time>
      </trkpt>
      <trkpt lat="43.8603" lon="7.9692">
        <ele>63.234171</ele>
        <time>2024-01-27T10:09:51.689Z</time>
      </trkpt>
      <trkpt lat="43.86023" lon="7.96909">
        <ele>63.168719</ele>
        <time>2024-01-27T10:09:53.684Z</time>
      </trkpt>
      <trkpt lat="43.86016" lon="7.96898">
        <ele>63.097122</ele>
        <time>2024-01-27T10:09:55.695Z</time>
      </trkpt>
      <trkpt lat="43.86008" lon="7.96886">
        <ele>63.023424</ele>
        <time>2024-01-27T10:09:57.693Z</time>
      </trkpt>
      <trkpt lat="43.86" lon="7.96875">
        <ele>62.947015</ele>
        <time>2024-01-27T10:09:59.690Z</time>
      </trkpt>
      <trkpt lat="43.85991" lon="7.96864">
        <ele>62.859359</ele>
        <time>2024-01-27T10:10:01.687Z</time>
      </trkpt>
      <trkpt lat="43.85982" lon="7.96854">
        <ele>62.646151</ele>
        <time>2024-01-27T10:10:03.694Z</time>
      </trkpt>
      <trkpt lat="43.85973" lon="7.96845">
        <ele>62.439049</ele>
        <time>2024-01-27T10:10:05.690Z</time>
      </trkpt>
      <trkpt lat="43.85963" lon="7.96837">
        <ele>62.229332</ele>
        <time>2024-01-27T10:10:07.692Z</time>
      </trkpt>
      <trkpt lat="43.85953" lon="7.96828">
        <ele>62.018486</ele>
        <time>2024-01-27T10:10:09.700Z</time>
      </trkpt>
      <trkpt lat="43.85943" lon="7.96819">
        <ele>61.803433</ele>
        <time>2024-01-27T10:10:11.699Z</time>
      </trkpt>
      <trkpt lat="43.85933" lon="7.96811">
        <ele>61.587838</ele>
        <time>2024-01-27T10:10:13.707Z</time>
      </trkpt>
      <trkpt lat="43.85923" lon="7.96803">
        <ele>61.377627</ele>
        <time>2024-01-27T10:10:15.688Z</time>
      </trkpt>
      <trkpt lat="43.85912" lon="7.96796">
        <ele>61.16772</ele>
        <time>2024-01-27T10:10:17.696Z</time>
      </trkpt>
      <trkpt lat="43.85902" lon="7.96789">
        <ele>60.963112</ele>
        <time>2024-01-27T10:10:19.691Z</time>
      </trkpt>
      <trkpt lat="43.85892" lon="7.96783">
        <ele>60.763455</ele>
        <time>2024-01-27T10:10:21.693Z</time>
      </trkpt>
      <trkpt lat="43.85882" lon="7.96777">
        <ele>60.571961</ele>
        <time>2024-01-27T10:10:23.694Z</time>
      </trkpt>
      <trkpt lat="43.85873" lon="7.96773">
        <ele>60.397678</ele>
        <time>2024-01-27T10:10:25.683Z</time>
      </trkpt>
      <trkpt lat="43.8586" lon="7.9677">
        <ele>60.151181</ele>
        <time>2024-01-27T10:10:28.670Z</time>
      </trkpt>
      <trkpt lat="43.85851" lon="7.96766">
        <ele>59.983115</ele>
        <time>2024-01-27T10:10:30.697Z</time>
      </trkpt>
      <trkpt lat="43.85842" lon="7.96763">
        <ele>59.809408</ele>
        <time>2024-01-27T10:10:32.685Z</time>
      </trkpt>
      <trkpt lat="43.85833" lon="7.96759">
        <ele>59.636806</ele>
        <time>2024-01-27T10:10:34.683Z</time>
      </trkpt>
      <trkpt lat="43.85824" lon="7.96755">
        <ele>59.622586</ele>
        <time>2024-01-27T10:10:36.665Z</time>
      </trkpt>
      <trkpt lat="43.85815" lon="7.96749">
        <ele>59.630776</ele>
        <time>2024-01-27T10:10:38.682Z</time>
      </trkpt>
      <trkpt lat="43.85806" lon="7.96745">
        <ele>59.638987</ele>
        <time>2024-01-27T10:10:40.686Z</time>
      </trkpt>
      <trkpt lat="43.85797" lon="7.96741">
        <ele>59.647485</ele>
        <time>2024-01-27T10:10:42.690Z</time>
      </trkpt>
      <trkpt lat="43.85788" lon="7.96737">
        <ele>59.655802</ele>
        <time>2024-01-27T10:10:44.689Z</time>
      </trkpt>
      <trkpt lat="43.85778" lon="7.96733">
        <ele>59.664638</ele>
        <time>2024-01-27T10:10:46.684Z</time>
      </trkpt>
      <trkpt lat="43.85768" lon="7.96729">
        <ele>59.673522</ele>
        <time>2024-01-27T10:10:48.694Z</time>
      </trkpt>
      <trkpt lat="43.85759" lon="7.96726">
        <ele>59.682243</ele>
        <time>2024-01-27T10:10:50.689Z</time>
      </trkpt>
      <trkpt lat="43.85749" lon="7.96724">
        <ele>59.690901</ele>
        <time>2024-01-27T10:10:52.691Z</time>
      </trkpt>
      <trkpt lat="43.85739" lon="7.96721">
        <ele>59.699737</ele>
        <time>2024-01-27T10:10:54.696Z</time>
      </trkpt>
      <trkpt lat="43.85729" lon="7.96717">
        <ele>59.708858</ele>
        <time>2024-01-27T10:10:56.695Z</time>
      </trkpt>
      <trkpt lat="43.85719" lon="7.96713">
        <ele>59.717862</ele>
        <time>2024-01-27T10:10:58.683Z</time>
      </trkpt>
      <trkpt lat="43.85709" lon="7.96709">
        <ele>59.726967</ele>
        <time>2024-01-27T10:11:00.680Z</time>
      </trkpt>
      <trkpt lat="43.85699" lon="7.96705">
        <ele>59.736172</ele>
        <time>2024-01-27T10:11:02.695Z</time>
      </trkpt>
      <trkpt lat="43.85689" lon="7.96701">
        <ele>59.74511</ele>
        <time>2024-01-27T10:11:04.676Z</time>
      </trkpt>
      <trkpt lat="43.85679" lon="7.96698">
        <ele>59.754312</ele>
        <time>2024-01-27T10:11:06.688Z</time>
      </trkpt>
      <trkpt lat="43.85669" lon="7.96696">
        <ele>59.763212</ele>
        <time>2024-01-27T10:11:08.681Z</time>
      </trkpt>
      <trkpt lat="43.8566" lon="7.96693">
        <ele>59.77145</ele>
        <time>2024-01-27T10:11:10.701Z</time>
      </trkpt>
      <trkpt lat="43.8565" lon="7.96691">
        <ele>59.791477</ele>
        <time>2024-01-27T10:11:12.681Z</time>
      </trkpt>
      <trkpt lat="43.8564" lon="7.96686">
        <ele>59.813783</ele>
        <time>2024-01-27T10:11:14.686Z</time>
      </trkpt>
      <trkpt lat="43.8563" lon="7.96682">
        <ele>59.83584</ele>
        <time>2024-01-27T10:11:16.680Z</time>
      </trkpt>
      <trkpt lat="43.85621" lon="7.96677">
        <ele>59.856837</ele>
        <time>2024-01-27T10:11:18.700Z</time>
      </trkpt>
      <trkpt lat="43.85611" lon="7.96673">
        <ele>59.877521</ele>
        <time>2024-01-27T10:11:20.700Z</time>
      </trkpt>
      <trkpt lat="43.85602" lon="7.96669">
        <ele>59.898135</ele>
        <time>2024-01-27T10:11:22.686Z</time>
      </trkpt>
      <trkpt lat="43.85592" lon="7.96666">
        <ele>59.919414</ele>
        <time>2024-01-27T10:11:24.687Z</time>
      </trkpt>
      <trkpt lat="43.85583" lon="7.96662">
        <ele>59.940848</ele>
        <time>2024-01-27T10:11:26.695Z</time>
      </trkpt>
      <trkpt lat="43.85574" lon="7.96659">
        <ele>59.960849</ele>
        <time>2024-01-27T10:11:28.689Z</time>
      </trkpt>
      <trkpt lat="43.85564" lon="7.96656">
        <ele>59.981689</ele>
        <time>2024-01-27T10:11:30.675Z</time>
      </trkpt>
      <trkpt lat="43.85555" lon="7.96653">
        <ele>60.002345</ele>
        <time>2024-01-27T10:11:32.707Z</time>
      </trkpt>
      <trkpt lat="43.85546" lon="7.96648">
        <ele>60.022492</ele>
        <time>2024-01-27T10:11:34.685Z</time>
      </trkpt>
      <trkpt lat="43.85537" lon="7.96642">
        <ele>60.042349</ele>
        <time>2024-01-27T10:11:36.693Z</time>
      </trkpt>
      <trkpt lat="43.85529" lon="7.96637">
        <ele>60.062298</ele>
        <time>2024-01-27T10:11:38.696Z</time>
      </trkpt>
      <trkpt lat="43.8552" lon="7.96633">
        <ele>60.081882</ele>
        <time>2024-01-27T10:11:40.695Z</time>
      </trkpt>
      <trkpt lat="43.85511" lon="7.96629">
        <ele>60.101882</ele>
        <time>2024-01-27T10:11:42.682Z</time>
      </trkpt>
      <trkpt lat="43.85498" lon="7.96624">
        <ele>60.130338</ele>
        <time>2024-01-27T10:11:45.693Z</time>
      </trkpt>
      <trkpt lat="43.85489" lon="7.96621">
        <ele>60.150509</ele>
        <time>2024-01-27T10:11:47.683Z</time>
      </trkpt>
      <trkpt lat="43.85477" lon="7.96616">
        <ele>60.270409</ele>
        <time>2024-01-27T10:11:50.702Z</time>
      </trkpt>
      <trkpt lat="43.85465" lon="7.96608">
        <ele>60.413888</ele>
        <time>2024-01-27T10:11:53.695Z</time>
      </trkpt>
      <trkpt lat="43.85453" lon="7.96602">
        <ele>60.558565</ele>
        <time>2024-01-27T10:11:56.697Z</time>
      </trkpt>
      <trkpt lat="43.8544" lon="7.96595">
        <ele>60.706479</ele>
        <time>2024-01-27T10:11:59.701Z</time>
      </trkpt>
      <trkpt lat="43.85432" lon="7.96589">
        <ele>60.806757</ele>
        <time>2024-01-27T10:12:01.696Z</time>
      </trkpt>
      <trkpt lat="43.85421" lon="7.96579">
        <ele>60.955446</ele>
        <time>2024-01-27T10:12:04.699Z</time>
      </trkpt>
      <trkpt lat="43.85413" lon="7.96572">
        <ele>61.055169</ele>
        <time>2024-01-27T10:12:06.692Z</time>
      </trkpt>
      <trkpt lat="43.85405" lon="7.96566">
        <ele>61.154692</ele>
        <time>2024-01-27T10:12:08.688Z</time>
      </trkpt>
      <trkpt lat="43.85398" lon="7.96559">
        <ele>61.255772</ele>
        <time>2024-01-27T10:12:10.692Z</time>
      </trkpt>
      <trkpt lat="43.8539" lon="7.96553">
        <ele>61.355163</ele>
        <time>2024-01-27T10:12:12.696Z</time>
      </trkpt>
      <trkpt lat="43.85379" lon="7.96543">
        <ele>61.500182</ele>
        <time>2024-01-27T10:12:15.683Z</time>
      </trkpt>
      <trkpt lat="43.85369" lon="7.96532">
        <ele>61.639444</ele>
        <time>2024-01-27T10:12:18.699Z</time>
      </trkpt>
      <trkpt lat="43.85359" lon="7.96521">
        <ele>61.779981</ele>
        <time>2024-01-27T10:12:21.701Z</time>
      </trkpt>
      <trkpt lat="43.85352" lon="7.96513">
        <ele>61.883399</ele>
        <time>2024-01-27T10:12:23.703Z</time>
      </trkpt>
      <trkpt lat="43.85344" lon="7.96505">
        <ele>61.989083</ele>
        <time>2024-01-27T10:12:25.702Z</time>
      </trkpt>
      <trkpt lat="43.85337" lon="7.96496">
        <ele>62.091372</ele>
        <time>2024-01-27T10:12:27.699Z</time>
      </trkpt>
      <trkpt lat="43.85331" lon="7.96486">
        <ele>62.09964</ele>
        <time>2024-01-27T10:12:29.689Z</time>
      </trkpt>
      <trkpt lat="43.85325" lon="7.96475">
        <ele>62.018036</ele>
        <time>2024-01-27T10:12:31.690Z</time>
      </trkpt>
      <trkpt lat="43.8532" lon="7.96464">
        <ele>61.944198</ele>
        <time>2024-01-27T10:12:33.702Z</time>
      </trkpt>
      <trkpt lat="43.85315" lon="7.96449">
        <ele>61.846436</ele>
        <time>2024-01-27T10:12:36.693Z</time>
      </trkpt>
      <trkpt lat="43.85309" lon="7.96434">
        <ele>61.74816</ele>
        <time>2024-01-27T10:12:39.694Z</time>
      </trkpt>
      <trkpt lat="43.85303" lon="7.96418">
        <ele>61.64409</ele>
        <time>2024-01-27T10:12:42.721Z</time>
      </trkpt>
      <trkpt lat="43.85298" lon="7.96407">
        <ele>61.570387</ele>
        <time>2024-01-27T10:12:44.698Z</time>
      </trkpt>
      <trkpt lat="43.85294" lon="7.96395">
        <ele>61.494159</ele>
        <time>2024-01-27T10:12:46.704Z</time>
      </trkpt>
      <trkpt lat="43.85289" lon="7.96384">
        <ele>61.416964</ele>
        <time>2024-01-27T10:12:48.700Z</time>
      </trkpt>
      <trkpt lat="43.85284" lon="7.96372">
        <ele>61.340389</ele>
        <time>2024-01-27T10:12:50.703Z</time>
      </trkpt>
      <trkpt lat="43.85278" lon="7.96362">
        <ele>61.263452</ele>
        <time>2024-01-27T10:12:52.693Z</time>
      </trkpt>
      <trkpt lat="43.85273" lon="7.9635">
        <ele>61.186923</ele>
        <time>2024-01-27T10:12:54.704Z</time>
      </trkpt>
      <trkpt lat="43.85267" lon="7.96339">
        <ele>61.106582</ele>
        <time>2024-01-27T10:12:56.694Z</time>
      </trkpt>
      <trkpt lat="43.85261" lon="7.96328">
        <ele>61.027753</ele>
        <time>2024-01-27T10:12:58.709Z</time>
      </trkpt>
      <trkpt lat="43.85255" lon="7.96317">
        <ele>60.949672</ele>
        <time>2024-01-27T10:13:00.689Z</time>
      </trkpt>
      <trkpt lat="43.85249" lon="7.96307">
        <ele>60.873203</ele>
        <time>2024-01-27T10:13:02.705Z</time>
      </trkpt>
      <trkpt lat="43.85243" lon="7.96297">
        <ele>60.799216</ele>
        <time>2024-01-27T10:13:04.728Z</time>
      </trkpt>
      <trkpt lat="43.85237" lon="7.96286">
        <ele>60.720309</ele>
        <time>2024-01-27T10:13:06.693Z</time>
      </trkpt>
      <trkpt lat="43.85231" lon="7.96276">
        <ele>60.648034</ele>
        <time>2024-01-27T10:13:08.683Z</time>
      </trkpt>
      <trkpt lat="43.85224" lon="7.96266">
        <ele>60.571659</ele>
        <time>2024-01-27T10:13:10.709Z</time>
      </trkpt>
      <trkpt lat="43.85218" lon="7.96256">
        <ele>60.497001</ele>
        <time>2024-01-27T10:13:12.687Z</time>
      </trkpt>
      <trkpt lat="43.85212" lon="7.96246">
        <ele>60.420074</ele>
        <time>2024-01-27T10:13:14.693Z</time>
      </trkpt>
      <trkpt lat="43.85205" lon="7.96236">
        <ele>60.344609</ele>
        <time>2024-01-27T10:13:16.692Z</time>
      </trkpt>
      <trkpt lat="43.85199" lon="7.96226">
        <ele>60.270759</ele>
        <time>2024-01-27T10:13:18.685Z</time>
      </trkpt>
      <trkpt lat="43.85193" lon="7.96217">
        <ele>60.199507</ele>
        <time>2024-01-27T10:13:20.703Z</time>
      </trkpt>
      <trkpt lat="43.85186" lon="7.96208">
        <ele>60.127554</ele>
        <time>2024-01-27T10:13:22.697Z</time>
      </trkpt>
      <trkpt lat="43.85177" lon="7.96193">
        <ele>60.021581</ele>
        <time>2024-01-27T10:13:25.697Z</time>
      </trkpt>
      <trkpt lat="43.8517" lon="7.96184">
        <ele>59.948287</ele>
        <time>2024-01-27T10:13:27.684Z</time>
      </trkpt>
      <trkpt lat="43.85164" lon="7.96175">
        <ele>59.874062</ele>
        <time>2024-01-27T10:13:29.688Z</time>
      </trkpt>
      <trkpt lat="43.85157" lon="7.96166">
        <ele>59.800993</ele>
        <time>2024-01-27T10:13:31.680Z</time>
      </trkpt>
      <trkpt lat="43.85151" lon="7.96156">
        <ele>59.729585</ele>
        <time>2024-01-27T10:13:33.689Z</time>
      </trkpt>
      <trkpt lat="43.85144" lon="7.96147">
        <ele>59.657762</ele>
        <time>2024-01-27T10:13:35.713Z</time>
      </trkpt>
      <trkpt lat="43.85139" lon="7.96137">
        <ele>59.587289</ele>
        <time>2024-01-27T10:13:37.699Z</time>
      </trkpt>
      <trkpt lat="43.85131" lon="7.96122">
        <ele>59.482541</ele>
        <time>2024-01-27T10:13:40.694Z</time>
      </trkpt>
      <trkpt lat="43.85123" lon="7.96108">
        <ele>59.382007</ele>
        <time>2024-01-27T10:13:43.692Z</time>
      </trkpt>
      <trkpt lat="43.85117" lon="7.96094">
        <ele>59.299594</ele>
        <time>2024-01-27T10:13:46.699Z</time>
      </trkpt>
      <trkpt lat="43.85111" lon="7.96079">
        <ele>59.255653</ele>
        <time>2024-01-27T10:13:49.684Z</time>
      </trkpt>
      <trkpt lat="43.85103" lon="7.96066">
        <ele>59.212686</ele>
        <time>2024-01-27T10:13:52.669Z</time>
      </trkpt>
      <trkpt lat="43.85098" lon="7.96052">
        <ele>59.172913</ele>
        <time>2024-01-27T10:13:55.695Z</time>
      </trkpt>
      <trkpt lat="43.85092" lon="7.96038">
        <ele>59.131018</ele>
        <time>2024-01-27T10:13:58.696Z</time>
      </trkpt>
      <trkpt lat="43.85087" lon="7.96024">
        <ele>59.090012</ele>
        <time>2024-01-27T10:14:01.703Z</time>
      </trkpt>
      <trkpt lat="43.85082" lon="7.96009">
        <ele>59.048024</ele>
        <time>2024-01-27T10:14:04.701Z</time>
      </trkpt>
      <trkpt lat="43.85077" lon="7.95994">
        <ele>59.006586</ele>
        <time>2024-01-27T10:14:07.703Z</time>
      </trkpt>
      <trkpt lat="43.85073" lon="7.95979">
        <ele>58.964818</ele>
        <time>2024-01-27T10:14:10.690Z</time>
      </trkpt>
      <trkpt lat="43.85069" lon="7.95963">
        <ele>58.922797</ele>
        <time>2024-01-27T10:14:13.691Z</time>
      </trkpt>
      <trkpt lat="43.85065" lon="7.95947">
        <ele>58.877169</ele>
        <time>2024-01-27T10:14:16.695Z</time>
      </trkpt>
      <trkpt lat="43.85061" lon="7.9593">
        <ele>58.832763</ele>
        <time>2024-01-27T10:14:19.690Z</time>
      </trkpt>
      <trkpt lat="43.85058" lon="7.95914">
        <ele>58.79012</ele>
        <time>2024-01-27T10:14:22.683Z</time>
      </trkpt>
      <trkpt lat="43.85056" lon="7.95899">
        <ele>58.751337</ele>
        <time>2024-01-27T10:14:25.689Z</time>
      </trkpt>
      <trkpt lat="43.85054" lon="7.95884">
        <ele>58.712166</ele>
        <time>2024-01-27T10:14:28.683Z</time>
      </trkpt>
      <trkpt lat="43.85053" lon="7.95871">
        <ele>58.678492</ele>
        <time>2024-01-27T10:14:31.688Z</time>
      </trkpt>
      <trkpt lat="43.8505" lon="7.95856">
        <ele>58.629273</ele>
        <time>2024-01-27T10:14:34.686Z</time>
      </trkpt>
      <trkpt lat="43.85048" lon="7.95842">
        <ele>58.5751</ele>
        <time>2024-01-27T10:14:37.701Z</time>
      </trkpt>
      <trkpt lat="43.85047" lon="7.95827">
        <ele>58.523211</ele>
        <time>2024-01-27T10:14:40.704Z</time>
      </trkpt>
      <trkpt lat="43.85045" lon="7.95812">
        <ele>58.46841</ele>
        <time>2024-01-27T10:14:43.683Z</time>
      </trkpt>
      <trkpt lat="43.85044" lon="7.95795">
        <ele>58.40881</ele>
        <time>2024-01-27T10:14:46.695Z</time>
      </trkpt>
      <trkpt lat="43.85043" lon="7.95779">
        <ele>58.351216</ele>
        <time>2024-01-27T10:14:49.683Z</time>
      </trkpt>
      <trkpt lat="43.85042" lon="7.95765">
        <ele>58.299901</ele>
        <time>2024-01-27T10:14:52.694Z</time>
      </trkpt>
      <trkpt lat="43.85041" lon="7.95752">
        <ele>58.253463</ele>
        <time>2024-01-27T10:14:55.680Z</time>
      </trkpt>
      <trkpt lat="43.8504" lon="7.95736">
        <ele>58.194894</ele>
        <time>2024-01-27T10:14:59.687Z</time>
      </trkpt>
      <trkpt lat="43.85038" lon="7.95723">
        <ele>58.148615</ele>
        <time>2024-01-27T10:15:02.692Z</time>
      </trkpt>
      <trkpt lat="43.85037" lon="7.95711">
        <ele>58.102016</ele>
        <time>2024-01-27T10:15:05.688Z</time>
      </trkpt>
      <trkpt lat="43.85036" lon="7.95697">
        <ele>58.05419</ele>
        <time>2024-01-27T10:15:08.676Z</time>
      </trkpt>
      <trkpt lat="43.85034" lon="7.95681">
        <ele>57.994938</ele>
        <time>2024-01-27T10:15:12.693Z</time>
      </trkpt>
      <trkpt lat="43.85032" lon="7.95664">
        <ele>57.934838</ele>
        <time>2024-01-27T10:15:16.697Z</time>
      </trkpt>
      <trkpt lat="43.85031" lon="7.95651">
        <ele>57.888486</ele>
        <time>2024-01-27T10:15:19.686Z</time>
      </trkpt>
      <trkpt lat="43.85027" lon="7.95637">
        <ele>57.832533</ele>
        <time>2024-01-27T10:15:23.697Z</time>
      </trkpt>
      <trkpt lat="43.85022" lon="7.95626">
        <ele>57.785482</ele>
        <time>2024-01-27T10:15:27.691Z</time>
      </trkpt>
      <trkpt lat="43.8502" lon="7.95613">
        <ele>57.792557</ele>
        <time>2024-01-27T10:15:32.686Z</time>
      </trkpt>
      <trkpt lat="43.85024" lon="7.95602">
        <ele>57.813715</ele>
        <time>2024-01-27T10:20:35.678Z</time>
      </trkpt>
      <trkpt lat="43.85023" lon="7.95587">
        <ele>57.839739</ele>
        <time>2024-01-27T10:20:40.664Z</time>
      </trkpt>
      <trkpt lat="43.85022" lon="7.95573">
        <ele>57.863583</ele>
        <time>2024-01-27T10:20:43.680Z</time>
      </trkpt>
      <trkpt lat="43.85018" lon="7.95561">
        <ele>57.885782</ele>
        <time>2024-01-27T10:20:46.672Z</time>
      </trkpt>
      <trkpt lat="43.85018" lon="7.95546">
        <ele>57.910482</ele>
        <time>2024-01-27T10:20:50.674Z</time>
      </trkpt>
      <trkpt lat="43.85028" lon="7.95535">
        <ele>57.940001</ele>
        <time>2024-01-27T10:20:53.661Z</time>
      </trkpt>
      <trkpt lat="43.85039" lon="7.95528">
        <ele>57.970026</ele>
        <time>2024-01-27T10:20:55.659Z</time>
      </trkpt>
      <trkpt lat="43.84588" lon="7.9382">
        <ele>61.307266</ele>
        <time>2024-01-27T10:25:38.709Z</time>
      </trkpt>
      <trkpt lat="43.8458" lon="7.93807">
        <ele>61.363554</ele>
        <time>2024-01-27T10:25:41.693Z</time>
      </trkpt>
      <trkpt lat="43.84577" lon="7.93795">
        <ele>61.405251</ele>
        <time>2024-01-27T10:25:43.685Z</time>
      </trkpt>
      <trkpt lat="43.84574" lon="7.9378">
        <ele>61.456654</ele>
        <time>2024-01-27T10:25:46.694Z</time>
      </trkpt>
      <trkpt lat="43.84572" lon="7.93764">
        <ele>61.509122</ele>
        <time>2024-01-27T10:25:49.694Z</time>
      </trkpt>
      <trkpt lat="43.84568" lon="7.93749">
        <ele>61.555139</ele>
        <time>2024-01-27T10:25:52.696Z</time>
      </trkpt>
      <trkpt lat="43.84565" lon="7.93736">
        <ele>61.597928</ele>
        <time>2024-01-27T10:25:55.673Z</time>
      </trkpt>
      <trkpt lat="43.84562" lon="7.93721">
        <ele>61.64099</ele>
        <time>2024-01-27T10:25:58.679Z</time>
      </trkpt>
      <trkpt lat="43.8456" lon="7.93706">
        <ele>61.687151</ele>
        <time>2024-01-27T10:26:01.691Z</time>
      </trkpt>
      <trkpt lat="43.84557" lon="7.9369">
        <ele>61.737154</ele>
        <time>2024-01-27T10:26:04.691Z</time>
      </trkpt>
      <trkpt lat="43.84554" lon="7.93673">
        <ele>61.788887</ele>
        <time>2024-01-27T10:26:07.698Z</time>
      </trkpt>
      <trkpt lat="43.8455" lon="7.93656">
        <ele>61.841038</ele>
        <time>2024-01-27T10:26:10.691Z</time>
      </trkpt>
      <trkpt lat="43.84547" lon="7.9364">
        <ele>61.891807</ele>
        <time>2024-01-27T10:26:13.699Z</time>
      </trkpt>
      <trkpt lat="43.84543" lon="7.93623">
        <ele>61.943137</ele>
        <time>2024-01-27T10:26:16.695Z</time>
      </trkpt>
      <trkpt lat="43.8454" lon="7.93606">
        <ele>61.996148</ele>
        <time>2024-01-27T10:26:19.689Z</time>
      </trkpt>
      <trkpt lat="43.84537" lon="7.93589">
        <ele>62.047617</ele>
        <time>2024-01-27T10:26:22.681Z</time>
      </trkpt>
      <trkpt lat="43.84534" lon="7.93572">
        <ele>62.100989</ele>
        <time>2024-01-27T10:26:25.696Z</time>
      </trkpt>
      <trkpt lat="43.84531" lon="7.93554">
        <ele>62.155768</ele>
        <time>2024-01-27T10:26:28.675Z</time>
      </trkpt>
      <trkpt lat="43.8453" lon="7.93537">
        <ele>62.207666</ele>
        <time>2024-01-27T10:26:31.698Z</time>
      </trkpt>
      <trkpt lat="43.84529" lon="7.93519">
        <ele>62.239085</ele>
        <time>2024-01-27T10:26:34.689Z</time>
      </trkpt>
      <trkpt lat="43.84528" lon="7.93506">
        <ele>62.227559</ele>
        <time>2024-01-27T10:26:36.700Z</time>
      </trkpt>
      <trkpt lat="43.84525" lon="7.93489">
        <ele>62.211147</ele>
        <time>2024-01-27T10:26:39.704Z</time>
      </trkpt>
      <trkpt lat="43.84524" lon="7.93471">
        <ele>62.194561</ele>
        <time>2024-01-27T10:26:42.706Z</time>
      </trkpt>
      <trkpt lat="43.84524" lon="7.93458">
        <ele>62.183066</ele>
        <time>2024-01-27T10:26:44.670Z</time>
      </trkpt>
      <trkpt lat="43.84523" lon="7.93446">
        <ele>62.171643</ele>
        <time>2024-01-27T10:26:46.698Z</time>
      </trkpt>
      <trkpt lat="43.84522" lon="7.93427">
        <ele>62.154652</ele>
        <time>2024-01-27T10:26:49.702Z</time>
      </trkpt>
      <trkpt lat="43.84521" lon="7.9341">
        <ele>62.138339</ele>
        <time>2024-01-27T10:26:52.692Z</time>
      </trkpt>
      <trkpt lat="43.8452" lon="7.93391">
        <ele>62.121536</ele>
        <time>2024-01-27T10:26:55.688Z</time>
      </trkpt>
      <trkpt lat="43.84519" lon="7.93373">
        <ele>62.105002</ele>
        <time>2024-01-27T10:26:58.690Z</time>
      </trkpt>
      <trkpt lat="43.84519" lon="7.93355">
        <ele>62.08839</ele>
        <time>2024-01-27T10:27:01.704Z</time>
      </trkpt>
      <trkpt lat="43.84517" lon="7.93337">
        <ele>62.071625</ele>
        <time>2024-01-27T10:27:04.682Z</time>
      </trkpt>
      <trkpt lat="43.84516" lon="7.93325">
        <ele>62.059855</ele>
        <time>2024-01-27T10:27:06.682Z</time>
      </trkpt>
      <trkpt lat="43.84514" lon="7.93312">
        <ele>62.048194</ele>
        <time>2024-01-27T10:27:08.681Z</time>
      </trkpt>
      <trkpt lat="43.84513" lon="7.93299">
        <ele>62.036386</ele>
        <time>2024-01-27T10:27:10.688Z</time>
      </trkpt>
      <trkpt lat="43.84511" lon="7.93287">
        <ele>62.024638</ele>
        <time>2024-01-27T10:27:12.702Z</time>
      </trkpt>
      <trkpt lat="43.84509" lon="7.93275">
        <ele>62.008022</ele>
        <time>2024-01-27T10:27:14.707Z</time>
      </trkpt>
      <trkpt lat="43.84507" lon="7.93262">
        <ele>61.969564</ele>
        <time>2024-01-27T10:27:16.698Z</time>
      </trkpt>
      <trkpt lat="43.84506" lon="7.93249">
        <ele>61.931206</ele>
        <time>2024-01-27T10:27:18.700Z</time>
      </trkpt>
      <trkpt lat="43.84502" lon="7.93231">
        <ele>61.874513</ele>
        <time>2024-01-27T10:27:21.704Z</time>
      </trkpt>
      <trkpt lat="43.84498" lon="7.93214">
        <ele>61.820293</ele>
        <time>2024-01-27T10:27:24.682Z</time>
      </trkpt>
      <trkpt lat="43.84498" lon="7.93197">
        <ele>61.769608</ele>
        <time>2024-01-27T10:27:27.692Z</time>
      </trkpt>
      <trkpt lat="43.84495" lon="7.93181">
        <ele>61.719663</ele>
        <time>2024-01-27T10:27:30.674Z</time>
      </trkpt>
      <trkpt lat="43.84493" lon="7.93166">
        <ele>61.674072</ele>
        <time>2024-01-27T10:27:33.703Z</time>
      </trkpt>
      <trkpt lat="43.84492" lon="7.93151">
        <ele>61.630324</ele>
        <time>2024-01-27T10:27:36.701Z</time>
      </trkpt>
      <trkpt lat="43.84489" lon="7.93139">
        <ele>61.590854</ele>
        <time>2024-01-27T10:27:39.695Z</time>
      </trkpt>
      <trkpt lat="43.84488" lon="7.93126">
        <ele>61.552367</ele>
        <time>2024-01-27T10:27:42.685Z</time>
      </trkpt>
      <trkpt lat="43.84488" lon="7.93112">
        <ele>61.510342</ele>
        <time>2024-01-27T10:27:45.686Z</time>
      </trkpt>
      <trkpt lat="43.84486" lon="7.93098">
        <ele>61.467292</ele>
        <time>2024-01-27T10:27:48.684Z</time>
      </trkpt>
      <trkpt lat="43.84485" lon="7.93083">
        <ele>61.423691</ele>
        <time>2024-01-27T10:27:51.690Z</time>
      </trkpt>
      <trkpt lat="43.84484" lon="7.93068">
        <ele>61.376697</ele>
        <time>2024-01-27T10:27:54.700Z</time>
      </trkpt>
      <trkpt lat="43.84483" lon="7.93052">
        <ele>61.331094</ele>
        <time>2024-01-27T10:27:57.703Z</time>
      </trkpt>
      <trkpt lat="43.84484" lon="7.93036">
        <ele>61.28188</ele>
        <time>2024-01-27T10:28:00.687Z</time>
      </trkpt>
      <trkpt lat="43.84484" lon="7.93018">
        <ele>61.25595</ele>
        <time>2024-01-27T10:28:03.673Z</time>
      </trkpt>
      <trkpt lat="43.84484" lon="7.93">
        <ele>61.240198</ele>
        <time>2024-01-27T10:28:06.689Z</time>
      </trkpt>
      <trkpt lat="43.84486" lon="7.92982">
        <ele>61.22447</ele>
        <time>2024-01-27T10:28:09.701Z</time>
      </trkpt>
      <trkpt lat="43.84487" lon="7.92965">
        <ele>61.208784</ele>
        <time>2024-01-27T10:28:12.700Z</time>
      </trkpt>
      <trkpt lat="43.84487" lon="7.92946">
        <ele>61.192835</ele>
        <time>2024-01-27T10:28:15.690Z</time>
      </trkpt>
      <trkpt lat="43.84489" lon="7.92928">
        <ele>61.17678</ele>
        <time>2024-01-27T10:28:18.694Z</time>
      </trkpt>
      <trkpt lat="43.84489" lon="7.92911">
        <ele>61.161629</ele>
        <time>2024-01-27T10:28:21.687Z</time>
      </trkpt>
      <trkpt lat="43.8449" lon="7.92894">
        <ele>61.14646</ele>
        <time>2024-01-27T10:28:24.683Z</time>
      </trkpt>
      <trkpt lat="43.84492" lon="7.92876">
        <ele>61.131007</ele>
        <time>2024-01-27T10:28:27.703Z</time>
      </trkpt>
      <trkpt lat="43.84492" lon="7.92859">
        <ele>61.115767</ele>
        <time>2024-01-27T10:28:30.717Z</time>
      </trkpt>
      <trkpt lat="43.84493" lon="7.92841">
        <ele>61.099673</ele>
        <time>2024-01-27T10:28:33.672Z</time>
      </trkpt>
      <trkpt lat="43.84493" lon="7.92828">
        <ele>61.088508</ele>
        <time>2024-01-27T10:28:35.693Z</time>
      </trkpt>
      <trkpt lat="43.84492" lon="7.92815">
        <ele>61.076806</ele>
        <time>2024-01-27T10:28:37.708Z</time>
      </trkpt>
      <trkpt lat="43.84492" lon="7.92802">
        <ele>61.065443</ele>
        <time>2024-01-27T10:28:39.709Z</time>
      </trkpt>
      <trkpt lat="43.84491" lon="7.92789">
        <ele>61.054225</ele>
        <time>2024-01-27T10:28:41.694Z</time>
      </trkpt>
      <trkpt lat="43.8449" lon="7.9277">
        <ele>60.978967</ele>
        <time>2024-01-27T10:28:44.682Z</time>
      </trkpt>
      <trkpt lat="43.84489" lon="7.92758">
        <ele>60.906557</ele>
        <time>2024-01-27T10:28:46.690Z</time>
      </trkpt>
      <trkpt lat="43.84488" lon="7.92744">
        <ele>60.832042</ele>
        <time>2024-01-27T10:28:48.684Z</time>
      </trkpt>
      <trkpt lat="43.84487" lon="7.92732">
        <ele>60.759387</ele>
        <time>2024-01-27T10:28:50.701Z</time>
      </trkpt>
      <trkpt lat="43.84485" lon="7.92719">
        <ele>60.684081</ele>
        <time>2024-01-27T10:28:52.694Z</time>
      </trkpt>
      <trkpt lat="43.84484" lon="7.92706">
        <ele>60.60857</ele>
        <time>2024-01-27T10:28:54.709Z</time>
      </trkpt>
      <trkpt lat="43.84482" lon="7.92693">
        <ele>60.53323</ele>
        <time>2024-01-27T10:28:56.704Z</time>
      </trkpt>
      <trkpt lat="43.8448" lon="7.9268">
        <ele>60.45916</ele>
        <time>2024-01-27T10:28:58.682Z</time>
      </trkpt>
      <trkpt lat="43.84479" lon="7.92667">
        <ele>60.386562</ele>
        <time>2024-01-27T10:29:00.687Z</time>
      </trkpt>
      <trkpt lat="43.84476" lon="7.92654">
        <ele>60.3105</ele>
        <time>2024-01-27T10:29:02.683Z</time>
      </trkpt>
      <trkpt lat="43.84474" lon="7.92641">
        <ele>60.236268</ele>
        <time>2024-01-27T10:29:04.684Z</time>
      </trkpt>
      <trkpt lat="43.84473" lon="7.92629">
        <ele>60.163308</ele>
        <time>2024-01-27T10:29:06.690Z</time>
      </trkpt>
      <trkpt lat="43.84471" lon="7.92616">
        <ele>60.089683</ele>
        <time>2024-01-27T10:29:08.697Z</time>
      </trkpt>
      <trkpt lat="43.8447" lon="7.92603">
        <ele>60.014931</ele>
        <time>2024-01-27T10:29:10.711Z</time>
      </trkpt>
      <trkpt lat="43.84469" lon="7.92589">
        <ele>59.935675</ele>
        <time>2024-01-27T10:29:12.687Z</time>
      </trkpt>
      <trkpt lat="43.84468" lon="7.92576">
        <ele>59.861574</ele>
        <time>2024-01-27T10:29:14.699Z</time>
      </trkpt>
      <trkpt lat="43.84468" lon="7.92562">
        <ele>59.786043</ele>
        <time>2024-01-27T10:29:16.682Z</time>
      </trkpt>
      <trkpt lat="43.84467" lon="7.92549">
        <ele>59.710594</ele>
        <time>2024-01-27T10:29:18.693Z</time>
      </trkpt>
      <trkpt lat="43.84467" lon="7.92536">
        <ele>59.638573</ele>
        <time>2024-01-27T10:29:20.696Z</time>
      </trkpt>
      <trkpt lat="43.84468" lon="7.92519">
        <ele>59.635526</ele>
        <time>2024-01-27T10:29:23.697Z</time>
      </trkpt>
      <trkpt lat="43.84468" lon="7.92501">
        <ele>59.636291</ele>
        <time>2024-01-27T10:29:26.694Z</time>
      </trkpt>
      <trkpt lat="43.84469" lon="7.92488">
        <ele>59.636829</ele>
        <time>2024-01-27T10:29:28.692Z</time>
      </trkpt>
      <trkpt lat="43.84469" lon="7.9247">
        <ele>59.637603</ele>
        <time>2024-01-27T10:29:31.704Z</time>
      </trkpt>
      <trkpt lat="43.8447" lon="7.92452">
        <ele>59.638331</ele>
        <time>2024-01-27T10:29:34.705Z</time>
      </trkpt>
      <trkpt lat="43.8447" lon="7.9244">
        <ele>59.63885</ele>
        <time>2024-01-27T10:29:36.680Z</time>
      </trkpt>
      <trkpt lat="43.84471" lon="7.92427">
        <ele>59.639403</ele>
        <time>2024-01-27T10:29:38.688Z</time>
      </trkpt>
      <trkpt lat="43.84472" lon="7.92413">
        <ele>59.639961</ele>
        <time>2024-01-27T10:29:40.709Z</time>
      </trkpt>
      <trkpt lat="43.84472" lon="7.924">
        <ele>59.640534</ele>
        <time>2024-01-27T10:29:42.690Z</time>
      </trkpt>
      <trkpt lat="43.84472" lon="7.92386">
        <ele>59.641095</ele>
        <time>2024-01-27T10:29:44.688Z</time>
      </trkpt>
      <trkpt lat="43.84473" lon="7.92367">
        <ele>59.641884</ele>
        <time>2024-01-27T10:29:47.693Z</time>
      </trkpt>
      <trkpt lat="43.84474" lon="7.92354">
        <ele>59.642429</ele>
        <time>2024-01-27T10:29:49.709Z</time>
      </trkpt>
      <trkpt lat="43.84475" lon="7.92341">
        <ele>59.643</ele>
        <time>2024-01-27T10:29:51.688Z</time>
      </trkpt>
      <trkpt lat="43.84475" lon="7.92327">
        <ele>59.643581</ele>
        <time>2024-01-27T10:29:53.693Z</time>
      </trkpt>
      <trkpt lat="43.84475" lon="7.92313">
        <ele>59.644166</ele>
        <time>2024-01-27T10:29:55.683Z</time>
      </trkpt>
      <trkpt lat="43.84476" lon="7.92299">
        <ele>59.644735</ele>
        <time>2024-01-27T10:29:57.680Z</time>
      </trkpt>
      <trkpt lat="43.84476" lon="7.92285">
        <ele>59.639928</ele>
        <time>2024-01-27T10:29:59.713Z</time>
      </trkpt>
      <trkpt lat="43.84476" lon="7.92272">
        <ele>59.593986</ele>
        <time>2024-01-27T10:30:01.691Z</time>
      </trkpt>
      <trkpt lat="43.84475" lon="7.92258">
        <ele>59.546983</ele>
        <time>2024-01-27T10:30:03.703Z</time>
      </trkpt>
      <trkpt lat="43.84475" lon="7.92243">
        <ele>59.49884</ele>
        <time>2024-01-27T10:30:05.700Z</time>
      </trkpt>
      <trkpt lat="43.84473" lon="7.92229">
        <ele>59.451167</ele>
        <time>2024-01-27T10:30:07.713Z</time>
      </trkpt>
      <trkpt lat="43.84472" lon="7.92215">
        <ele>59.401424</ele>
        <time>2024-01-27T10:30:09.700Z</time>
      </trkpt>
      <trkpt lat="43.84471" lon="7.92201">
        <ele>59.353574</ele>
        <time>2024-01-27T10:30:11.694Z</time>
      </trkpt>
      <trkpt lat="43.84469" lon="7.92187">
        <ele>59.30517</ele>
        <time>2024-01-27T10:30:13.703Z</time>
      </trkpt>
      <trkpt lat="43.84468" lon="7.92173">
        <ele>59.258716</ele>
        <time>2024-01-27T10:30:15.685Z</time>
      </trkpt>
      <trkpt lat="43.84466" lon="7.92159">
        <ele>59.211508</ele>
        <time>2024-01-27T10:30:17.700Z</time>
      </trkpt>
      <trkpt lat="43.84463" lon="7.92146">
        <ele>59.164764</ele>
        <time>2024-01-27T10:30:19.702Z</time>
      </trkpt>
      <trkpt lat="43.84462" lon="7.92132">
        <ele>59.118065</ele>
        <time>2024-01-27T10:30:21.705Z</time>
      </trkpt>
      <trkpt lat="43.84459" lon="7.92118">
        <ele>59.069771</ele>
        <time>2024-01-27T10:30:23.698Z</time>
      </trkpt>
      <trkpt lat="43.84457" lon="7.92105">
        <ele>59.023907</ele>
        <time>2024-01-27T10:30:25.685Z</time>
      </trkpt>
      <trkpt lat="43.84454" lon="7.92092">
        <ele>58.978542</ele>
        <time>2024-01-27T10:30:27.672Z</time>
      </trkpt>
      <trkpt lat="43.84451" lon="7.92079">
        <ele>58.932619</ele>
        <time>2024-01-27T10:30:29.708Z</time>
      </trkpt>
      <trkpt lat="43.84449" lon="7.92067">
        <ele>58.888091</ele>
        <time>2024-01-27T10:30:31.697Z</time>
      </trkpt>
      <trkpt lat="43.84446" lon="7.92054">
        <ele>58.843504</ele>
        <time>2024-01-27T10:30:33.683Z</time>
      </trkpt>
      <trkpt lat="43.84443" lon="7.92041">
        <ele>58.801544</ele>
        <time>2024-01-27T10:30:35.701Z</time>
      </trkpt>
      <trkpt lat="43.84439" lon="7.92029">
        <ele>58.788059</ele>
        <time>2024-01-27T10:30:37.706Z</time>
      </trkpt>
      <trkpt lat="43.84435" lon="7.92017">
        <ele>58.774755</ele>
        <time>2024-01-27T10:30:39.696Z</time>
      </trkpt>
      <trkpt lat="43.84431" lon="7.92004">
        <ele>58.761498</ele>
        <time>2024-01-27T10:30:41.691Z</time>
      </trkpt>
      <trkpt lat="43.84428" lon="7.91992">
        <ele>58.748525</ele>
        <time>2024-01-27T10:30:43.711Z</time>
      </trkpt>
      <trkpt lat="43.84424" lon="7.9198">
        <ele>58.735267</ele>
        <time>2024-01-27T10:30:45.706Z</time>
      </trkpt>
      <trkpt lat="43.84421" lon="7.91968">
        <ele>58.722295</ele>
        <time>2024-01-27T10:30:47.693Z</time>
      </trkpt>
      <trkpt lat="43.84417" lon="7.91955">
        <ele>58.709364</ele>
        <time>2024-01-27T10:30:49.711Z</time>
      </trkpt>
      <trkpt lat="43.84414" lon="7.91944">
        <ele>58.696719</ele>
        <time>2024-01-27T10:30:51.698Z</time>
      </trkpt>
      <trkpt lat="43.8441" lon="7.91932">
        <ele>58.683757</ele>
        <time>2024-01-27T10:30:53.700Z</time>
      </trkpt>
      <trkpt lat="43.84406" lon="7.9192">
        <ele>58.670882</ele>
        <time>2024-01-27T10:30:55.697Z</time>
      </trkpt>
      <trkpt lat="43.84402" lon="7.91908">
        <ele>58.658187</ele>
        <time>2024-01-27T10:30:57.697Z</time>
      </trkpt>
      <trkpt lat="43.84399" lon="7.91896">
        <ele>58.645072</ele>
        <time>2024-01-27T10:30:59.705Z</time>
      </trkpt>
      <trkpt lat="43.84396" lon="7.91884">
        <ele>58.632196</ele>
        <time>2024-01-27T10:31:01.706Z</time>
      </trkpt>
      <trkpt lat="43.84393" lon="7.91872">
        <ele>58.619599</ele>
        <time>2024-01-27T10:31:03.703Z</time>
      </trkpt>
      <trkpt lat="43.84388" lon="7.91854">
        <ele>58.601172</ele>
        <time>2024-01-27T10:31:06.701Z</time>
      </trkpt>
      <trkpt lat="43.84385" lon="7.91837">
        <ele>58.583331</ele>
        <time>2024-01-27T10:31:09.709Z</time>
      </trkpt>
      <trkpt lat="43.84382" lon="7.91819">
        <ele>58.565067</ele>
        <time>2024-01-27T10:31:12.694Z</time>
      </trkpt>
      <trkpt lat="43.84379" lon="7.91802">
        <ele>58.575959</ele>
        <time>2024-01-27T10:31:15.696Z</time>
      </trkpt>
      <trkpt lat="43.84375" lon="7.91784">
        <ele>58.62053</ele>
        <time>2024-01-27T10:31:18.712Z</time>
      </trkpt>
      <trkpt lat="43.84371" lon="7.91767">
        <ele>58.663012</ele>
        <time>2024-01-27T10:31:21.686Z</time>
      </trkpt>
      <trkpt lat="43.84366" lon="7.9175">
        <ele>58.707108</ele>
        <time>2024-01-27T10:31:24.695Z</time>
      </trkpt>
      <trkpt lat="43.84362" lon="7.91734">
        <ele>58.750276</ele>
        <time>2024-01-27T10:31:27.685Z</time>
      </trkpt>
      <trkpt lat="43.84359" lon="7.91722">
        <ele>58.782211</ele>
        <time>2024-01-27T10:31:29.696Z</time>
      </trkpt>
      <trkpt lat="43.84352" lon="7.91706">
        <ele>58.826472</ele>
        <time>2024-01-27T10:31:32.708Z</time>
      </trkpt>
      <trkpt lat="43.84346" lon="7.9169">
        <ele>58.870416</ele>
        <time>2024-01-27T10:31:35.695Z</time>
      </trkpt>
      <trkpt lat="43.8434" lon="7.91674">
        <ele>58.914511</ele>
        <time>2024-01-27T10:31:38.674Z</time>
      </trkpt>
      <trkpt lat="43.84334" lon="7.9166">
        <ele>58.954695</ele>
        <time>2024-01-27T10:31:41.713Z</time>
      </trkpt>
      <trkpt lat="43.84327" lon="7.91645">
        <ele>58.997628</ele>
        <time>2024-01-27T10:31:44.702Z</time>
      </trkpt>
      <trkpt lat="43.84319" lon="7.9163">
        <ele>59.042634</ele>
        <time>2024-01-27T10:31:47.698Z</time>
      </trkpt>
      <trkpt lat="43.84312" lon="7.91614">
        <ele>59.086496</ele>
        <time>2024-01-27T10:31:50.695Z</time>
      </trkpt>
      <trkpt lat="43.84305" lon="7.916">
        <ele>59.128175</ele>
        <time>2024-01-27T10:31:53.701Z</time>
      </trkpt>
      <trkpt lat="43.84297" lon="7.91587">
        <ele>59.184302</ele>
        <time>2024-01-27T10:31:56.703Z</time>
      </trkpt>
      <trkpt lat="43.84289" lon="7.91573">
        <ele>59.287229</ele>
        <time>2024-01-27T10:31:59.695Z</time>
      </trkpt>
      <trkpt lat="43.8428" lon="7.9156">
        <ele>59.390208</ele>
        <time>2024-01-27T10:32:02.698Z</time>
      </trkpt>
      <trkpt lat="43.84271" lon="7.91547">
        <ele>59.496793</ele>
        <time>2024-01-27T10:32:05.720Z</time>
      </trkpt>
      <trkpt lat="43.84262" lon="7.91535">
        <ele>59.598785</ele>
        <time>2024-01-27T10:32:08.694Z</time>
      </trkpt>
      <trkpt lat="43.84253" lon="7.91522">
        <ele>59.704911</ele>
        <time>2024-01-27T10:32:11.695Z</time>
      </trkpt>
      <trkpt lat="43.84242" lon="7.91511">
        <ele>59.813548</ele>
        <time>2024-01-27T10:32:14.691Z</time>
      </trkpt>
      <trkpt lat="43.84231" lon="7.91501">
        <ele>59.923774</ele>
        <time>2024-01-27T10:32:17.693Z</time>
      </trkpt>
      <trkpt lat="43.84221" lon="7.9149">
        <ele>60.025688</ele>
        <time>2024-01-27T10:32:20.709Z</time>
      </trkpt>
      <trkpt lat="43.84211" lon="7.91478">
        <ele>60.13122</ele>
        <time>2024-01-27T10:32:23.696Z</time>
      </trkpt>
      <trkpt lat="43.842" lon="7.91468">
        <ele>60.236439</ele>
        <time>2024-01-27T10:32:26.695Z</time>
      </trkpt>
      <trkpt lat="43.8419" lon="7.91456">
        <ele>60.339625</ele>
        <time>2024-01-27T10:32:29.683Z</time>
      </trkpt>
      <trkpt lat="43.84181" lon="7.91445">
        <ele>60.439998</ele>
        <time>2024-01-27T10:32:32.697Z</time>
      </trkpt>
      <trkpt lat="43.84172" lon="7.91432">
        <ele>60.548328</ele>
        <time>2024-01-27T10:32:35.698Z</time>
      </trkpt>
      <trkpt lat="43.84162" lon="7.9142">
        <ele>60.670079</ele>
        <time>2024-01-27T10:32:38.700Z</time>
      </trkpt>
      <trkpt lat="43.84155" lon="7.91412">
        <ele>60.783413</ele>
        <time>2024-01-27T10:32:40.689Z</time>
      </trkpt>
      <trkpt lat="43.84147" lon="7.91403">
        <ele>60.902494</ele>
        <time>2024-01-27T10:32:42.690Z</time>
      </trkpt>
      <trkpt lat="43.84141" lon="7.91394">
        <ele>61.020031</ele>
        <time>2024-01-27T10:32:44.689Z</time>
      </trkpt>
      <trkpt lat="43.84134" lon="7.91385">
        <ele>61.132466</ele>
        <time>2024-01-27T10:32:46.697Z</time>
      </trkpt>
      <trkpt lat="43.84128" lon="7.91376">
        <ele>61.246004</ele>
        <time>2024-01-27T10:32:48.706Z</time>
      </trkpt>
      <trkpt lat="43.8412" lon="7.91361">
        <ele>61.406096</ele>
        <time>2024-01-27T10:32:51.707Z</time>
      </trkpt>
      <trkpt lat="43.84112" lon="7.91348">
        <ele>61.564174</ele>
        <time>2024-01-27T10:32:54.689Z</time>
      </trkpt>
      <trkpt lat="43.84104" lon="7.91334">
        <ele>61.717817</ele>
        <time>2024-01-27T10:32:57.703Z</time>
      </trkpt>
      <trkpt lat="43.84097" lon="7.9132">
        <ele>61.865617</ele>
        <time>2024-01-27T10:33:00.690Z</time>
      </trkpt>
      <trkpt lat="43.8409" lon="7.91306">
        <ele>62.013509</ele>
        <time>2024-01-27T10:33:03.689Z</time>
      </trkpt>
      <trkpt lat="43.84086" lon="7.91292">
        <ele>62.155259</ele>
        <time>2024-01-27T10:33:06.693Z</time>
      </trkpt>
      <trkpt lat="43.8408" lon="7.91276">
        <ele>62.306484</ele>
        <time>2024-01-27T10:33:09.686Z</time>
      </trkpt>
      <trkpt lat="43.84076" lon="7.91261">
        <ele>62.457579</ele>
        <time>2024-01-27T10:33:12.689Z</time>
      </trkpt>
      <trkpt lat="43.84069" lon="7.91246">
        <ele>62.609139</ele>
        <time>2024-01-27T10:33:15.695Z</time>
      </trkpt>
      <trkpt lat="43.84064" lon="7.91229">
        <ele>62.768114</ele>
        <time>2024-01-27T10:33:18.687Z</time>
      </trkpt>
      <trkpt lat="43.84059" lon="7.91215">
        <ele>62.821308</ele>
        <time>2024-01-27T10:33:21.683Z</time>
      </trkpt>
      <trkpt lat="43.84054" lon="7.91201">
        <ele>62.813763</ele>
        <time>2024-01-27T10:33:24.704Z</time>
      </trkpt>
      <trkpt lat="43.84047" lon="7.91187">
        <ele>62.805708</ele>
        <time>2024-01-27T10:33:27.691Z</time>
      </trkpt>
      <trkpt lat="43.84041" lon="7.91173">
        <ele>62.797632</ele>
        <time>2024-01-27T10:33:30.693Z</time>
      </trkpt>
      <trkpt lat="43.84035" lon="7.91159">
        <ele>62.789417</ele>
        <time>2024-01-27T10:33:33.697Z</time>
      </trkpt>
      <trkpt lat="43.84029" lon="7.91144">
        <ele>62.781096</ele>
        <time>2024-01-27T10:33:36.704Z</time>
      </trkpt>
      <trkpt lat="43.84023" lon="7.91129">
        <ele>62.772777</ele>
        <time>2024-01-27T10:33:39.699Z</time>
      </trkpt>
      <trkpt lat="43.84017" lon="7.91116">
        <ele>62.765047</ele>
        <time>2024-01-27T10:33:42.701Z</time>
      </trkpt>
      <trkpt lat="43.84012" lon="7.91103">
        <ele>62.758069</ele>
        <time>2024-01-27T10:33:45.707Z</time>
      </trkpt>
      <trkpt lat="43.84006" lon="7.91089">
        <ele>62.749806</ele>
        <time>2024-01-27T10:33:48.701Z</time>
      </trkpt>
      <trkpt lat="43.83999" lon="7.91075">
        <ele>62.741686</ele>
        <time>2024-01-27T10:33:51.700Z</time>
      </trkpt>
      <trkpt lat="43.83992" lon="7.91061">
        <ele>62.73344</ele>
        <time>2024-01-27T10:33:54.705Z</time>
      </trkpt>
      <trkpt lat="43.83985" lon="7.91047">
        <ele>62.725283</ele>
        <time>2024-01-27T10:33:57.693Z</time>
      </trkpt>
      <trkpt lat="43.83978" lon="7.91032">
        <ele>62.716253</ele>
        <time>2024-01-27T10:34:00.691Z</time>
      </trkpt>
      <trkpt lat="43.8397" lon="7.91016">
        <ele>62.707147</ele>
        <time>2024-01-27T10:34:03.680Z</time>
      </trkpt>
      <trkpt lat="43.83962" lon="7.91002">
        <ele>62.682346</ele>
        <time>2024-01-27T10:34:06.696Z</time>
      </trkpt>
      <trkpt lat="43.83956" lon="7.90991">
        <ele>62.659757</ele>
        <time>2024-01-27T10:34:08.691Z</time>
      </trkpt>
      <trkpt lat="43.83951" lon="7.9098">
        <ele>62.636733</ele>
        <time>2024-01-27T10:34:10.689Z</time>
      </trkpt>
      <trkpt lat="43.83945" lon="7.90969">
        <ele>62.612316</ele>
        <time>2024-01-27T10:34:12.705Z</time>
      </trkpt>
      <trkpt lat="43.8394" lon="7.90957">
        <ele>62.588445</ele>
        <time>2024-01-27T10:34:14.681Z</time>
      </trkpt>
      <trkpt lat="43.83935" lon="7.90946">
        <ele>62.565442</ele>
        <time>2024-01-27T10:34:16.692Z</time>
      </trkpt>
      <trkpt lat="43.83929" lon="7.90935">
        <ele>62.541717</ele>
        <time>2024-01-27T10:34:18.681Z</time>
      </trkpt>
      <trkpt lat="43.83923" lon="7.90924">
        <ele>62.516861</ele>
        <time>2024-01-27T10:34:20.676Z</time>
      </trkpt>
      <trkpt lat="43.83917" lon="7.90912">
        <ele>62.492447</ele>
        <time>2024-01-27T10:34:22.684Z</time>
      </trkpt>
      <trkpt lat="43.8391" lon="7.909">
        <ele>62.466768</ele>
        <time>2024-01-27T10:34:24.686Z</time>
      </trkpt>
      <trkpt lat="43.83904" lon="7.90889">
        <ele>62.441187</ele>
        <time>2024-01-27T10:34:26.696Z</time>
      </trkpt>
      <trkpt lat="43.83898" lon="7.90878">
        <ele>62.416903</ele>
        <time>2024-01-27T10:34:28.701Z</time>
      </trkpt>
      <trkpt lat="43.8389" lon="7.90867">
        <ele>62.390643</ele>
        <time>2024-01-27T10:34:30.697Z</time>
      </trkpt>
      <trkpt lat="43.83883" lon="7.90856">
        <ele>62.364768</ele>
        <time>2024-01-27T10:34:32.705Z</time>
      </trkpt>
      <trkpt lat="43.83876" lon="7.90845">
        <ele>62.339021</ele>
        <time>2024-01-27T10:34:34.681Z</time>
      </trkpt>
      <trkpt lat="43.83868" lon="7.90835">
        <ele>62.313041</ele>
        <time>2024-01-27T10:34:36.691Z</time>
      </trkpt>
      <trkpt lat="43.83861" lon="7.90826">
        <ele>62.289248</ele>
        <time>2024-01-27T10:34:38.712Z</time>
      </trkpt>
      <trkpt lat="43.83853" lon="7.90815">
        <ele>62.266846</ele>
        <time>2024-01-27T10:34:40.687Z</time>
      </trkpt>
      <trkpt lat="43.83845" lon="7.90805">
        <ele>62.254269</ele>
        <time>2024-01-27T10:34:42.684Z</time>
      </trkpt>
      <trkpt lat="43.83838" lon="7.90796">
        <ele>62.24178</ele>
        <time>2024-01-27T10:34:44.691Z</time>
      </trkpt>
      <trkpt lat="43.83832" lon="7.90784">
        <ele>62.229352</ele>
        <time>2024-01-27T10:34:46.691Z</time>
      </trkpt>
      <trkpt lat="43.83825" lon="7.90774">
        <ele>62.21688</ele>
        <time>2024-01-27T10:34:48.699Z</time>
      </trkpt>
      <trkpt lat="43.83819" lon="7.90764">
        <ele>62.205031</ele>
        <time>2024-01-27T10:34:50.714Z</time>
      </trkpt>
      <trkpt lat="43.83813" lon="7.90753">
        <ele>62.193393</ele>
        <time>2024-01-27T10:34:52.694Z</time>
      </trkpt>
      <trkpt lat="43.83807" lon="7.90742">
        <ele>62.181684</ele>
        <time>2024-01-27T10:34:54.693Z</time>
      </trkpt>
      <trkpt lat="43.83801" lon="7.90732">
        <ele>62.170167</ele>
        <time>2024-01-27T10:34:56.711Z</time>
      </trkpt>
      <trkpt lat="43.83796" lon="7.90721">
        <ele>62.157884</ele>
        <time>2024-01-27T10:34:58.714Z</time>
      </trkpt>
      <trkpt lat="43.83791" lon="7.90709">
        <ele>62.145548</ele>
        <time>2024-01-27T10:35:00.697Z</time>
      </trkpt>
      <trkpt lat="43.83786" lon="7.90696">
        <ele>62.133043</ele>
        <time>2024-01-27T10:35:02.698Z</time>
      </trkpt>
      <trkpt lat="43.8378" lon="7.90684">
        <ele>62.120518</ele>
        <time>2024-01-27T10:35:04.677Z</time>
      </trkpt>
      <trkpt lat="43.83775" lon="7.90672">
        <ele>62.108057</ele>
        <time>2024-01-27T10:35:06.684Z</time>
      </trkpt>
      <trkpt lat="43.83771" lon="7.9066">
        <ele>62.096391</ele>
        <time>2024-01-27T10:35:08.685Z</time>
      </trkpt>
      <trkpt lat="43.83767" lon="7.90648">
        <ele>62.085177</ele>
        <time>2024-01-27T10:35:10.691Z</time>
      </trkpt>
      <trkpt lat="43.83763" lon="7.90635">
        <ele>62.072629</ele>
        <time>2024-01-27T10:35:12.694Z</time>
      </trkpt>
      <trkpt lat="43.83759" lon="7.90622">
        <ele>62.059988</ele>
        <time>2024-01-27T10:35:14.709Z</time>
      </trkpt>
      <trkpt lat="43.83756" lon="7.90609">
        <ele>62.016421</ele>
        <time>2024-01-27T10:35:16.698Z</time>
      </trkpt>
      <trkpt lat="43.83752" lon="7.90595">
        <ele>61.87745</ele>
        <time>2024-01-27T10:35:18.696Z</time>
      </trkpt>
      <trkpt lat="43.83749" lon="7.90581">
        <ele>61.739769</ele>
        <time>2024-01-27T10:35:20.690Z</time>
      </trkpt>
      <trkpt lat="43.83746" lon="7.90568">
        <ele>61.607952</ele>
        <time>2024-01-27T10:35:22.685Z</time>
      </trkpt>
      <trkpt lat="43.83743" lon="7.90557">
        <ele>61.487841</ele>
        <time>2024-01-27T10:35:24.692Z</time>
      </trkpt>
      <trkpt lat="43.8374" lon="7.90544">
        <ele>61.366992</ele>
        <time>2024-01-27T10:35:26.703Z</time>
      </trkpt>
      <trkpt lat="43.83738" lon="7.90532">
        <ele>61.242762</ele>
        <time>2024-01-27T10:35:28.713Z</time>
      </trkpt>
      <trkpt lat="43.83735" lon="7.90519">
        <ele>61.114487</ele>
        <time>2024-01-27T10:35:30.692Z</time>
      </trkpt>
      <trkpt lat="43.83731" lon="7.90506">
        <ele>60.978196</ele>
        <time>2024-01-27T10:35:32.701Z</time>
      </trkpt>
      <trkpt lat="43.83728" lon="7.90492">
        <ele>60.841007</ele>
        <time>2024-01-27T10:35:34.676Z</time>
      </trkpt>
      <trkpt lat="43.83722" lon="7.90478">
        <ele>60.690901</ele>
        <time>2024-01-27T10:35:36.693Z</time>
      </trkpt>
      <trkpt lat="43.83714" lon="7.90467">
        <ele>60.532804</ele>
        <time>2024-01-27T10:35:38.692Z</time>
      </trkpt>
      <trkpt lat="43.83703" lon="7.90459">
        <ele>60.368423</ele>
        <time>2024-01-27T10:35:40.683Z</time>
      </trkpt>
      <trkpt lat="43.83692" lon="7.90451">
        <ele>60.205832</ele>
        <time>2024-01-27T10:35:42.703Z</time>
      </trkpt>
      <trkpt lat="43.83683" lon="7.9044">
        <ele>60.046426</ele>
        <time>2024-01-27T10:35:44.727Z</time>
      </trkpt>
      <trkpt lat="43.83676" lon="7.90427">
        <ele>59.891338</ele>
        <time>2024-01-27T10:35:46.703Z</time>
      </trkpt>
      <trkpt lat="43.83671" lon="7.90413">
        <ele>59.741697</ele>
        <time>2024-01-27T10:35:48.683Z</time>
      </trkpt>
      <trkpt lat="43.83669" lon="7.90399">
        <ele>59.717362</ele>
        <time>2024-01-27T10:35:50.674Z</time>
      </trkpt>
      <trkpt lat="43.83669" lon="7.90385">
        <ele>59.827784</ele>
        <time>2024-01-27T10:35:52.675Z</time>
      </trkpt>
      <trkpt lat="43.83671" lon="7.90371">
        <ele>59.940121</ele>
        <time>2024-01-27T10:35:54.682Z</time>
      </trkpt>
      <trkpt lat="43.83673" lon="7.90358">
        <ele>60.042124</ele>
        <time>2024-01-27T10:35:56.698Z</time>
      </trkpt>
      <trkpt lat="43.83676" lon="7.90342">
        <ele>60.169451</ele>
        <time>2024-01-27T10:35:59.768Z</time>
      </trkpt>
      <trkpt lat="43.83679" lon="7.90329">
        <ele>60.282677</ele>
        <time>2024-01-27T10:36:02.691Z</time>
      </trkpt>
      <trkpt lat="43.83681" lon="7.90316">
        <ele>60.387974</ele>
        <time>2024-01-27T10:36:05.670Z</time>
      </trkpt>
      <trkpt lat="43.83685" lon="7.90303">
        <ele>60.496821</ele>
        <time>2024-01-27T10:36:08.700Z</time>
      </trkpt>
      <trkpt lat="43.83689" lon="7.90291">
        <ele>60.602241</ele>
        <time>2024-01-27T10:36:11.695Z</time>
      </trkpt>
      <trkpt lat="43.83693" lon="7.90279">
        <ele>60.703704</ele>
        <time>2024-01-27T10:36:15.671Z</time>
      </trkpt>
      <trkpt lat="43.83696" lon="7.90262">
        <ele>60.840725</ele>
        <time>2024-01-27T10:37:15.683Z</time>
      </trkpt>
      <trkpt lat="43.83699" lon="7.90249">
        <ele>60.948658</ele>
        <time>2024-01-27T10:37:19.679Z</time>
      </trkpt>
      <trkpt lat="43.83702" lon="7.90237">
        <ele>61.048536</ele>
        <time>2024-01-27T10:37:22.700Z</time>
      </trkpt>
      <trkpt lat="43.83705" lon="7.90225">
        <ele>61.151672</ele>
        <time>2024-01-27T10:37:25.700Z</time>
      </trkpt>
      <trkpt lat="43.83708" lon="7.90212">
        <ele>61.255216</ele>
        <time>2024-01-27T10:37:28.687Z</time>
      </trkpt>
      <trkpt lat="43.83711" lon="7.90199">
        <ele>61.36661</ele>
        <time>2024-01-27T10:37:31.707Z</time>
      </trkpt>
      <trkpt lat="43.83714" lon="7.90185">
        <ele>61.480267</ele>
        <time>2024-01-27T10:37:34.706Z</time>
      </trkpt>
      <trkpt lat="43.83717" lon="7.90169">
        <ele>61.61091</ele>
        <time>2024-01-27T10:37:37.703Z</time>
      </trkpt>
      <trkpt lat="43.8372" lon="7.90152">
        <ele>61.65481</ele>
        <time>2024-01-27T10:37:40.701Z</time>
      </trkpt>
      <trkpt lat="43.83725" lon="7.90135">
        <ele>61.682153</ele>
        <time>2024-01-27T10:37:43.705Z</time>
      </trkpt>
      <trkpt lat="43.83729" lon="7.90123">
        <ele>61.701598</ele>
        <time>2024-01-27T10:37:45.699Z</time>
      </trkpt>
      <trkpt lat="43.83732" lon="7.90111">
        <ele>61.720144</ele>
        <time>2024-01-27T10:37:47.707Z</time>
      </trkpt>
      <trkpt lat="43.83735" lon="7.90098">
        <ele>61.74035</ele>
        <time>2024-01-27T10:37:49.689Z</time>
      </trkpt>
      <trkpt lat="43.83738" lon="7.90085">
        <ele>61.759657</ele>
        <time>2024-01-27T10:37:51.704Z</time>
      </trkpt>
      <trkpt lat="43.83742" lon="7.90074">
        <ele>61.778803</ele>
        <time>2024-01-27T10:37:53.685Z</time>
      </trkpt>
      <trkpt lat="43.83745" lon="7.90062">
        <ele>61.79736</ele>
        <time>2024-01-27T10:37:55.701Z</time>
      </trkpt>
      <trkpt lat="43.83749" lon="7.9005">
        <ele>61.816182</ele>
        <time>2024-01-27T10:37:57.701Z</time>
      </trkpt>
      <trkpt lat="43.83753" lon="7.90032">
        <ele>61.843517</ele>
        <time>2024-01-27T10:38:00.702Z</time>
      </trkpt>
      <trkpt lat="43.83757" lon="7.9002">
        <ele>61.862696</ele>
        <time>2024-01-27T10:38:02.683Z</time>
      </trkpt>
      <trkpt lat="43.83762" lon="7.90003">
        <ele>61.890191</ele>
        <time>2024-01-27T10:38:05.705Z</time>
      </trkpt>
      <trkpt lat="43.83766" lon="7.89991">
        <ele>61.90904</ele>
        <time>2024-01-27T10:38:07.706Z</time>
      </trkpt>
      <trkpt lat="43.83769" lon="7.89979">
        <ele>61.928672</ele>
        <time>2024-01-27T10:38:09.705Z</time>
      </trkpt>
      <trkpt lat="43.83773" lon="7.89967">
        <ele>61.948399</ele>
        <time>2024-01-27T10:38:11.686Z</time>
      </trkpt>
      <trkpt lat="43.83776" lon="7.89954">
        <ele>61.967655</ele>
        <time>2024-01-27T10:38:13.711Z</time>
      </trkpt>
      <trkpt lat="43.83779" lon="7.89941">
        <ele>61.987253</ele>
        <time>2024-01-27T10:38:15.697Z</time>
      </trkpt>
      <trkpt lat="43.83781" lon="7.89929">
        <ele>61.997598</ele>
        <time>2024-01-27T10:38:17.701Z</time>
      </trkpt>
      <trkpt lat="43.83783" lon="7.89916">
        <ele>61.990157</ele>
        <time>2024-01-27T10:38:19.685Z</time>
      </trkpt>
      <trkpt lat="43.83786" lon="7.89903">
        <ele>61.9826</ele>
        <time>2024-01-27T10:38:21.719Z</time>
      </trkpt>
      <trkpt lat="43.83788" lon="7.8989">
        <ele>61.975247</ele>
        <time>2024-01-27T10:38:23.709Z</time>
      </trkpt>
      <trkpt lat="43.8379" lon="7.89876">
        <ele>61.967482</ele>
        <time>2024-01-27T10:38:25.701Z</time>
      </trkpt>
      <trkpt lat="43.83791" lon="7.89862">
        <ele>61.959466</ele>
        <time>2024-01-27T10:38:27.698Z</time>
      </trkpt>
      <trkpt lat="43.83794" lon="7.89849">
        <ele>61.95168</ele>
        <time>2024-01-27T10:38:29.681Z</time>
      </trkpt>
      <trkpt lat="43.83796" lon="7.89835">
        <ele>61.943763</ele>
        <time>2024-01-27T10:38:31.694Z</time>
      </trkpt>
      <trkpt lat="43.83797" lon="7.8982">
        <ele>61.935777</ele>
        <time>2024-01-27T10:38:33.712Z</time>
      </trkpt>
      <trkpt lat="43.83798" lon="7.89807">
        <ele>61.928232</ele>
        <time>2024-01-27T10:38:35.714Z</time>
      </trkpt>
      <trkpt lat="43.838" lon="7.89794">
        <ele>61.920921</ele>
        <time>2024-01-27T10:38:37.708Z</time>
      </trkpt>
      <trkpt lat="43.83801" lon="7.89782">
        <ele>61.913932</ele>
        <time>2024-01-27T10:38:39.714Z</time>
      </trkpt>
      <trkpt lat="43.83802" lon="7.89768">
        <ele>61.906435</ele>
        <time>2024-01-27T10:38:41.709Z</time>
      </trkpt>
      <trkpt lat="43.83804" lon="7.89755">
        <ele>61.899</ele>
        <time>2024-01-27T10:38:43.711Z</time>
      </trkpt>
      <trkpt lat="43.83805" lon="7.89742">
        <ele>61.891536</ele>
        <time>2024-01-27T10:38:45.685Z</time>
      </trkpt>
      <trkpt lat="43.83807" lon="7.89729">
        <ele>61.884371</ele>
        <time>2024-01-27T10:38:47.694Z</time>
      </trkpt>
      <trkpt lat="43.83808" lon="7.89717">
        <ele>61.877151</ele>
        <time>2024-01-27T10:38:49.698Z</time>
      </trkpt>
      <trkpt lat="43.8381" lon="7.89698">
        <ele>61.866637</ele>
        <time>2024-01-27T10:38:52.673Z</time>
      </trkpt>
      <trkpt lat="43.83812" lon="7.89685">
        <ele>61.8718</ele>
        <time>2024-01-27T10:38:54.709Z</time>
      </trkpt>
      <trkpt lat="43.83814" lon="7.89672">
        <ele>61.918479</ele>
        <time>2024-01-27T10:38:56.700Z</time>
      </trkpt>
      <trkpt lat="43.83815" lon="7.8966">
        <ele>61.96526</ele>
        <time>2024-01-27T10:38:58.694Z</time>
      </trkpt>
      <trkpt lat="43.83816" lon="7.89647">
        <ele>62.012702</ele>
        <time>2024-01-27T10:39:00.679Z</time>
      </trkpt>
      <trkpt lat="43.83818" lon="7.89629">
        <ele>62.082405</ele>
        <time>2024-01-27T10:39:03.686Z</time>
      </trkpt>
      <trkpt lat="43.83819" lon="7.89616">
        <ele>62.130825</ele>
        <time>2024-01-27T10:39:05.693Z</time>
      </trkpt>
      <trkpt lat="43.8382" lon="7.89604">
        <ele>62.177648</ele>
        <time>2024-01-27T10:39:07.702Z</time>
      </trkpt>
      <trkpt lat="43.83822" lon="7.89585">
        <ele>62.24605</ele>
        <time>2024-01-27T10:39:10.692Z</time>
      </trkpt>
      <trkpt lat="43.83823" lon="7.89573">
        <ele>62.293791</ele>
        <time>2024-01-27T10:39:12.709Z</time>
      </trkpt>
      <trkpt lat="43.83824" lon="7.8956">
        <ele>62.341901</ele>
        <time>2024-01-27T10:39:14.677Z</time>
      </trkpt>
      <trkpt lat="43.83826" lon="7.89547">
        <ele>62.390524</ele>
        <time>2024-01-27T10:39:16.698Z</time>
      </trkpt>
      <trkpt lat="43.83826" lon="7.89533">
        <ele>62.441716</ele>
        <time>2024-01-27T10:39:18.698Z</time>
      </trkpt>
      <trkpt lat="43.83827" lon="7.89519">
        <ele>62.493689</ele>
        <time>2024-01-27T10:39:20.693Z</time>
      </trkpt>
      <trkpt lat="43.83829" lon="7.89505">
        <ele>62.547258</ele>
        <time>2024-01-27T10:39:22.707Z</time>
      </trkpt>
      <trkpt lat="43.83831" lon="7.89492">
        <ele>62.598891</ele>
        <time>2024-01-27T10:39:24.697Z</time>
      </trkpt>
      <trkpt lat="43.83833" lon="7.89478">
        <ele>62.652526</ele>
        <time>2024-01-27T10:39:26.708Z</time>
      </trkpt>
      <trkpt lat="43.83835" lon="7.89464">
        <ele>62.70528</ele>
        <time>2024-01-27T10:39:28.701Z</time>
      </trkpt>
      <trkpt lat="43.83836" lon="7.89449">
        <ele>62.759586</ele>
        <time>2024-01-27T10:39:30.708Z</time>
      </trkpt>
      <trkpt lat="43.83838" lon="7.89435">
        <ele>62.822096</ele>
        <time>2024-01-27T10:39:32.699Z</time>
      </trkpt>
      <trkpt lat="43.83839" lon="7.89421">
        <ele>62.896826</ele>
        <time>2024-01-27T10:39:34.694Z</time>
      </trkpt>
      <trkpt lat="43.83841" lon="7.89407">
        <ele>62.969066</ele>
        <time>2024-01-27T10:39:36.695Z</time>
      </trkpt>
      <trkpt lat="43.83842" lon="7.89394">
        <ele>63.036374</ele>
        <time>2024-01-27T10:39:38.692Z</time>
      </trkpt>
      <trkpt lat="43.83843" lon="7.89381">
        <ele>63.106706</ele>
        <time>2024-01-27T10:39:40.717Z</time>
      </trkpt>
      <trkpt lat="43.83846" lon="7.89363">
        <ele>63.203666</ele>
        <time>2024-01-27T10:39:43.703Z</time>
      </trkpt>
      <trkpt lat="43.83847" lon="7.89349">
        <ele>63.274967</ele>
        <time>2024-01-27T10:39:45.706Z</time>
      </trkpt>
      <trkpt lat="43.83849" lon="7.89337">
        <ele>63.340902</ele>
        <time>2024-01-27T10:39:47.685Z</time>
      </trkpt>
      <trkpt lat="43.8385" lon="7.89318">
        <ele>63.43984</ele>
        <time>2024-01-27T10:39:50.703Z</time>
      </trkpt>
      <trkpt lat="43.83851" lon="7.89305">
        <ele>63.508095</ele>
        <time>2024-01-27T10:39:52.707Z</time>
      </trkpt>
      <trkpt lat="43.83852" lon="7.89292">
        <ele>63.575313</ele>
        <time>2024-01-27T10:39:54.693Z</time>
      </trkpt>
      <trkpt lat="43.83854" lon="7.89274">
        <ele>63.669852</ele>
        <time>2024-01-27T10:39:57.693Z</time>
      </trkpt>
      <trkpt lat="43.83856" lon="7.89262">
        <ele>63.736262</ele>
        <time>2024-01-27T10:39:59.688Z</time>
      </trkpt>
      <trkpt lat="43.83858" lon="7.89243">
        <ele>63.83444</ele>
        <time>2024-01-27T10:40:02.703Z</time>
      </trkpt>
      <trkpt lat="43.83862" lon="7.89225">
        <ele>63.932414</ele>
        <time>2024-01-27T10:40:05.694Z</time>
      </trkpt>
      <trkpt lat="43.83863" lon="7.89206">
        <ele>64.031469</ele>
        <time>2024-01-27T10:40:08.698Z</time>
      </trkpt>
      <trkpt lat="43.83864" lon="7.89194">
        <ele>64.089792</ele>
        <time>2024-01-27T10:40:10.714Z</time>
      </trkpt>
      <trkpt lat="43.83865" lon="7.89181">
        <ele>64.065847</ele>
        <time>2024-01-27T10:40:12.700Z</time>
      </trkpt>
      <trkpt lat="43.83867" lon="7.89168">
        <ele>64.040491</ele>
        <time>2024-01-27T10:40:14.703Z</time>
      </trkpt>
      <trkpt lat="43.8387" lon="7.8915">
        <ele>64.004464</ele>
        <time>2024-01-27T10:40:17.693Z</time>
      </trkpt>
      <trkpt lat="43.83872" lon="7.89136">
        <ele>63.978426</ele>
        <time>2024-01-27T10:40:19.672Z</time>
      </trkpt>
      <trkpt lat="43.83875" lon="7.89124">
        <ele>63.95368</ele>
        <time>2024-01-27T10:40:21.694Z</time>
      </trkpt>
      <trkpt lat="43.83876" lon="7.89111">
        <ele>63.92934</ele>
        <time>2024-01-27T10:40:23.701Z</time>
      </trkpt>
      <trkpt lat="43.83878" lon="7.89098">
        <ele>63.904471</ele>
        <time>2024-01-27T10:40:25.706Z</time>
      </trkpt>
      <trkpt lat="43.83881" lon="7.89085">
        <ele>63.878253</ele>
        <time>2024-01-27T10:40:27.707Z</time>
      </trkpt>
      <trkpt lat="43.83883" lon="7.89071">
        <ele>63.852215</ele>
        <time>2024-01-27T10:40:29.708Z</time>
      </trkpt>
      <trkpt lat="43.83884" lon="7.89058">
        <ele>63.826575</ele>
        <time>2024-01-27T10:40:31.704Z</time>
      </trkpt>
      <trkpt lat="43.83884" lon="7.89045">
        <ele>63.801695</ele>
        <time>2024-01-27T10:40:33.700Z</time>
      </trkpt>
      <trkpt lat="43.83884" lon="7.89031">
        <ele>63.776249</ele>
        <time>2024-01-27T10:40:35.674Z</time>
      </trkpt>
      <trkpt lat="43.83885" lon="7.89018">
        <ele>63.75145</ele>
        <time>2024-01-27T10:40:37.694Z</time>
      </trkpt>
      <trkpt lat="43.83886" lon="7.89006">
        <ele>63.727054</ele>
        <time>2024-01-27T10:40:39.692Z</time>
      </trkpt>
      <trkpt lat="43.83887" lon="7.88993">
        <ele>63.702544</ele>
        <time>2024-01-27T10:40:41.707Z</time>
      </trkpt>
      <trkpt lat="43.83889" lon="7.88979">
        <ele>63.676646</ele>
        <time>2024-01-27T10:40:43.700Z</time>
      </trkpt>
      <trkpt lat="43.8389" lon="7.88966">
        <ele>63.651037</ele>
        <time>2024-01-27T10:40:45.697Z</time>
      </trkpt>
      <trkpt lat="43.83891" lon="7.88953">
        <ele>63.625363</ele>
        <time>2024-01-27T10:40:47.703Z</time>
      </trkpt>
      <trkpt lat="43.83892" lon="7.8894">
        <ele>63.638668</ele>
        <time>2024-01-27T10:40:49.708Z</time>
      </trkpt>
      <trkpt lat="43.83894" lon="7.88927">
        <ele>63.668291</ele>
        <time>2024-01-27T10:40:51.708Z</time>
      </trkpt>
      <trkpt lat="43.83895" lon="7.88913">
        <ele>63.697687</ele>
        <time>2024-01-27T10:40:53.697Z</time>
      </trkpt>
      <trkpt lat="43.83897" lon="7.889">
        <ele>63.726663</ele>
        <time>2024-01-27T10:40:55.714Z</time>
      </trkpt>
      <trkpt lat="43.83898" lon="7.88887">
        <ele>63.756071</ele>
        <time>2024-01-27T10:40:57.686Z</time>
      </trkpt>
      <trkpt lat="43.839" lon="7.88874">
        <ele>63.785161</ele>
        <time>2024-01-27T10:40:59.691Z</time>
      </trkpt>
      <trkpt lat="43.83902" lon="7.88861">
        <ele>63.813978</ele>
        <time>2024-01-27T10:41:01.703Z</time>
      </trkpt>
      <trkpt lat="43.83903" lon="7.88848">
        <ele>63.842432</ele>
        <time>2024-01-27T10:41:03.700Z</time>
      </trkpt>
      <trkpt lat="43.83904" lon="7.88835">
        <ele>63.871693</ele>
        <time>2024-01-27T10:41:05.684Z</time>
      </trkpt>
      <trkpt lat="43.83906" lon="7.88822">
        <ele>63.900304</ele>
        <time>2024-01-27T10:41:07.701Z</time>
      </trkpt>
      <trkpt lat="43.83907" lon="7.8881">
        <ele>63.928095</ele>
        <time>2024-01-27T10:41:09.704Z</time>
      </trkpt>
      <trkpt lat="43.83909" lon="7.88797">
        <ele>63.955534</ele>
        <time>2024-01-27T10:41:11.709Z</time>
      </trkpt>
      <trkpt lat="43.8391" lon="7.88785">
        <ele>63.983369</ele>
        <time>2024-01-27T10:41:13.714Z</time>
      </trkpt>
      <trkpt lat="43.83911" lon="7.88766">
        <ele>64.024451</ele>
        <time>2024-01-27T10:41:16.701Z</time>
      </trkpt>
      <trkpt lat="43.83913" lon="7.88754">
        <ele>64.05181</ele>
        <time>2024-01-27T10:41:18.696Z</time>
      </trkpt>
      <trkpt lat="43.83915" lon="7.88736">
        <ele>64.091955</ele>
        <time>2024-01-27T10:41:21.702Z</time>
      </trkpt>
      <trkpt lat="43.83917" lon="7.88718">
        <ele>64.131375</ele>
        <time>2024-01-27T10:41:24.703Z</time>
      </trkpt>
      <trkpt lat="43.83919" lon="7.887">
        <ele>64.143177</ele>
        <time>2024-01-27T10:41:27.710Z</time>
      </trkpt>
      <trkpt lat="43.8392" lon="7.88688">
        <ele>64.016582</ele>
        <time>2024-01-27T10:41:29.717Z</time>
      </trkpt>
      <trkpt lat="43.83923" lon="7.88669">
        <ele>63.827273</ele>
        <time>2024-01-27T10:41:32.708Z</time>
      </trkpt>
      <trkpt lat="43.83925" lon="7.88652">
        <ele>63.648573</ele>
        <time>2024-01-27T10:41:35.707Z</time>
      </trkpt>
      <trkpt lat="43.83927" lon="7.88634">
        <ele>63.464476</ele>
        <time>2024-01-27T10:41:38.697Z</time>
      </trkpt>
      <trkpt lat="43.83928" lon="7.88616">
        <ele>63.284038</ele>
        <time>2024-01-27T10:41:41.699Z</time>
      </trkpt>
      <trkpt lat="43.8393" lon="7.88598">
        <ele>63.106541</ele>
        <time>2024-01-27T10:41:44.704Z</time>
      </trkpt>
      <trkpt lat="43.83931" lon="7.88581">
        <ele>62.931356</ele>
        <time>2024-01-27T10:41:47.697Z</time>
      </trkpt>
      <trkpt lat="43.83933" lon="7.88564">
        <ele>62.755427</ele>
        <time>2024-01-27T10:41:50.690Z</time>
      </trkpt>
      <trkpt lat="43.83935" lon="7.88546">
        <ele>62.579669</ele>
        <time>2024-01-27T10:41:53.700Z</time>
      </trkpt>
      <trkpt lat="43.83936" lon="7.8853">
        <ele>62.413341</ele>
        <time>2024-01-27T10:41:56.703Z</time>
      </trkpt>
      <trkpt lat="43.83936" lon="7.88512">
        <ele>62.235549</ele>
        <time>2024-01-27T10:41:59.683Z</time>
      </trkpt>
      <trkpt lat="43.83939" lon="7.88489">
        <ele>62.005016</ele>
        <time>2024-01-27T10:56:40.689Z</time>
      </trkpt>
      <trkpt lat="43.83938" lon="7.88475">
        <ele>61.863427</ele>
        <time>2024-01-27T10:56:45.712Z</time>
      </trkpt>
      <trkpt lat="43.83938" lon="7.88462">
        <ele>61.735048</ele>
        <time>2024-01-27T10:56:49.701Z</time>
      </trkpt>
      <trkpt lat="43.83938" lon="7.88447">
        <ele>61.647984</ele>
        <time>2024-01-27T10:56:53.713Z</time>
      </trkpt>
      <trkpt lat="43.83938" lon="7.88433">
        <ele>61.619864</ele>
        <time>2024-01-27T10:56:56.704Z</time>
      </trkpt>
      <trkpt lat="43.83937" lon="7.88419">
        <ele>61.589918</ele>
        <time>2024-01-27T10:56:59.704Z</time>
      </trkpt>
      <trkpt lat="43.83936" lon="7.88403">
        <ele>61.559001</ele>
        <time>2024-01-27T10:57:02.700Z</time>
      </trkpt>
      <trkpt lat="43.83936" lon="7.88387">
        <ele>61.525975</ele>
        <time>2024-01-27T10:57:05.699Z</time>
      </trkpt>
      <trkpt lat="43.83935" lon="7.88371">
        <ele>61.493002</ele>
        <time>2024-01-27T10:57:08.676Z</time>
      </trkpt>
      <trkpt lat="43.83934" lon="7.88353">
        <ele>61.456767</ele>
        <time>2024-01-27T10:57:11.704Z</time>
      </trkpt>
      <trkpt lat="43.83934" lon="7.88335">
        <ele>61.419542</ele>
        <time>2024-01-27T10:57:14.707Z</time>
      </trkpt>
      <trkpt lat="43.83932" lon="7.88316">
        <ele>61.381265</ele>
        <time>2024-01-27T10:57:17.701Z</time>
      </trkpt>
      <trkpt lat="43.83931" lon="7.88303">
        <ele>61.35365</ele>
        <time>2024-01-27T10:57:19.699Z</time>
      </trkpt>
      <trkpt lat="43.8393" lon="7.8829">
        <ele>61.326889</ele>
        <time>2024-01-27T10:57:21.699Z</time>
      </trkpt>
      <trkpt lat="43.83927" lon="7.88272">
        <ele>61.289681</ele>
        <time>2024-01-27T10:57:24.706Z</time>
      </trkpt>
      <trkpt lat="43.83926" lon="7.88259">
        <ele>61.263723</ele>
        <time>2024-01-27T10:57:26.696Z</time>
      </trkpt>
      <trkpt lat="43.83924" lon="7.88246">
        <ele>61.23551</ele>
        <time>2024-01-27T10:57:28.702Z</time>
      </trkpt>
      <trkpt lat="43.83922" lon="7.88232">
        <ele>61.208548</ele>
        <time>2024-01-27T10:57:30.679Z</time>
      </trkpt>
      <trkpt lat="43.8392" lon="7.8822">
        <ele>61.182592</ele>
        <time>2024-01-27T10:57:32.710Z</time>
      </trkpt>
      <trkpt lat="43.83919" lon="7.88206">
        <ele>61.162317</ele>
        <time>2024-01-27T10:57:34.696Z</time>
      </trkpt>
      <trkpt lat="43.83917" lon="7.88193">
        <ele>61.207055</ele>
        <time>2024-01-27T10:57:36.698Z</time>
      </trkpt>
      <trkpt lat="43.83914" lon="7.8818">
        <ele>61.249121</ele>
        <time>2024-01-27T10:57:38.701Z</time>
      </trkpt>
      <trkpt lat="43.83912" lon="7.88167">
        <ele>61.292992</ele>
        <time>2024-01-27T10:57:40.699Z</time>
      </trkpt>
      <trkpt lat="43.83909" lon="7.88155">
        <ele>61.336153</ele>
        <time>2024-01-27T10:57:42.693Z</time>
      </trkpt>
      <trkpt lat="43.83907" lon="7.88142">
        <ele>61.378854</ele>
        <time>2024-01-27T10:57:44.700Z</time>
      </trkpt>
      <trkpt lat="43.83904" lon="7.88129">
        <ele>61.423524</ele>
        <time>2024-01-27T10:57:46.692Z</time>
      </trkpt>
      <trkpt lat="43.83901" lon="7.88116">
        <ele>61.467075</ele>
        <time>2024-01-27T10:57:48.704Z</time>
      </trkpt>
      <trkpt lat="43.83899" lon="7.88103">
        <ele>61.512877</ele>
        <time>2024-01-27T10:57:50.715Z</time>
      </trkpt>
      <trkpt lat="43.83896" lon="7.8809">
        <ele>61.557021</ele>
        <time>2024-01-27T10:57:52.700Z</time>
      </trkpt>
      <trkpt lat="43.83892" lon="7.88077">
        <ele>61.600846</ele>
        <time>2024-01-27T10:57:54.699Z</time>
      </trkpt>
      <trkpt lat="43.83889" lon="7.88065">
        <ele>61.645763</ele>
        <time>2024-01-27T10:57:56.711Z</time>
      </trkpt>
      <trkpt lat="43.83885" lon="7.88051">
        <ele>61.692512</ele>
        <time>2024-01-27T10:57:58.697Z</time>
      </trkpt>
      <trkpt lat="43.83882" lon="7.88039">
        <ele>61.736655</ele>
        <time>2024-01-27T10:58:00.684Z</time>
      </trkpt>
      <trkpt lat="43.83877" lon="7.88026">
        <ele>61.781836</ele>
        <time>2024-01-27T10:58:02.710Z</time>
      </trkpt>
      <trkpt lat="43.83873" lon="7.88013">
        <ele>61.828488</ele>
        <time>2024-01-27T10:58:04.701Z</time>
      </trkpt>
      <trkpt lat="43.83869" lon="7.88">
        <ele>61.876506</ele>
        <time>2024-01-27T10:58:06.700Z</time>
      </trkpt>
      <trkpt lat="43.83865" lon="7.87986">
        <ele>61.924827</ele>
        <time>2024-01-27T10:58:08.685Z</time>
      </trkpt>
      <trkpt lat="43.83861" lon="7.87972">
        <ele>61.971272</ele>
        <time>2024-01-27T10:58:10.693Z</time>
      </trkpt>
      <trkpt lat="43.83856" lon="7.87959">
        <ele>61.891014</ele>
        <time>2024-01-27T10:58:12.698Z</time>
      </trkpt>
      <trkpt lat="43.83851" lon="7.87942">
        <ele>61.792167</ele>
        <time>2024-01-27T10:58:15.694Z</time>
      </trkpt>
      <trkpt lat="43.83846" lon="7.87929">
        <ele>61.711415</ele>
        <time>2024-01-27T10:58:18.712Z</time>
      </trkpt>
      <trkpt lat="43.83841" lon="7.87914">
        <ele>61.62105</ele>
        <time>2024-01-27T10:58:21.701Z</time>
      </trkpt>
      <trkpt lat="43.83834" lon="7.87898">
        <ele>61.52243</ele>
        <time>2024-01-27T10:58:24.677Z</time>
      </trkpt>
      <trkpt lat="43.8383" lon="7.87886">
        <ele>61.448763</ele>
        <time>2024-01-27T10:58:26.711Z</time>
      </trkpt>
      <trkpt lat="43.83824" lon="7.87874">
        <ele>61.372285</ele>
        <time>2024-01-27T10:58:28.696Z</time>
      </trkpt>
      <trkpt lat="43.83819" lon="7.87861">
        <ele>61.292991</ele>
        <time>2024-01-27T10:58:30.699Z</time>
      </trkpt>
      <trkpt lat="43.83813" lon="7.87848">
        <ele>61.207813</ele>
        <time>2024-01-27T10:58:32.697Z</time>
      </trkpt>
      <trkpt lat="43.83808" lon="7.87834">
        <ele>61.123273</ele>
        <time>2024-01-27T10:58:34.697Z</time>
      </trkpt>
      <trkpt lat="43.83803" lon="7.87821">
        <ele>61.040874</ele>
        <time>2024-01-27T10:58:36.702Z</time>
      </trkpt>
      <trkpt lat="43.83797" lon="7.87808">
        <ele>60.957935</ele>
        <time>2024-01-27T10:58:38.675Z</time>
      </trkpt>
      <trkpt lat="43.83791" lon="7.87795">
        <ele>60.876949</ele>
        <time>2024-01-27T10:58:40.697Z</time>
      </trkpt>
      <trkpt lat="43.83786" lon="7.87782">
        <ele>60.793604</ele>
        <time>2024-01-27T10:58:42.707Z</time>
      </trkpt>
      <trkpt lat="43.83781" lon="7.87769">
        <ele>60.711816</ele>
        <time>2024-01-27T10:58:44.710Z</time>
      </trkpt>
      <trkpt lat="43.83776" lon="7.87755">
        <ele>60.631549</ele>
        <time>2024-01-27T10:58:46.695Z</time>
      </trkpt>
      <trkpt lat="43.83771" lon="7.87742">
        <ele>60.565557</ele>
        <time>2024-01-27T10:58:48.702Z</time>
      </trkpt>
      <trkpt lat="43.83765" lon="7.87729">
        <ele>60.506912</ele>
        <time>2024-01-27T10:58:50.702Z</time>
      </trkpt>
      <trkpt lat="43.83761" lon="7.87716">
        <ele>60.447432</ele>
        <time>2024-01-27T10:58:52.700Z</time>
      </trkpt>
      <trkpt lat="43.83757" lon="7.87703">
        <ele>60.390269</ele>
        <time>2024-01-27T10:58:54.703Z</time>
      </trkpt>
      <trkpt lat="43.83751" lon="7.87691">
        <ele>60.331207</ele>
        <time>2024-01-27T10:58:56.702Z</time>
      </trkpt>
      <trkpt lat="43.83746" lon="7.87678">
        <ele>60.272401</ele>
        <time>2024-01-27T10:58:58.701Z</time>
      </trkpt>
      <trkpt lat="43.83741" lon="7.87665">
        <ele>60.213502</ele>
        <time>2024-01-27T10:59:00.711Z</time>
      </trkpt>
      <trkpt lat="43.83736" lon="7.87653">
        <ele>60.157794</ele>
        <time>2024-01-27T10:59:02.691Z</time>
      </trkpt>
      <trkpt lat="43.83731" lon="7.8764">
        <ele>60.099048</ele>
        <time>2024-01-27T10:59:04.721Z</time>
      </trkpt>
      <trkpt lat="43.83727" lon="7.87628">
        <ele>60.041839</ele>
        <time>2024-01-27T10:59:06.699Z</time>
      </trkpt>
      <trkpt lat="43.83721" lon="7.87616">
        <ele>59.985284</ele>
        <time>2024-01-27T10:59:08.708Z</time>
      </trkpt>
      <trkpt lat="43.83717" lon="7.87603">
        <ele>59.927361</ele>
        <time>2024-01-27T10:59:10.681Z</time>
      </trkpt>
      <trkpt lat="43.83712" lon="7.8759">
        <ele>59.867746</ele>
        <time>2024-01-27T10:59:12.710Z</time>
      </trkpt>
      <trkpt lat="43.83707" lon="7.87577">
        <ele>59.809492</ele>
        <time>2024-01-27T10:59:14.705Z</time>
      </trkpt>
      <trkpt lat="43.83703" lon="7.87564">
        <ele>59.752542</ele>
        <time>2024-01-27T10:59:16.685Z</time>
      </trkpt>
      <trkpt lat="43.83699" lon="7.87551">
        <ele>59.696331</ele>
        <time>2024-01-27T10:59:18.701Z</time>
      </trkpt>
      <trkpt lat="43.83695" lon="7.87538">
        <ele>59.637996</ele>
        <time>2024-01-27T10:59:20.722Z</time>
      </trkpt>
      <trkpt lat="43.83693" lon="7.87524">
        <ele>59.583523</ele>
        <time>2024-01-27T10:59:22.700Z</time>
      </trkpt>
      <trkpt lat="43.83689" lon="7.87512">
        <ele>59.530609</ele>
        <time>2024-01-27T10:59:24.689Z</time>
      </trkpt>
      <trkpt lat="43.83685" lon="7.87499">
        <ele>59.477001</ele>
        <time>2024-01-27T10:59:26.688Z</time>
      </trkpt>
      <trkpt lat="43.83682" lon="7.87486">
        <ele>59.42557</ele>
        <time>2024-01-27T10:59:28.701Z</time>
      </trkpt>
      <trkpt lat="43.83679" lon="7.87473">
        <ele>59.374474</ele>
        <time>2024-01-27T10:59:30.675Z</time>
      </trkpt>
      <trkpt lat="43.83676" lon="7.87459">
        <ele>59.317369</ele>
        <time>2024-01-27T10:59:32.703Z</time>
      </trkpt>
      <trkpt lat="43.83673" lon="7.87445">
        <ele>59.260052</ele>
        <time>2024-01-27T10:59:34.688Z</time>
      </trkpt>
      <trkpt lat="43.83671" lon="7.87432">
        <ele>59.205832</ele>
        <time>2024-01-27T10:59:36.691Z</time>
      </trkpt>
      <trkpt lat="43.83668" lon="7.87418">
        <ele>59.152117</ele>
        <time>2024-01-27T10:59:38.784Z</time>
      </trkpt>
      <trkpt lat="43.83665" lon="7.87404">
        <ele>59.095617</ele>
        <time>2024-01-27T10:59:40.684Z</time>
      </trkpt>
      <trkpt lat="43.83663" lon="7.87391">
        <ele>59.042779</ele>
        <time>2024-01-27T10:59:42.707Z</time>
      </trkpt>
      <trkpt lat="43.8366" lon="7.87378">
        <ele>58.993153</ele>
        <time>2024-01-27T10:59:44.703Z</time>
      </trkpt>
      <trkpt lat="43.83657" lon="7.87366">
        <ele>58.94079</ele>
        <time>2024-01-27T10:59:46.685Z</time>
      </trkpt>
      <trkpt lat="43.83653" lon="7.87349">
        <ele>58.872272</ele>
        <time>2024-01-27T10:59:49.707Z</time>
      </trkpt>
      <trkpt lat="43.83649" lon="7.87332">
        <ele>58.805926</ele>
        <time>2024-01-27T10:59:52.697Z</time>
      </trkpt>
      <trkpt lat="43.83645" lon="7.87317">
        <ele>58.741382</ele>
        <time>2024-01-27T10:59:55.726Z</time>
      </trkpt>
      <trkpt lat="43.83642" lon="7.87298">
        <ele>58.668375</ele>
        <time>2024-01-27T10:59:58.698Z</time>
      </trkpt>
      <trkpt lat="43.83638" lon="7.87284">
        <ele>58.558307</ele>
        <time>2024-01-27T11:00:00.699Z</time>
      </trkpt>
      <trkpt lat="43.83635" lon="7.87269">
        <ele>58.42538</ele>
        <time>2024-01-27T11:00:02.715Z</time>
      </trkpt>
      <trkpt lat="43.83632" lon="7.87254">
        <ele>58.29078</ele>
        <time>2024-01-27T11:00:04.711Z</time>
      </trkpt>
      <trkpt lat="43.83629" lon="7.87239">
        <ele>58.158995</ele>
        <time>2024-01-27T11:00:06.696Z</time>
      </trkpt>
      <trkpt lat="43.83626" lon="7.87226">
        <ele>58.033355</ele>
        <time>2024-01-27T11:00:08.695Z</time>
      </trkpt>
      <trkpt lat="43.83623" lon="7.87211">
        <ele>57.906597</ele>
        <time>2024-01-27T11:00:10.672Z</time>
      </trkpt>
      <trkpt lat="43.8362" lon="7.87198">
        <ele>57.784012</ele>
        <time>2024-01-27T11:00:12.691Z</time>
      </trkpt>
      <trkpt lat="43.83617" lon="7.87184">
        <ele>57.65809</ele>
        <time>2024-01-27T11:00:14.704Z</time>
      </trkpt>
      <trkpt lat="43.83614" lon="7.87171">
        <ele>57.540975</ele>
        <time>2024-01-27T11:00:16.687Z</time>
      </trkpt>
      <trkpt lat="43.83612" lon="7.87157">
        <ele>57.418055</ele>
        <time>2024-01-27T11:00:18.695Z</time>
      </trkpt>
      <trkpt lat="43.83608" lon="7.87144">
        <ele>57.295328</ele>
        <time>2024-01-27T11:00:20.699Z</time>
      </trkpt>
      <trkpt lat="43.83606" lon="7.87131">
        <ele>57.174737</ele>
        <time>2024-01-27T11:00:22.692Z</time>
      </trkpt>
      <trkpt lat="43.83603" lon="7.87118">
        <ele>57.058315</ele>
        <time>2024-01-27T11:00:24.693Z</time>
      </trkpt>
      <trkpt lat="43.836" lon="7.87104">
        <ele>56.936961</ele>
        <time>2024-01-27T11:00:26.716Z</time>
      </trkpt>
      <trkpt lat="43.83598" lon="7.87091">
        <ele>56.817361</ele>
        <time>2024-01-27T11:00:28.698Z</time>
      </trkpt>
      <trkpt lat="43.83595" lon="7.87077">
        <ele>56.694923</ele>
        <time>2024-01-27T11:00:30.707Z</time>
      </trkpt>
      <trkpt lat="43.83591" lon="7.87065">
        <ele>56.578323</ele>
        <time>2024-01-27T11:00:32.710Z</time>
      </trkpt>
      <trkpt lat="43.83588" lon="7.87051">
        <ele>56.485644</ele>
        <time>2024-01-27T11:00:34.706Z</time>
      </trkpt>
      <trkpt lat="43.83585" lon="7.87038">
        <ele>56.480809</ele>
        <time>2024-01-27T11:00:36.695Z</time>
      </trkpt>
      <trkpt lat="43.83582" lon="7.87024">
        <ele>56.475851</ele>
        <time>2024-01-27T11:00:38.686Z</time>
      </trkpt>
      <trkpt lat="43.8358" lon="7.87011">
        <ele>56.471058</ele>
        <time>2024-01-27T11:00:40.714Z</time>
      </trkpt>
      <trkpt lat="43.83577" lon="7.86998">
        <ele>56.466289</ele>
        <time>2024-01-27T11:00:42.700Z</time>
      </trkpt>
      <trkpt lat="43.83573" lon="7.86984">
        <ele>56.461522</ele>
        <time>2024-01-27T11:00:44.714Z</time>
      </trkpt>
      <trkpt lat="43.83571" lon="7.86972">
        <ele>56.45692</ele>
        <time>2024-01-27T11:00:46.698Z</time>
      </trkpt>
      <trkpt lat="43.83568" lon="7.86958">
        <ele>56.452198</ele>
        <time>2024-01-27T11:00:48.682Z</time>
      </trkpt>
      <trkpt lat="43.83564" lon="7.86944">
        <ele>56.44712</ele>
        <time>2024-01-27T11:00:50.719Z</time>
      </trkpt>
      <trkpt lat="43.83562" lon="7.86931">
        <ele>56.442346</ele>
        <time>2024-01-27T11:00:52.702Z</time>
      </trkpt>
      <trkpt lat="43.83558" lon="7.86917">
        <ele>56.437446</ele>
        <time>2024-01-27T11:00:54.698Z</time>
      </trkpt>
      <trkpt lat="43.83555" lon="7.86903">
        <ele>56.432429</ele>
        <time>2024-01-27T11:00:56.683Z</time>
      </trkpt>
      <trkpt lat="43.83552" lon="7.8689">
        <ele>56.427516</ele>
        <time>2024-01-27T11:00:58.706Z</time>
      </trkpt>
      <trkpt lat="43.83549" lon="7.86877">
        <ele>56.422794</ele>
        <time>2024-01-27T11:01:00.691Z</time>
      </trkpt>
      <trkpt lat="43.83546" lon="7.86864">
        <ele>56.417959</ele>
        <time>2024-01-27T11:01:02.681Z</time>
      </trkpt>
      <trkpt lat="43.83543" lon="7.86849">
        <ele>56.412937</ele>
        <time>2024-01-27T11:01:04.713Z</time>
      </trkpt>
      <trkpt lat="43.8354" lon="7.86835">
        <ele>56.407741</ele>
        <time>2024-01-27T11:01:06.703Z</time>
      </trkpt>
      <trkpt lat="43.83537" lon="7.86821">
        <ele>56.402757</ele>
        <time>2024-01-27T11:01:08.705Z</time>
      </trkpt>
      <trkpt lat="43.83534" lon="7.86807">
        <ele>56.370238</ele>
        <time>2024-01-27T11:01:10.707Z</time>
      </trkpt>
      <trkpt lat="43.8353" lon="7.86793">
        <ele>56.324445</ele>
        <time>2024-01-27T11:01:12.709Z</time>
      </trkpt>
      <trkpt lat="43.83527" lon="7.86779">
        <ele>56.278916</ele>
        <time>2024-01-27T11:01:14.696Z</time>
      </trkpt>
      <trkpt lat="43.83524" lon="7.86766">
        <ele>56.234447</ele>
        <time>2024-01-27T11:01:16.693Z</time>
      </trkpt>
      <trkpt lat="43.83521" lon="7.86753">
        <ele>56.191391</ele>
        <time>2024-01-27T11:01:18.682Z</time>
      </trkpt>
      <trkpt lat="43.83519" lon="7.86739">
        <ele>56.147472</ele>
        <time>2024-01-27T11:01:20.692Z</time>
      </trkpt>
      <trkpt lat="43.83516" lon="7.86725">
        <ele>56.103267</ele>
        <time>2024-01-27T11:01:22.705Z</time>
      </trkpt>
      <trkpt lat="43.83513" lon="7.86711">
        <ele>56.055992</ele>
        <time>2024-01-27T11:01:24.701Z</time>
      </trkpt>
      <trkpt lat="43.8351" lon="7.86697">
        <ele>56.010357</ele>
        <time>2024-01-27T11:01:26.696Z</time>
      </trkpt>
      <trkpt lat="43.83507" lon="7.86682">
        <ele>55.962365</ele>
        <time>2024-01-27T11:01:28.706Z</time>
      </trkpt>
      <trkpt lat="43.83504" lon="7.86668">
        <ele>55.915996</ele>
        <time>2024-01-27T11:01:30.699Z</time>
      </trkpt>
      <trkpt lat="43.83501" lon="7.86653">
        <ele>55.868369</ele>
        <time>2024-01-27T11:01:32.696Z</time>
      </trkpt>
      <trkpt lat="43.83498" lon="7.86639">
        <ele>55.821583</ele>
        <time>2024-01-27T11:01:34.688Z</time>
      </trkpt>
      <trkpt lat="43.83495" lon="7.86625">
        <ele>55.775023</ele>
        <time>2024-01-27T11:01:36.695Z</time>
      </trkpt>
      <trkpt lat="43.83492" lon="7.86611">
        <ele>55.72996</ele>
        <time>2024-01-27T11:01:38.706Z</time>
      </trkpt>
      <trkpt lat="43.83489" lon="7.86597">
        <ele>55.685326</ele>
        <time>2024-01-27T11:01:40.704Z</time>
      </trkpt>
      <trkpt lat="43.83486" lon="7.86583">
        <ele>55.63907</ele>
        <time>2024-01-27T11:01:42.706Z</time>
      </trkpt>
      <trkpt lat="43.83482" lon="7.8657">
        <ele>55.635726</ele>
        <time>2024-01-27T11:01:44.697Z</time>
      </trkpt>
      <trkpt lat="43.8348" lon="7.86556">
        <ele>55.661586</ele>
        <time>2024-01-27T11:01:46.695Z</time>
      </trkpt>
      <trkpt lat="43.83477" lon="7.86542">
        <ele>55.688047</ele>
        <time>2024-01-27T11:01:48.696Z</time>
      </trkpt>
      <trkpt lat="43.83474" lon="7.86527">
        <ele>55.715163</ele>
        <time>2024-01-27T11:01:50.705Z</time>
      </trkpt>
      <trkpt lat="43.8347" lon="7.86513">
        <ele>55.741648</ele>
        <time>2024-01-27T11:01:52.697Z</time>
      </trkpt>
      <trkpt lat="43.83468" lon="7.86499">
        <ele>55.768672</ele>
        <time>2024-01-27T11:01:54.705Z</time>
      </trkpt>
      <trkpt lat="43.83464" lon="7.86485">
        <ele>55.794833</ele>
        <time>2024-01-27T11:01:56.695Z</time>
      </trkpt>
      <trkpt lat="43.83461" lon="7.86471">
        <ele>55.821434</ele>
        <time>2024-01-27T11:01:58.705Z</time>
      </trkpt>
      <trkpt lat="43.83458" lon="7.86456">
        <ele>55.848586</ele>
        <time>2024-01-27T11:02:00.692Z</time>
      </trkpt>
      <trkpt lat="43.83455" lon="7.86442">
        <ele>55.875506</ele>
        <time>2024-01-27T11:02:02.677Z</time>
      </trkpt>
      <trkpt lat="43.83451" lon="7.86427">
        <ele>55.903171</ele>
        <time>2024-01-27T11:02:04.690Z</time>
      </trkpt>
      <trkpt lat="43.83449" lon="7.86412">
        <ele>55.930775</ele>
        <time>2024-01-27T11:02:06.692Z</time>
      </trkpt>
      <trkpt lat="43.83446" lon="7.86397">
        <ele>55.958893</ele>
        <time>2024-01-27T11:02:08.704Z</time>
      </trkpt>
      <trkpt lat="43.83442" lon="7.86383">
        <ele>55.986081</ele>
        <time>2024-01-27T11:02:10.694Z</time>
      </trkpt>
      <trkpt lat="43.83439" lon="7.86369">
        <ele>56.012267</ele>
        <time>2024-01-27T11:02:12.695Z</time>
      </trkpt>
      <trkpt lat="43.83437" lon="7.86355">
        <ele>56.038039</ele>
        <time>2024-01-27T11:02:14.691Z</time>
      </trkpt>
      <trkpt lat="43.83434" lon="7.86341">
        <ele>56.063158</ele>
        <time>2024-01-27T11:02:16.707Z</time>
      </trkpt>
      <trkpt lat="43.83431" lon="7.86328">
        <ele>56.067306</ele>
        <time>2024-01-27T11:02:18.700Z</time>
      </trkpt>
      <trkpt lat="43.83428" lon="7.86316">
        <ele>56.066605</ele>
        <time>2024-01-27T11:02:20.694Z</time>
      </trkpt>
      <trkpt lat="43.83425" lon="7.86303">
        <ele>56.065898</ele>
        <time>2024-01-27T11:02:22.697Z</time>
      </trkpt>
      <trkpt lat="43.83422" lon="7.8629">
        <ele>56.065159</ele>
        <time>2024-01-27T11:02:24.706Z</time>
      </trkpt>
      <trkpt lat="43.8342" lon="7.86277">
        <ele>56.064436</ele>
        <time>2024-01-27T11:02:26.698Z</time>
      </trkpt>
      <trkpt lat="43.83417" lon="7.86264">
        <ele>56.063724</ele>
        <time>2024-01-27T11:02:28.690Z</time>
      </trkpt>
      <trkpt lat="43.83414" lon="7.86251">
        <ele>56.063021</ele>
        <time>2024-01-27T11:02:30.689Z</time>
      </trkpt>
      <trkpt lat="43.83411" lon="7.86239">
        <ele>56.0623</ele>
        <time>2024-01-27T11:02:32.696Z</time>
      </trkpt>
      <trkpt lat="43.83408" lon="7.86226">
        <ele>56.061571</ele>
        <time>2024-01-27T11:02:34.688Z</time>
      </trkpt>
      <trkpt lat="43.83404" lon="7.86213">
        <ele>56.06085</ele>
        <time>2024-01-27T11:02:36.691Z</time>
      </trkpt>
      <trkpt lat="43.83401" lon="7.862">
        <ele>56.060152</ele>
        <time>2024-01-27T11:02:38.709Z</time>
      </trkpt>
      <trkpt lat="43.83398" lon="7.86187">
        <ele>56.059402</ele>
        <time>2024-01-27T11:02:40.693Z</time>
      </trkpt>
      <trkpt lat="43.83395" lon="7.86174">
        <ele>56.058653</ele>
        <time>2024-01-27T11:02:42.698Z</time>
      </trkpt>
      <trkpt lat="43.83392" lon="7.86161">
        <ele>56.057948</ele>
        <time>2024-01-27T11:02:44.695Z</time>
      </trkpt>
      <trkpt lat="43.83388" lon="7.86148">
        <ele>56.057217</ele>
        <time>2024-01-27T11:02:46.699Z</time>
      </trkpt>
      <trkpt lat="43.83385" lon="7.86136">
        <ele>56.056504</ele>
        <time>2024-01-27T11:02:48.690Z</time>
      </trkpt>
      <trkpt lat="43.83383" lon="7.86122">
        <ele>56.055774</ele>
        <time>2024-01-27T11:02:50.693Z</time>
      </trkpt>
      <trkpt lat="43.83379" lon="7.8611">
        <ele>56.055084</ele>
        <time>2024-01-27T11:02:52.714Z</time>
      </trkpt>
      <trkpt lat="43.83376" lon="7.86098">
        <ele>56.075715</ele>
        <time>2024-01-27T11:02:54.706Z</time>
      </trkpt>
      <trkpt lat="43.83373" lon="7.86086">
        <ele>56.138118</ele>
        <time>2024-01-27T11:02:56.694Z</time>
      </trkpt>
      <trkpt lat="43.8337" lon="7.86073">
        <ele>56.202104</ele>
        <time>2024-01-27T11:02:58.696Z</time>
      </trkpt>
      <trkpt lat="43.83367" lon="7.8606">
        <ele>56.266522</ele>
        <time>2024-01-27T11:03:00.695Z</time>
      </trkpt>
      <trkpt lat="43.83364" lon="7.86048">
        <ele>56.331395</ele>
        <time>2024-01-27T11:03:02.698Z</time>
      </trkpt>
      <trkpt lat="43.83361" lon="7.86035">
        <ele>56.395343</ele>
        <time>2024-01-27T11:03:04.690Z</time>
      </trkpt>
      <trkpt lat="43.83358" lon="7.86023">
        <ele>56.45683</ele>
        <time>2024-01-27T11:03:06.697Z</time>
      </trkpt>
      <trkpt lat="43.83356" lon="7.8601">
        <ele>56.519754</ele>
        <time>2024-01-27T11:03:08.694Z</time>
      </trkpt>
      <trkpt lat="43.83353" lon="7.85998">
        <ele>56.582217</ele>
        <time>2024-01-27T11:03:10.703Z</time>
      </trkpt>
      <trkpt lat="43.83349" lon="7.85982">
        <ele>56.660343</ele>
        <time>2024-01-27T11:03:13.704Z</time>
      </trkpt>
      <trkpt lat="43.83347" lon="7.85967">
        <ele>56.735207</ele>
        <time>2024-01-27T11:03:16.694Z</time>
      </trkpt>
      <trkpt lat="43.83343" lon="7.85952">
        <ele>56.814192</ele>
        <time>2024-01-27T11:03:19.718Z</time>
      </trkpt>
      <trkpt lat="43.83339" lon="7.85936">
        <ele>56.8929</ele>
        <time>2024-01-27T11:03:22.715Z</time>
      </trkpt>
      <trkpt lat="43.83336" lon="7.8592">
        <ele>56.972327</ele>
        <time>2024-01-27T11:03:25.720Z</time>
      </trkpt>
      <trkpt lat="43.83333" lon="7.85905">
        <ele>57.050787</ele>
        <time>2024-01-27T11:03:28.705Z</time>
      </trkpt>
      <trkpt lat="43.8333" lon="7.85887">
        <ele>57.13772</ele>
        <time>2024-01-27T11:03:31.696Z</time>
      </trkpt>
      <trkpt lat="43.83327" lon="7.8587">
        <ele>57.223371</ele>
        <time>2024-01-27T11:03:34.686Z</time>
      </trkpt>
      <trkpt lat="43.83323" lon="7.85853">
        <ele>57.235099</ele>
        <time>2024-01-27T11:03:37.700Z</time>
      </trkpt>
      <trkpt lat="43.8332" lon="7.85836">
        <ele>57.200189</ele>
        <time>2024-01-27T11:03:40.706Z</time>
      </trkpt>
      <trkpt lat="43.83317" lon="7.85818">
        <ele>57.164137</ele>
        <time>2024-01-27T11:03:43.700Z</time>
      </trkpt>
      <trkpt lat="43.83317" lon="7.858">
        <ele>57.128206</ele>
        <time>2024-01-27T11:03:46.722Z</time>
      </trkpt>
      <trkpt lat="43.83315" lon="7.85781">
        <ele>57.091851</ele>
        <time>2024-01-27T11:03:49.687Z</time>
      </trkpt>
      <trkpt lat="43.83313" lon="7.85764">
        <ele>57.056332</ele>
        <time>2024-01-27T11:03:52.702Z</time>
      </trkpt>
      <trkpt lat="43.8331" lon="7.85746">
        <ele>57.020595</ele>
        <time>2024-01-27T11:03:55.696Z</time>
      </trkpt>
      <trkpt lat="43.83307" lon="7.85734">
        <ele>56.995993</ele>
        <time>2024-01-27T11:03:57.716Z</time>
      </trkpt>
      <trkpt lat="43.83305" lon="7.85715">
        <ele>56.958434</ele>
        <time>2024-01-27T11:04:00.709Z</time>
      </trkpt>
      <trkpt lat="43.83301" lon="7.85698">
        <ele>56.923114</ele>
        <time>2024-01-27T11:04:03.701Z</time>
      </trkpt>
      <trkpt lat="43.83298" lon="7.85686">
        <ele>56.897531</ele>
        <time>2024-01-27T11:04:05.723Z</time>
      </trkpt>
      <trkpt lat="43.83296" lon="7.85674">
        <ele>56.872573</ele>
        <time>2024-01-27T11:04:07.692Z</time>
      </trkpt>
      <trkpt lat="43.83293" lon="7.85661">
        <ele>56.847135</ele>
        <time>2024-01-27T11:04:09.714Z</time>
      </trkpt>
      <trkpt lat="43.83291" lon="7.85649">
        <ele>56.822526</ele>
        <time>2024-01-27T11:04:11.722Z</time>
      </trkpt>
      <trkpt lat="43.83287" lon="7.85633">
        <ele>56.78978</ele>
        <time>2024-01-27T11:04:14.701Z</time>
      </trkpt>
      <trkpt lat="43.83281" lon="7.85623">
        <ele>56.753719</ele>
        <time>2024-01-27T11:04:17.685Z</time>
      </trkpt>
      <trkpt lat="43.83271" lon="7.85622">
        <ele>56.595952</ele>
        <time>2024-01-27T11:04:20.688Z</time>
      </trkpt>
      <trkpt lat="43.83261" lon="7.85619">
        <ele>56.425774</ele>
        <time>2024-01-27T11:04:23.684Z</time>
      </trkpt>
      <trkpt lat="43.83249" lon="7.85619">
        <ele>56.243084</ele>
        <time>2024-01-27T11:04:27.688Z</time>
      </trkpt>
      <trkpt lat="43.83245" lon="7.85607">
        <ele>56.084369</ele>
        <time>2024-01-27T11:04:31.685Z</time>
      </trkpt>
      <trkpt lat="43.83243" lon="7.85593">
        <ele>55.916828</ele>
        <time>2024-01-27T11:04:35.700Z</time>
      </trkpt>
      <trkpt lat="43.83241" lon="7.85576">
        <ele>55.719721</ele>
        <time>2024-01-27T11:04:38.709Z</time>
      </trkpt>
      <trkpt lat="43.8324" lon="7.85561">
        <ele>55.546729</ele>
        <time>2024-01-27T11:04:42.690Z</time>
      </trkpt>
      <trkpt lat="43.8324" lon="7.85546">
        <ele>55.375607</ele>
        <time>2024-01-27T11:04:47.696Z</time>
      </trkpt>
      <trkpt lat="43.8323" lon="7.85545">
        <ele>55.217726</ele>
        <time>2024-01-27T11:04:55.688Z</time>
      </trkpt>
      <trkpt lat="43.83221" lon="7.8555">
        <ele>55.056705</ele>
        <time>2024-01-27T11:04:59.710Z</time>
      </trkpt>
      <trkpt lat="43.83211" lon="7.85554">
        <ele>54.894235</ele>
        <time>2024-01-27T11:05:02.688Z</time>
      </trkpt>
      <trkpt lat="43.83202" lon="7.85557">
        <ele>54.747175</ele>
        <time>2024-01-27T11:05:05.694Z</time>
      </trkpt>
      <trkpt lat="43.83193" lon="7.85561">
        <ele>54.58595</ele>
        <time>2024-01-27T11:05:08.714Z</time>
      </trkpt>
      <trkpt lat="43.83181" lon="7.85564">
        <ele>54.388965</ele>
        <time>2024-01-27T11:05:11.811Z</time>
      </trkpt>
      <trkpt lat="43.83169" lon="7.85566">
        <ele>54.20435</ele>
        <time>2024-01-27T11:05:14.704Z</time>
      </trkpt>
      <trkpt lat="43.83159" lon="7.85568">
        <ele>54.04316</ele>
        <time>2024-01-27T11:05:17.693Z</time>
      </trkpt>
      <trkpt lat="43.8315" lon="7.85568">
        <ele>53.897324</ele>
        <time>2024-01-27T11:05:20.706Z</time>
      </trkpt>
      <trkpt lat="43.83143" lon="7.85558">
        <ele>53.982328</ele>
        <time>2024-01-27T11:05:23.696Z</time>
      </trkpt>
      <trkpt lat="43.8314" lon="7.85545">
        <ele>54.092203</ele>
        <time>2024-01-27T11:05:26.690Z</time>
      </trkpt>
      <trkpt lat="43.83139" lon="7.85532">
        <ele>54.193079</ele>
        <time>2024-01-27T11:05:29.711Z</time>
      </trkpt>
      <trkpt lat="43.83139" lon="7.85519">
        <ele>54.301449</ele>
        <time>2024-01-27T11:05:32.702Z</time>
      </trkpt>
      <trkpt lat="43.83138" lon="7.85504">
        <ele>54.422342</ele>
        <time>2024-01-27T11:05:35.705Z</time>
      </trkpt>
      <trkpt lat="43.83136" lon="7.85489">
        <ele>54.538621</ele>
        <time>2024-01-27T11:05:38.708Z</time>
      </trkpt>
      <trkpt lat="43.83135" lon="7.85474">
        <ele>54.659776</ele>
        <time>2024-01-27T11:05:41.711Z</time>
      </trkpt>
      <trkpt lat="43.83133" lon="7.85458">
        <ele>54.785282</ele>
        <time>2024-01-27T11:05:44.704Z</time>
      </trkpt>
      <trkpt lat="43.83131" lon="7.85443">
        <ele>54.908016</ele>
        <time>2024-01-27T11:05:47.720Z</time>
      </trkpt>
      <trkpt lat="43.8313" lon="7.85428">
        <ele>55.026492</ele>
        <time>2024-01-27T11:05:50.700Z</time>
      </trkpt>
      <trkpt lat="43.83129" lon="7.85414">
        <ele>55.140554</ele>
        <time>2024-01-27T11:05:53.700Z</time>
      </trkpt>
      <trkpt lat="43.83128" lon="7.85401">
        <ele>55.243927</ele>
        <time>2024-01-27T11:05:56.703Z</time>
      </trkpt>
      <trkpt lat="43.8313" lon="7.85386">
        <ele>55.370018</ele>
        <time>2024-01-27T11:06:00.702Z</time>
      </trkpt>
      <trkpt lat="43.8314" lon="7.85381">
        <ele>55.481561</ele>
        <time>2024-01-27T11:06:03.695Z</time>
      </trkpt>
      <trkpt lat="43.8315" lon="7.85378">
        <ele>55.599437</ele>
        <time>2024-01-27T11:06:06.699Z</time>
      </trkpt>
      <trkpt lat="43.83163" lon="7.85375">
        <ele>55.742516</ele>
        <time>2024-01-27T11:06:09.716Z</time>
      </trkpt>
      <trkpt lat="43.83174" lon="7.85372">
        <ele>55.867865</ele>
        <time>2024-01-27T11:06:12.691Z</time>
      </trkpt>
      <trkpt lat="43.83186" lon="7.85371">
        <ele>55.893111</ele>
        <time>2024-01-27T11:06:15.715Z</time>
      </trkpt>
      <trkpt lat="43.83196" lon="7.85366">
        <ele>55.917439</ele>
        <time>2024-01-27T11:06:18.689Z</time>
      </trkpt>
      <trkpt lat="43.83201" lon="7.85355">
        <ele>55.938824</ele>
        <time>2024-01-27T11:06:21.683Z</time>
      </trkpt>
      <trkpt lat="43.83198" lon="7.85338">
        <ele>55.967321</ele>
        <time>2024-01-27T11:06:24.683Z</time>
      </trkpt>
      <trkpt lat="43.83194" lon="7.85321">
        <ele>55.994804</ele>
        <time>2024-01-27T11:06:27.712Z</time>
      </trkpt>
      <trkpt lat="43.83194" lon="7.85307">
        <ele>56.017266</ele>
        <time>2024-01-27T11:06:31.699Z</time>
      </trkpt>
      <trkpt lat="43.83203" lon="7.85304">
        <ele>56.038662</ele>
        <time>2024-01-27T11:06:34.672Z</time>
      </trkpt>
      <trkpt lat="43.83209" lon="7.85291">
        <ele>56.062735</ele>
        <time>2024-01-27T11:06:38.686Z</time>
      </trkpt>
      <trkpt lat="43.83205" lon="7.85277">
        <ele>56.087562</ele>
        <time>2024-01-27T11:06:41.681Z</time>
      </trkpt>
      <trkpt lat="43.83201" lon="7.85262">
        <ele>56.112855</ele>
        <time>2024-01-27T11:06:44.711Z</time>
      </trkpt>
      <trkpt lat="43.83199" lon="7.85245">
        <ele>56.140689</ele>
        <time>2024-01-27T11:06:47.711Z</time>
      </trkpt>
      <trkpt lat="43.83194" lon="7.85228">
        <ele>56.169213</ele>
        <time>2024-01-27T11:06:50.681Z</time>
      </trkpt>
      <trkpt lat="43.83191" lon="7.85213">
        <ele>56.19514</ele>
        <time>2024-01-27T11:06:53.686Z</time>
      </trkpt>
      <trkpt lat="43.83189" lon="7.85199">
        <ele>56.21802</ele>
        <time>2024-01-27T11:06:57.694Z</time>
      </trkpt>
      <trkpt lat="43.83187" lon="7.85184">
        <ele>56.241904</ele>
        <time>2024-01-27T11:07:02.672Z</time>
      </trkpt>
      <trkpt lat="43.83185" lon="7.85168">
        <ele>56.276121</ele>
        <time>2024-01-27T11:07:06.703Z</time>
      </trkpt>
      <trkpt lat="43.83183" lon="7.85155">
        <ele>56.385835</ele>
        <time>2024-01-27T11:07:09.695Z</time>
      </trkpt>
      <trkpt lat="43.83181" lon="7.8514">
        <ele>56.512005</ele>
        <time>2024-01-27T11:07:13.684Z</time>
      </trkpt>
      <trkpt lat="43.83178" lon="7.85124">
        <ele>56.64674</ele>
        <time>2024-01-27T11:07:17.704Z</time>
      </trkpt>
      <trkpt lat="43.83175" lon="7.85112">
        <ele>56.75409</ele>
        <time>2024-01-27T11:07:20.721Z</time>
      </trkpt>
      <trkpt lat="43.83171" lon="7.85098">
        <ele>56.879364</ele>
        <time>2024-01-27T11:07:23.695Z</time>
      </trkpt>
      <trkpt lat="43.83167" lon="7.85085">
        <ele>56.992657</ele>
        <time>2024-01-27T11:07:26.705Z</time>
      </trkpt>
      <trkpt lat="43.83165" lon="7.85072">
        <ele>57.108282</ele>
        <time>2024-01-27T11:07:29.701Z</time>
      </trkpt>
      <trkpt lat="43.83161" lon="7.85058">
        <ele>57.232782</ele>
        <time>2024-01-27T11:07:32.688Z</time>
      </trkpt>
      <trkpt lat="43.83157" lon="7.85044">
        <ele>57.352652</ele>
        <time>2024-01-27T11:07:35.695Z</time>
      </trkpt>
      <trkpt lat="43.83151" lon="7.85033">
        <ele>57.472548</ele>
        <time>2024-01-27T11:07:38.695Z</time>
      </trkpt>
      <trkpt lat="43.8314" lon="7.85023">
        <ele>57.616237</ele>
        <time>2024-01-27T11:07:41.695Z</time>
      </trkpt>
      <trkpt lat="43.83134" lon="7.85007">
        <ele>57.770744</ele>
        <time>2024-01-27T11:07:44.696Z</time>
      </trkpt>
      <trkpt lat="43.83131" lon="7.84995">
        <ele>57.877306</ele>
        <time>2024-01-27T11:07:46.686Z</time>
      </trkpt>
      <trkpt lat="43.83127" lon="7.84984">
        <ele>57.981097</ele>
        <time>2024-01-27T11:07:48.701Z</time>
      </trkpt>
      <trkpt lat="43.8312" lon="7.84969">
        <ele>58.129302</ele>
        <time>2024-01-27T11:07:51.701Z</time>
      </trkpt>
      <trkpt lat="43.83114" lon="7.84953">
        <ele>58.272098</ele>
        <time>2024-01-27T11:07:54.682Z</time>
      </trkpt>
      <trkpt lat="43.83108" lon="7.84937">
        <ele>58.344406</ele>
        <time>2024-01-27T11:07:57.727Z</time>
      </trkpt>
      <trkpt lat="43.83103" lon="7.84926">
        <ele>58.354653</ele>
        <time>2024-01-27T11:07:59.710Z</time>
      </trkpt>
      <trkpt lat="43.83097" lon="7.84916">
        <ele>58.364646</ele>
        <time>2024-01-27T11:08:01.702Z</time>
      </trkpt>
      <trkpt lat="43.83089" lon="7.84902">
        <ele>58.379722</ele>
        <time>2024-01-27T11:08:04.698Z</time>
      </trkpt>
      <trkpt lat="43.83081" lon="7.84887">
        <ele>58.394506</ele>
        <time>2024-01-27T11:08:07.676Z</time>
      </trkpt>
      <trkpt lat="43.83072" lon="7.84872">
        <ele>58.409371</ele>
        <time>2024-01-27T11:08:10.693Z</time>
      </trkpt>
      <trkpt lat="43.83064" lon="7.84858">
        <ele>58.424438</ele>
        <time>2024-01-27T11:08:13.696Z</time>
      </trkpt>
      <trkpt lat="43.83058" lon="7.84848">
        <ele>58.434459</ele>
        <time>2024-01-27T11:08:15.701Z</time>
      </trkpt>
      <trkpt lat="43.83052" lon="7.84839">
        <ele>58.444734</ele>
        <time>2024-01-27T11:08:17.703Z</time>
      </trkpt>
      <trkpt lat="43.83046" lon="7.84829">
        <ele>58.454999</ele>
        <time>2024-01-27T11:08:19.698Z</time>
      </trkpt>
      <trkpt lat="43.83037" lon="7.84814">
        <ele>58.469989</ele>
        <time>2024-01-27T11:08:22.696Z</time>
      </trkpt>
      <trkpt lat="43.83032" lon="7.84804">
        <ele>58.479978</ele>
        <time>2024-01-27T11:08:24.710Z</time>
      </trkpt>
      <trkpt lat="43.83026" lon="7.84795">
        <ele>58.489998</ele>
        <time>2024-01-27T11:08:26.678Z</time>
      </trkpt>
      <trkpt lat="43.8302" lon="7.84785">
        <ele>58.500685</ele>
        <time>2024-01-27T11:08:28.670Z</time>
      </trkpt>
      <trkpt lat="43.83011" lon="7.8477">
        <ele>58.51555</ele>
        <time>2024-01-27T11:08:31.699Z</time>
      </trkpt>
      <trkpt lat="43.83002" lon="7.84756">
        <ele>58.530214</ele>
        <time>2024-01-27T11:08:34.686Z</time>
      </trkpt>
      <trkpt lat="43.82993" lon="7.84744">
        <ele>58.689777</ele>
        <time>2024-01-27T11:08:37.715Z</time>
      </trkpt>
      <trkpt lat="43.82987" lon="7.84734">
        <ele>58.850551</ele>
        <time>2024-01-27T11:08:39.702Z</time>
      </trkpt>
      <trkpt lat="43.82982" lon="7.84724">
        <ele>59.020675</ele>
        <time>2024-01-27T11:08:41.694Z</time>
      </trkpt>
      <trkpt lat="43.82973" lon="7.84709">
        <ele>59.264872</ele>
        <time>2024-01-27T11:08:44.699Z</time>
      </trkpt>
      <trkpt lat="43.82965" lon="7.84701">
        <ele>59.438291</ele>
        <time>2024-01-27T11:08:46.691Z</time>
      </trkpt>
      <trkpt lat="43.82891" lon="7.84588">
        <ele>61.391091</ele>
        <time>2024-01-27T11:09:07.689Z</time>
      </trkpt>
      <trkpt lat="43.82886" lon="7.84575">
        <ele>61.580108</ele>
        <time>2024-01-27T11:09:10.679Z</time>
      </trkpt>
      <trkpt lat="43.82879" lon="7.84563">
        <ele>61.568131</ele>
        <time>2024-01-27T11:09:12.679Z</time>
      </trkpt>
      <trkpt lat="43.82874" lon="7.84548">
        <ele>60.805044</ele>
        <time>2024-01-27T11:09:15.682Z</time>
      </trkpt>
      <trkpt lat="43.82868" lon="7.84537">
        <ele>60.22801</ele>
        <time>2024-01-27T11:09:17.690Z</time>
      </trkpt>
      <trkpt lat="43.82863" lon="7.84525">
        <ele>59.585898</ele>
        <time>2024-01-27T11:09:19.683Z</time>
      </trkpt>
      <trkpt lat="43.82856" lon="7.84514">
        <ele>58.968887</ele>
        <time>2024-01-27T11:09:21.701Z</time>
      </trkpt>
      <trkpt lat="43.8285" lon="7.84503">
        <ele>58.352454</ele>
        <time>2024-01-27T11:09:23.680Z</time>
      </trkpt>
      <trkpt lat="43.82845" lon="7.84491">
        <ele>57.730255</ele>
        <time>2024-01-27T11:09:25.679Z</time>
      </trkpt>
      <trkpt lat="43.8284" lon="7.84479">
        <ele>57.10219</ele>
        <time>2024-01-27T11:09:27.684Z</time>
      </trkpt>
      <trkpt lat="43.82833" lon="7.84468">
        <ele>56.502258</ele>
        <time>2024-01-27T11:09:29.690Z</time>
      </trkpt>
      <trkpt lat="43.82826" lon="7.84459">
        <ele>55.925092</ele>
        <time>2024-01-27T11:09:31.682Z</time>
      </trkpt>
      <trkpt lat="43.82821" lon="7.84448">
        <ele>55.301686</ele>
        <time>2024-01-27T11:09:33.666Z</time>
      </trkpt>
      <trkpt lat="43.82815" lon="7.84436">
        <ele>54.677994</ele>
        <time>2024-01-27T11:09:35.687Z</time>
      </trkpt>
      <trkpt lat="43.82809" lon="7.84426">
        <ele>54.099465</ele>
        <time>2024-01-27T11:09:37.677Z</time>
      </trkpt>
      <trkpt lat="43.82802" lon="7.84417">
        <ele>53.517834</ele>
        <time>2024-01-27T11:09:39.681Z</time>
      </trkpt>
      <trkpt lat="43.82794" lon="7.84402">
        <ele>52.714298</ele>
        <time>2024-01-27T11:09:42.714Z</time>
      </trkpt>
      <trkpt lat="43.82786" lon="7.84389">
        <ele>51.952096</ele>
        <time>2024-01-27T11:09:45.688Z</time>
      </trkpt>
      <trkpt lat="43.8278" lon="7.84378">
        <ele>51.338891</ele>
        <time>2024-01-27T11:09:47.690Z</time>
      </trkpt>
      <trkpt lat="43.82774" lon="7.84368">
        <ele>50.769113</ele>
        <time>2024-01-27T11:09:49.696Z</time>
      </trkpt>
      <trkpt lat="43.82769" lon="7.84357">
        <ele>51.010444</ele>
        <time>2024-01-27T11:09:51.691Z</time>
      </trkpt>
      <trkpt lat="43.82762" lon="7.84346">
        <ele>51.383137</ele>
        <time>2024-01-27T11:09:53.704Z</time>
      </trkpt>
      <trkpt lat="43.82754" lon="7.84335">
        <ele>51.759015</ele>
        <time>2024-01-27T11:09:55.702Z</time>
      </trkpt>
      <trkpt lat="43.82747" lon="7.84325">
        <ele>52.120826</ele>
        <time>2024-01-27T11:09:57.696Z</time>
      </trkpt>
      <trkpt lat="43.82739" lon="7.84315">
        <ele>52.501277</ele>
        <time>2024-01-27T11:09:59.691Z</time>
      </trkpt>
      <trkpt lat="43.82732" lon="7.84304">
        <ele>52.87593</ele>
        <time>2024-01-27T11:10:01.690Z</time>
      </trkpt>
      <trkpt lat="43.82726" lon="7.84292">
        <ele>53.237161</ele>
        <time>2024-01-27T11:10:03.699Z</time>
      </trkpt>
      <trkpt lat="43.8272" lon="7.84281">
        <ele>53.590201</ele>
        <time>2024-01-27T11:10:05.693Z</time>
      </trkpt>
      <trkpt lat="43.82714" lon="7.84271">
        <ele>53.929406</ele>
        <time>2024-01-27T11:10:07.694Z</time>
      </trkpt>
      <trkpt lat="43.82707" lon="7.84261">
        <ele>54.261359</ele>
        <time>2024-01-27T11:10:09.690Z</time>
      </trkpt>
      <trkpt lat="43.82701" lon="7.84251">
        <ele>54.605377</ele>
        <time>2024-01-27T11:10:11.688Z</time>
      </trkpt>
      <trkpt lat="43.82695" lon="7.84241">
        <ele>54.933344</ele>
        <time>2024-01-27T11:10:13.688Z</time>
      </trkpt>
      <trkpt lat="43.82689" lon="7.84231">
        <ele>55.260561</ele>
        <time>2024-01-27T11:10:15.701Z</time>
      </trkpt>
      <trkpt lat="43.82683" lon="7.84221">
        <ele>55.60199</ele>
        <time>2024-01-27T11:10:17.707Z</time>
      </trkpt>
      <trkpt lat="43.82676" lon="7.84211">
        <ele>55.948308</ele>
        <time>2024-01-27T11:10:19.704Z</time>
      </trkpt>
      <trkpt lat="43.82667" lon="7.84197">
        <ele>56.421458</ele>
        <time>2024-01-27T11:10:22.687Z</time>
      </trkpt>
      <trkpt lat="43.82661" lon="7.84187">
        <ele>56.739091</ele>
        <time>2024-01-27T11:10:24.700Z</time>
      </trkpt>
      <trkpt lat="43.82654" lon="7.84179">
        <ele>57.037121</ele>
        <time>2024-01-27T11:10:26.707Z</time>
      </trkpt>
      <trkpt lat="43.82648" lon="7.8417">
        <ele>57.176365</ele>
        <time>2024-01-27T11:10:28.690Z</time>
      </trkpt>
      <trkpt lat="43.82641" lon="7.84161">
        <ele>57.319182</ele>
        <time>2024-01-27T11:10:30.695Z</time>
      </trkpt>
      <trkpt lat="43.82634" lon="7.84152">
        <ele>57.461178</ele>
        <time>2024-01-27T11:10:32.690Z</time>
      </trkpt>
      <trkpt lat="43.82626" lon="7.84145">
        <ele>57.607577</ele>
        <time>2024-01-27T11:10:34.685Z</time>
      </trkpt>
      <trkpt lat="43.82618" lon="7.84137">
        <ele>57.76154</ele>
        <time>2024-01-27T11:10:36.715Z</time>
      </trkpt>
      <trkpt lat="43.8261" lon="7.84128">
        <ele>57.910147</ele>
        <time>2024-01-27T11:10:38.697Z</time>
      </trkpt>
      <trkpt lat="43.82602" lon="7.84122">
        <ele>58.058346</ele>
        <time>2024-01-27T11:10:40.699Z</time>
      </trkpt>
      <trkpt lat="43.82593" lon="7.84116">
        <ele>58.214352</ele>
        <time>2024-01-27T11:10:42.692Z</time>
      </trkpt>
      <trkpt lat="43.82585" lon="7.84109">
        <ele>58.355943</ele>
        <time>2024-01-27T11:10:44.694Z</time>
      </trkpt>
      <trkpt lat="43.82577" lon="7.84103">
        <ele>58.494518</ele>
        <time>2024-01-27T11:10:46.700Z</time>
      </trkpt>
      <trkpt lat="43.82569" lon="7.84096">
        <ele>58.634411</ele>
        <time>2024-01-27T11:10:48.700Z</time>
      </trkpt>
      <trkpt lat="43.82557" lon="7.84088">
        <ele>58.838952</ele>
        <time>2024-01-27T11:10:51.684Z</time>
      </trkpt>
      <trkpt lat="43.82549" lon="7.84082">
        <ele>58.976671</ele>
        <time>2024-01-27T11:10:53.707Z</time>
      </trkpt>
      <trkpt lat="43.82541" lon="7.84076">
        <ele>59.116563</ele>
        <time>2024-01-27T11:10:55.693Z</time>
      </trkpt>
      <trkpt lat="43.82529" lon="7.84069">
        <ele>59.317594</ele>
        <time>2024-01-27T11:10:58.696Z</time>
      </trkpt>
      <trkpt lat="43.82517" lon="7.84063">
        <ele>59.518626</ele>
        <time>2024-01-27T11:11:01.708Z</time>
      </trkpt>
      <trkpt lat="43.82505" lon="7.84056">
        <ele>59.716823</ele>
        <time>2024-01-27T11:11:04.703Z</time>
      </trkpt>
      <trkpt lat="43.82492" lon="7.84049">
        <ele>59.73677</ele>
        <time>2024-01-27T11:11:07.695Z</time>
      </trkpt>
      <trkpt lat="43.82479" lon="7.84044">
        <ele>59.69264</ele>
        <time>2024-01-27T11:11:10.687Z</time>
      </trkpt>
      <trkpt lat="43.82469" lon="7.84041">
        <ele>59.660313</ele>
        <time>2024-01-27T11:11:12.696Z</time>
      </trkpt>
      <trkpt lat="43.8246" lon="7.84039">
        <ele>59.629489</ele>
        <time>2024-01-27T11:11:14.700Z</time>
      </trkpt>
      <trkpt lat="43.82451" lon="7.84036">
        <ele>59.599419</ele>
        <time>2024-01-27T11:11:16.683Z</time>
      </trkpt>
      <trkpt lat="43.82442" lon="7.84034">
        <ele>59.570305</ele>
        <time>2024-01-27T11:11:18.694Z</time>
      </trkpt>
      <trkpt lat="43.82432" lon="7.84033">
        <ele>59.538622</ele>
        <time>2024-01-27T11:11:20.690Z</time>
      </trkpt>
      <trkpt lat="43.82423" lon="7.8403">
        <ele>59.508277</ele>
        <time>2024-01-27T11:11:22.701Z</time>
      </trkpt>
      <trkpt lat="43.82414" lon="7.84029">
        <ele>59.478322</ele>
        <time>2024-01-27T11:11:24.681Z</time>
      </trkpt>
      <trkpt lat="43.82404" lon="7.84027">
        <ele>59.447922</ele>
        <time>2024-01-27T11:11:26.682Z</time>
      </trkpt>
      <trkpt lat="43.82395" lon="7.84026">
        <ele>59.41873</ele>
        <time>2024-01-27T11:11:28.685Z</time>
      </trkpt>
      <trkpt lat="43.82386" lon="7.84026">
        <ele>59.38942</ele>
        <time>2024-01-27T11:11:30.686Z</time>
      </trkpt>
      <trkpt lat="43.82376" lon="7.84025">
        <ele>59.358448</ele>
        <time>2024-01-27T11:11:32.683Z</time>
      </trkpt>
      <trkpt lat="43.82364" lon="7.84022">
        <ele>59.317171</ele>
        <time>2024-01-27T11:11:35.683Z</time>
      </trkpt>
      <trkpt lat="43.82352" lon="7.8402">
        <ele>59.278894</ele>
        <time>2024-01-27T11:11:38.705Z</time>
      </trkpt>
      <trkpt lat="43.8234" lon="7.84017">
        <ele>59.238992</ele>
        <time>2024-01-27T11:11:41.693Z</time>
      </trkpt>
      <trkpt lat="43.82331" lon="7.84015">
        <ele>59.209799</ele>
        <time>2024-01-27T11:11:43.683Z</time>
      </trkpt>
      <trkpt lat="43.82319" lon="7.84013">
        <ele>59.211041</ele>
        <time>2024-01-27T11:11:46.685Z</time>
      </trkpt>
      <trkpt lat="43.82309" lon="7.84014">
        <ele>59.250524</ele>
        <time>2024-01-27T11:11:48.695Z</time>
      </trkpt>
      <trkpt lat="43.82297" lon="7.84012">
        <ele>59.298592</ele>
        <time>2024-01-27T11:11:50.686Z</time>
      </trkpt>
      <trkpt lat="43.82288" lon="7.84008">
        <ele>59.338944</ele>
        <time>2024-01-27T11:11:52.681Z</time>
      </trkpt>
      <trkpt lat="43.82278" lon="7.84003">
        <ele>59.380292</ele>
        <time>2024-01-27T11:11:54.693Z</time>
      </trkpt>
      <trkpt lat="43.82269" lon="7.83998">
        <ele>59.418302</ele>
        <time>2024-01-27T11:11:56.690Z</time>
      </trkpt>
      <trkpt lat="43.82261" lon="7.83993">
        <ele>59.455855</ele>
        <time>2024-01-27T11:11:58.687Z</time>
      </trkpt>
      <trkpt lat="43.82252" lon="7.83987">
        <ele>59.493632</ele>
        <time>2024-01-27T11:12:00.684Z</time>
      </trkpt>
      <trkpt lat="43.82243" lon="7.83982">
        <ele>59.532969</ele>
        <time>2024-01-27T11:12:02.681Z</time>
      </trkpt>
      <trkpt lat="43.82234" lon="7.83976">
        <ele>59.571338</ele>
        <time>2024-01-27T11:12:04.682Z</time>
      </trkpt>
      <trkpt lat="43.82226" lon="7.8397">
        <ele>59.610069</ele>
        <time>2024-01-27T11:12:06.680Z</time>
      </trkpt>
      <trkpt lat="43.82217" lon="7.83964">
        <ele>59.648799</ele>
        <time>2024-01-27T11:12:08.708Z</time>
      </trkpt>
      <trkpt lat="43.82208" lon="7.83959">
        <ele>59.689098</ele>
        <time>2024-01-27T11:12:10.685Z</time>
      </trkpt>
      <trkpt lat="43.82199" lon="7.83952">
        <ele>59.727318</ele>
        <time>2024-01-27T11:12:12.699Z</time>
      </trkpt>
      <trkpt lat="43.82191" lon="7.83945">
        <ele>59.765509</ele>
        <time>2024-01-27T11:12:14.689Z</time>
      </trkpt>
      <trkpt lat="43.82183" lon="7.83937">
        <ele>59.804672</ele>
        <time>2024-01-27T11:12:16.686Z</time>
      </trkpt>
      <trkpt lat="43.82175" lon="7.83929">
        <ele>59.8427</ele>
        <time>2024-01-27T11:12:18.690Z</time>
      </trkpt>
      <trkpt lat="43.82168" lon="7.83921">
        <ele>59.880967</ele>
        <time>2024-01-27T11:12:20.682Z</time>
      </trkpt>
      <trkpt lat="43.8216" lon="7.83913">
        <ele>59.948142</ele>
        <time>2024-01-27T11:12:22.700Z</time>
      </trkpt>
      <trkpt lat="43.82152" lon="7.83905">
        <ele>60.074781</ele>
        <time>2024-01-27T11:12:24.690Z</time>
      </trkpt>
      <trkpt lat="43.82144" lon="7.83896">
        <ele>60.197018</ele>
        <time>2024-01-27T11:12:26.691Z</time>
      </trkpt>
      <trkpt lat="43.82137" lon="7.83888">
        <ele>60.311852</ele>
        <time>2024-01-27T11:12:28.691Z</time>
      </trkpt>
      <trkpt lat="43.8213" lon="7.83879">
        <ele>60.433141</ele>
        <time>2024-01-27T11:12:30.690Z</time>
      </trkpt>
      <trkpt lat="43.82123" lon="7.8387">
        <ele>60.548314</ele>
        <time>2024-01-27T11:12:32.705Z</time>
      </trkpt>
      <trkpt lat="43.82116" lon="7.83861">
        <ele>60.668921</ele>
        <time>2024-01-27T11:12:34.690Z</time>
      </trkpt>
      <trkpt lat="43.82109" lon="7.83852">
        <ele>60.787511</ele>
        <time>2024-01-27T11:12:36.693Z</time>
      </trkpt>
      <trkpt lat="43.82102" lon="7.83842">
        <ele>60.909765</ele>
        <time>2024-01-27T11:12:38.708Z</time>
      </trkpt>
      <trkpt lat="43.82095" lon="7.83832">
        <ele>61.031794</ele>
        <time>2024-01-27T11:12:40.703Z</time>
      </trkpt>
      <trkpt lat="43.82089" lon="7.83823">
        <ele>61.152776</ele>
        <time>2024-01-27T11:12:42.686Z</time>
      </trkpt>
      <trkpt lat="43.82082" lon="7.83813">
        <ele>61.270281</ele>
        <time>2024-01-27T11:12:44.690Z</time>
      </trkpt>
      <trkpt lat="43.82076" lon="7.83798">
        <ele>61.428151</ele>
        <time>2024-01-27T11:12:47.690Z</time>
      </trkpt>
      <trkpt lat="43.8207" lon="7.83788">
        <ele>61.541055</ele>
        <time>2024-01-27T11:12:49.696Z</time>
      </trkpt>
      <trkpt lat="43.82065" lon="7.83777">
        <ele>61.65974</ele>
        <time>2024-01-27T11:12:51.675Z</time>
      </trkpt>
      <trkpt lat="43.82059" lon="7.83767">
        <ele>61.772567</ele>
        <time>2024-01-27T11:12:53.702Z</time>
      </trkpt>
      <trkpt lat="43.82054" lon="7.83757">
        <ele>61.886136</ele>
        <time>2024-01-27T11:12:55.709Z</time>
      </trkpt>
      <trkpt lat="43.82047" lon="7.83742">
        <ele>62.044214</ele>
        <time>2024-01-27T11:12:58.694Z</time>
      </trkpt>
      <trkpt lat="43.82039" lon="7.83729">
        <ele>62.14093</ele>
        <time>2024-01-27T11:13:01.709Z</time>
      </trkpt>
      <trkpt lat="43.82032" lon="7.83716">
        <ele>62.131001</ele>
        <time>2024-01-27T11:13:04.690Z</time>
      </trkpt>
      <trkpt lat="43.82024" lon="7.83703">
        <ele>62.121124</ele>
        <time>2024-01-27T11:13:07.691Z</time>
      </trkpt>
      <trkpt lat="43.82019" lon="7.83688">
        <ele>62.111357</ele>
        <time>2024-01-27T11:13:10.691Z</time>
      </trkpt>
      <trkpt lat="43.82012" lon="7.83675">
        <ele>62.101469</ele>
        <time>2024-01-27T11:13:13.695Z</time>
      </trkpt>
      <trkpt lat="43.82004" lon="7.83663">
        <ele>62.091715</ele>
        <time>2024-01-27T11:13:16.692Z</time>
      </trkpt>
      <trkpt lat="43.81997" lon="7.8365">
        <ele>62.082052</ele>
        <time>2024-01-27T11:13:19.706Z</time>
      </trkpt>
      <trkpt lat="43.81988" lon="7.83638">
        <ele>62.071924</ele>
        <time>2024-01-27T11:13:22.684Z</time>
      </trkpt>
      <trkpt lat="43.8198" lon="7.83629">
        <ele>62.063656</ele>
        <time>2024-01-27T11:13:25.691Z</time>
      </trkpt>
      <trkpt lat="43.81974" lon="7.83619">
        <ele>62.055802</ele>
        <time>2024-01-27T11:13:28.691Z</time>
      </trkpt>
      <trkpt lat="43.81966" lon="7.83609">
        <ele>62.047205</ele>
        <time>2024-01-27T11:13:31.692Z</time>
      </trkpt>
      <trkpt lat="43.81958" lon="7.83599">
        <ele>62.038291</ele>
        <time>2024-01-27T11:13:34.689Z</time>
      </trkpt>
      <trkpt lat="43.8195" lon="7.8359">
        <ele>62.029472</ele>
        <time>2024-01-27T11:13:37.700Z</time>
      </trkpt>
      <trkpt lat="43.81941" lon="7.8358">
        <ele>62.02008</ele>
        <time>2024-01-27T11:13:40.694Z</time>
      </trkpt>
      <trkpt lat="43.81932" lon="7.83571">
        <ele>62.010528</ele>
        <time>2024-01-27T11:13:43.699Z</time>
      </trkpt>
      <trkpt lat="43.81923" lon="7.83563">
        <ele>62.001895</ele>
        <time>2024-01-27T11:13:46.681Z</time>
      </trkpt>
      <trkpt lat="43.81915" lon="7.83555">
        <ele>61.982362</ele>
        <time>2024-01-27T11:13:49.702Z</time>
      </trkpt>
      <trkpt lat="43.81906" lon="7.83548">
        <ele>61.940051</ele>
        <time>2024-01-27T11:13:52.710Z</time>
      </trkpt>
      <trkpt lat="43.81898" lon="7.8354">
        <ele>61.894275</ele>
        <time>2024-01-27T11:13:55.704Z</time>
      </trkpt>
      <trkpt lat="43.81888" lon="7.83532">
        <ele>61.842652</ele>
        <time>2024-01-27T11:13:58.713Z</time>
      </trkpt>
      <trkpt lat="43.81879" lon="7.83525">
        <ele>61.799407</ele>
        <time>2024-01-27T11:14:01.705Z</time>
      </trkpt>
      <trkpt lat="43.81869" lon="7.83517">
        <ele>61.746425</ele>
        <time>2024-01-27T11:14:05.693Z</time>
      </trkpt>
      <trkpt lat="43.81861" lon="7.83509">
        <ele>61.704644</ele>
        <time>2024-01-27T11:14:08.695Z</time>
      </trkpt>
      <trkpt lat="43.81852" lon="7.835">
        <ele>61.656745</ele>
        <time>2024-01-27T11:14:12.688Z</time>
      </trkpt>
      <trkpt lat="43.81844" lon="7.83492">
        <ele>61.613201</ele>
        <time>2024-01-27T11:14:16.708Z</time>
      </trkpt>
      <trkpt lat="43.81838" lon="7.83482">
        <ele>61.569796</ele>
        <time>2024-01-27T11:14:19.680Z</time>
      </trkpt>
      <trkpt lat="43.8183" lon="7.83473">
        <ele>61.524445</ele>
        <time>2024-01-27T11:14:22.704Z</time>
      </trkpt>
      <trkpt lat="43.81822" lon="7.83463">
        <ele>61.476556</ele>
        <time>2024-01-27T11:14:25.700Z</time>
      </trkpt>
      <trkpt lat="43.81814" lon="7.83453">
        <ele>61.428867</ele>
        <time>2024-01-27T11:14:28.703Z</time>
      </trkpt>
      <trkpt lat="43.81807" lon="7.83443">
        <ele>61.383553</ele>
        <time>2024-01-27T11:14:31.710Z</time>
      </trkpt>
      <trkpt lat="43.81797" lon="7.83436">
        <ele>61.337219</ele>
        <time>2024-01-27T11:18:51.678Z</time>
      </trkpt>
      <trkpt lat="43.81793" lon="7.83423">
        <ele>61.291002</ele>
        <time>2024-01-27T11:18:56.708Z</time>
      </trkpt>
      <trkpt lat="43.81786" lon="7.83413">
        <ele>61.249529</ele>
        <time>2024-01-27T11:18:59.671Z</time>
      </trkpt>
      <trkpt lat="43.8178" lon="7.83404">
        <ele>61.208192</ele>
        <time>2024-01-27T11:19:02.690Z</time>
      </trkpt>
      <trkpt lat="43.81774" lon="7.83393">
        <ele>61.091896</ele>
        <time>2024-01-27T11:19:05.690Z</time>
      </trkpt>
      <trkpt lat="43.81767" lon="7.83381">
        <ele>60.947682</ele>
        <time>2024-01-27T11:19:08.682Z</time>
      </trkpt>
      <trkpt lat="43.8176" lon="7.8337">
        <ele>60.810473</ele>
        <time>2024-01-27T11:19:11.685Z</time>
      </trkpt>
      <trkpt lat="43.81753" lon="7.83357">
        <ele>60.660945</ele>
        <time>2024-01-27T11:19:14.698Z</time>
      </trkpt>
      <trkpt lat="43.81747" lon="7.83344">
        <ele>60.517101</ele>
        <time>2024-01-27T11:19:17.684Z</time>
      </trkpt>
      <trkpt lat="43.81742" lon="7.8333">
        <ele>60.365687</ele>
        <time>2024-01-27T11:19:20.687Z</time>
      </trkpt>
      <trkpt lat="43.81737" lon="7.83315">
        <ele>60.207509</ele>
        <time>2024-01-27T11:19:23.692Z</time>
      </trkpt>
      <trkpt lat="43.81731" lon="7.833">
        <ele>60.048056</ele>
        <time>2024-01-27T11:19:26.687Z</time>
      </trkpt>
      <trkpt lat="43.81725" lon="7.83286">
        <ele>59.897072</ele>
        <time>2024-01-27T11:19:29.695Z</time>
      </trkpt>
      <trkpt lat="43.81722" lon="7.83274">
        <ele>59.772261</ele>
        <time>2024-01-27T11:19:32.691Z</time>
      </trkpt>
      <trkpt lat="43.81745" lon="7.83222">
        <ele>59.195779</ele>
        <time>2024-01-27T11:20:07.668Z</time>
      </trkpt>
      <trkpt lat="43.81756" lon="7.83209">
        <ele>59.0112</ele>
        <time>2024-01-27T11:20:09.668Z</time>
      </trkpt>
      <trkpt lat="43.81708" lon="7.82866">
        <ele>56.209792</ele>
        <time>2024-01-27T11:21:13.714Z</time>
      </trkpt>
      <trkpt lat="43.81715" lon="7.82854">
        <ele>56.687702</ele>
        <time>2024-01-27T11:21:15.672Z</time>
      </trkpt>
      <trkpt lat="43.81721" lon="7.82844">
        <ele>57.130006</ele>
        <time>2024-01-27T11:21:17.689Z</time>
      </trkpt>
      <trkpt lat="43.81725" lon="7.82825">
        <ele>57.7217</ele>
        <time>2024-01-27T11:21:20.679Z</time>
      </trkpt>
      <trkpt lat="43.81729" lon="7.82814">
        <ele>58.112715</ele>
        <time>2024-01-27T11:21:22.680Z</time>
      </trkpt>
      <trkpt lat="43.81734" lon="7.82797">
        <ele>58.686449</ele>
        <time>2024-01-27T11:21:25.680Z</time>
      </trkpt>
      <trkpt lat="43.8174" lon="7.82782">
        <ele>59.251992</ele>
        <time>2024-01-27T11:21:28.682Z</time>
      </trkpt>
      <trkpt lat="43.81745" lon="7.82771">
        <ele>59.648359</ele>
        <time>2024-01-27T11:21:30.687Z</time>
      </trkpt>
      <trkpt lat="43.8175" lon="7.8276">
        <ele>60.044831</ele>
        <time>2024-01-27T11:21:32.680Z</time>
      </trkpt>
      <trkpt lat="43.81754" lon="7.82749">
        <ele>60.450428</ele>
        <time>2024-01-27T11:21:34.691Z</time>
      </trkpt>
      <trkpt lat="43.81761" lon="7.82734">
        <ele>61.024392</ele>
        <time>2024-01-27T11:21:37.687Z</time>
      </trkpt>
      <trkpt lat="43.81768" lon="7.82718">
        <ele>61.49996</ele>
        <time>2024-01-27T11:21:40.680Z</time>
      </trkpt>
      <trkpt lat="43.81775" lon="7.82702">
        <ele>61.722678</ele>
        <time>2024-01-27T11:21:43.685Z</time>
      </trkpt>
      <trkpt lat="43.81782" lon="7.82687">
        <ele>61.941816</ele>
        <time>2024-01-27T11:21:46.686Z</time>
      </trkpt>
      <trkpt lat="43.81789" lon="7.82672">
        <ele>62.147703</ele>
        <time>2024-01-27T11:21:49.703Z</time>
      </trkpt>
      <trkpt lat="43.81795" lon="7.82662">
        <ele>62.306924</ele>
        <time>2024-01-27T11:21:52.709Z</time>
      </trkpt>
      <trkpt lat="43.81801" lon="7.82652">
        <ele>62.460595</ele>
        <time>2024-01-27T11:21:56.682Z</time>
      </trkpt>
      <trkpt lat="43.81802" lon="7.82644">
        <ele>62.564081</ele>
        <time>2024-01-27T11:22:22.068Z</time>
      </trkpt>
      <trkpt lat="43.8181" lon="7.82635">
        <ele>62.742524</ele>
        <time>2024-01-27T11:24:30.707Z</time>
      </trkpt>
      <trkpt lat="43.81816" lon="7.82625">
        <ele>62.899696</ele>
        <time>2024-01-27T11:24:34.710Z</time>
      </trkpt>
      <trkpt lat="43.81823" lon="7.82611">
        <ele>63.094634</ele>
        <time>2024-01-27T11:24:38.704Z</time>
      </trkpt>
      <trkpt lat="43.81829" lon="7.82597">
        <ele>63.290787</ele>
        <time>2024-01-27T11:24:42.688Z</time>
      </trkpt>
      <trkpt lat="43.81833" lon="7.82585">
        <ele>63.455664</ele>
        <time>2024-01-27T11:24:45.695Z</time>
      </trkpt>
      <trkpt lat="43.81836" lon="7.8257">
        <ele>63.633158</ele>
        <time>2024-01-27T11:24:48.696Z</time>
      </trkpt>
      <trkpt lat="43.81839" lon="7.82556">
        <ele>63.816497</ele>
        <time>2024-01-27T11:24:51.677Z</time>
      </trkpt>
      <trkpt lat="43.81843" lon="7.82541">
        <ele>64.004898</ele>
        <time>2024-01-27T11:24:54.688Z</time>
      </trkpt>
      <trkpt lat="43.81847" lon="7.82525">
        <ele>64.205799</ele>
        <time>2024-01-27T11:24:57.701Z</time>
      </trkpt>
      <trkpt lat="43.81851" lon="7.82509">
        <ele>64.410022</ele>
        <time>2024-01-27T11:25:00.696Z</time>
      </trkpt>
      <trkpt lat="43.81854" lon="7.82497">
        <ele>64.410674</ele>
        <time>2024-01-27T11:25:02.719Z</time>
      </trkpt>
      <trkpt lat="43.81859" lon="7.8248">
        <ele>64.392935</ele>
        <time>2024-01-27T11:25:05.680Z</time>
      </trkpt>
      <trkpt lat="43.81863" lon="7.82464">
        <ele>64.37563</ele>
        <time>2024-01-27T11:25:08.714Z</time>
      </trkpt>
      <trkpt lat="43.81867" lon="7.82449">
        <ele>64.359873</ele>
        <time>2024-01-27T11:25:11.696Z</time>
      </trkpt>
      <trkpt lat="43.81871" lon="7.82431">
        <ele>64.341825</ele>
        <time>2024-01-27T11:25:14.693Z</time>
      </trkpt>
      <trkpt lat="43.81876" lon="7.82421">
        <ele>64.329317</ele>
        <time>2024-01-27T11:25:16.679Z</time>
      </trkpt>
      <trkpt lat="43.81883" lon="7.82412">
        <ele>64.316708</ele>
        <time>2024-01-27T11:25:18.679Z</time>
      </trkpt>
      <trkpt lat="43.81889" lon="7.82403">
        <ele>64.30381</ele>
        <time>2024-01-27T11:25:20.702Z</time>
      </trkpt>
      <trkpt lat="43.81896" lon="7.82387">
        <ele>64.28622</ele>
        <time>2024-01-27T11:25:23.675Z</time>
      </trkpt>
      <trkpt lat="43.81902" lon="7.82372">
        <ele>64.268762</ele>
        <time>2024-01-27T11:25:26.698Z</time>
      </trkpt>
      <trkpt lat="43.81908" lon="7.82356">
        <ele>64.251769</ele>
        <time>2024-01-27T11:25:29.674Z</time>
      </trkpt>
      <trkpt lat="43.81914" lon="7.82343">
        <ele>64.235832</ele>
        <time>2024-01-27T11:25:32.697Z</time>
      </trkpt>
      <trkpt lat="43.81919" lon="7.8233">
        <ele>64.220883</ele>
        <time>2024-01-27T11:25:35.687Z</time>
      </trkpt>
      <trkpt lat="43.81925" lon="7.82319">
        <ele>64.207579</ele>
        <time>2024-01-27T11:25:39.692Z</time>
      </trkpt>
      <trkpt lat="43.8193" lon="7.82308">
        <ele>64.194791</ele>
        <time>2024-01-27T11:26:05.679Z</time>
      </trkpt>
      <trkpt lat="43.81935" lon="7.82297">
        <ele>64.182208</ele>
        <time>2024-01-27T11:26:09.692Z</time>
      </trkpt>
      <trkpt lat="43.81937" lon="7.82282">
        <ele>64.114068</ele>
        <time>2024-01-27T11:26:57.705Z</time>
      </trkpt>
      <trkpt lat="43.81934" lon="7.82269">
        <ele>64.021367</ele>
        <time>2024-01-27T11:27:07.685Z</time>
      </trkpt>
      <trkpt lat="43.81934" lon="7.82282">
        <ele>63.928983</ele>
        <time>2024-01-27T11:27:53.701Z</time>
      </trkpt>
      <trkpt lat="43.81943" lon="7.82282">
        <ele>63.844749</ele>
        <time>2024-01-27T11:28:00.681Z</time>
      </trkpt>
      <trkpt lat="43.81949" lon="7.82269">
        <ele>63.739824</ele>
        <time>2024-01-27T11:28:04.694Z</time>
      </trkpt>
      <trkpt lat="43.81955" lon="7.82257">
        <ele>63.644511</ele>
        <time>2024-01-27T11:28:07.687Z</time>
      </trkpt>
      <trkpt lat="43.81962" lon="7.82244">
        <ele>63.539992</ele>
        <time>2024-01-27T11:28:10.689Z</time>
      </trkpt>
      <trkpt lat="43.81969" lon="7.82231">
        <ele>63.430579</ele>
        <time>2024-01-27T11:28:13.695Z</time>
      </trkpt>
      <trkpt lat="43.81976" lon="7.82218">
        <ele>63.317383</ele>
        <time>2024-01-27T11:28:16.704Z</time>
      </trkpt>
      <trkpt lat="43.81983" lon="7.82204">
        <ele>63.204723</ele>
        <time>2024-01-27T11:28:19.702Z</time>
      </trkpt>
      <trkpt lat="43.8199" lon="7.8219">
        <ele>63.090799</ele>
        <time>2024-01-27T11:28:22.688Z</time>
      </trkpt>
      <trkpt lat="43.81997" lon="7.82177">
        <ele>62.984628</ele>
        <time>2024-01-27T11:28:25.678Z</time>
      </trkpt>
      <trkpt lat="43.82004" lon="7.82163">
        <ele>62.870883</ele>
        <time>2024-01-27T11:28:28.693Z</time>
      </trkpt>
      <trkpt lat="43.8201" lon="7.82147">
        <ele>62.74755</ele>
        <time>2024-01-27T11:28:31.686Z</time>
      </trkpt>
      <trkpt lat="43.82015" lon="7.82136">
        <ele>62.663326</ele>
        <time>2024-01-27T11:28:33.690Z</time>
      </trkpt>
      <trkpt lat="43.8202" lon="7.82125">
        <ele>62.579</ele>
        <time>2024-01-27T11:28:35.696Z</time>
      </trkpt>
      <trkpt lat="43.82025" lon="7.82114">
        <ele>62.530258</ele>
        <time>2024-01-27T11:28:37.688Z</time>
      </trkpt>
      <trkpt lat="43.82029" lon="7.82102">
        <ele>62.61305</ele>
        <time>2024-01-27T11:28:39.696Z</time>
      </trkpt>
      <trkpt lat="43.82033" lon="7.82091">
        <ele>62.690956</ele>
        <time>2024-01-27T11:28:41.683Z</time>
      </trkpt>
      <trkpt lat="43.82038" lon="7.82079">
        <ele>62.772799</ele>
        <time>2024-01-27T11:28:43.714Z</time>
      </trkpt>
      <trkpt lat="43.82042" lon="7.82068">
        <ele>62.854906</ele>
        <time>2024-01-27T11:28:45.678Z</time>
      </trkpt>
      <trkpt lat="43.82047" lon="7.82056">
        <ele>62.938516</ele>
        <time>2024-01-27T11:28:47.695Z</time>
      </trkpt>
      <trkpt lat="43.82052" lon="7.82044">
        <ele>63.021465</ele>
        <time>2024-01-27T11:28:49.712Z</time>
      </trkpt>
      <trkpt lat="43.82056" lon="7.82033">
        <ele>63.101663</ele>
        <time>2024-01-27T11:28:51.686Z</time>
      </trkpt>
      <trkpt lat="43.8206" lon="7.82021">
        <ele>63.183112</ele>
        <time>2024-01-27T11:28:53.705Z</time>
      </trkpt>
      <trkpt lat="43.82064" lon="7.8201">
        <ele>63.262304</ele>
        <time>2024-01-27T11:28:55.667Z</time>
      </trkpt>
      <trkpt lat="43.82072" lon="7.81995">
        <ele>63.373489</ele>
        <time>2024-01-27T11:28:58.688Z</time>
      </trkpt>
      <trkpt lat="43.82135" lon="7.81819">
        <ele>62.919977</ele>
        <time>2024-01-27T11:29:27.675Z</time>
      </trkpt>
      <trkpt lat="43.82141" lon="7.81805">
        <ele>62.714478</ele>
        <time>2024-01-27T11:29:29.680Z</time>
      </trkpt>
      <trkpt lat="43.82144" lon="7.81792">
        <ele>62.525644</ele>
        <time>2024-01-27T11:29:31.701Z</time>
      </trkpt>
      <trkpt lat="43.8215" lon="7.8178">
        <ele>62.340821</ele>
        <time>2024-01-27T11:29:33.677Z</time>
      </trkpt>
      <trkpt lat="43.82154" lon="7.81767">
        <ele>62.154958</ele>
        <time>2024-01-27T11:29:35.666Z</time>
      </trkpt>
      <trkpt lat="43.82158" lon="7.81753">
        <ele>61.959012</ele>
        <time>2024-01-27T11:29:37.684Z</time>
      </trkpt>
      <trkpt lat="43.82162" lon="7.8174">
        <ele>61.763066</ele>
        <time>2024-01-27T11:29:39.684Z</time>
      </trkpt>
      <trkpt lat="43.82167" lon="7.81726">
        <ele>61.56954</ele>
        <time>2024-01-27T11:29:41.694Z</time>
      </trkpt>
      <trkpt lat="43.8217" lon="7.81713">
        <ele>61.376979</ele>
        <time>2024-01-27T11:29:43.701Z</time>
      </trkpt>
      <trkpt lat="43.82174" lon="7.81699">
        <ele>61.182541</ele>
        <time>2024-01-27T11:29:45.694Z</time>
      </trkpt>
      <trkpt lat="43.82178" lon="7.81685">
        <ele>60.983802</ele>
        <time>2024-01-27T11:29:47.689Z</time>
      </trkpt>
      <trkpt lat="43.82182" lon="7.81671">
        <ele>60.790594</ele>
        <time>2024-01-27T11:29:49.689Z</time>
      </trkpt>
      <trkpt lat="43.82185" lon="7.81657">
        <ele>60.735708</ele>
        <time>2024-01-27T11:29:51.688Z</time>
      </trkpt>
      <trkpt lat="43.82189" lon="7.81643">
        <ele>60.690681</ele>
        <time>2024-01-27T11:29:53.688Z</time>
      </trkpt>
      <trkpt lat="43.82193" lon="7.81629">
        <ele>60.646336</ele>
        <time>2024-01-27T11:29:55.682Z</time>
      </trkpt>
      <trkpt lat="43.82197" lon="7.81616">
        <ele>60.603136</ele>
        <time>2024-01-27T11:29:57.693Z</time>
      </trkpt>
      <trkpt lat="43.822" lon="7.81601">
        <ele>60.558119</ele>
        <time>2024-01-27T11:29:59.697Z</time>
      </trkpt>
      <trkpt lat="43.82204" lon="7.81588">
        <ele>60.514783</ele>
        <time>2024-01-27T11:30:01.698Z</time>
      </trkpt>
      <trkpt lat="43.82208" lon="7.81574">
        <ele>60.470046</ele>
        <time>2024-01-27T11:30:03.707Z</time>
      </trkpt>
      <trkpt lat="43.82211" lon="7.8156">
        <ele>60.425448</ele>
        <time>2024-01-27T11:30:05.689Z</time>
      </trkpt>
      <trkpt lat="43.82215" lon="7.81546">
        <ele>60.381412</ele>
        <time>2024-01-27T11:30:07.698Z</time>
      </trkpt>
      <trkpt lat="43.82218" lon="7.81532">
        <ele>60.337907</ele>
        <time>2024-01-27T11:30:09.716Z</time>
      </trkpt>
      <trkpt lat="43.82221" lon="7.81518">
        <ele>60.295502</ele>
        <time>2024-01-27T11:30:11.698Z</time>
      </trkpt>
      <trkpt lat="43.82224" lon="7.81504">
        <ele>60.251265</ele>
        <time>2024-01-27T11:30:13.688Z</time>
      </trkpt>
      <trkpt lat="43.82227" lon="7.8149">
        <ele>60.207915</ele>
        <time>2024-01-27T11:30:15.696Z</time>
      </trkpt>
      <trkpt lat="43.82231" lon="7.81476">
        <ele>60.164819</ele>
        <time>2024-01-27T11:30:17.692Z</time>
      </trkpt>
      <trkpt lat="43.82233" lon="7.81463">
        <ele>60.123621</ele>
        <time>2024-01-27T11:30:19.695Z</time>
      </trkpt>
      <trkpt lat="43.82236" lon="7.81449">
        <ele>60.081485</ele>
        <time>2024-01-27T11:30:21.703Z</time>
      </trkpt>
      <trkpt lat="43.82238" lon="7.81436">
        <ele>60.04011</ele>
        <time>2024-01-27T11:30:23.711Z</time>
      </trkpt>
      <trkpt lat="43.8224" lon="7.81423">
        <ele>59.974835</ele>
        <time>2024-01-27T11:30:25.677Z</time>
      </trkpt>
      <trkpt lat="43.82243" lon="7.81409">
        <ele>59.903234</ele>
        <time>2024-01-27T11:30:27.694Z</time>
      </trkpt>
      <trkpt lat="43.82245" lon="7.81396">
        <ele>59.831603</ele>
        <time>2024-01-27T11:30:29.688Z</time>
      </trkpt>
      <trkpt lat="43.82248" lon="7.81383">
        <ele>59.759832</ele>
        <time>2024-01-27T11:30:31.689Z</time>
      </trkpt>
      <trkpt lat="43.8225" lon="7.81368">
        <ele>59.684886</ele>
        <time>2024-01-27T11:30:33.690Z</time>
      </trkpt>
      <trkpt lat="43.82252" lon="7.81355">
        <ele>59.612226</ele>
        <time>2024-01-27T11:30:35.687Z</time>
      </trkpt>
      <trkpt lat="43.82253" lon="7.81341">
        <ele>59.537792</ele>
        <time>2024-01-27T11:30:37.709Z</time>
      </trkpt>
      <trkpt lat="43.82255" lon="7.81327">
        <ele>59.468328</ele>
        <time>2024-01-27T11:30:39.704Z</time>
      </trkpt>
      <trkpt lat="43.82257" lon="7.81314">
        <ele>59.397339</ele>
        <time>2024-01-27T11:30:41.693Z</time>
      </trkpt>
      <trkpt lat="43.82258" lon="7.81301">
        <ele>59.328149</ele>
        <time>2024-01-27T11:30:43.710Z</time>
      </trkpt>
      <trkpt lat="43.8226" lon="7.81288">
        <ele>59.260108</ele>
        <time>2024-01-27T11:30:45.688Z</time>
      </trkpt>
      <trkpt lat="43.82261" lon="7.81275">
        <ele>59.191267</ele>
        <time>2024-01-27T11:30:47.700Z</time>
      </trkpt>
      <trkpt lat="43.82262" lon="7.81262">
        <ele>59.124074</ele>
        <time>2024-01-27T11:30:49.699Z</time>
      </trkpt>
      <trkpt lat="43.82264" lon="7.81249">
        <ele>59.055906</ele>
        <time>2024-01-27T11:30:51.694Z</time>
      </trkpt>
      <trkpt lat="43.82266" lon="7.81236">
        <ele>58.986495</ele>
        <time>2024-01-27T11:30:53.709Z</time>
      </trkpt>
      <trkpt lat="43.82268" lon="7.81223">
        <ele>58.917305</ele>
        <time>2024-01-27T11:30:55.678Z</time>
      </trkpt>
      <trkpt lat="43.8227" lon="7.8121">
        <ele>58.850535</ele>
        <time>2024-01-27T11:30:57.714Z</time>
      </trkpt>
      <trkpt lat="43.82271" lon="7.81197">
        <ele>58.780956</ele>
        <time>2024-01-27T11:30:59.730Z</time>
      </trkpt>
      <trkpt lat="43.82273" lon="7.81184">
        <ele>58.727116</ele>
        <time>2024-01-27T11:31:01.695Z</time>
      </trkpt>
      <trkpt lat="43.82275" lon="7.81171">
        <ele>58.703075</ele>
        <time>2024-01-27T11:31:03.699Z</time>
      </trkpt>
      <trkpt lat="43.82277" lon="7.81158">
        <ele>58.679867</ele>
        <time>2024-01-27T11:31:05.701Z</time>
      </trkpt>
      <trkpt lat="43.82279" lon="7.81145">
        <ele>58.655623</ele>
        <time>2024-01-27T11:31:07.695Z</time>
      </trkpt>
      <trkpt lat="43.8228" lon="7.81132">
        <ele>58.630607</ele>
        <time>2024-01-27T11:31:09.695Z</time>
      </trkpt>
      <trkpt lat="43.82281" lon="7.81119">
        <ele>58.606817</ele>
        <time>2024-01-27T11:31:11.691Z</time>
      </trkpt>
      <trkpt lat="43.82283" lon="7.81106">
        <ele>58.583324</ele>
        <time>2024-01-27T11:31:13.701Z</time>
      </trkpt>
      <trkpt lat="43.82284" lon="7.81094">
        <ele>58.559848</ele>
        <time>2024-01-27T11:31:15.700Z</time>
      </trkpt>
      <trkpt lat="43.82285" lon="7.81081">
        <ele>58.536632</ele>
        <time>2024-01-27T11:31:17.688Z</time>
      </trkpt>
      <trkpt lat="43.82287" lon="7.81069">
        <ele>58.513595</ele>
        <time>2024-01-27T11:31:19.691Z</time>
      </trkpt>
      <trkpt lat="43.82289" lon="7.81056">
        <ele>58.489703</ele>
        <time>2024-01-27T11:31:21.673Z</time>
      </trkpt>
      <trkpt lat="43.8229" lon="7.81043">
        <ele>58.465949</ele>
        <time>2024-01-27T11:31:23.710Z</time>
      </trkpt>
      <trkpt lat="43.82293" lon="7.8103">
        <ele>58.441729</ele>
        <time>2024-01-27T11:31:25.696Z</time>
      </trkpt>
      <trkpt lat="43.82294" lon="7.81017">
        <ele>58.417125</ele>
        <time>2024-01-27T11:31:27.696Z</time>
      </trkpt>
      <trkpt lat="43.82296" lon="7.81003">
        <ele>58.391305</ele>
        <time>2024-01-27T11:31:29.692Z</time>
      </trkpt>
      <trkpt lat="43.82298" lon="7.8099">
        <ele>58.366961</ele>
        <time>2024-01-27T11:31:31.699Z</time>
      </trkpt>
      <trkpt lat="43.823" lon="7.80977">
        <ele>58.342085</ele>
        <time>2024-01-27T11:31:33.695Z</time>
      </trkpt>
      <trkpt lat="43.82301" lon="7.80963">
        <ele>58.317122</ele>
        <time>2024-01-27T11:31:35.688Z</time>
      </trkpt>
      <trkpt lat="43.82303" lon="7.8095">
        <ele>58.29283</ele>
        <time>2024-01-27T11:31:37.677Z</time>
      </trkpt>
      <trkpt lat="43.82305" lon="7.80938">
        <ele>58.230241</ele>
        <time>2024-01-27T11:31:39.702Z</time>
      </trkpt>
      <trkpt lat="43.82307" lon="7.80924">
        <ele>58.116269</ele>
        <time>2024-01-27T11:31:41.698Z</time>
      </trkpt>
      <trkpt lat="43.82308" lon="7.80911">
        <ele>58.007809</ele>
        <time>2024-01-27T11:31:43.710Z</time>
      </trkpt>
      <trkpt lat="43.8231" lon="7.80898">
        <ele>57.896898</ele>
        <time>2024-01-27T11:31:45.686Z</time>
      </trkpt>
      <trkpt lat="43.82311" lon="7.80885">
        <ele>57.786207</ele>
        <time>2024-01-27T11:31:47.714Z</time>
      </trkpt>
      <trkpt lat="43.82312" lon="7.80872">
        <ele>57.679098</ele>
        <time>2024-01-27T11:31:49.695Z</time>
      </trkpt>
      <trkpt lat="43.82314" lon="7.80859">
        <ele>57.56684</ele>
        <time>2024-01-27T11:31:51.705Z</time>
      </trkpt>
      <trkpt lat="43.82316" lon="7.80845">
        <ele>57.454834</ele>
        <time>2024-01-27T11:31:53.696Z</time>
      </trkpt>
      <trkpt lat="43.82318" lon="7.80833">
        <ele>57.348199</ele>
        <time>2024-01-27T11:31:55.675Z</time>
      </trkpt>
      <trkpt lat="43.8232" lon="7.8082">
        <ele>57.24014</ele>
        <time>2024-01-27T11:31:57.698Z</time>
      </trkpt>
      <trkpt lat="43.82321" lon="7.80807">
        <ele>57.130664</ele>
        <time>2024-01-27T11:31:59.700Z</time>
      </trkpt>
      <trkpt lat="43.82323" lon="7.80794">
        <ele>57.024002</ele>
        <time>2024-01-27T11:32:01.701Z</time>
      </trkpt>
      <trkpt lat="43.82325" lon="7.80781">
        <ele>56.914164</ele>
        <time>2024-01-27T11:32:03.688Z</time>
      </trkpt>
      <trkpt lat="43.82327" lon="7.80769">
        <ele>56.805504</ele>
        <time>2024-01-27T11:32:05.699Z</time>
      </trkpt>
      <trkpt lat="43.82329" lon="7.80756">
        <ele>56.697659</ele>
        <time>2024-01-27T11:32:07.691Z</time>
      </trkpt>
      <trkpt lat="43.82331" lon="7.80743">
        <ele>56.591226</ele>
        <time>2024-01-27T11:32:09.686Z</time>
      </trkpt>
      <trkpt lat="43.82332" lon="7.8073">
        <ele>56.482566</ele>
        <time>2024-01-27T11:32:11.695Z</time>
      </trkpt>
      <trkpt lat="43.82334" lon="7.80717">
        <ele>56.372658</ele>
        <time>2024-01-27T11:32:13.709Z</time>
      </trkpt>
      <trkpt lat="43.82335" lon="7.80704">
        <ele>56.265831</ele>
        <time>2024-01-27T11:32:15.701Z</time>
      </trkpt>
      <trkpt lat="43.82337" lon="7.80692">
        <ele>56.202858</ele>
        <time>2024-01-27T11:32:17.701Z</time>
      </trkpt>
      <trkpt lat="43.82339" lon="7.80679">
        <ele>56.179839</ele>
        <time>2024-01-27T11:32:19.694Z</time>
      </trkpt>
      <trkpt lat="43.82341" lon="7.80666">
        <ele>56.156579</ele>
        <time>2024-01-27T11:32:21.709Z</time>
      </trkpt>
      <trkpt lat="43.82342" lon="7.80653">
        <ele>56.132833</ele>
        <time>2024-01-27T11:32:23.698Z</time>
      </trkpt>
      <trkpt lat="43.82343" lon="7.80639">
        <ele>56.108626</ele>
        <time>2024-01-27T11:32:25.676Z</time>
      </trkpt>
      <trkpt lat="43.82345" lon="7.80626">
        <ele>56.08385</ele>
        <time>2024-01-27T11:32:27.682Z</time>
      </trkpt>
      <trkpt lat="43.82347" lon="7.80612">
        <ele>56.058942</ele>
        <time>2024-01-27T11:32:29.702Z</time>
      </trkpt>
      <trkpt lat="43.82348" lon="7.80598">
        <ele>56.033936</ele>
        <time>2024-01-27T11:32:31.717Z</time>
      </trkpt>
      <trkpt lat="43.8235" lon="7.80584">
        <ele>56.009583</ele>
        <time>2024-01-27T11:32:33.706Z</time>
      </trkpt>
      <trkpt lat="43.8235" lon="7.8057">
        <ele>55.984789</ele>
        <time>2024-01-27T11:32:35.695Z</time>
      </trkpt>
      <trkpt lat="43.8235" lon="7.80556">
        <ele>55.959348</ele>
        <time>2024-01-27T11:32:37.706Z</time>
      </trkpt>
      <trkpt lat="43.8235" lon="7.80541">
        <ele>55.934437</ele>
        <time>2024-01-27T11:32:39.694Z</time>
      </trkpt>
      <trkpt lat="43.82351" lon="7.80528">
        <ele>55.910742</ele>
        <time>2024-01-27T11:32:41.697Z</time>
      </trkpt>
      <trkpt lat="43.8235" lon="7.80515">
        <ele>55.887056</ele>
        <time>2024-01-27T11:32:43.695Z</time>
      </trkpt>
      <trkpt lat="43.82349" lon="7.80501">
        <ele>55.862904</ele>
        <time>2024-01-27T11:32:45.691Z</time>
      </trkpt>
      <trkpt lat="43.82349" lon="7.80487">
        <ele>55.838512</ele>
        <time>2024-01-27T11:32:47.696Z</time>
      </trkpt>
      <trkpt lat="43.82349" lon="7.80474">
        <ele>55.814806</ele>
        <time>2024-01-27T11:32:49.698Z</time>
      </trkpt>
      <trkpt lat="43.82348" lon="7.8046">
        <ele>55.79103</ele>
        <time>2024-01-27T11:32:51.708Z</time>
      </trkpt>
      <trkpt lat="43.82346" lon="7.80447">
        <ele>55.762398</ele>
        <time>2024-01-27T11:32:53.711Z</time>
      </trkpt>
      <trkpt lat="43.82345" lon="7.80434">
        <ele>55.71877</ele>
        <time>2024-01-27T11:32:55.692Z</time>
      </trkpt>
      <trkpt lat="43.82343" lon="7.8042">
        <ele>55.674001</ele>
        <time>2024-01-27T11:32:57.705Z</time>
      </trkpt>
      <trkpt lat="43.82341" lon="7.80406">
        <ele>55.629441</ele>
        <time>2024-01-27T11:32:59.682Z</time>
      </trkpt>
      <trkpt lat="43.8234" lon="7.80393">
        <ele>55.585354</ele>
        <time>2024-01-27T11:33:01.709Z</time>
      </trkpt>
      <trkpt lat="43.82338" lon="7.80379">
        <ele>55.540306</ele>
        <time>2024-01-27T11:33:03.694Z</time>
      </trkpt>
      <trkpt lat="43.82335" lon="7.80365">
        <ele>55.494019</ele>
        <time>2024-01-27T11:33:05.682Z</time>
      </trkpt>
      <trkpt lat="43.82332" lon="7.80351">
        <ele>55.449273</ele>
        <time>2024-01-27T11:33:07.700Z</time>
      </trkpt>
      <trkpt lat="43.8233" lon="7.80338">
        <ele>55.406722</ele>
        <time>2024-01-27T11:33:09.678Z</time>
      </trkpt>
      <trkpt lat="43.82325" lon="7.80321">
        <ele>55.346734</ele>
        <time>2024-01-27T11:33:12.691Z</time>
      </trkpt>
      <trkpt lat="43.82319" lon="7.80305">
        <ele>55.289214</ele>
        <time>2024-01-27T11:33:15.681Z</time>
      </trkpt>
      <trkpt lat="43.82316" lon="7.80293">
        <ele>55.249319</ele>
        <time>2024-01-27T11:33:17.690Z</time>
      </trkpt>
      <trkpt lat="43.82313" lon="7.80281">
        <ele>55.207404</ele>
        <time>2024-01-27T11:33:19.699Z</time>
      </trkpt>
      <trkpt lat="43.82309" lon="7.80268">
        <ele>55.162299</ele>
        <time>2024-01-27T11:33:21.693Z</time>
      </trkpt>
      <trkpt lat="43.82304" lon="7.80255">
        <ele>55.117489</ele>
        <time>2024-01-27T11:33:23.707Z</time>
      </trkpt>
      <trkpt lat="43.823" lon="7.80243">
        <ele>55.07344</ele>
        <time>2024-01-27T11:33:25.676Z</time>
      </trkpt>
      <trkpt lat="43.82295" lon="7.80231">
        <ele>55.028492</ele>
        <time>2024-01-27T11:33:27.717Z</time>
      </trkpt>
      <trkpt lat="43.8229" lon="7.80219">
        <ele>54.983893</ele>
        <time>2024-01-27T11:33:29.701Z</time>
      </trkpt>
      <trkpt lat="43.82285" lon="7.80206">
        <ele>54.956026</ele>
        <time>2024-01-27T11:33:31.692Z</time>
      </trkpt>
      <trkpt lat="43.8228" lon="7.80195">
        <ele>54.931527</ele>
        <time>2024-01-27T11:33:33.712Z</time>
      </trkpt>
      <trkpt lat="43.82274" lon="7.80183">
        <ele>54.907751</ele>
        <time>2024-01-27T11:33:35.688Z</time>
      </trkpt>
      <trkpt lat="43.82268" lon="7.80173">
        <ele>54.884376</ele>
        <time>2024-01-27T11:33:37.710Z</time>
      </trkpt>
      <trkpt lat="43.82263" lon="7.80163">
        <ele>54.861742</ele>
        <time>2024-01-27T11:33:39.702Z</time>
      </trkpt>
      <trkpt lat="43.82258" lon="7.80151">
        <ele>54.838486</ele>
        <time>2024-01-27T11:33:41.712Z</time>
      </trkpt>
      <trkpt lat="43.82252" lon="7.8014">
        <ele>54.814128</ele>
        <time>2024-01-27T11:33:43.705Z</time>
      </trkpt>
      <trkpt lat="43.82246" lon="7.80129">
        <ele>54.789497</ele>
        <time>2024-01-27T11:33:45.684Z</time>
      </trkpt>
      <trkpt lat="43.82239" lon="7.80118">
        <ele>54.764973</ele>
        <time>2024-01-27T11:33:47.685Z</time>
      </trkpt>
      <trkpt lat="43.82233" lon="7.80107">
        <ele>54.740335</ele>
        <time>2024-01-27T11:33:49.698Z</time>
      </trkpt>
      <trkpt lat="43.82227" lon="7.80097">
        <ele>54.716556</ele>
        <time>2024-01-27T11:33:51.707Z</time>
      </trkpt>
      <trkpt lat="43.82222" lon="7.80085">
        <ele>54.692623</ele>
        <time>2024-01-27T11:33:53.702Z</time>
      </trkpt>
      <trkpt lat="43.82216" lon="7.80074">
        <ele>54.667653</ele>
        <time>2024-01-27T11:33:55.704Z</time>
      </trkpt>
      <trkpt lat="43.82209" lon="7.80064">
        <ele>54.643945</ele>
        <time>2024-01-27T11:33:57.684Z</time>
      </trkpt>
      <trkpt lat="43.82204" lon="7.80054">
        <ele>54.621882</ele>
        <time>2024-01-27T11:33:59.695Z</time>
      </trkpt>
      <trkpt lat="43.82198" lon="7.80044">
        <ele>54.598507</ele>
        <time>2024-01-27T11:34:01.699Z</time>
      </trkpt>
      <trkpt lat="43.82192" lon="7.80034">
        <ele>54.575811</ele>
        <time>2024-01-27T11:34:03.691Z</time>
      </trkpt>
      <trkpt lat="43.82186" lon="7.80023">
        <ele>54.551891</ele>
        <time>2024-01-27T11:34:05.696Z</time>
      </trkpt>
      <trkpt lat="43.8218" lon="7.80012">
        <ele>54.508354</ele>
        <time>2024-01-27T11:34:07.712Z</time>
      </trkpt>
      <trkpt lat="43.82174" lon="7.80002">
        <ele>54.441502</ele>
        <time>2024-01-27T11:34:09.683Z</time>
      </trkpt>
      <trkpt lat="43.82169" lon="7.79991">
        <ele>54.370053</ele>
        <time>2024-01-27T11:34:11.698Z</time>
      </trkpt>
      <trkpt lat="43.82163" lon="7.79979">
        <ele>54.297767</ele>
        <time>2024-01-27T11:34:13.694Z</time>
      </trkpt>
      <trkpt lat="43.82156" lon="7.79969">
        <ele>54.225305</ele>
        <time>2024-01-27T11:34:15.686Z</time>
      </trkpt>
      <trkpt lat="43.8215" lon="7.79958">
        <ele>54.157199</ele>
        <time>2024-01-27T11:34:17.696Z</time>
      </trkpt>
      <trkpt lat="43.82145" lon="7.79947">
        <ele>54.086993</ele>
        <time>2024-01-27T11:34:19.713Z</time>
      </trkpt>
      <trkpt lat="43.82139" lon="7.79936">
        <ele>54.018424</ele>
        <time>2024-01-27T11:34:21.697Z</time>
      </trkpt>
      <trkpt lat="43.82133" lon="7.79926">
        <ele>53.949481</ele>
        <time>2024-01-27T11:34:23.698Z</time>
      </trkpt>
      <trkpt lat="43.82127" lon="7.79915">
        <ele>53.881792</ele>
        <time>2024-01-27T11:34:25.691Z</time>
      </trkpt>
      <trkpt lat="43.82122" lon="7.79904">
        <ele>53.811586</ele>
        <time>2024-01-27T11:34:27.700Z</time>
      </trkpt>
      <trkpt lat="43.82115" lon="7.79894">
        <ele>53.741855</ele>
        <time>2024-01-27T11:34:29.703Z</time>
      </trkpt>
      <trkpt lat="43.82108" lon="7.79879">
        <ele>53.648206</ele>
        <time>2024-01-27T11:34:32.700Z</time>
      </trkpt>
      <trkpt lat="43.82102" lon="7.79868">
        <ele>53.579252</ele>
        <time>2024-01-27T11:34:34.698Z</time>
      </trkpt>
      <trkpt lat="43.82097" lon="7.79857">
        <ele>53.514336</ele>
        <time>2024-01-27T11:34:36.705Z</time>
      </trkpt>
      <trkpt lat="43.82092" lon="7.79846">
        <ele>53.44704</ele>
        <time>2024-01-27T11:34:38.707Z</time>
      </trkpt>
      <trkpt lat="43.82087" lon="7.79835">
        <ele>53.377862</ele>
        <time>2024-01-27T11:34:40.702Z</time>
      </trkpt>
      <trkpt lat="43.82082" lon="7.79823">
        <ele>53.306718</ele>
        <time>2024-01-27T11:34:42.697Z</time>
      </trkpt>
      <trkpt lat="43.82077" lon="7.79811">
        <ele>53.249187</ele>
        <time>2024-01-27T11:34:44.694Z</time>
      </trkpt>
      <trkpt lat="43.82073" lon="7.79799">
        <ele>53.233612</ele>
        <time>2024-01-27T11:34:46.697Z</time>
      </trkpt>
      <trkpt lat="43.8207" lon="7.79786">
        <ele>53.218182</ele>
        <time>2024-01-27T11:34:48.700Z</time>
      </trkpt>
      <trkpt lat="43.82065" lon="7.79775">
        <ele>53.203024</ele>
        <time>2024-01-27T11:34:50.692Z</time>
      </trkpt>
      <trkpt lat="43.82062" lon="7.79763">
        <ele>53.188509</ele>
        <time>2024-01-27T11:34:52.706Z</time>
      </trkpt>
      <trkpt lat="43.82056" lon="7.79746">
        <ele>53.166835</ele>
        <time>2024-01-27T11:34:55.695Z</time>
      </trkpt>
      <trkpt lat="43.82051" lon="7.7973">
        <ele>53.146511</ele>
        <time>2024-01-27T11:34:58.710Z</time>
      </trkpt>
      <trkpt lat="43.82048" lon="7.79717">
        <ele>53.131715</ele>
        <time>2024-01-27T11:35:00.681Z</time>
      </trkpt>
      <trkpt lat="43.82046" lon="7.79705">
        <ele>53.116557</ele>
        <time>2024-01-27T11:35:02.688Z</time>
      </trkpt>
      <trkpt lat="43.82043" lon="7.79692">
        <ele>53.101625</ele>
        <time>2024-01-27T11:35:04.689Z</time>
      </trkpt>
      <trkpt lat="43.82041" lon="7.7968">
        <ele>53.086991</ele>
        <time>2024-01-27T11:35:06.699Z</time>
      </trkpt>
      <trkpt lat="43.8204" lon="7.79668">
        <ele>53.072362</ele>
        <time>2024-01-27T11:35:08.700Z</time>
      </trkpt>
      <trkpt lat="43.82039" lon="7.79655">
        <ele>53.057919</ele>
        <time>2024-01-27T11:35:10.693Z</time>
      </trkpt>
      <trkpt lat="43.82037" lon="7.79642">
        <ele>53.042808</ele>
        <time>2024-01-27T11:35:12.690Z</time>
      </trkpt>
      <trkpt lat="43.82036" lon="7.79629">
        <ele>53.027847</ele>
        <time>2024-01-27T11:35:14.690Z</time>
      </trkpt>
      <trkpt lat="43.82035" lon="7.79616">
        <ele>53.012851</ele>
        <time>2024-01-27T11:35:16.681Z</time>
      </trkpt>
      <trkpt lat="43.82034" lon="7.79603">
        <ele>52.997677</ele>
        <time>2024-01-27T11:35:18.684Z</time>
      </trkpt>
      <trkpt lat="43.82033" lon="7.79591">
        <ele>52.982929</ele>
        <time>2024-01-27T11:35:20.693Z</time>
      </trkpt>
      <trkpt lat="43.82032" lon="7.79574">
        <ele>52.975168</ele>
        <time>2024-01-27T11:35:23.702Z</time>
      </trkpt>
      <trkpt lat="43.82031" lon="7.79558">
        <ele>53.108613</ele>
        <time>2024-01-27T11:35:26.704Z</time>
      </trkpt>
      <trkpt lat="43.8203" lon="7.79542">
        <ele>53.237745</ele>
        <time>2024-01-27T11:35:29.695Z</time>
      </trkpt>
      <trkpt lat="43.8203" lon="7.79524">
        <ele>53.379971</ele>
        <time>2024-01-27T11:35:32.685Z</time>
      </trkpt>
      <trkpt lat="43.8203" lon="7.79506">
        <ele>53.526201</ele>
        <time>2024-01-27T11:35:35.688Z</time>
      </trkpt>
      <trkpt lat="43.82031" lon="7.79489">
        <ele>53.665414</ele>
        <time>2024-01-27T11:35:38.690Z</time>
      </trkpt>
      <trkpt lat="43.82032" lon="7.79472">
        <ele>53.802359</ele>
        <time>2024-01-27T11:35:41.689Z</time>
      </trkpt>
      <trkpt lat="43.82034" lon="7.79455">
        <ele>53.937227</ele>
        <time>2024-01-27T11:35:44.696Z</time>
      </trkpt>
      <trkpt lat="43.82036" lon="7.7944">
        <ele>54.057303</ele>
        <time>2024-01-27T11:35:47.689Z</time>
      </trkpt>
      <trkpt lat="43.82038" lon="7.79424">
        <ele>54.188994</ele>
        <time>2024-01-27T11:35:50.695Z</time>
      </trkpt>
      <trkpt lat="43.82039" lon="7.79408">
        <ele>54.319097</ele>
        <time>2024-01-27T11:35:53.706Z</time>
      </trkpt>
      <trkpt lat="43.82041" lon="7.79392">
        <ele>54.447979</ele>
        <time>2024-01-27T11:35:56.713Z</time>
      </trkpt>
      <trkpt lat="43.82044" lon="7.79377">
        <ele>54.574331</ele>
        <time>2024-01-27T11:35:59.698Z</time>
      </trkpt>
      <trkpt lat="43.82047" lon="7.79361">
        <ele>54.706095</ele>
        <time>2024-01-27T11:36:02.705Z</time>
      </trkpt>
      <trkpt lat="43.8205" lon="7.79345">
        <ele>54.839975</ele>
        <time>2024-01-27T11:36:05.684Z</time>
      </trkpt>
      <trkpt lat="43.82054" lon="7.79328">
        <ele>54.976687</ele>
        <time>2024-01-27T11:36:08.706Z</time>
      </trkpt>
      <trkpt lat="43.82057" lon="7.7931">
        <ele>55.046332</ele>
        <time>2024-01-27T11:36:11.700Z</time>
      </trkpt>
      <trkpt lat="43.82062" lon="7.79293">
        <ele>55.115673</ele>
        <time>2024-01-27T11:36:14.700Z</time>
      </trkpt>
      <trkpt lat="43.82066" lon="7.79275">
        <ele>55.186573</ele>
        <time>2024-01-27T11:36:17.694Z</time>
      </trkpt>
      <trkpt lat="43.82069" lon="7.79259">
        <ele>55.252234</ele>
        <time>2024-01-27T11:36:20.693Z</time>
      </trkpt>
      <trkpt lat="43.82072" lon="7.79242">
        <ele>55.320831</ele>
        <time>2024-01-27T11:36:23.697Z</time>
      </trkpt>
      <trkpt lat="43.82075" lon="7.79225">
        <ele>55.38842</ele>
        <time>2024-01-27T11:36:26.673Z</time>
      </trkpt>
      <trkpt lat="43.82077" lon="7.79208">
        <ele>55.453694</ele>
        <time>2024-01-27T11:36:29.696Z</time>
      </trkpt>
      <trkpt lat="43.82079" lon="7.7919">
        <ele>55.522857</ele>
        <time>2024-01-27T11:36:32.690Z</time>
      </trkpt>
      <trkpt lat="43.82081" lon="7.79173">
        <ele>55.587786</ele>
        <time>2024-01-27T11:36:35.676Z</time>
      </trkpt>
      <trkpt lat="43.82082" lon="7.79156">
        <ele>55.656413</ele>
        <time>2024-01-27T11:36:38.671Z</time>
      </trkpt>
      <trkpt lat="43.82083" lon="7.79138">
        <ele>55.723811</ele>
        <time>2024-01-27T11:36:41.699Z</time>
      </trkpt>
      <trkpt lat="43.82084" lon="7.79121">
        <ele>55.787552</ele>
        <time>2024-01-27T11:36:44.692Z</time>
      </trkpt>
      <trkpt lat="43.82084" lon="7.79104">
        <ele>55.853974</ele>
        <time>2024-01-27T11:36:47.697Z</time>
      </trkpt>
      <trkpt lat="43.82083" lon="7.79087">
        <ele>55.918867</ele>
        <time>2024-01-27T11:36:50.685Z</time>
      </trkpt>
      <trkpt lat="43.82082" lon="7.79072">
        <ele>55.520481</ele>
        <time>2024-01-27T11:36:53.713Z</time>
      </trkpt>
      <trkpt lat="43.82082" lon="7.79058">
        <ele>55.077864</ele>
        <time>2024-01-27T11:36:57.705Z</time>
      </trkpt>
      <trkpt lat="43.82077" lon="7.79047">
        <ele>54.681141</ele>
        <time>2024-01-27T11:37:06.706Z</time>
      </trkpt>
      <trkpt lat="43.82067" lon="7.79044">
        <ele>54.225643</ele>
        <time>2024-01-27T11:37:11.678Z</time>
      </trkpt>
      <trkpt lat="43.82057" lon="7.79038">
        <ele>53.778137</ele>
        <time>2024-01-27T11:37:16.672Z</time>
      </trkpt>
      <trkpt lat="43.82049" lon="7.7903">
        <ele>53.343963</ele>
        <time>2024-01-27T11:37:22.684Z</time>
      </trkpt>
      <trkpt lat="43.82041" lon="7.79029">
        <ele>52.996942</ele>
        <time>2024-01-27T11:38:52.551Z</time>
      </trkpt>
      <trkpt lat="43.82042" lon="7.79024">
        <ele>52.855235</ele>
        <time>2024-01-27T11:39:40.706Z</time>
      </trkpt>
      <trkpt lat="43.8205" lon="7.79029">
        <ele>52.470921</ele>
        <time>2024-01-27T12:25:44.685Z</time>
      </trkpt>
      <trkpt lat="43.82057" lon="7.79039">
        <ele>52.081736</ele>
        <time>2024-01-27T12:25:48.700Z</time>
      </trkpt>
      <trkpt lat="43.82067" lon="7.79046">
        <ele>51.592914</ele>
        <time>2024-01-27T12:25:52.693Z</time>
      </trkpt>
      <trkpt lat="43.82076" lon="7.79052">
        <ele>51.169663</ele>
        <time>2024-01-27T12:25:56.697Z</time>
      </trkpt>
      <trkpt lat="43.8208" lon="7.7904">
        <ele>50.758675</ele>
        <time>2024-01-27T12:26:02.691Z</time>
      </trkpt>
      <trkpt lat="43.82081" lon="7.79026">
        <ele>50.332386</ele>
        <time>2024-01-27T12:26:06.695Z</time>
      </trkpt>
      <trkpt lat="43.82079" lon="7.79014">
        <ele>49.944853</ele>
        <time>2024-01-27T12:26:09.702Z</time>
      </trkpt>
      <trkpt lat="43.82077" lon="7.79">
        <ele>49.522464</ele>
        <time>2024-01-27T12:26:12.717Z</time>
      </trkpt>
      <trkpt lat="43.82074" lon="7.78985">
        <ele>49.026939</ele>
        <time>2024-01-27T12:26:15.696Z</time>
      </trkpt>
      <trkpt lat="43.82071" lon="7.78968">
        <ele>48.51291</ele>
        <time>2024-01-27T12:26:18.705Z</time>
      </trkpt>
      <trkpt lat="43.82068" lon="7.78951">
        <ele>48.317335</ele>
        <time>2024-01-27T12:26:21.705Z</time>
      </trkpt>
      <trkpt lat="43.82066" lon="7.78934">
        <ele>48.411327</ele>
        <time>2024-01-27T12:26:24.702Z</time>
      </trkpt>
      <trkpt lat="43.82063" lon="7.78916">
        <ele>48.506526</ele>
        <time>2024-01-27T12:26:27.706Z</time>
      </trkpt>
      <trkpt lat="43.82059" lon="7.78898">
        <ele>48.607094</ele>
        <time>2024-01-27T12:26:30.700Z</time>
      </trkpt>
      <trkpt lat="43.82056" lon="7.78886">
        <ele>48.675647</ele>
        <time>2024-01-27T12:26:32.694Z</time>
      </trkpt>
      <trkpt lat="43.82053" lon="7.78874">
        <ele>48.74623</ele>
        <time>2024-01-27T12:26:34.702Z</time>
      </trkpt>
      <trkpt lat="43.82051" lon="7.78857">
        <ele>48.838065</ele>
        <time>2024-01-27T12:26:37.684Z</time>
      </trkpt>
      <trkpt lat="43.82049" lon="7.78841">
        <ele>48.927607</ele>
        <time>2024-01-27T12:26:40.698Z</time>
      </trkpt>
      <trkpt lat="43.82046" lon="7.78823">
        <ele>49.024525</ele>
        <time>2024-01-27T12:26:43.702Z</time>
      </trkpt>
      <trkpt lat="43.82044" lon="7.78806">
        <ele>49.118749</ele>
        <time>2024-01-27T12:26:46.697Z</time>
      </trkpt>
      <trkpt lat="43.8204" lon="7.78788">
        <ele>49.216744</ele>
        <time>2024-01-27T12:26:49.703Z</time>
      </trkpt>
      <trkpt lat="43.82036" lon="7.78771">
        <ele>49.315769</ele>
        <time>2024-01-27T12:26:52.716Z</time>
      </trkpt>
      <trkpt lat="43.82034" lon="7.78753">
        <ele>49.41202</ele>
        <time>2024-01-27T12:26:55.700Z</time>
      </trkpt>
      <trkpt lat="43.82031" lon="7.78736">
        <ele>49.504929</ele>
        <time>2024-01-27T12:26:58.709Z</time>
      </trkpt>
      <trkpt lat="43.82028" lon="7.7872">
        <ele>49.596095</ele>
        <time>2024-01-27T12:27:01.721Z</time>
      </trkpt>
      <trkpt lat="43.82026" lon="7.78703">
        <ele>49.610655</ele>
        <time>2024-01-27T12:27:04.704Z</time>
      </trkpt>
      <trkpt lat="43.82022" lon="7.78686">
        <ele>49.618325</ele>
        <time>2024-01-27T12:27:07.700Z</time>
      </trkpt>
      <trkpt lat="43.82019" lon="7.78667">
        <ele>49.626226</ele>
        <time>2024-01-27T12:27:10.702Z</time>
      </trkpt>
      <trkpt lat="43.82016" lon="7.7865">
        <ele>49.63392</ele>
        <time>2024-01-27T12:27:13.710Z</time>
      </trkpt>
      <trkpt lat="43.82012" lon="7.78633">
        <ele>49.64128</ele>
        <time>2024-01-27T12:27:16.709Z</time>
      </trkpt>
      <trkpt lat="43.8201" lon="7.78617">
        <ele>49.648588</ele>
        <time>2024-01-27T12:27:19.699Z</time>
      </trkpt>
      <trkpt lat="43.82008" lon="7.78604">
        <ele>49.653982</ele>
        <time>2024-01-27T12:27:21.700Z</time>
      </trkpt>
      <trkpt lat="43.82005" lon="7.78591">
        <ele>49.659613</ele>
        <time>2024-01-27T12:27:23.707Z</time>
      </trkpt>
      <trkpt lat="43.82002" lon="7.78574">
        <ele>49.667333</ele>
        <time>2024-01-27T12:27:26.699Z</time>
      </trkpt>
      <trkpt lat="43.82001" lon="7.78561">
        <ele>49.672722</ele>
        <time>2024-01-27T12:27:28.693Z</time>
      </trkpt>
      <trkpt lat="43.81998" lon="7.78543">
        <ele>49.68069</ele>
        <time>2024-01-27T12:27:31.716Z</time>
      </trkpt>
      <trkpt lat="43.81995" lon="7.78525">
        <ele>49.688451</ele>
        <time>2024-01-27T12:27:34.694Z</time>
      </trkpt>
      <trkpt lat="43.81992" lon="7.78507">
        <ele>49.696067</ele>
        <time>2024-01-27T12:27:37.689Z</time>
      </trkpt>
      <trkpt lat="43.8199" lon="7.78495">
        <ele>49.701462</ele>
        <time>2024-01-27T12:27:39.681Z</time>
      </trkpt>
      <trkpt lat="43.81987" lon="7.78477">
        <ele>49.709374</ele>
        <time>2024-01-27T12:27:42.693Z</time>
      </trkpt>
      <trkpt lat="43.81984" lon="7.78465">
        <ele>49.801816</ele>
        <time>2024-01-27T12:27:44.695Z</time>
      </trkpt>
      <trkpt lat="43.81982" lon="7.78452">
        <ele>49.908918</ele>
        <time>2024-01-27T12:27:46.701Z</time>
      </trkpt>
      <trkpt lat="43.81979" lon="7.78434">
        <ele>50.053043</ele>
        <time>2024-01-27T12:27:49.694Z</time>
      </trkpt>
      <trkpt lat="43.81977" lon="7.78418">
        <ele>50.185142</ele>
        <time>2024-01-27T12:27:52.714Z</time>
      </trkpt>
      <trkpt lat="43.81973" lon="7.784">
        <ele>50.330586</ele>
        <time>2024-01-27T12:27:55.691Z</time>
      </trkpt>
      <trkpt lat="43.8197" lon="7.78383">
        <ele>50.472794</ele>
        <time>2024-01-27T12:27:58.706Z</time>
      </trkpt>
      <trkpt lat="43.81966" lon="7.78366">
        <ele>50.611645</ele>
        <time>2024-01-27T12:28:01.703Z</time>
      </trkpt>
      <trkpt lat="43.81964" lon="7.78349">
        <ele>50.746445</ele>
        <time>2024-01-27T12:28:04.668Z</time>
      </trkpt>
      <trkpt lat="43.81961" lon="7.78333">
        <ele>50.883101</ele>
        <time>2024-01-27T12:28:07.709Z</time>
      </trkpt>
      <trkpt lat="43.81958" lon="7.78316">
        <ele>51.016953</ele>
        <time>2024-01-27T12:28:10.678Z</time>
      </trkpt>
      <trkpt lat="43.81954" lon="7.783">
        <ele>51.157386</ele>
        <time>2024-01-27T12:28:13.705Z</time>
      </trkpt>
      <trkpt lat="43.81949" lon="7.78284">
        <ele>51.291529</ele>
        <time>2024-01-27T12:28:16.699Z</time>
      </trkpt>
      <trkpt lat="43.81944" lon="7.7827">
        <ele>51.415584</ele>
        <time>2024-01-27T12:28:19.701Z</time>
      </trkpt>
      <trkpt lat="43.8194" lon="7.78257">
        <ele>51.530336</ele>
        <time>2024-01-27T12:28:22.694Z</time>
      </trkpt>
      <trkpt lat="43.81935" lon="7.78242">
        <ele>51.658177</ele>
        <time>2024-01-27T12:28:25.692Z</time>
      </trkpt>
      <trkpt lat="43.8193" lon="7.7823">
        <ele>51.704332</ele>
        <time>2024-01-27T12:28:28.694Z</time>
      </trkpt>
      <trkpt lat="43.81926" lon="7.78218">
        <ele>51.723591</ele>
        <time>2024-01-27T12:28:31.714Z</time>
      </trkpt>
      <trkpt lat="43.81921" lon="7.78206">
        <ele>51.742864</ele>
        <time>2024-01-27T12:28:34.700Z</time>
      </trkpt>
      <trkpt lat="43.81916" lon="7.78195">
        <ele>51.761764</ele>
        <time>2024-01-27T12:28:37.699Z</time>
      </trkpt>
      <trkpt lat="43.81911" lon="7.78184">
        <ele>51.780972</ele>
        <time>2024-01-27T12:28:40.721Z</time>
      </trkpt>
      <trkpt lat="43.81905" lon="7.78173">
        <ele>51.800514</ele>
        <time>2024-01-27T12:28:43.696Z</time>
      </trkpt>
      <trkpt lat="43.81898" lon="7.78161">
        <ele>51.822524</ele>
        <time>2024-01-27T12:28:46.697Z</time>
      </trkpt>
      <trkpt lat="43.8189" lon="7.78147">
        <ele>51.848408</ele>
        <time>2024-01-27T12:28:49.708Z</time>
      </trkpt>
      <trkpt lat="43.81883" lon="7.78132">
        <ele>51.874624</ele>
        <time>2024-01-27T12:28:52.709Z</time>
      </trkpt>
      <trkpt lat="43.81876" lon="7.78123">
        <ele>51.89317</ele>
        <time>2024-01-27T12:28:54.699Z</time>
      </trkpt>
      <trkpt lat="43.81867" lon="7.78109">
        <ele>51.919452</ele>
        <time>2024-01-27T12:28:57.701Z</time>
      </trkpt>
      <trkpt lat="43.81859" lon="7.78096">
        <ele>51.945144</ele>
        <time>2024-01-27T12:29:00.709Z</time>
      </trkpt>
      <trkpt lat="43.81849" lon="7.78084">
        <ele>51.971291</ele>
        <time>2024-01-27T12:29:03.702Z</time>
      </trkpt>
      <trkpt lat="43.81842" lon="7.78075">
        <ele>51.98931</ele>
        <time>2024-01-27T12:29:05.691Z</time>
      </trkpt>
      <trkpt lat="43.81835" lon="7.78068">
        <ele>52.0083</ele>
        <time>2024-01-27T12:29:07.704Z</time>
      </trkpt>
      <trkpt lat="43.81828" lon="7.78059">
        <ele>52.027309</ele>
        <time>2024-01-27T12:29:09.714Z</time>
      </trkpt>
      <trkpt lat="43.81821" lon="7.7805">
        <ele>52.045916</ele>
        <time>2024-01-27T12:29:11.698Z</time>
      </trkpt>
      <trkpt lat="43.81813" lon="7.78042">
        <ele>52.013043</ele>
        <time>2024-01-27T12:29:13.698Z</time>
      </trkpt>
      <trkpt lat="43.81805" lon="7.78035">
        <ele>51.97076</ele>
        <time>2024-01-27T12:29:15.690Z</time>
      </trkpt>
      <trkpt lat="43.81797" lon="7.78028">
        <ele>51.928565</ele>
        <time>2024-01-27T12:29:17.694Z</time>
      </trkpt>
      <trkpt lat="43.81788" lon="7.78021">
        <ele>51.881917</ele>
        <time>2024-01-27T12:29:19.714Z</time>
      </trkpt>
      <trkpt lat="43.8178" lon="7.78013">
        <ele>51.837566</ele>
        <time>2024-01-27T12:29:21.717Z</time>
      </trkpt>
      <trkpt lat="43.81772" lon="7.78006">
        <ele>51.794346</ele>
        <time>2024-01-27T12:29:23.700Z</time>
      </trkpt>
      <trkpt lat="43.81764" lon="7.78">
        <ele>51.752797</ele>
        <time>2024-01-27T12:29:25.683Z</time>
      </trkpt>
      <trkpt lat="43.81755" lon="7.77994">
        <ele>51.710619</ele>
        <time>2024-01-27T12:29:27.711Z</time>
      </trkpt>
      <trkpt lat="43.81746" lon="7.77988">
        <ele>51.665132</ele>
        <time>2024-01-27T12:29:29.705Z</time>
      </trkpt>
      <trkpt lat="43.81737" lon="7.77981">
        <ele>51.619734</ele>
        <time>2024-01-27T12:29:31.703Z</time>
      </trkpt>
      <trkpt lat="43.81728" lon="7.77975">
        <ele>51.573709</ele>
        <time>2024-01-27T12:29:33.700Z</time>
      </trkpt>
      <trkpt lat="43.81717" lon="7.77968">
        <ele>51.522106</ele>
        <time>2024-01-27T12:29:35.692Z</time>
      </trkpt>
      <trkpt lat="43.81708" lon="7.77961">
        <ele>51.474823</ele>
        <time>2024-01-27T12:29:37.712Z</time>
      </trkpt>
      <trkpt lat="43.817" lon="7.77956">
        <ele>51.432583</ele>
        <time>2024-01-27T12:29:39.704Z</time>
      </trkpt>
      <trkpt lat="43.81688" lon="7.77948">
        <ele>51.375822</ele>
        <time>2024-01-27T12:29:42.726Z</time>
      </trkpt>
      <trkpt lat="43.81678" lon="7.77938">
        <ele>51.317729</ele>
        <time>2024-01-27T12:29:45.705Z</time>
      </trkpt>
      <trkpt lat="43.81669" lon="7.7793">
        <ele>51.272499</ele>
        <time>2024-01-27T12:29:47.722Z</time>
      </trkpt>
      <trkpt lat="43.81661" lon="7.77922">
        <ele>51.244118</ele>
        <time>2024-01-27T12:29:49.699Z</time>
      </trkpt>
      <trkpt lat="43.81652" lon="7.77915">
        <ele>51.243233</ele>
        <time>2024-01-27T12:29:51.716Z</time>
      </trkpt>
      <trkpt lat="43.81644" lon="7.77907">
        <ele>51.242423</ele>
        <time>2024-01-27T12:29:53.723Z</time>
      </trkpt>
      <trkpt lat="43.81636" lon="7.77898">
        <ele>51.241568</ele>
        <time>2024-01-27T12:29:55.696Z</time>
      </trkpt>
      <trkpt lat="43.81628" lon="7.77889">
        <ele>51.240691</ele>
        <time>2024-01-27T12:29:57.708Z</time>
      </trkpt>
      <trkpt lat="43.81621" lon="7.7788">
        <ele>51.239841</ele>
        <time>2024-01-27T12:29:59.710Z</time>
      </trkpt>
      <trkpt lat="43.81614" lon="7.77871">
        <ele>51.23906</ele>
        <time>2024-01-27T12:30:01.706Z</time>
      </trkpt>
      <trkpt lat="43.81606" lon="7.77863">
        <ele>51.238243</ele>
        <time>2024-01-27T12:30:03.708Z</time>
      </trkpt>
      <trkpt lat="43.81599" lon="7.77855">
        <ele>51.237462</ele>
        <time>2024-01-27T12:30:05.679Z</time>
      </trkpt>
      <trkpt lat="43.81591" lon="7.77848">
        <ele>51.236671</ele>
        <time>2024-01-27T12:30:07.699Z</time>
      </trkpt>
      <trkpt lat="43.81584" lon="7.77839">
        <ele>51.235899</ele>
        <time>2024-01-27T12:30:09.708Z</time>
      </trkpt>
      <trkpt lat="43.81577" lon="7.77831">
        <ele>51.235087</ele>
        <time>2024-01-27T12:30:11.669Z</time>
      </trkpt>
      <trkpt lat="43.8157" lon="7.77823">
        <ele>51.234319</ele>
        <time>2024-01-27T12:30:13.703Z</time>
      </trkpt>
      <trkpt lat="43.8156" lon="7.7781">
        <ele>51.233206</ele>
        <time>2024-01-27T12:30:16.694Z</time>
      </trkpt>
      <trkpt lat="43.81551" lon="7.77797">
        <ele>51.23208</ele>
        <time>2024-01-27T12:30:19.702Z</time>
      </trkpt>
      <trkpt lat="43.81544" lon="7.77788">
        <ele>51.231271</ele>
        <time>2024-01-27T12:30:21.695Z</time>
      </trkpt>
      <trkpt lat="43.81535" lon="7.77776">
        <ele>51.230223</ele>
        <time>2024-01-27T12:30:24.695Z</time>
      </trkpt>
      <trkpt lat="43.81527" lon="7.77762">
        <ele>51.233006</ele>
        <time>2024-01-27T12:30:27.695Z</time>
      </trkpt>
      <trkpt lat="43.81519" lon="7.77749">
        <ele>51.268938</ele>
        <time>2024-01-27T12:30:30.688Z</time>
      </trkpt>
      <trkpt lat="43.81512" lon="7.77736">
        <ele>51.301118</ele>
        <time>2024-01-27T12:30:33.698Z</time>
      </trkpt>
      <trkpt lat="43.81506" lon="7.77725">
        <ele>51.330122</ele>
        <time>2024-01-27T12:30:36.702Z</time>
      </trkpt>
      <trkpt lat="43.815" lon="7.77711">
        <ele>51.363141</ele>
        <time>2024-01-27T12:30:40.704Z</time>
      </trkpt>
      <trkpt lat="43.81493" lon="7.777">
        <ele>51.392347</ele>
        <time>2024-01-27T12:30:43.699Z</time>
      </trkpt>
      <trkpt lat="43.81488" lon="7.77689">
        <ele>51.420856</ele>
        <time>2024-01-27T12:30:46.714Z</time>
      </trkpt>
      <trkpt lat="43.81482" lon="7.77675">
        <ele>51.453354</ele>
        <time>2024-01-27T12:30:49.685Z</time>
      </trkpt>
      <trkpt lat="43.81477" lon="7.77662">
        <ele>51.483654</ele>
        <time>2024-01-27T12:30:52.691Z</time>
      </trkpt>
      <trkpt lat="43.81472" lon="7.7765">
        <ele>51.512673</ele>
        <time>2024-01-27T12:30:55.715Z</time>
      </trkpt>
      <trkpt lat="43.81466" lon="7.77637">
        <ele>51.543795</ele>
        <time>2024-01-27T12:30:58.677Z</time>
      </trkpt>
      <trkpt lat="43.81463" lon="7.77622">
        <ele>51.575526</ele>
        <time>2024-01-27T12:31:01.670Z</time>
      </trkpt>
      <trkpt lat="43.8146" lon="7.77607">
        <ele>51.607175</ele>
        <time>2024-01-27T12:31:04.693Z</time>
      </trkpt>
      <trkpt lat="43.81456" lon="7.77592">
        <ele>51.640143</ele>
        <time>2024-01-27T12:31:07.714Z</time>
      </trkpt>
      <trkpt lat="43.81453" lon="7.77576">
        <ele>51.673756</ele>
        <time>2024-01-27T12:31:10.702Z</time>
      </trkpt>
      <trkpt lat="43.8145" lon="7.77562">
        <ele>51.705039</ele>
        <time>2024-01-27T12:31:13.704Z</time>
      </trkpt>
      <trkpt lat="43.81448" lon="7.77547">
        <ele>51.73665</ele>
        <time>2024-01-27T12:31:16.711Z</time>
      </trkpt>
      <trkpt lat="43.81445" lon="7.77532">
        <ele>51.801934</ele>
        <time>2024-01-27T12:31:19.711Z</time>
      </trkpt>
      <trkpt lat="43.8144" lon="7.77518">
        <ele>51.875304</ele>
        <time>2024-01-27T12:31:22.703Z</time>
      </trkpt>
      <trkpt lat="43.81437" lon="7.77501">
        <ele>51.953402</ele>
        <time>2024-01-27T12:31:25.695Z</time>
      </trkpt>
      <trkpt lat="43.81433" lon="7.77484">
        <ele>52.038438</ele>
        <time>2024-01-27T12:31:28.715Z</time>
      </trkpt>
      <trkpt lat="43.81431" lon="7.77465">
        <ele>52.125113</ele>
        <time>2024-01-27T12:31:31.702Z</time>
      </trkpt>
      <trkpt lat="43.81428" lon="7.77447">
        <ele>52.21017</ele>
        <time>2024-01-27T12:31:34.710Z</time>
      </trkpt>
      <trkpt lat="43.81427" lon="7.77429">
        <ele>52.296295</ele>
        <time>2024-01-27T12:31:37.682Z</time>
      </trkpt>
      <trkpt lat="43.81425" lon="7.77411">
        <ele>52.379117</ele>
        <time>2024-01-27T12:31:40.694Z</time>
      </trkpt>
      <trkpt lat="43.81423" lon="7.77393">
        <ele>52.463961</ele>
        <time>2024-01-27T12:31:43.700Z</time>
      </trkpt>
      <trkpt lat="43.81422" lon="7.77376">
        <ele>52.541937</ele>
        <time>2024-01-27T12:31:46.690Z</time>
      </trkpt>
      <trkpt lat="43.8142" lon="7.77359">
        <ele>52.623222</ele>
        <time>2024-01-27T12:31:49.695Z</time>
      </trkpt>
      <trkpt lat="43.81418" lon="7.77342">
        <ele>52.703946</ele>
        <time>2024-01-27T12:31:52.709Z</time>
      </trkpt>
      <trkpt lat="43.81416" lon="7.77324">
        <ele>52.784934</ele>
        <time>2024-01-27T12:31:55.695Z</time>
      </trkpt>
      <trkpt lat="43.81415" lon="7.77307">
        <ele>52.865924</ele>
        <time>2024-01-27T12:31:58.696Z</time>
      </trkpt>
      <trkpt lat="43.81412" lon="7.77289">
        <ele>52.693306</ele>
        <time>2024-01-27T12:32:01.709Z</time>
      </trkpt>
      <trkpt lat="43.81411" lon="7.77273">
        <ele>52.394995</ele>
        <time>2024-01-27T12:32:04.714Z</time>
      </trkpt>
      <trkpt lat="43.81408" lon="7.77257">
        <ele>52.114137</ele>
        <time>2024-01-27T12:32:07.702Z</time>
      </trkpt>
      <trkpt lat="43.81407" lon="7.77244">
        <ele>51.868055</ele>
        <time>2024-01-27T12:32:10.692Z</time>
      </trkpt>
      <trkpt lat="43.81407" lon="7.77231">
        <ele>51.632669</ele>
        <time>2024-01-27T12:32:14.690Z</time>
      </trkpt>
      <trkpt lat="43.81405" lon="7.77217">
        <ele>51.382158</ele>
        <time>2024-01-27T12:32:18.695Z</time>
      </trkpt>
      <trkpt lat="43.81402" lon="7.77201">
        <ele>51.084534</ele>
        <time>2024-01-27T12:32:22.692Z</time>
      </trkpt>
      <trkpt lat="43.81403" lon="7.77186">
        <ele>50.818285</ele>
        <time>2024-01-27T12:32:26.708Z</time>
      </trkpt>
      <trkpt lat="43.81403" lon="7.77173">
        <ele>50.593556</ele>
        <time>2024-01-27T12:32:30.702Z</time>
      </trkpt>
      <trkpt lat="43.81402" lon="7.77158">
        <ele>50.31962</ele>
        <time>2024-01-27T12:32:35.754Z</time>
      </trkpt>
      <trkpt lat="43.81401" lon="7.77142">
        <ele>50.039135</ele>
        <time>2024-01-27T12:32:39.705Z</time>
      </trkpt>
      <trkpt lat="43.814" lon="7.77128">
        <ele>49.78676</ele>
        <time>2024-01-27T12:32:44.682Z</time>
      </trkpt>
      <trkpt lat="43.81397" lon="7.77114">
        <ele>49.521462</ele>
        <time>2024-01-27T12:32:49.696Z</time>
      </trkpt>
      <trkpt lat="43.81394" lon="7.77101">
        <ele>49.277325</ele>
        <time>2024-01-27T12:32:52.689Z</time>
      </trkpt>
      <trkpt lat="43.81392" lon="7.77087">
        <ele>49.035565</ele>
        <time>2024-01-27T12:32:55.669Z</time>
      </trkpt>
      <trkpt lat="43.8139" lon="7.77075">
        <ele>48.80147</ele>
        <time>2024-01-27T12:32:58.695Z</time>
      </trkpt>
      <trkpt lat="43.81387" lon="7.77059">
        <ele>48.521047</ele>
        <time>2024-01-27T12:33:01.699Z</time>
      </trkpt>
      <trkpt lat="43.81384" lon="7.77043">
        <ele>48.644818</ele>
        <time>2024-01-27T12:33:04.699Z</time>
      </trkpt>
      <trkpt lat="43.8138" lon="7.77028">
        <ele>48.894354</ele>
        <time>2024-01-27T12:33:07.696Z</time>
      </trkpt>
      <trkpt lat="43.81377" lon="7.77012">
        <ele>49.137489</ele>
        <time>2024-01-27T12:33:10.691Z</time>
      </trkpt>
      <trkpt lat="43.81373" lon="7.76997">
        <ele>49.378182</ele>
        <time>2024-01-27T12:33:13.710Z</time>
      </trkpt>
      <trkpt lat="43.81368" lon="7.76985">
        <ele>49.602586</ele>
        <time>2024-01-27T12:33:16.709Z</time>
      </trkpt>
      <trkpt lat="43.81361" lon="7.7697">
        <ele>49.86186</ele>
        <time>2024-01-27T12:33:19.712Z</time>
      </trkpt>
      <trkpt lat="43.81356" lon="7.76955">
        <ele>50.111454</ele>
        <time>2024-01-27T12:33:22.707Z</time>
      </trkpt>
      <trkpt lat="43.81349" lon="7.76941">
        <ele>50.361354</ele>
        <time>2024-01-27T12:33:25.688Z</time>
      </trkpt>
      <trkpt lat="43.81343" lon="7.76927">
        <ele>50.614453</ele>
        <time>2024-01-27T12:33:28.697Z</time>
      </trkpt>
      <trkpt lat="43.81337" lon="7.76913">
        <ele>50.863268</ele>
        <time>2024-01-27T12:33:31.701Z</time>
      </trkpt>
      <trkpt lat="43.8133" lon="7.76899">
        <ele>51.110157</ele>
        <time>2024-01-27T12:33:34.695Z</time>
      </trkpt>
      <trkpt lat="43.81324" lon="7.76885">
        <ele>51.361822</ele>
        <time>2024-01-27T12:33:37.682Z</time>
      </trkpt>
      <trkpt lat="43.81318" lon="7.76871">
        <ele>51.618892</ele>
        <time>2024-01-27T12:33:40.700Z</time>
      </trkpt>
      <trkpt lat="43.8131" lon="7.76856">
        <ele>51.884005</ele>
        <time>2024-01-27T12:33:43.683Z</time>
      </trkpt>
      <trkpt lat="43.81304" lon="7.76842">
        <ele>52.138169</ele>
        <time>2024-01-27T12:33:46.695Z</time>
      </trkpt>
      <trkpt lat="43.81297" lon="7.76829">
        <ele>52.240497</ele>
        <time>2024-01-27T12:33:49.696Z</time>
      </trkpt>
      <trkpt lat="43.81291" lon="7.76816">
        <ele>52.26413</ele>
        <time>2024-01-27T12:33:52.692Z</time>
      </trkpt>
      <trkpt lat="43.81284" lon="7.76802">
        <ele>52.28821</ele>
        <time>2024-01-27T12:33:55.681Z</time>
      </trkpt>
      <trkpt lat="43.81277" lon="7.76789">
        <ele>52.312329</ele>
        <time>2024-01-27T12:33:58.721Z</time>
      </trkpt>
      <trkpt lat="43.81271" lon="7.76776">
        <ele>52.336168</ele>
        <time>2024-01-27T12:34:01.701Z</time>
      </trkpt>
      <trkpt lat="43.81265" lon="7.76763">
        <ele>52.358688</ele>
        <time>2024-01-27T12:34:04.692Z</time>
      </trkpt>
      <trkpt lat="43.81258" lon="7.76749">
        <ele>52.382919</ele>
        <time>2024-01-27T12:34:07.696Z</time>
      </trkpt>
      <trkpt lat="43.81252" lon="7.76737">
        <ele>52.4058</ele>
        <time>2024-01-27T12:34:10.720Z</time>
      </trkpt>
      <trkpt lat="43.81246" lon="7.76723">
        <ele>52.429615</ele>
        <time>2024-01-27T12:34:13.698Z</time>
      </trkpt>
      <trkpt lat="43.81239" lon="7.76709">
        <ele>52.453937</ele>
        <time>2024-01-27T12:34:16.693Z</time>
      </trkpt>
      <trkpt lat="43.81233" lon="7.76696">
        <ele>52.477786</ele>
        <time>2024-01-27T12:34:19.703Z</time>
      </trkpt>
      <trkpt lat="43.81225" lon="7.76682">
        <ele>52.502949</ele>
        <time>2024-01-27T12:34:22.692Z</time>
      </trkpt>
      <trkpt lat="43.81218" lon="7.76669">
        <ele>52.52851</ele>
        <time>2024-01-27T12:34:25.686Z</time>
      </trkpt>
      <trkpt lat="43.8121" lon="7.76656">
        <ele>52.553744</ele>
        <time>2024-01-27T12:34:28.692Z</time>
      </trkpt>
      <trkpt lat="43.81202" lon="7.76644">
        <ele>52.577539</ele>
        <time>2024-01-27T12:34:31.697Z</time>
      </trkpt>
      <trkpt lat="43.81194" lon="7.76632">
        <ele>52.599975</ele>
        <time>2024-01-27T12:34:34.691Z</time>
      </trkpt>
      <trkpt lat="43.81186" lon="7.76619">
        <ele>52.618999</ele>
        <time>2024-01-27T12:34:37.707Z</time>
      </trkpt>
      <trkpt lat="43.81177" lon="7.76607">
        <ele>52.637184</ele>
        <time>2024-01-27T12:34:40.706Z</time>
      </trkpt>
      <trkpt lat="43.81168" lon="7.76596">
        <ele>52.655201</ele>
        <time>2024-01-27T12:34:43.704Z</time>
      </trkpt>
      <trkpt lat="43.81159" lon="7.76585">
        <ele>52.673538</ele>
        <time>2024-01-27T12:34:46.706Z</time>
      </trkpt>
      <trkpt lat="43.81149" lon="7.76574">
        <ele>52.692481</ele>
        <time>2024-01-27T12:34:49.703Z</time>
      </trkpt>
      <trkpt lat="43.8114" lon="7.76563">
        <ele>52.711397</ele>
        <time>2024-01-27T12:34:52.692Z</time>
      </trkpt>
      <trkpt lat="43.8113" lon="7.76551">
        <ele>52.730684</ele>
        <time>2024-01-27T12:34:55.673Z</time>
      </trkpt>
      <trkpt lat="43.8112" lon="7.7654">
        <ele>52.749558</ele>
        <time>2024-01-27T12:34:58.692Z</time>
      </trkpt>
      <trkpt lat="43.81111" lon="7.76529">
        <ele>52.767875</ele>
        <time>2024-01-27T12:35:01.702Z</time>
      </trkpt>
      <trkpt lat="43.81101" lon="7.76518">
        <ele>52.787146</ele>
        <time>2024-01-27T12:35:04.717Z</time>
      </trkpt>
      <trkpt lat="43.81093" lon="7.76506">
        <ele>52.805788</ele>
        <time>2024-01-27T12:35:07.704Z</time>
      </trkpt>
      <trkpt lat="43.81084" lon="7.76493">
        <ele>52.824862</ele>
        <time>2024-01-27T12:35:10.693Z</time>
      </trkpt>
      <trkpt lat="43.81075" lon="7.76481">
        <ele>52.843948</ele>
        <time>2024-01-27T12:35:13.693Z</time>
      </trkpt>
      <trkpt lat="43.81067" lon="7.76468">
        <ele>52.862122</ele>
        <time>2024-01-27T12:35:16.703Z</time>
      </trkpt>
      <trkpt lat="43.81058" lon="7.76456">
        <ele>52.860934</ele>
        <time>2024-01-27T12:35:19.704Z</time>
      </trkpt>
      <trkpt lat="43.8105" lon="7.76443">
        <ele>52.855007</ele>
        <time>2024-01-27T12:35:22.691Z</time>
      </trkpt>
      <trkpt lat="43.81043" lon="7.76429">
        <ele>52.849251</ele>
        <time>2024-01-27T12:35:25.686Z</time>
      </trkpt>
      <trkpt lat="43.81036" lon="7.76415">
        <ele>52.843213</ele>
        <time>2024-01-27T12:35:28.708Z</time>
      </trkpt>
      <trkpt lat="43.81028" lon="7.764">
        <ele>52.836933</ele>
        <time>2024-01-27T12:35:31.692Z</time>
      </trkpt>
      <trkpt lat="43.81023" lon="7.7639">
        <ele>52.832671</ele>
        <time>2024-01-27T12:35:33.707Z</time>
      </trkpt>
      <trkpt lat="43.81018" lon="7.76379">
        <ele>52.828357</ele>
        <time>2024-01-27T12:35:35.693Z</time>
      </trkpt>
      <trkpt lat="43.81013" lon="7.76369">
        <ele>52.824068</ele>
        <time>2024-01-27T12:35:37.707Z</time>
      </trkpt>
      <trkpt lat="43.81006" lon="7.76353">
        <ele>52.817841</ele>
        <time>2024-01-27T12:35:40.702Z</time>
      </trkpt>
      <trkpt lat="43.80998" lon="7.76339">
        <ele>52.811892</ele>
        <time>2024-01-27T12:35:43.695Z</time>
      </trkpt>
      <trkpt lat="43.80991" lon="7.76325">
        <ele>52.805968</ele>
        <time>2024-01-27T12:35:46.698Z</time>
      </trkpt>
      <trkpt lat="43.80984" lon="7.7631">
        <ele>52.799992</ele>
        <time>2024-01-27T12:35:49.699Z</time>
      </trkpt>
      <trkpt lat="43.80979" lon="7.763">
        <ele>52.795592</ele>
        <time>2024-01-27T12:35:51.695Z</time>
      </trkpt>
      <trkpt lat="43.80974" lon="7.76289">
        <ele>52.791303</ele>
        <time>2024-01-27T12:35:53.716Z</time>
      </trkpt>
      <trkpt lat="43.80969" lon="7.76278">
        <ele>52.786842</ele>
        <time>2024-01-27T12:35:55.696Z</time>
      </trkpt>
      <trkpt lat="43.80963" lon="7.76268">
        <ele>52.782416</ele>
        <time>2024-01-27T12:35:57.701Z</time>
      </trkpt>
      <trkpt lat="43.80958" lon="7.76257">
        <ele>52.77531</ele>
        <time>2024-01-27T12:35:59.700Z</time>
      </trkpt>
      <trkpt lat="43.80952" lon="7.76246">
        <ele>52.766214</ele>
        <time>2024-01-27T12:36:01.684Z</time>
      </trkpt>
      <trkpt lat="43.80948" lon="7.76236">
        <ele>52.757377</ele>
        <time>2024-01-27T12:36:03.708Z</time>
      </trkpt>
      <trkpt lat="43.80943" lon="7.76224">
        <ele>52.748193</ele>
        <time>2024-01-27T12:36:05.696Z</time>
      </trkpt>
      <trkpt lat="43.80937" lon="7.76214">
        <ele>52.73915</ele>
        <time>2024-01-27T12:36:07.701Z</time>
      </trkpt>
      <trkpt lat="43.8093" lon="7.76198">
        <ele>52.726393</ele>
        <time>2024-01-27T12:36:10.708Z</time>
      </trkpt>
      <trkpt lat="43.80924" lon="7.76183">
        <ele>52.714143</ele>
        <time>2024-01-27T12:36:13.699Z</time>
      </trkpt>
      <trkpt lat="43.80917" lon="7.76168">
        <ele>52.701844</ele>
        <time>2024-01-27T12:36:16.706Z</time>
      </trkpt>
      <trkpt lat="43.80911" lon="7.76152">
        <ele>52.689307</ele>
        <time>2024-01-27T12:36:19.712Z</time>
      </trkpt>
      <trkpt lat="43.80907" lon="7.76141">
        <ele>52.68062</ele>
        <time>2024-01-27T12:36:21.699Z</time>
      </trkpt>
      <trkpt lat="43.80903" lon="7.7613">
        <ele>52.671702</ele>
        <time>2024-01-27T12:36:23.705Z</time>
      </trkpt>
      <trkpt lat="43.80899" lon="7.76118">
        <ele>52.662891</ele>
        <time>2024-01-27T12:36:25.690Z</time>
      </trkpt>
      <trkpt lat="43.80893" lon="7.76102">
        <ele>52.649868</ele>
        <time>2024-01-27T12:36:28.695Z</time>
      </trkpt>
      <trkpt lat="43.80889" lon="7.7609">
        <ele>52.641032</ele>
        <time>2024-01-27T12:36:30.712Z</time>
      </trkpt>
      <trkpt lat="43.80886" lon="7.76078">
        <ele>52.632015</ele>
        <time>2024-01-27T12:36:32.699Z</time>
      </trkpt>
      <trkpt lat="43.80882" lon="7.76065">
        <ele>52.622399</ele>
        <time>2024-01-27T12:36:34.701Z</time>
      </trkpt>
      <trkpt lat="43.80878" lon="7.76053">
        <ele>52.612828</ele>
        <time>2024-01-27T12:36:36.680Z</time>
      </trkpt>
      <trkpt lat="43.80874" lon="7.7604">
        <ele>52.592326</ele>
        <time>2024-01-27T12:36:38.713Z</time>
      </trkpt>
      <trkpt lat="43.80871" lon="7.76029">
        <ele>52.551643</ele>
        <time>2024-01-27T12:36:40.715Z</time>
      </trkpt>
      <trkpt lat="43.80867" lon="7.76012">
        <ele>52.494805</ele>
        <time>2024-01-27T12:36:43.696Z</time>
      </trkpt>
      <trkpt lat="43.80864" lon="7.76">
        <ele>52.454291</ele>
        <time>2024-01-27T12:36:45.698Z</time>
      </trkpt>
      <trkpt lat="43.80861" lon="7.75987">
        <ele>52.412877</ele>
        <time>2024-01-27T12:36:47.698Z</time>
      </trkpt>
      <trkpt lat="43.80858" lon="7.75975">
        <ele>52.371831</ele>
        <time>2024-01-27T12:36:49.700Z</time>
      </trkpt>
      <trkpt lat="43.80856" lon="7.75963">
        <ele>52.331963</ele>
        <time>2024-01-27T12:36:51.704Z</time>
      </trkpt>
      <trkpt lat="43.80853" lon="7.75945">
        <ele>52.273338</ele>
        <time>2024-01-27T12:36:54.695Z</time>
      </trkpt>
      <trkpt lat="43.8085" lon="7.75927">
        <ele>52.214403</ele>
        <time>2024-01-27T12:36:57.707Z</time>
      </trkpt>
      <trkpt lat="43.80848" lon="7.75909">
        <ele>52.157861</ele>
        <time>2024-01-27T12:37:00.694Z</time>
      </trkpt>
      <trkpt lat="43.80846" lon="7.75892">
        <ele>52.10155</ele>
        <time>2024-01-27T12:37:03.685Z</time>
      </trkpt>
      <trkpt lat="43.80843" lon="7.75875">
        <ele>52.046883</ele>
        <time>2024-01-27T12:37:06.697Z</time>
      </trkpt>
      <trkpt lat="43.80841" lon="7.75857">
        <ele>51.989687</ele>
        <time>2024-01-27T12:37:09.707Z</time>
      </trkpt>
      <trkpt lat="43.8084" lon="7.75839">
        <ele>51.933243</ele>
        <time>2024-01-27T12:37:12.719Z</time>
      </trkpt>
      <trkpt lat="43.80838" lon="7.75822">
        <ele>51.877591</ele>
        <time>2024-01-27T12:37:15.698Z</time>
      </trkpt>
      <trkpt lat="43.80838" lon="7.75804">
        <ele>51.818996</ele>
        <time>2024-01-27T12:37:18.690Z</time>
      </trkpt>
      <trkpt lat="43.80836" lon="7.75786">
        <ele>51.690423</ele>
        <time>2024-01-27T12:37:21.698Z</time>
      </trkpt>
      <trkpt lat="43.80835" lon="7.75768">
        <ele>51.552686</ele>
        <time>2024-01-27T12:37:24.712Z</time>
      </trkpt>
      <trkpt lat="43.80834" lon="7.75751">
        <ele>51.418862</ele>
        <time>2024-01-27T12:37:27.711Z</time>
      </trkpt>
      <trkpt lat="43.80833" lon="7.75733">
        <ele>51.284775</ele>
        <time>2024-01-27T12:37:30.673Z</time>
      </trkpt>
      <trkpt lat="43.80833" lon="7.75715">
        <ele>51.146899</ele>
        <time>2024-01-27T12:37:33.696Z</time>
      </trkpt>
      <trkpt lat="43.80833" lon="7.75703">
        <ele>51.051197</ele>
        <time>2024-01-27T12:37:35.683Z</time>
      </trkpt>
      <trkpt lat="43.80833" lon="7.75685">
        <ele>50.912605</ele>
        <time>2024-01-27T12:37:38.675Z</time>
      </trkpt>
      <trkpt lat="43.80833" lon="7.75666">
        <ele>50.771716</ele>
        <time>2024-01-27T12:37:41.701Z</time>
      </trkpt>
      <trkpt lat="43.80832" lon="7.75648">
        <ele>50.635333</ele>
        <time>2024-01-27T12:37:44.693Z</time>
      </trkpt>
      <trkpt lat="43.80832" lon="7.7563">
        <ele>50.497376</ele>
        <time>2024-01-27T12:37:47.688Z</time>
      </trkpt>
      <trkpt lat="43.80832" lon="7.75614">
        <ele>50.371774</ele>
        <time>2024-01-27T12:37:50.697Z</time>
      </trkpt>
      <trkpt lat="43.80832" lon="7.75597">
        <ele>50.243899</ele>
        <time>2024-01-27T12:37:53.692Z</time>
      </trkpt>
      <trkpt lat="43.80831" lon="7.75581">
        <ele>50.118052</ele>
        <time>2024-01-27T12:37:56.703Z</time>
      </trkpt>
      <trkpt lat="43.8083" lon="7.75565">
        <ele>49.995182</ele>
        <time>2024-01-27T12:37:59.696Z</time>
      </trkpt>
      <trkpt lat="43.80829" lon="7.75549">
        <ele>49.942729</ele>
        <time>2024-01-27T12:38:02.708Z</time>
      </trkpt>
      <trkpt lat="43.80828" lon="7.75532">
        <ele>50.06725</ele>
        <time>2024-01-27T12:38:05.710Z</time>
      </trkpt>
      <trkpt lat="43.80828" lon="7.75516">
        <ele>50.187094</ele>
        <time>2024-01-27T12:38:08.691Z</time>
      </trkpt>
      <trkpt lat="43.80826" lon="7.755">
        <ele>50.30874</ele>
        <time>2024-01-27T12:38:11.700Z</time>
      </trkpt>
      <trkpt lat="43.80824" lon="7.75484">
        <ele>50.430912</ele>
        <time>2024-01-27T12:38:14.704Z</time>
      </trkpt>
      <trkpt lat="43.80822" lon="7.75468">
        <ele>50.550351</ele>
        <time>2024-01-27T12:38:17.693Z</time>
      </trkpt>
      <trkpt lat="43.8082" lon="7.75453">
        <ele>50.667986</ele>
        <time>2024-01-27T12:38:20.704Z</time>
      </trkpt>
      <trkpt lat="43.80817" lon="7.75437">
        <ele>50.790019</ele>
        <time>2024-01-27T12:38:23.708Z</time>
      </trkpt>
      <trkpt lat="43.80813" lon="7.75422">
        <ele>50.905175</ele>
        <time>2024-01-27T12:38:26.701Z</time>
      </trkpt>
      <trkpt lat="43.8081" lon="7.75407">
        <ele>51.023097</ele>
        <time>2024-01-27T12:38:29.700Z</time>
      </trkpt>
      <trkpt lat="43.80806" lon="7.75392">
        <ele>51.143799</ele>
        <time>2024-01-27T12:38:32.711Z</time>
      </trkpt>
      <trkpt lat="43.80801" lon="7.75377">
        <ele>51.268872</ele>
        <time>2024-01-27T12:38:35.693Z</time>
      </trkpt>
      <trkpt lat="43.80798" lon="7.75361">
        <ele>51.390993</ele>
        <time>2024-01-27T12:38:38.696Z</time>
      </trkpt>
      <trkpt lat="43.80794" lon="7.75347">
        <ele>51.507111</ele>
        <time>2024-01-27T12:38:41.695Z</time>
      </trkpt>
      <trkpt lat="43.80789" lon="7.75332">
        <ele>51.624491</ele>
        <time>2024-01-27T12:38:44.691Z</time>
      </trkpt>
      <trkpt lat="43.80784" lon="7.75318">
        <ele>51.742468</ele>
        <time>2024-01-27T12:38:47.704Z</time>
      </trkpt>
      <trkpt lat="43.80779" lon="7.75305">
        <ele>51.8446</ele>
        <time>2024-01-27T12:38:50.699Z</time>
      </trkpt>
      <trkpt lat="43.80774" lon="7.75291">
        <ele>51.942676</ele>
        <time>2024-01-27T12:38:53.695Z</time>
      </trkpt>
      <trkpt lat="43.80769" lon="7.75277">
        <ele>52.0405</ele>
        <time>2024-01-27T12:38:56.693Z</time>
      </trkpt>
      <trkpt lat="43.80763" lon="7.75265">
        <ele>52.136184</ele>
        <time>2024-01-27T12:38:59.709Z</time>
      </trkpt>
      <trkpt lat="43.80757" lon="7.75251">
        <ele>52.23743</ele>
        <time>2024-01-27T12:39:02.710Z</time>
      </trkpt>
      <trkpt lat="43.80751" lon="7.75238">
        <ele>52.339394</ele>
        <time>2024-01-27T12:39:05.700Z</time>
      </trkpt>
      <trkpt lat="43.80744" lon="7.75226">
        <ele>52.437135</ele>
        <time>2024-01-27T12:39:08.701Z</time>
      </trkpt>
      <trkpt lat="43.80738" lon="7.75213">
        <ele>52.540038</ele>
        <time>2024-01-27T12:39:11.713Z</time>
      </trkpt>
      <trkpt lat="43.80731" lon="7.752">
        <ele>52.641951</ele>
        <time>2024-01-27T12:39:14.689Z</time>
      </trkpt>
      <trkpt lat="43.80724" lon="7.75187">
        <ele>52.742278</ele>
        <time>2024-01-27T12:39:17.694Z</time>
      </trkpt>
      <trkpt lat="43.80717" lon="7.75175">
        <ele>52.842297</ele>
        <time>2024-01-27T12:39:20.686Z</time>
      </trkpt>
      <trkpt lat="43.8071" lon="7.75164">
        <ele>52.939636</ele>
        <time>2024-01-27T12:39:23.689Z</time>
      </trkpt>
      <trkpt lat="43.80703" lon="7.75152">
        <ele>53.038595</ele>
        <time>2024-01-27T12:39:26.704Z</time>
      </trkpt>
      <trkpt lat="43.80696" lon="7.7514">
        <ele>53.133704</ele>
        <time>2024-01-27T12:39:29.695Z</time>
      </trkpt>
      <trkpt lat="43.8069" lon="7.75128">
        <ele>53.227875</ele>
        <time>2024-01-27T12:39:32.699Z</time>
      </trkpt>
      <trkpt lat="43.80683" lon="7.75116">
        <ele>53.32461</ele>
        <time>2024-01-27T12:39:35.688Z</time>
      </trkpt>
      <trkpt lat="43.80676" lon="7.75105">
        <ele>53.419113</ele>
        <time>2024-01-27T12:39:38.691Z</time>
      </trkpt>
      <trkpt lat="43.80669" lon="7.75092">
        <ele>53.511773</ele>
        <time>2024-01-27T12:39:41.717Z</time>
      </trkpt>
      <trkpt lat="43.80662" lon="7.7508">
        <ele>53.605941</ele>
        <time>2024-01-27T12:39:44.688Z</time>
      </trkpt>
      <trkpt lat="43.80655" lon="7.75067">
        <ele>53.70095</ele>
        <time>2024-01-27T12:39:47.699Z</time>
      </trkpt>
      <trkpt lat="43.80648" lon="7.75055">
        <ele>53.79361</ele>
        <time>2024-01-27T12:39:50.697Z</time>
      </trkpt>
      <trkpt lat="43.80642" lon="7.75044">
        <ele>53.883312</ele>
        <time>2024-01-27T12:39:53.700Z</time>
      </trkpt>
      <trkpt lat="43.80634" lon="7.75031">
        <ele>53.979068</ele>
        <time>2024-01-27T12:39:56.703Z</time>
      </trkpt>
      <trkpt lat="43.80627" lon="7.75018">
        <ele>54.076526</ele>
        <time>2024-01-27T12:39:59.706Z</time>
      </trkpt>
      <trkpt lat="43.8062" lon="7.75005">
        <ele>54.175944</ele>
        <time>2024-01-27T12:40:02.684Z</time>
      </trkpt>
      <trkpt lat="43.80613" lon="7.74993">
        <ele>54.27251</ele>
        <time>2024-01-27T12:40:05.683Z</time>
      </trkpt>
      <trkpt lat="43.80606" lon="7.74979">
        <ele>54.37045</ele>
        <time>2024-01-27T12:40:08.692Z</time>
      </trkpt>
      <trkpt lat="43.80599" lon="7.74967">
        <ele>54.467067</ele>
        <time>2024-01-27T12:40:11.675Z</time>
      </trkpt>
      <trkpt lat="43.80591" lon="7.74954">
        <ele>54.566198</ele>
        <time>2024-01-27T12:40:14.684Z</time>
      </trkpt>
      <trkpt lat="43.80585" lon="7.74941">
        <ele>54.659291</ele>
        <time>2024-01-27T12:40:17.686Z</time>
      </trkpt>
      <trkpt lat="43.80578" lon="7.74929">
        <ele>54.754978</ele>
        <time>2024-01-27T12:40:20.692Z</time>
      </trkpt>
      <trkpt lat="43.8057" lon="7.74918">
        <ele>54.84691</ele>
        <time>2024-01-27T12:40:23.700Z</time>
      </trkpt>
      <trkpt lat="43.80564" lon="7.74905">
        <ele>54.907847</ele>
        <time>2024-01-27T12:40:26.710Z</time>
      </trkpt>
      <trkpt lat="43.80557" lon="7.74893">
        <ele>54.96156</ele>
        <time>2024-01-27T12:40:29.696Z</time>
      </trkpt>
      <trkpt lat="43.8055" lon="7.74881">
        <ele>55.014446</ele>
        <time>2024-01-27T12:40:32.698Z</time>
      </trkpt>
      <trkpt lat="43.80542" lon="7.74868">
        <ele>55.070873</ele>
        <time>2024-01-27T12:40:35.691Z</time>
      </trkpt>
      <trkpt lat="43.80536" lon="7.74854">
        <ele>55.127017</ele>
        <time>2024-01-27T12:40:38.694Z</time>
      </trkpt>
      <trkpt lat="43.80528" lon="7.74842">
        <ele>55.181105</ele>
        <time>2024-01-27T12:40:41.697Z</time>
      </trkpt>
      <trkpt lat="43.8052" lon="7.74829">
        <ele>55.238802</ele>
        <time>2024-01-27T12:40:44.698Z</time>
      </trkpt>
      <trkpt lat="43.80513" lon="7.74818">
        <ele>55.290269</ele>
        <time>2024-01-27T12:40:47.697Z</time>
      </trkpt>
      <trkpt lat="43.80505" lon="7.74807">
        <ele>55.341657</ele>
        <time>2024-01-27T12:40:50.709Z</time>
      </trkpt>
      <trkpt lat="43.80497" lon="7.74796">
        <ele>55.396617</ele>
        <time>2024-01-27T12:40:53.716Z</time>
      </trkpt>
      <trkpt lat="43.80488" lon="7.74785">
        <ele>55.450549</ele>
        <time>2024-01-27T12:40:56.699Z</time>
      </trkpt>
      <trkpt lat="43.80483" lon="7.74775">
        <ele>55.495901</ele>
        <time>2024-01-27T12:40:59.696Z</time>
      </trkpt>
      <trkpt lat="43.80476" lon="7.74763">
        <ele>55.547993</ele>
        <time>2024-01-27T12:41:03.700Z</time>
      </trkpt>
      <trkpt lat="43.8047" lon="7.74753">
        <ele>55.591415</ele>
        <time>2024-01-27T12:41:07.703Z</time>
      </trkpt>
      <trkpt lat="43.80461" lon="7.74738">
        <ele>55.658841</ele>
        <time>2024-01-27T12:48:34.693Z</time>
      </trkpt>
      <trkpt lat="43.80453" lon="7.74726">
        <ele>55.714804</ele>
        <time>2024-01-27T12:48:38.711Z</time>
      </trkpt>
      <trkpt lat="43.80445" lon="7.74716">
        <ele>55.693074</ele>
        <time>2024-01-27T12:48:41.699Z</time>
      </trkpt>
      <trkpt lat="43.80438" lon="7.74705">
        <ele>55.668907</ele>
        <time>2024-01-27T12:48:44.698Z</time>
      </trkpt>
      <trkpt lat="43.80432" lon="7.74693">
        <ele>55.645101</ele>
        <time>2024-01-27T12:48:47.687Z</time>
      </trkpt>
      <trkpt lat="43.80425" lon="7.74685">
        <ele>55.624615</ele>
        <time>2024-01-27T12:48:50.675Z</time>
      </trkpt>
      <trkpt lat="43.80415" lon="7.74688">
        <ele>55.603472</ele>
        <time>2024-01-27T12:48:55.667Z</time>
      </trkpt>
      <trkpt lat="43.80406" lon="7.7469">
        <ele>55.582329</ele>
        <time>2024-01-27T12:49:00.664Z</time>
      </trkpt>
      <trkpt lat="43.80389" lon="7.74686">
        <ele>55.544743</ele>
        <time>2024-01-27T12:49:02.662Z</time>
      </trkpt>
      <trkpt lat="43.79837" lon="7.72733">
        <ele>51.88271</ele>
        <time>2024-01-27T12:54:58.709Z</time>
      </trkpt>
      <trkpt lat="43.79836" lon="7.72717">
        <ele>51.836052</ele>
        <time>2024-01-27T12:55:01.665Z</time>
      </trkpt>
      <trkpt lat="43.79836" lon="7.72704">
        <ele>51.796596</ele>
        <time>2024-01-27T12:55:05.677Z</time>
      </trkpt>
      <trkpt lat="43.79839" lon="7.72692">
        <ele>51.755248</ele>
        <time>2024-01-27T12:55:10.681Z</time>
      </trkpt>
      <trkpt lat="43.79844" lon="7.72671">
        <ele>51.645408</ele>
        <time>2024-01-27T12:55:34.685Z</time>
      </trkpt>
      <trkpt lat="43.79846" lon="7.72656">
        <ele>51.569617</ele>
        <time>2024-01-27T12:55:38.676Z</time>
      </trkpt>
      <trkpt lat="43.79849" lon="7.7264">
        <ele>51.487552</ele>
        <time>2024-01-27T12:55:42.708Z</time>
      </trkpt>
      <trkpt lat="43.7985" lon="7.72627">
        <ele>51.421777</ele>
        <time>2024-01-27T12:55:45.681Z</time>
      </trkpt>
      <trkpt lat="43.79853" lon="7.72613">
        <ele>51.351327</ele>
        <time>2024-01-27T12:55:48.679Z</time>
      </trkpt>
      <trkpt lat="43.79857" lon="7.72599">
        <ele>51.275272</ele>
        <time>2024-01-27T12:55:51.686Z</time>
      </trkpt>
      <trkpt lat="43.79862" lon="7.72584">
        <ele>51.19292</ele>
        <time>2024-01-27T12:55:54.676Z</time>
      </trkpt>
      <trkpt lat="43.79867" lon="7.72568">
        <ele>51.106577</ele>
        <time>2024-01-27T12:55:57.686Z</time>
      </trkpt>
      <trkpt lat="43.79871" lon="7.72551">
        <ele>51.017442</ele>
        <time>2024-01-27T12:56:00.690Z</time>
      </trkpt>
      <trkpt lat="43.79877" lon="7.72536">
        <ele>50.930635</ele>
        <time>2024-01-27T12:56:03.672Z</time>
      </trkpt>
      <trkpt lat="43.79881" lon="7.72518">
        <ele>50.837994</ele>
        <time>2024-01-27T12:56:06.688Z</time>
      </trkpt>
      <trkpt lat="43.79886" lon="7.72501">
        <ele>50.745298</ele>
        <time>2024-01-27T12:56:09.687Z</time>
      </trkpt>
      <trkpt lat="43.7989" lon="7.72489">
        <ele>50.682386</ele>
        <time>2024-01-27T12:56:11.688Z</time>
      </trkpt>
      <trkpt lat="43.79894" lon="7.72477">
        <ele>50.617286</ele>
        <time>2024-01-27T12:56:13.687Z</time>
      </trkpt>
      <trkpt lat="43.79897" lon="7.72465">
        <ele>50.552481</ele>
        <time>2024-01-27T12:56:15.683Z</time>
      </trkpt>
      <trkpt lat="43.79903" lon="7.72448">
        <ele>50.545114</ele>
        <time>2024-01-27T12:56:18.691Z</time>
      </trkpt>
      <trkpt lat="43.79905" lon="7.72436">
        <ele>50.562694</ele>
        <time>2024-01-27T12:56:20.687Z</time>
      </trkpt>
      <trkpt lat="43.79909" lon="7.72424">
        <ele>50.580274</ele>
        <time>2024-01-27T12:56:22.670Z</time>
      </trkpt>
      <trkpt lat="43.79914" lon="7.72407">
        <ele>50.605795</ele>
        <time>2024-01-27T12:56:25.688Z</time>
      </trkpt>
      <trkpt lat="43.79918" lon="7.72396">
        <ele>50.623365</ele>
        <time>2024-01-27T12:56:27.677Z</time>
      </trkpt>
      <trkpt lat="43.79922" lon="7.72378">
        <ele>50.649108</ele>
        <time>2024-01-27T12:56:30.681Z</time>
      </trkpt>
      <trkpt lat="43.79927" lon="7.72361">
        <ele>50.675125</ele>
        <time>2024-01-27T12:56:33.692Z</time>
      </trkpt>
      <trkpt lat="43.79931" lon="7.72349">
        <ele>50.693526</ele>
        <time>2024-01-27T12:56:35.685Z</time>
      </trkpt>
      <trkpt lat="43.79935" lon="7.72337">
        <ele>50.71173</ele>
        <time>2024-01-27T12:56:37.696Z</time>
      </trkpt>
      <trkpt lat="43.79939" lon="7.72325">
        <ele>50.72971</ele>
        <time>2024-01-27T12:56:39.701Z</time>
      </trkpt>
      <trkpt lat="43.79942" lon="7.72313">
        <ele>50.747939</ele>
        <time>2024-01-27T12:56:41.692Z</time>
      </trkpt>
      <trkpt lat="43.79945" lon="7.723">
        <ele>50.766046</ele>
        <time>2024-01-27T12:56:43.693Z</time>
      </trkpt>
      <trkpt lat="43.79948" lon="7.72288">
        <ele>50.784095</ele>
        <time>2024-01-27T12:56:45.676Z</time>
      </trkpt>
      <trkpt lat="43.79951" lon="7.72276">
        <ele>50.801931</ele>
        <time>2024-01-27T12:56:47.702Z</time>
      </trkpt>
      <trkpt lat="43.79953" lon="7.72263">
        <ele>50.820002</ele>
        <time>2024-01-27T12:56:49.698Z</time>
      </trkpt>
      <trkpt lat="43.79957" lon="7.72245">
        <ele>50.845765</ele>
        <time>2024-01-27T12:56:52.683Z</time>
      </trkpt>
      <trkpt lat="43.7996" lon="7.72227">
        <ele>50.871527</ele>
        <time>2024-01-27T12:56:55.681Z</time>
      </trkpt>
      <trkpt lat="43.79964" lon="7.7221">
        <ele>50.946605</ele>
        <time>2024-01-27T12:56:58.700Z</time>
      </trkpt>
      <trkpt lat="43.79968" lon="7.72192">
        <ele>51.025811</ele>
        <time>2024-01-27T12:57:01.681Z</time>
      </trkpt>
      <trkpt lat="43.79971" lon="7.72174">
        <ele>51.104049</ele>
        <time>2024-01-27T12:57:04.695Z</time>
      </trkpt>
      <trkpt lat="43.79974" lon="7.72161">
        <ele>51.158069</ele>
        <time>2024-01-27T12:57:06.696Z</time>
      </trkpt>
      <trkpt lat="43.79977" lon="7.72144">
        <ele>51.233257</ele>
        <time>2024-01-27T12:57:09.684Z</time>
      </trkpt>
      <trkpt lat="43.79981" lon="7.72127">
        <ele>51.307786</ele>
        <time>2024-01-27T12:57:12.683Z</time>
      </trkpt>
      <trkpt lat="43.79983" lon="7.72114">
        <ele>51.362123</ele>
        <time>2024-01-27T12:57:14.684Z</time>
      </trkpt>
      <trkpt lat="43.79986" lon="7.72097">
        <ele>51.437568</ele>
        <time>2024-01-27T12:57:17.693Z</time>
      </trkpt>
      <trkpt lat="43.79988" lon="7.7208">
        <ele>51.51138</ele>
        <time>2024-01-27T12:57:20.687Z</time>
      </trkpt>
      <trkpt lat="43.79991" lon="7.72063">
        <ele>51.584371</ele>
        <time>2024-01-27T12:57:23.694Z</time>
      </trkpt>
      <trkpt lat="43.79994" lon="7.72045">
        <ele>51.66051</ele>
        <time>2024-01-27T12:57:26.695Z</time>
      </trkpt>
      <trkpt lat="43.79996" lon="7.72032">
        <ele>51.714718</ele>
        <time>2024-01-27T12:57:28.679Z</time>
      </trkpt>
      <trkpt lat="43.79999" lon="7.72015">
        <ele>51.788394</ele>
        <time>2024-01-27T12:57:31.680Z</time>
      </trkpt>
      <trkpt lat="43.80002" lon="7.71998">
        <ele>51.864109</ele>
        <time>2024-01-27T12:57:34.689Z</time>
      </trkpt>
      <trkpt lat="43.80006" lon="7.71982">
        <ele>51.896468</ele>
        <time>2024-01-27T12:57:37.681Z</time>
      </trkpt>
      <trkpt lat="43.80008" lon="7.71964">
        <ele>51.793218</ele>
        <time>2024-01-27T12:57:40.683Z</time>
      </trkpt>
      <trkpt lat="43.80011" lon="7.71948">
        <ele>51.691301</ele>
        <time>2024-01-27T12:57:43.706Z</time>
      </trkpt>
      <trkpt lat="43.80013" lon="7.7193">
        <ele>51.584195</ele>
        <time>2024-01-27T12:57:46.675Z</time>
      </trkpt>
      <trkpt lat="43.80014" lon="7.71913">
        <ele>51.480375</ele>
        <time>2024-01-27T12:57:49.684Z</time>
      </trkpt>
      <trkpt lat="43.80016" lon="7.71896">
        <ele>51.378217</ele>
        <time>2024-01-27T12:57:52.693Z</time>
      </trkpt>
      <trkpt lat="43.8002" lon="7.71879">
        <ele>51.274801</ele>
        <time>2024-01-27T12:57:55.687Z</time>
      </trkpt>
      <trkpt lat="43.80022" lon="7.71867">
        <ele>51.196223</ele>
        <time>2024-01-27T12:57:57.672Z</time>
      </trkpt>
      <trkpt lat="43.80025" lon="7.71853">
        <ele>51.114415</ele>
        <time>2024-01-27T12:57:59.666Z</time>
      </trkpt>
      <trkpt lat="43.80029" lon="7.71841">
        <ele>51.034344</ele>
        <time>2024-01-27T12:58:01.701Z</time>
      </trkpt>
      <trkpt lat="43.80032" lon="7.71827">
        <ele>50.948672</ele>
        <time>2024-01-27T12:58:03.686Z</time>
      </trkpt>
      <trkpt lat="43.80036" lon="7.71813">
        <ele>50.859926</ele>
        <time>2024-01-27T12:58:05.686Z</time>
      </trkpt>
      <trkpt lat="43.8004" lon="7.71799">
        <ele>50.768942</ele>
        <time>2024-01-27T12:58:07.694Z</time>
      </trkpt>
      <trkpt lat="43.80043" lon="7.71784">
        <ele>50.677957</ele>
        <time>2024-01-27T12:58:09.699Z</time>
      </trkpt>
      <trkpt lat="43.80047" lon="7.71771">
        <ele>50.590889</ele>
        <time>2024-01-27T12:58:11.684Z</time>
      </trkpt>
      <trkpt lat="43.8005" lon="7.71757">
        <ele>50.504989</ele>
        <time>2024-01-27T12:58:13.708Z</time>
      </trkpt>
      <trkpt lat="43.80053" lon="7.71744">
        <ele>50.43697</ele>
        <time>2024-01-27T12:58:15.689Z</time>
      </trkpt>
      <trkpt lat="43.80055" lon="7.7173">
        <ele>50.440582</ele>
        <time>2024-01-27T12:58:17.687Z</time>
      </trkpt>
      <trkpt lat="43.80059" lon="7.71718">
        <ele>50.44402</ele>
        <time>2024-01-27T12:58:19.687Z</time>
      </trkpt>
      <trkpt lat="43.80062" lon="7.71706">
        <ele>50.447426</ele>
        <time>2024-01-27T12:58:21.691Z</time>
      </trkpt>
      <trkpt lat="43.80066" lon="7.71693">
        <ele>50.450937</ele>
        <time>2024-01-27T12:58:23.681Z</time>
      </trkpt>
      <trkpt lat="43.80069" lon="7.7168">
        <ele>50.454338</ele>
        <time>2024-01-27T12:58:25.694Z</time>
      </trkpt>
      <trkpt lat="43.80072" lon="7.71668">
        <ele>50.457788</ele>
        <time>2024-01-27T12:58:27.683Z</time>
      </trkpt>
      <trkpt lat="43.80075" lon="7.71655">
        <ele>50.461153</ele>
        <time>2024-01-27T12:58:29.697Z</time>
      </trkpt>
      <trkpt lat="43.80078" lon="7.71643">
        <ele>50.464483</ele>
        <time>2024-01-27T12:58:31.695Z</time>
      </trkpt>
      <trkpt lat="43.8008" lon="7.71631">
        <ele>50.467765</ele>
        <time>2024-01-27T12:58:33.675Z</time>
      </trkpt>
      <trkpt lat="43.80083" lon="7.71619">
        <ele>50.47107</ele>
        <time>2024-01-27T12:58:35.678Z</time>
      </trkpt>
      <trkpt lat="43.80088" lon="7.71602">
        <ele>50.475787</ele>
        <time>2024-01-27T12:58:38.691Z</time>
      </trkpt>
      <trkpt lat="43.80092" lon="7.71584">
        <ele>50.480669</ele>
        <time>2024-01-27T12:58:41.687Z</time>
      </trkpt>
      <trkpt lat="43.80096" lon="7.71567">
        <ele>50.485363</ele>
        <time>2024-01-27T12:58:44.678Z</time>
      </trkpt>
      <trkpt lat="43.801" lon="7.7155">
        <ele>50.490005</ele>
        <time>2024-01-27T12:58:47.690Z</time>
      </trkpt>
      <trkpt lat="43.80104" lon="7.71533">
        <ele>50.494722</ele>
        <time>2024-01-27T12:58:50.691Z</time>
      </trkpt>
      <trkpt lat="43.80109" lon="7.71517">
        <ele>50.498989</ele>
        <time>2024-01-27T12:58:53.703Z</time>
      </trkpt>
      <trkpt lat="43.80113" lon="7.715">
        <ele>50.588879</ele>
        <time>2024-01-27T12:58:56.673Z</time>
      </trkpt>
      <trkpt lat="43.80117" lon="7.71482">
        <ele>50.738269</ele>
        <time>2024-01-27T12:58:59.687Z</time>
      </trkpt>
      <trkpt lat="43.80121" lon="7.71465">
        <ele>50.880638</ele>
        <time>2024-01-27T12:59:02.684Z</time>
      </trkpt>
      <trkpt lat="43.80125" lon="7.71448">
        <ele>51.026252</ele>
        <time>2024-01-27T12:59:05.675Z</time>
      </trkpt>
      <trkpt lat="43.80128" lon="7.71432">
        <ele>51.164099</ele>
        <time>2024-01-27T12:59:08.688Z</time>
      </trkpt>
      <trkpt lat="43.8013" lon="7.71414">
        <ele>51.309283</ele>
        <time>2024-01-27T12:59:11.685Z</time>
      </trkpt>
      <trkpt lat="43.80132" lon="7.71401">
        <ele>51.410829</ele>
        <time>2024-01-27T12:59:13.703Z</time>
      </trkpt>
      <trkpt lat="43.80134" lon="7.71383">
        <ele>51.564935</ele>
        <time>2024-01-27T12:59:16.696Z</time>
      </trkpt>
      <trkpt lat="43.80135" lon="7.7137">
        <ele>51.670451</ele>
        <time>2024-01-27T12:59:18.683Z</time>
      </trkpt>
      <trkpt lat="43.80136" lon="7.71357">
        <ele>51.774659</ele>
        <time>2024-01-27T12:59:20.690Z</time>
      </trkpt>
      <trkpt lat="43.80138" lon="7.71339">
        <ele>51.921831</ele>
        <time>2024-01-27T12:59:23.700Z</time>
      </trkpt>
      <trkpt lat="43.80139" lon="7.71321">
        <ele>52.06938</ele>
        <time>2024-01-27T12:59:26.690Z</time>
      </trkpt>
      <trkpt lat="43.8014" lon="7.71303">
        <ele>52.210896</ele>
        <time>2024-01-27T12:59:29.696Z</time>
      </trkpt>
      <trkpt lat="43.80141" lon="7.71286">
        <ele>52.348231</ele>
        <time>2024-01-27T12:59:32.697Z</time>
      </trkpt>
      <trkpt lat="43.80145" lon="7.71273">
        <ele>52.460978</ele>
        <time>2024-01-27T12:59:35.686Z</time>
      </trkpt>
      <trkpt lat="43.80152" lon="7.71258">
        <ele>52.807396</ele>
        <time>2024-01-27T12:59:38.684Z</time>
      </trkpt>
      <trkpt lat="43.80155" lon="7.71242">
        <ele>53.21671</ele>
        <time>2024-01-27T12:59:41.676Z</time>
      </trkpt>
      <trkpt lat="43.80154" lon="7.71225">
        <ele>53.61486</ele>
        <time>2024-01-27T12:59:44.682Z</time>
      </trkpt>
      <trkpt lat="43.80154" lon="7.71211">
        <ele>53.973621</ele>
        <time>2024-01-27T12:59:47.725Z</time>
      </trkpt>
      <trkpt lat="43.80154" lon="7.71198">
        <ele>54.290646</ele>
        <time>2024-01-27T12:59:50.692Z</time>
      </trkpt>
      <trkpt lat="43.80153" lon="7.71182">
        <ele>54.672599</ele>
        <time>2024-01-27T12:59:54.685Z</time>
      </trkpt>
      <trkpt lat="43.80152" lon="7.71168">
        <ele>55.032521</ele>
        <time>2024-01-27T12:59:58.693Z</time>
      </trkpt>
      <trkpt lat="43.80151" lon="7.71153">
        <ele>55.393856</ele>
        <time>2024-01-27T13:00:02.682Z</time>
      </trkpt>
      <trkpt lat="43.80148" lon="7.71138">
        <ele>55.780137</ele>
        <time>2024-01-27T13:00:06.686Z</time>
      </trkpt>
      <trkpt lat="43.80146" lon="7.71122">
        <ele>56.172649</ele>
        <time>2024-01-27T13:00:10.689Z</time>
      </trkpt>
      <trkpt lat="43.80145" lon="7.71109">
        <ele>56.510002</ele>
        <time>2024-01-27T13:00:14.687Z</time>
      </trkpt>
      <trkpt lat="43.80151" lon="7.71098">
        <ele>56.844924</ele>
        <time>2024-01-27T13:00:19.702Z</time>
      </trkpt>
      <trkpt lat="43.80159" lon="7.71092">
        <ele>57.153352</ele>
        <time>2024-01-27T13:00:24.691Z</time>
      </trkpt>
      <trkpt lat="43.80165" lon="7.71079">
        <ele>57.513294</ele>
        <time>2024-01-27T13:00:30.680Z</time>
      </trkpt>
      <trkpt lat="43.80164" lon="7.71064">
        <ele>57.886075</ele>
        <time>2024-01-27T13:00:34.691Z</time>
      </trkpt>
      <trkpt lat="43.80161" lon="7.71051">
        <ele>58.230814</ele>
        <time>2024-01-27T13:00:38.697Z</time>
      </trkpt>
      <trkpt lat="43.80159" lon="7.71037">
        <ele>58.564357</ele>
        <time>2024-01-27T13:00:42.671Z</time>
      </trkpt>
      <trkpt lat="43.80156" lon="7.71023">
        <ele>59.170013</ele>
        <time>2024-01-27T13:00:46.680Z</time>
      </trkpt>
      <trkpt lat="43.80153" lon="7.71009">
        <ele>59.816462</ele>
        <time>2024-01-27T13:00:50.692Z</time>
      </trkpt>
      <trkpt lat="43.8015" lon="7.70996">
        <ele>60.454208</ele>
        <time>2024-01-27T13:00:54.688Z</time>
      </trkpt>
      <trkpt lat="43.80149" lon="7.70981">
        <ele>61.131737</ele>
        <time>2024-01-27T13:00:58.679Z</time>
      </trkpt>
      <trkpt lat="43.80146" lon="7.70966">
        <ele>61.782509</ele>
        <time>2024-01-27T13:01:02.691Z</time>
      </trkpt>
      <trkpt lat="43.80143" lon="7.70952">
        <ele>62.446394</ele>
        <time>2024-01-27T13:01:06.668Z</time>
      </trkpt>
      <trkpt lat="43.80141" lon="7.70938">
        <ele>63.065345</ele>
        <time>2024-01-27T13:01:10.693Z</time>
      </trkpt>
      <trkpt lat="43.8014" lon="7.70925">
        <ele>63.681151</ele>
        <time>2024-01-27T13:01:14.688Z</time>
      </trkpt>
      <trkpt lat="43.80138" lon="7.70911">
        <ele>64.296106</ele>
        <time>2024-01-27T13:01:18.690Z</time>
      </trkpt>
      <trkpt lat="43.80137" lon="7.70896">
        <ele>64.970244</ele>
        <time>2024-01-27T13:01:22.682Z</time>
      </trkpt>
      <trkpt lat="43.80135" lon="7.70883">
        <ele>65.568558</ele>
        <time>2024-01-27T13:01:26.704Z</time>
      </trkpt>
      <trkpt lat="43.80134" lon="7.70868">
        <ele>66.242695</ele>
        <time>2024-01-27T13:01:30.675Z</time>
      </trkpt>
      <trkpt lat="43.80133" lon="7.70854">
        <ele>66.870455</ele>
        <time>2024-01-27T13:01:34.686Z</time>
      </trkpt>
      <trkpt lat="43.80131" lon="7.70841">
        <ele>67.47819</ele>
        <time>2024-01-27T13:01:38.693Z</time>
      </trkpt>
      <trkpt lat="43.8013" lon="7.70827">
        <ele>68.108865</ele>
        <time>2024-01-27T13:01:42.672Z</time>
      </trkpt>
      <trkpt lat="43.80128" lon="7.70812">
        <ele>68.758992</ele>
        <time>2024-01-27T13:01:46.684Z</time>
      </trkpt>
      <trkpt lat="43.80128" lon="7.70798">
        <ele>69.388921</ele>
        <time>2024-01-27T13:01:50.686Z</time>
      </trkpt>
      <trkpt lat="43.80128" lon="7.70783">
        <ele>69.916011</ele>
        <time>2024-01-27T13:01:54.685Z</time>
      </trkpt>
      <trkpt lat="43.80129" lon="7.70769">
        <ele>70.269403</ele>
        <time>2024-01-27T13:01:58.728Z</time>
      </trkpt>
      <trkpt lat="43.80132" lon="7.70755">
        <ele>70.626614</ele>
        <time>2024-01-27T13:02:02.679Z</time>
      </trkpt>
      <trkpt lat="43.80134" lon="7.70741">
        <ele>70.979199</ele>
        <time>2024-01-27T13:02:06.666Z</time>
      </trkpt>
      <trkpt lat="43.80136" lon="7.70728">
        <ele>71.317312</ele>
        <time>2024-01-27T13:02:10.675Z</time>
      </trkpt>
      <trkpt lat="43.80137" lon="7.70714">
        <ele>71.643851</ele>
        <time>2024-01-27T13:02:14.663Z</time>
      </trkpt>
      <trkpt lat="43.80138" lon="7.70701">
        <ele>71.971495</ele>
        <time>2024-01-27T13:02:18.678Z</time>
      </trkpt>
      <trkpt lat="43.80139" lon="7.70686">
        <ele>72.338958</ele>
        <time>2024-01-27T13:02:23.680Z</time>
      </trkpt>
      <trkpt lat="43.80136" lon="7.70673">
        <ele>72.668999</ele>
        <time>2024-01-27T13:02:27.754Z</time>
      </trkpt>
      <trkpt lat="43.80132" lon="7.70659">
        <ele>73.042841</ele>
        <time>2024-01-27T13:02:31.664Z</time>
      </trkpt>
      <trkpt lat="43.80131" lon="7.70644">
        <ele>73.423569</ele>
        <time>2024-01-27T13:02:35.683Z</time>
      </trkpt>
      <trkpt lat="43.8013" lon="7.70631">
        <ele>73.739651</ele>
        <time>2024-01-27T13:02:38.688Z</time>
      </trkpt>
      <trkpt lat="43.8013" lon="7.70615">
        <ele>74.146518</ele>
        <time>2024-01-27T13:02:42.672Z</time>
      </trkpt>
      <trkpt lat="43.80131" lon="7.70599">
        <ele>74.53978</ele>
        <time>2024-01-27T13:02:46.687Z</time>
      </trkpt>
      <trkpt lat="43.80131" lon="7.70584">
        <ele>74.904779</ele>
        <time>2024-01-27T13:02:50.696Z</time>
      </trkpt>
      <trkpt lat="43.80128" lon="7.70569">
        <ele>75.306276</ele>
        <time>2024-01-27T13:02:54.692Z</time>
      </trkpt>
      <trkpt lat="43.80122" lon="7.70558">
        <ele>75.62667</ele>
        <time>2024-01-27T13:02:57.678Z</time>
      </trkpt>
      <trkpt lat="43.80115" lon="7.70549">
        <ele>75.93122</ele>
        <time>2024-01-27T13:03:00.694Z</time>
      </trkpt>
      <trkpt lat="43.80108" lon="7.7054">
        <ele>76.136675</ele>
        <time>2024-01-27T13:03:03.671Z</time>
      </trkpt>
      <trkpt lat="43.80101" lon="7.7053">
        <ele>76.344351</ele>
        <time>2024-01-27T13:03:06.685Z</time>
      </trkpt>
      <trkpt lat="43.80092" lon="7.7052">
        <ele>76.585549</ele>
        <time>2024-01-27T13:03:10.685Z</time>
      </trkpt>
      <trkpt lat="43.80082" lon="7.70512">
        <ele>76.828656</ele>
        <time>2024-01-27T13:03:14.679Z</time>
      </trkpt>
      <trkpt lat="43.80072" lon="7.70503">
        <ele>77.079196</ele>
        <time>2024-01-27T13:03:18.687Z</time>
      </trkpt>
      <trkpt lat="43.80065" lon="7.70494">
        <ele>77.282663</ele>
        <time>2024-01-27T13:03:21.694Z</time>
      </trkpt>
      <trkpt lat="43.8006" lon="7.70483">
        <ele>77.477956</ele>
        <time>2024-01-27T13:03:24.676Z</time>
      </trkpt>
      <trkpt lat="43.80056" lon="7.70469">
        <ele>77.709172</ele>
        <time>2024-01-27T13:03:28.689Z</time>
      </trkpt>
      <trkpt lat="43.80056" lon="7.70454">
        <ele>77.941301</ele>
        <time>2024-01-27T13:03:32.692Z</time>
      </trkpt>
      <trkpt lat="43.80057" lon="7.70438">
        <ele>78.177249</ele>
        <time>2024-01-27T13:03:36.684Z</time>
      </trkpt>
      <trkpt lat="43.80059" lon="7.70422">
        <ele>78.423828</ele>
        <time>2024-01-27T13:03:40.684Z</time>
      </trkpt>
      <trkpt lat="43.8006" lon="7.70407">
        <ele>78.662025</ele>
        <time>2024-01-27T13:03:44.695Z</time>
      </trkpt>
      <trkpt lat="43.80061" lon="7.70391">
        <ele>78.904865</ele>
        <time>2024-01-27T13:03:48.676Z</time>
      </trkpt>
      <trkpt lat="43.80062" lon="7.70375">
        <ele>79.142763</ele>
        <time>2024-01-27T13:03:52.683Z</time>
      </trkpt>
      <trkpt lat="43.80063" lon="7.70359">
        <ele>79.388074</ele>
        <time>2024-01-27T13:03:56.698Z</time>
      </trkpt>
      <trkpt lat="43.80065" lon="7.70343">
        <ele>79.640886</ele>
        <time>2024-01-27T13:04:00.679Z</time>
      </trkpt>
      <trkpt lat="43.80067" lon="7.7033">
        <ele>79.877477</ele>
        <time>2024-01-27T13:04:03.686Z</time>
      </trkpt>
      <trkpt lat="43.8007" lon="7.70318">
        <ele>80.121879</ele>
        <time>2024-01-27T13:04:06.676Z</time>
      </trkpt>
      <trkpt lat="43.80074" lon="7.70307">
        <ele>80.367753</ele>
        <time>2024-01-27T13:04:09.686Z</time>
      </trkpt>
      <trkpt lat="43.8008" lon="7.70292">
        <ele>80.685166</ele>
        <time>2024-01-27T13:04:13.680Z</time>
      </trkpt>
      <trkpt lat="43.80085" lon="7.70282">
        <ele>80.923905</ele>
        <time>2024-01-27T13:04:16.696Z</time>
      </trkpt>
      <trkpt lat="43.80089" lon="7.7027">
        <ele>81.174394</ele>
        <time>2024-01-27T13:04:19.687Z</time>
      </trkpt>
      <trkpt lat="43.80092" lon="7.70258">
        <ele>81.413815</ele>
        <time>2024-01-27T13:04:22.677Z</time>
      </trkpt>
      <trkpt lat="43.80091" lon="7.70245">
        <ele>81.657495</ele>
        <time>2024-01-27T13:04:25.689Z</time>
      </trkpt>
      <trkpt lat="43.80087" lon="7.70233">
        <ele>81.918539</ele>
        <time>2024-01-27T13:04:28.688Z</time>
      </trkpt>
      <trkpt lat="43.80081" lon="7.70222">
        <ele>82.192542</ele>
        <time>2024-01-27T13:04:31.703Z</time>
      </trkpt>
      <trkpt lat="43.80074" lon="7.70211">
        <ele>82.466544</ele>
        <time>2024-01-27T13:04:34.692Z</time>
      </trkpt>
      <trkpt lat="43.80067" lon="7.70201">
        <ele>82.726254</ele>
        <time>2024-01-27T13:04:37.688Z</time>
      </trkpt>
      <trkpt lat="43.80061" lon="7.70191">
        <ele>82.973196</ele>
        <time>2024-01-27T13:04:40.677Z</time>
      </trkpt>
      <trkpt lat="43.80055" lon="7.70182">
        <ele>83.224584</ele>
        <time>2024-01-27T13:04:43.696Z</time>
      </trkpt>
      <trkpt lat="43.80047" lon="7.7017">
        <ele>83.531312</ele>
        <time>2024-01-27T13:04:47.696Z</time>
      </trkpt>
      <trkpt lat="43.80039" lon="7.70159">
        <ele>83.821832</ele>
        <time>2024-01-27T13:04:51.692Z</time>
      </trkpt>
      <trkpt lat="43.80031" lon="7.70148">
        <ele>84.121731</ele>
        <time>2024-01-27T13:04:55.687Z</time>
      </trkpt>
      <trkpt lat="43.80023" lon="7.70136">
        <ele>84.439899</ele>
        <time>2024-01-27T13:04:59.680Z</time>
      </trkpt>
      <trkpt lat="43.80017" lon="7.70122">
        <ele>84.699948</ele>
        <time>2024-01-27T13:05:03.685Z</time>
      </trkpt>
      <trkpt lat="43.80013" lon="7.70107">
        <ele>84.95468</ele>
        <time>2024-01-27T13:05:07.678Z</time>
      </trkpt>
      <trkpt lat="43.80009" lon="7.70092">
        <ele>85.204834</ele>
        <time>2024-01-27T13:05:11.686Z</time>
      </trkpt>
      <trkpt lat="43.80005" lon="7.70076">
        <ele>85.46284</ele>
        <time>2024-01-27T13:05:15.684Z</time>
      </trkpt>
      <trkpt lat="43.80002" lon="7.70064">
        <ele>85.665472</ele>
        <time>2024-01-27T13:05:18.700Z</time>
      </trkpt>
      <trkpt lat="43.79997" lon="7.7005">
        <ele>85.913452</ele>
        <time>2024-01-27T13:05:22.697Z</time>
      </trkpt>
      <trkpt lat="43.79993" lon="7.70035">
        <ele>86.169204</ele>
        <time>2024-01-27T13:05:26.681Z</time>
      </trkpt>
      <trkpt lat="43.79989" lon="7.70023">
        <ele>86.375922</ele>
        <time>2024-01-27T13:05:29.691Z</time>
      </trkpt>
      <trkpt lat="43.79986" lon="7.70011">
        <ele>86.574112</ele>
        <time>2024-01-27T13:05:32.664Z</time>
      </trkpt>
      <trkpt lat="43.79983" lon="7.69995">
        <ele>86.831519</ele>
        <time>2024-01-27T13:05:36.701Z</time>
      </trkpt>
      <trkpt lat="43.79982" lon="7.69982">
        <ele>87.031898</ele>
        <time>2024-01-27T13:05:39.696Z</time>
      </trkpt>
      <trkpt lat="43.79981" lon="7.69965">
        <ele>87.292271</ele>
        <time>2024-01-27T13:05:43.688Z</time>
      </trkpt>
      <trkpt lat="43.79981" lon="7.69953">
        <ele>87.487116</ele>
        <time>2024-01-27T13:05:46.679Z</time>
      </trkpt>
      <trkpt lat="43.79979" lon="7.6994">
        <ele>87.692162</ele>
        <time>2024-01-27T13:05:49.689Z</time>
      </trkpt>
      <trkpt lat="43.79979" lon="7.69927">
        <ele>87.893629</ele>
        <time>2024-01-27T13:05:52.708Z</time>
      </trkpt>
      <trkpt lat="43.79977" lon="7.69915">
        <ele>88.089343</ele>
        <time>2024-01-27T13:05:55.669Z</time>
      </trkpt>
      <trkpt lat="43.79977" lon="7.69902">
        <ele>88.286134</ele>
        <time>2024-01-27T13:05:58.683Z</time>
      </trkpt>
      <trkpt lat="43.79976" lon="7.6989">
        <ele>88.53145</ele>
        <time>2024-01-27T13:06:01.687Z</time>
      </trkpt>
      <trkpt lat="43.79975" lon="7.69877">
        <ele>88.81045</ele>
        <time>2024-01-27T13:06:04.689Z</time>
      </trkpt>
      <trkpt lat="43.79972" lon="7.69865">
        <ele>89.079503</ele>
        <time>2024-01-27T13:06:07.690Z</time>
      </trkpt>
      <trkpt lat="43.79967" lon="7.69854">
        <ele>89.353901</ele>
        <time>2024-01-27T13:06:10.664Z</time>
      </trkpt>
      <trkpt lat="43.7996" lon="7.69846">
        <ele>89.629584</ele>
        <time>2024-01-27T13:06:13.681Z</time>
      </trkpt>
      <trkpt lat="43.79951" lon="7.6984">
        <ele>89.926523</ele>
        <time>2024-01-27T13:06:16.679Z</time>
      </trkpt>
      <trkpt lat="43.79939" lon="7.69838">
        <ele>90.270438</ele>
        <time>2024-01-27T13:06:19.684Z</time>
      </trkpt>
      <trkpt lat="43.79928" lon="7.69838">
        <ele>90.623314</ele>
        <time>2024-01-27T13:06:22.671Z</time>
      </trkpt>
      <trkpt lat="43.79916" lon="7.69838">
        <ele>90.961245</ele>
        <time>2024-01-27T13:06:25.678Z</time>
      </trkpt>
      <trkpt lat="43.79905" lon="7.69837">
        <ele>91.305698</ele>
        <time>2024-01-27T13:06:28.702Z</time>
      </trkpt>
      <trkpt lat="43.79894" lon="7.69835">
        <ele>91.633147</ele>
        <time>2024-01-27T13:06:31.697Z</time>
      </trkpt>
      <trkpt lat="43.79884" lon="7.69829">
        <ele>91.953553</ele>
        <time>2024-01-27T13:06:34.678Z</time>
      </trkpt>
      <trkpt lat="43.79876" lon="7.6982">
        <ele>92.272169</ele>
        <time>2024-01-27T13:06:37.691Z</time>
      </trkpt>
      <trkpt lat="43.79869" lon="7.69808">
        <ele>92.594957</ele>
        <time>2024-01-27T13:06:40.681Z</time>
      </trkpt>
      <trkpt lat="43.79864" lon="7.69796">
        <ele>92.90046</ele>
        <time>2024-01-27T13:06:43.667Z</time>
      </trkpt>
      <trkpt lat="43.79861" lon="7.69782">
        <ele>93.212487</ele>
        <time>2024-01-27T13:06:46.674Z</time>
      </trkpt>
      <trkpt lat="43.79861" lon="7.69767">
        <ele>93.532065</ele>
        <time>2024-01-27T13:06:49.690Z</time>
      </trkpt>
      <trkpt lat="43.79861" lon="7.69753">
        <ele>93.805453</ele>
        <time>2024-01-27T13:06:52.703Z</time>
      </trkpt>
      <trkpt lat="43.79859" lon="7.6974">
        <ele>93.964981</ele>
        <time>2024-01-27T13:06:55.693Z</time>
      </trkpt>
      <trkpt lat="43.79856" lon="7.69728">
        <ele>94.122129</ele>
        <time>2024-01-27T13:06:58.677Z</time>
      </trkpt>
      <trkpt lat="43.79851" lon="7.69717">
        <ele>94.277699</ele>
        <time>2024-01-27T13:07:01.673Z</time>
      </trkpt>
      <trkpt lat="43.79843" lon="7.69708">
        <ele>94.444587</ele>
        <time>2024-01-27T13:07:04.694Z</time>
      </trkpt>
      <trkpt lat="43.79836" lon="7.697">
        <ele>94.606377</ele>
        <time>2024-01-27T13:07:07.679Z</time>
      </trkpt>
      <trkpt lat="43.79827" lon="7.69694">
        <ele>94.769858</ele>
        <time>2024-01-27T13:07:10.682Z</time>
      </trkpt>
      <trkpt lat="43.79818" lon="7.69688">
        <ele>94.936325</ele>
        <time>2024-01-27T13:07:13.678Z</time>
      </trkpt>
      <trkpt lat="43.7981" lon="7.69682">
        <ele>95.097918</ele>
        <time>2024-01-27T13:07:16.685Z</time>
      </trkpt>
      <trkpt lat="43.79802" lon="7.69672">
        <ele>95.271811</ele>
        <time>2024-01-27T13:07:19.684Z</time>
      </trkpt>
      <trkpt lat="43.79796" lon="7.69661">
        <ele>95.442706</ele>
        <time>2024-01-27T13:07:22.683Z</time>
      </trkpt>
      <trkpt lat="43.79789" lon="7.69651">
        <ele>95.603541</ele>
        <time>2024-01-27T13:07:25.691Z</time>
      </trkpt>
      <trkpt lat="43.79783" lon="7.6964">
        <ele>95.770051</ele>
        <time>2024-01-27T13:07:28.697Z</time>
      </trkpt>
      <trkpt lat="43.79778" lon="7.69629">
        <ele>95.932581</ele>
        <time>2024-01-27T13:07:31.700Z</time>
      </trkpt>
      <trkpt lat="43.79773" lon="7.69617">
        <ele>96.096223</ele>
        <time>2024-01-27T13:07:34.694Z</time>
      </trkpt>
      <trkpt lat="43.79768" lon="7.69607">
        <ele>96.250938</ele>
        <time>2024-01-27T13:07:37.701Z</time>
      </trkpt>
      <trkpt lat="43.79761" lon="7.69597">
        <ele>96.412308</ele>
        <time>2024-01-27T13:07:40.692Z</time>
      </trkpt>
      <trkpt lat="43.79754" lon="7.69587">
        <ele>96.586136</ele>
        <time>2024-01-27T13:07:43.711Z</time>
      </trkpt>
      <trkpt lat="43.79746" lon="7.69576">
        <ele>96.765311</ele>
        <time>2024-01-27T13:07:46.681Z</time>
      </trkpt>
      <trkpt lat="43.79739" lon="7.69567">
        <ele>96.816368</ele>
        <time>2024-01-27T13:07:49.681Z</time>
      </trkpt>
      <trkpt lat="43.79732" lon="7.69556">
        <ele>96.861736</ele>
        <time>2024-01-27T13:07:52.694Z</time>
      </trkpt>
      <trkpt lat="43.79725" lon="7.69546">
        <ele>96.909473</ele>
        <time>2024-01-27T13:07:55.707Z</time>
      </trkpt>
      <trkpt lat="43.79718" lon="7.69535">
        <ele>96.956345</ele>
        <time>2024-01-27T13:07:58.676Z</time>
      </trkpt>
      <trkpt lat="43.7971" lon="7.69524">
        <ele>97.003631</ele>
        <time>2024-01-27T13:08:01.693Z</time>
      </trkpt>
      <trkpt lat="43.79702" lon="7.69513">
        <ele>97.052746</ele>
        <time>2024-01-27T13:08:04.697Z</time>
      </trkpt>
      <trkpt lat="43.79693" lon="7.69504">
        <ele>97.101095</ele>
        <time>2024-01-27T13:08:07.699Z</time>
      </trkpt>
      <trkpt lat="43.79682" lon="7.69497">
        <ele>97.154433</ele>
        <time>2024-01-27T13:08:10.697Z</time>
      </trkpt>
      <trkpt lat="43.79672" lon="7.69491">
        <ele>97.203102</ele>
        <time>2024-01-27T13:08:13.694Z</time>
      </trkpt>
      <trkpt lat="43.79661" lon="7.69485">
        <ele>97.254955</ele>
        <time>2024-01-27T13:08:16.685Z</time>
      </trkpt>
      <trkpt lat="43.79649" lon="7.69477">
        <ele>97.314018</ele>
        <time>2024-01-27T13:08:19.681Z</time>
      </trkpt>
      <trkpt lat="43.79641" lon="7.69472">
        <ele>97.354986</ele>
        <time>2024-01-27T13:08:21.691Z</time>
      </trkpt>
      <trkpt lat="43.79632" lon="7.69466">
        <ele>97.398732</ele>
        <time>2024-01-27T13:08:23.665Z</time>
      </trkpt>
      <trkpt lat="43.79622" lon="7.69459">
        <ele>97.44506</ele>
        <time>2024-01-27T13:08:25.669Z</time>
      </trkpt>
      <trkpt lat="43.79613" lon="7.69453">
        <ele>97.492562</ele>
        <time>2024-01-27T13:08:27.686Z</time>
      </trkpt>
      <trkpt lat="43.79603" lon="7.69445">
        <ele>97.540894</ele>
        <time>2024-01-27T13:08:29.690Z</time>
      </trkpt>
      <trkpt lat="43.79593" lon="7.69438">
        <ele>97.37695</ele>
        <time>2024-01-27T13:08:31.674Z</time>
      </trkpt>
      <trkpt lat="43.79583" lon="7.69431">
        <ele>96.931111</ele>
        <time>2024-01-27T13:08:33.699Z</time>
      </trkpt>
      <trkpt lat="43.79571" lon="7.69427">
        <ele>96.480296</ele>
        <time>2024-01-27T13:08:35.693Z</time>
      </trkpt>
      <trkpt lat="43.79559" lon="7.69424">
        <ele>96.017327</ele>
        <time>2024-01-27T13:08:37.673Z</time>
      </trkpt>
      <trkpt lat="43.79546" lon="7.69424">
        <ele>95.504501</ele>
        <time>2024-01-27T13:08:39.672Z</time>
      </trkpt>
      <trkpt lat="43.79532" lon="7.69426">
        <ele>94.982723</ele>
        <time>2024-01-27T13:08:41.671Z</time>
      </trkpt>
      <trkpt lat="43.79519" lon="7.69425">
        <ele>94.470132</ele>
        <time>2024-01-27T13:08:43.690Z</time>
      </trkpt>
      <trkpt lat="43.79505" lon="7.69422">
        <ele>93.946545</ele>
        <time>2024-01-27T13:08:45.678Z</time>
      </trkpt>
      <trkpt lat="43.79492" lon="7.69414">
        <ele>93.423053</ele>
        <time>2024-01-27T13:08:47.678Z</time>
      </trkpt>
      <trkpt lat="43.7948" lon="7.69404">
        <ele>92.870856</ele>
        <time>2024-01-27T13:08:49.673Z</time>
      </trkpt>
      <trkpt lat="43.79469" lon="7.69389">
        <ele>92.28633</ele>
        <time>2024-01-27T13:08:51.677Z</time>
      </trkpt>
      <trkpt lat="43.79457" lon="7.69377">
        <ele>91.719573</ele>
        <time>2024-01-27T13:08:53.685Z</time>
      </trkpt>
      <trkpt lat="43.79443" lon="7.69367">
        <ele>91.131636</ele>
        <time>2024-01-27T13:08:55.688Z</time>
      </trkpt>
      <trkpt lat="43.79429" lon="7.69357">
        <ele>90.516545</ele>
        <time>2024-01-27T13:08:57.704Z</time>
      </trkpt>
      <trkpt lat="43.79415" lon="7.69345">
        <ele>89.881013</ele>
        <time>2024-01-27T13:08:59.696Z</time>
      </trkpt>
      <trkpt lat="43.794" lon="7.69333">
        <ele>89.238829</ele>
        <time>2024-01-27T13:09:01.689Z</time>
      </trkpt>
      <trkpt lat="43.79386" lon="7.6932">
        <ele>88.571522</ele>
        <time>2024-01-27T13:09:03.689Z</time>
      </trkpt>
      <trkpt lat="43.79371" lon="7.69306">
        <ele>87.890208</ele>
        <time>2024-01-27T13:09:05.680Z</time>
      </trkpt>
      <trkpt lat="43.79364" lon="7.69299">
        <ele>87.543283</ele>
        <time>2024-01-27T13:09:06.687Z</time>
      </trkpt>
      <trkpt lat="43.79349" lon="7.69287">
        <ele>86.880141</ele>
        <time>2024-01-27T13:09:08.677Z</time>
      </trkpt>
      <trkpt lat="43.79333" lon="7.69277">
        <ele>86.236767</ele>
        <time>2024-01-27T13:09:10.684Z</time>
      </trkpt>
      <trkpt lat="43.79317" lon="7.69272">
        <ele>85.586361</ele>
        <time>2024-01-27T13:09:12.669Z</time>
      </trkpt>
      <trkpt lat="43.793" lon="7.69269">
        <ele>84.924403</ele>
        <time>2024-01-27T13:09:14.682Z</time>
      </trkpt>
      <trkpt lat="43.79283" lon="7.69265">
        <ele>84.272664</ele>
        <time>2024-01-27T13:09:16.681Z</time>
      </trkpt>
      <trkpt lat="43.79267" lon="7.69263">
        <ele>83.675482</ele>
        <time>2024-01-27T13:09:18.683Z</time>
      </trkpt>
      <trkpt lat="43.79252" lon="7.69263">
        <ele>83.143215</ele>
        <time>2024-01-27T13:09:20.688Z</time>
      </trkpt>
      <trkpt lat="43.79236" lon="7.69267">
        <ele>82.595688</ele>
        <time>2024-01-27T13:09:22.682Z</time>
      </trkpt>
      <trkpt lat="43.79222" lon="7.69276">
        <ele>82.047187</ele>
        <time>2024-01-27T13:09:24.684Z</time>
      </trkpt>
      <trkpt lat="43.79208" lon="7.69284">
        <ele>81.524516</ele>
        <time>2024-01-27T13:09:26.699Z</time>
      </trkpt>
      <trkpt lat="43.79194" lon="7.69286">
        <ele>81.027716</ele>
        <time>2024-01-27T13:09:28.671Z</time>
      </trkpt>
      <trkpt lat="43.7918" lon="7.69284">
        <ele>80.523728</ele>
        <time>2024-01-27T13:09:30.677Z</time>
      </trkpt>
      <trkpt lat="43.79166" lon="7.69281">
        <ele>80.036971</ele>
        <time>2024-01-27T13:09:32.676Z</time>
      </trkpt>
      <trkpt lat="43.79153" lon="7.69276">
        <ele>79.56483</ele>
        <time>2024-01-27T13:09:34.663Z</time>
      </trkpt>
      <trkpt lat="43.7914" lon="7.69269">
        <ele>79.074902</ele>
        <time>2024-01-27T13:09:36.703Z</time>
      </trkpt>
      <trkpt lat="43.79128" lon="7.69261">
        <ele>78.615647</ele>
        <time>2024-01-27T13:09:38.680Z</time>
      </trkpt>
      <trkpt lat="43.79116" lon="7.69251">
        <ele>78.143295</ele>
        <time>2024-01-27T13:09:40.676Z</time>
      </trkpt>
      <trkpt lat="43.79108" lon="7.69237">
        <ele>77.686957</ele>
        <time>2024-01-27T13:09:42.669Z</time>
      </trkpt>
      <trkpt lat="43.79101" lon="7.69221">
        <ele>77.300872</ele>
        <time>2024-01-27T13:09:44.670Z</time>
      </trkpt>
      <trkpt lat="43.79097" lon="7.69202">
        <ele>76.921401</ele>
        <time>2024-01-27T13:09:46.686Z</time>
      </trkpt>
      <trkpt lat="43.79096" lon="7.69185">
        <ele>76.56914</ele>
        <time>2024-01-27T13:09:48.679Z</time>
      </trkpt>
      <trkpt lat="43.79095" lon="7.69167">
        <ele>76.227486</ele>
        <time>2024-01-27T13:09:50.691Z</time>
      </trkpt>
      <trkpt lat="43.79094" lon="7.6915">
        <ele>75.892646</ele>
        <time>2024-01-27T13:09:52.699Z</time>
      </trkpt>
      <trkpt lat="43.79092" lon="7.69134">
        <ele>75.565557</ele>
        <time>2024-01-27T13:09:54.682Z</time>
      </trkpt>
      <trkpt lat="43.79089" lon="7.6912">
        <ele>75.265093</ele>
        <time>2024-01-27T13:09:56.676Z</time>
      </trkpt>
      <trkpt lat="43.79082" lon="7.69107">
        <ele>74.961262</ele>
        <time>2024-01-27T13:09:58.669Z</time>
      </trkpt>
      <trkpt lat="43.79072" lon="7.69099">
        <ele>74.644545</ele>
        <time>2024-01-27T13:10:00.684Z</time>
      </trkpt>
      <trkpt lat="43.7906" lon="7.69093">
        <ele>74.300517</ele>
        <time>2024-01-27T13:10:02.683Z</time>
      </trkpt>
      <trkpt lat="43.79048" lon="7.69087">
        <ele>73.952049</ele>
        <time>2024-01-27T13:10:04.713Z</time>
      </trkpt>
      <trkpt lat="43.79035" lon="7.69081">
        <ele>73.585395</ele>
        <time>2024-01-27T13:10:06.670Z</time>
      </trkpt>
      <trkpt lat="43.79023" lon="7.69075">
        <ele>73.224042</ele>
        <time>2024-01-27T13:10:08.684Z</time>
      </trkpt>
      <trkpt lat="43.79011" lon="7.69068">
        <ele>72.861818</ele>
        <time>2024-01-27T13:10:10.705Z</time>
      </trkpt>
      <trkpt lat="43.78998" lon="7.69061">
        <ele>72.474497</ele>
        <time>2024-01-27T13:10:12.698Z</time>
      </trkpt>
      <trkpt lat="43.78986" lon="7.69052">
        <ele>72.083501</ele>
        <time>2024-01-27T13:10:14.681Z</time>
      </trkpt>
      <trkpt lat="43.78974" lon="7.69045">
        <ele>71.705023</ele>
        <time>2024-01-27T13:10:16.690Z</time>
      </trkpt>
      <trkpt lat="43.78961" lon="7.69043">
        <ele>71.321014</ele>
        <time>2024-01-27T13:10:18.675Z</time>
      </trkpt>
      <trkpt lat="43.78947" lon="7.6904">
        <ele>70.905505</ele>
        <time>2024-01-27T13:10:20.697Z</time>
      </trkpt>
      <trkpt lat="43.78934" lon="7.69033">
        <ele>70.492619</ele>
        <time>2024-01-27T13:10:22.692Z</time>
      </trkpt>
      <trkpt lat="43.7892" lon="7.69026">
        <ele>70.067971</ele>
        <time>2024-01-27T13:10:24.669Z</time>
      </trkpt>
      <trkpt lat="43.78907" lon="7.69018">
        <ele>69.649921</ele>
        <time>2024-01-27T13:10:26.689Z</time>
      </trkpt>
      <trkpt lat="43.78895" lon="7.69007">
        <ele>69.244635</ele>
        <time>2024-01-27T13:10:28.683Z</time>
      </trkpt>
      <trkpt lat="43.78885" lon="7.68994">
        <ele>68.846409</ele>
        <time>2024-01-27T13:10:30.704Z</time>
      </trkpt>
      <trkpt lat="43.78876" lon="7.68981">
        <ele>68.451612</ele>
        <time>2024-01-27T13:10:32.698Z</time>
      </trkpt>
      <trkpt lat="43.78867" lon="7.68969">
        <ele>68.087488</ele>
        <time>2024-01-27T13:10:34.696Z</time>
      </trkpt>
      <trkpt lat="43.78859" lon="7.68956">
        <ele>67.730748</ele>
        <time>2024-01-27T13:10:36.683Z</time>
      </trkpt>
      <trkpt lat="43.78851" lon="7.68942">
        <ele>67.372128</ele>
        <time>2024-01-27T13:10:38.691Z</time>
      </trkpt>
      <trkpt lat="43.78845" lon="7.68928">
        <ele>66.995336</ele>
        <time>2024-01-27T13:10:40.677Z</time>
      </trkpt>
      <trkpt lat="43.78842" lon="7.68911">
        <ele>66.605482</ele>
        <time>2024-01-27T13:10:42.699Z</time>
      </trkpt>
      <trkpt lat="43.7884" lon="7.68894">
        <ele>66.219779</ele>
        <time>2024-01-27T13:10:44.677Z</time>
      </trkpt>
      <trkpt lat="43.78838" lon="7.68877">
        <ele>65.830745</ele>
        <time>2024-01-27T13:10:46.702Z</time>
      </trkpt>
      <trkpt lat="43.78834" lon="7.6886">
        <ele>65.4428</ele>
        <time>2024-01-27T13:10:48.697Z</time>
      </trkpt>
      <trkpt lat="43.7883" lon="7.68844">
        <ele>65.065273</ele>
        <time>2024-01-27T13:10:50.694Z</time>
      </trkpt>
      <trkpt lat="43.78824" lon="7.6883">
        <ele>64.69464</ele>
        <time>2024-01-27T13:10:52.703Z</time>
      </trkpt>
      <trkpt lat="43.78818" lon="7.68816">
        <ele>64.327912</ele>
        <time>2024-01-27T13:10:54.691Z</time>
      </trkpt>
      <trkpt lat="43.78811" lon="7.68802">
        <ele>63.949033</ele>
        <time>2024-01-27T13:10:56.687Z</time>
      </trkpt>
      <trkpt lat="43.78802" lon="7.6879">
        <ele>63.557661</ele>
        <time>2024-01-27T13:10:58.711Z</time>
      </trkpt>
      <trkpt lat="43.78793" lon="7.68779">
        <ele>63.175996</ele>
        <time>2024-01-27T13:11:00.700Z</time>
      </trkpt>
      <trkpt lat="43.78783" lon="7.68768">
        <ele>62.788143</ele>
        <time>2024-01-27T13:11:02.686Z</time>
      </trkpt>
      <trkpt lat="43.78773" lon="7.68756">
        <ele>62.390644</ele>
        <time>2024-01-27T13:11:04.660Z</time>
      </trkpt>
      <trkpt lat="43.78764" lon="7.68745">
        <ele>62.008089</ele>
        <time>2024-01-27T13:11:06.685Z</time>
      </trkpt>
      <trkpt lat="43.78755" lon="7.68734">
        <ele>62.761234</ele>
        <time>2024-01-27T13:11:08.693Z</time>
      </trkpt>
      <trkpt lat="43.78745" lon="7.68722">
        <ele>64.225494</ele>
        <time>2024-01-27T13:11:10.688Z</time>
      </trkpt>
      <trkpt lat="43.78736" lon="7.68708">
        <ele>65.771631</ele>
        <time>2024-01-27T13:11:12.664Z</time>
      </trkpt>
      <trkpt lat="43.78728" lon="7.68694">
        <ele>67.276452</ele>
        <time>2024-01-27T13:11:14.693Z</time>
      </trkpt>
      <trkpt lat="43.78722" lon="7.6868">
        <ele>68.639333</ele>
        <time>2024-01-27T13:11:16.677Z</time>
      </trkpt>
      <trkpt lat="43.78716" lon="7.68665">
        <ele>70.073457</ele>
        <time>2024-01-27T13:11:18.674Z</time>
      </trkpt>
      <trkpt lat="43.7871" lon="7.68654">
        <ele>71.227412</ele>
        <time>2024-01-27T13:11:20.687Z</time>
      </trkpt>
      <trkpt lat="43.78706" lon="7.68638">
        <ele>72.624977</ele>
        <time>2024-01-27T13:11:23.676Z</time>
      </trkpt>
      <trkpt lat="43.78713" lon="7.6863">
        <ele>73.693806</ele>
        <time>2024-01-27T13:11:28.711Z</time>
      </trkpt>
      <trkpt lat="43.78726" lon="7.68632">
        <ele>75.127777</ele>
        <time>2024-01-27T13:11:32.656Z</time>
      </trkpt>
      <trkpt lat="43.78579" lon="7.68454">
        <ele>86.215144</ele>
        <time>2024-01-27T13:11:42.691Z</time>
      </trkpt>
      <trkpt lat="43.78605" lon="7.68459">
        <ele>86.923803</ele>
        <time>2024-01-27T13:11:43.670Z</time>
      </trkpt>
      <trkpt lat="43.786" lon="7.68448">
        <ele>87.18667</ele>
        <time>2024-01-27T13:11:47.681Z</time>
      </trkpt>
      <trkpt lat="43.78597" lon="7.68429">
        <ele>87.563519</ele>
        <time>2024-01-27T13:11:53.719Z</time>
      </trkpt>
      <trkpt lat="43.78592" lon="7.68416">
        <ele>85.730753</ele>
        <time>2024-01-27T13:11:55.670Z</time>
      </trkpt>
      <trkpt lat="43.78587" lon="7.68402">
        <ele>83.589569</ele>
        <time>2024-01-27T13:11:57.659Z</time>
      </trkpt>
      <trkpt lat="43.78582" lon="7.68387">
        <ele>81.400013</ele>
        <time>2024-01-27T13:11:59.675Z</time>
      </trkpt>
      <trkpt lat="43.78577" lon="7.68372">
        <ele>79.182242</ele>
        <time>2024-01-27T13:12:01.697Z</time>
      </trkpt>
      <trkpt lat="43.78573" lon="7.68357">
        <ele>76.987091</ele>
        <time>2024-01-27T13:12:03.687Z</time>
      </trkpt>
      <trkpt lat="43.7857" lon="7.68342">
        <ele>74.899622</ele>
        <time>2024-01-27T13:12:05.674Z</time>
      </trkpt>
      <trkpt lat="43.78567" lon="7.68329">
        <ele>73.01311</ele>
        <time>2024-01-27T13:12:07.690Z</time>
      </trkpt>
      <trkpt lat="43.78564" lon="7.68314">
        <ele>70.952284</ele>
        <time>2024-01-27T13:12:10.686Z</time>
      </trkpt>
      <trkpt lat="43.78556" lon="7.68288">
        <ele>67.155033</ele>
        <time>2024-01-27T13:14:59.728Z</time>
      </trkpt>
      <trkpt lat="43.78554" lon="7.68276">
        <ele>65.44577</ele>
        <time>2024-01-27T13:15:02.686Z</time>
      </trkpt>
      <trkpt lat="43.78551" lon="7.6826">
        <ele>63.249481</ele>
        <time>2024-01-27T13:15:05.681Z</time>
      </trkpt>
      <trkpt lat="43.78549" lon="7.68247">
        <ele>61.502732</ele>
        <time>2024-01-27T13:15:07.690Z</time>
      </trkpt>
      <trkpt lat="43.78547" lon="7.68235">
        <ele>59.745978</ele>
        <time>2024-01-27T13:15:09.704Z</time>
      </trkpt>
      <trkpt lat="43.78545" lon="7.68221">
        <ele>57.828241</ele>
        <time>2024-01-27T13:15:11.691Z</time>
      </trkpt>
      <trkpt lat="43.78542" lon="7.68208">
        <ele>55.92347</ele>
        <time>2024-01-27T13:15:13.693Z</time>
      </trkpt>
      <trkpt lat="43.78538" lon="7.68194">
        <ele>53.957519</ele>
        <time>2024-01-27T13:15:15.686Z</time>
      </trkpt>
      <trkpt lat="43.78535" lon="7.68179">
        <ele>53.743154</ele>
        <time>2024-01-27T13:15:17.693Z</time>
      </trkpt>
      <trkpt lat="43.78532" lon="7.68164">
        <ele>53.574961</ele>
        <time>2024-01-27T13:15:19.675Z</time>
      </trkpt>
      <trkpt lat="43.78528" lon="7.6815">
        <ele>53.410908</ele>
        <time>2024-01-27T13:15:21.699Z</time>
      </trkpt>
      <trkpt lat="43.78525" lon="7.68135">
        <ele>53.25358</ele>
        <time>2024-01-27T13:15:23.707Z</time>
      </trkpt>
      <trkpt lat="43.78521" lon="7.68122">
        <ele>53.10078</ele>
        <time>2024-01-27T13:15:25.686Z</time>
      </trkpt>
      <trkpt lat="43.78517" lon="7.68109">
        <ele>52.953753</ele>
        <time>2024-01-27T13:15:27.693Z</time>
      </trkpt>
      <trkpt lat="43.78514" lon="7.68096">
        <ele>52.809182</ele>
        <time>2024-01-27T13:15:29.695Z</time>
      </trkpt>
      <trkpt lat="43.78508" lon="7.68079">
        <ele>52.609876</ele>
        <time>2024-01-27T13:15:32.689Z</time>
      </trkpt>
      <trkpt lat="43.78503" lon="7.68064">
        <ele>52.424619</ele>
        <time>2024-01-27T13:15:35.679Z</time>
      </trkpt>
      <trkpt lat="43.78497" lon="7.68048">
        <ele>52.237602</ele>
        <time>2024-01-27T13:15:38.685Z</time>
      </trkpt>
      <trkpt lat="43.7849" lon="7.68033">
        <ele>52.045645</ele>
        <time>2024-01-27T13:15:41.663Z</time>
      </trkpt>
      <trkpt lat="43.78484" lon="7.68019">
        <ele>51.869183</ele>
        <time>2024-01-27T13:15:44.699Z</time>
      </trkpt>
      <trkpt lat="43.78478" lon="7.68005">
        <ele>51.693629</ele>
        <time>2024-01-27T13:15:47.686Z</time>
      </trkpt>
      <trkpt lat="43.78471" lon="7.67991">
        <ele>51.516874</ele>
        <time>2024-01-27T13:15:50.708Z</time>
      </trkpt>
      <trkpt lat="43.78464" lon="7.67979">
        <ele>51.354472</ele>
        <time>2024-01-27T13:15:53.690Z</time>
      </trkpt>
      <trkpt lat="43.78458" lon="7.67968">
        <ele>51.302356</ele>
        <time>2024-01-27T13:15:56.702Z</time>
      </trkpt>
      <trkpt lat="43.78453" lon="7.67957">
        <ele>51.461218</ele>
        <time>2024-01-27T13:15:59.703Z</time>
      </trkpt>
      <trkpt lat="43.78448" lon="7.67947">
        <ele>51.619044</ele>
        <time>2024-01-27T13:16:02.690Z</time>
      </trkpt>
      <trkpt lat="43.78442" lon="7.67937">
        <ele>51.785067</ele>
        <time>2024-01-27T13:16:05.677Z</time>
      </trkpt>
      <trkpt lat="43.78436" lon="7.67926">
        <ele>51.953336</ele>
        <time>2024-01-27T13:16:08.703Z</time>
      </trkpt>
      <trkpt lat="43.7843" lon="7.67915">
        <ele>52.12038</ele>
        <time>2024-01-27T13:16:11.693Z</time>
      </trkpt>
      <trkpt lat="43.78424" lon="7.67904">
        <ele>52.294639</ele>
        <time>2024-01-27T13:16:14.700Z</time>
      </trkpt>
      <trkpt lat="43.78418" lon="7.67893">
        <ele>52.474858</ele>
        <time>2024-01-27T13:16:17.688Z</time>
      </trkpt>
      <trkpt lat="43.78412" lon="7.67881">
        <ele>52.660164</ele>
        <time>2024-01-27T13:16:20.708Z</time>
      </trkpt>
      <trkpt lat="43.78406" lon="7.67869">
        <ele>52.846493</ele>
        <time>2024-01-27T13:16:23.691Z</time>
      </trkpt>
      <trkpt lat="43.78399" lon="7.67857">
        <ele>53.033473</ele>
        <time>2024-01-27T13:16:26.688Z</time>
      </trkpt>
      <trkpt lat="43.78393" lon="7.67845">
        <ele>53.219803</ele>
        <time>2024-01-27T13:16:29.692Z</time>
      </trkpt>
      <trkpt lat="43.78386" lon="7.67833">
        <ele>53.413539</ele>
        <time>2024-01-27T13:16:32.694Z</time>
      </trkpt>
      <trkpt lat="43.78377" lon="7.67822">
        <ele>53.621413</ele>
        <time>2024-01-27T13:16:35.674Z</time>
      </trkpt>
      <trkpt lat="43.78369" lon="7.67809">
        <ele>53.826359</ele>
        <time>2024-01-27T13:16:38.681Z</time>
      </trkpt>
      <trkpt lat="43.78363" lon="7.67796">
        <ele>54.028124</ele>
        <time>2024-01-27T13:16:41.677Z</time>
      </trkpt>
      <trkpt lat="43.78358" lon="7.67781">
        <ele>54.23222</ele>
        <time>2024-01-27T13:16:44.698Z</time>
      </trkpt>
      <trkpt lat="43.78353" lon="7.6777">
        <ele>54.385637</ele>
        <time>2024-01-27T13:16:46.692Z</time>
      </trkpt>
      <trkpt lat="43.78348" lon="7.67759">
        <ele>54.476237</ele>
        <time>2024-01-27T13:16:48.703Z</time>
      </trkpt>
      <trkpt lat="43.78343" lon="7.67748">
        <ele>54.566329</ele>
        <time>2024-01-27T13:16:50.699Z</time>
      </trkpt>
      <trkpt lat="43.78334" lon="7.67737">
        <ele>54.685163</ele>
        <time>2024-01-27T13:16:53.682Z</time>
      </trkpt>
      <trkpt lat="43.78323" lon="7.6773">
        <ele>54.796151</ele>
        <time>2024-01-27T13:16:56.680Z</time>
      </trkpt>
      <trkpt lat="43.78311" lon="7.67724">
        <ele>54.923697</ele>
        <time>2024-01-27T13:16:59.672Z</time>
      </trkpt>
      <trkpt lat="43.78301" lon="7.67721">
        <ele>55.012461</ele>
        <time>2024-01-27T13:17:01.695Z</time>
      </trkpt>
      <trkpt lat="43.78292" lon="7.67718">
        <ele>55.104315</ele>
        <time>2024-01-27T13:17:03.692Z</time>
      </trkpt>
      <trkpt lat="43.78283" lon="7.67714">
        <ele>55.196707</ele>
        <time>2024-01-27T13:17:05.664Z</time>
      </trkpt>
      <trkpt lat="43.78274" lon="7.6771">
        <ele>55.290006</ele>
        <time>2024-01-27T13:17:07.684Z</time>
      </trkpt>
      <trkpt lat="43.78264" lon="7.67707">
        <ele>55.381746</ele>
        <time>2024-01-27T13:17:09.662Z</time>
      </trkpt>
      <trkpt lat="43.78255" lon="7.67704">
        <ele>55.476252</ele>
        <time>2024-01-27T13:17:11.689Z</time>
      </trkpt>
      <trkpt lat="43.78244" lon="7.67701">
        <ele>55.574922</ele>
        <time>2024-01-27T13:17:13.684Z</time>
      </trkpt>
      <trkpt lat="43.78234" lon="7.67697">
        <ele>55.67347</ele>
        <time>2024-01-27T13:17:15.680Z</time>
      </trkpt>
      <trkpt lat="43.78225" lon="7.67694">
        <ele>55.765475</ele>
        <time>2024-01-27T13:17:17.687Z</time>
      </trkpt>
      <trkpt lat="43.78216" lon="7.6769">
        <ele>55.856129</ele>
        <time>2024-01-27T13:17:19.692Z</time>
      </trkpt>
      <trkpt lat="43.78207" lon="7.67687">
        <ele>55.944109</ele>
        <time>2024-01-27T13:17:21.700Z</time>
      </trkpt>
      <trkpt lat="43.78198" lon="7.67684">
        <ele>56.031247</ele>
        <time>2024-01-27T13:17:23.681Z</time>
      </trkpt>
      <trkpt lat="43.7819" lon="7.67679">
        <ele>56.098672</ele>
        <time>2024-01-27T13:17:25.677Z</time>
      </trkpt>
      <trkpt lat="43.78181" lon="7.67673">
        <ele>56.110129</ele>
        <time>2024-01-27T13:17:27.672Z</time>
      </trkpt>
      <trkpt lat="43.78173" lon="7.67665">
        <ele>56.121622</ele>
        <time>2024-01-27T13:17:29.701Z</time>
      </trkpt>
      <trkpt lat="43.78166" lon="7.67656">
        <ele>56.132764</ele>
        <time>2024-01-27T13:17:31.679Z</time>
      </trkpt>
      <trkpt lat="43.78158" lon="7.67647">
        <ele>56.143989</ele>
        <time>2024-01-27T13:17:33.685Z</time>
      </trkpt>
      <trkpt lat="43.78151" lon="7.67639">
        <ele>56.155163</ele>
        <time>2024-01-27T13:17:35.666Z</time>
      </trkpt>
      <trkpt lat="43.78144" lon="7.67631">
        <ele>56.166082</ele>
        <time>2024-01-27T13:17:37.701Z</time>
      </trkpt>
      <trkpt lat="43.78134" lon="7.67619">
        <ele>56.180868</ele>
        <time>2024-01-27T13:17:40.680Z</time>
      </trkpt>
      <trkpt lat="43.78125" lon="7.67608">
        <ele>56.195074</ele>
        <time>2024-01-27T13:17:43.704Z</time>
      </trkpt>
      <trkpt lat="43.78116" lon="7.67597">
        <ele>56.209234</ele>
        <time>2024-01-27T13:17:46.691Z</time>
      </trkpt>
      <trkpt lat="43.78107" lon="7.67586">
        <ele>56.223449</ele>
        <time>2024-01-27T13:17:49.688Z</time>
      </trkpt>
      <trkpt lat="43.78099" lon="7.67573">
        <ele>56.23738</ele>
        <time>2024-01-27T13:17:52.702Z</time>
      </trkpt>
      <trkpt lat="43.7809" lon="7.67562">
        <ele>56.251681</ele>
        <time>2024-01-27T13:17:55.675Z</time>
      </trkpt>
      <trkpt lat="43.7808" lon="7.67554">
        <ele>56.265143</ele>
        <time>2024-01-27T13:17:58.687Z</time>
      </trkpt>
      <trkpt lat="43.78071" lon="7.67546">
        <ele>56.2782</ele>
        <time>2024-01-27T13:18:01.700Z</time>
      </trkpt>
      <trkpt lat="43.78061" lon="7.67538">
        <ele>56.291626</ele>
        <time>2024-01-27T13:18:04.684Z</time>
      </trkpt>
      <trkpt lat="43.7805" lon="7.67532">
        <ele>56.305678</ele>
        <time>2024-01-27T13:18:07.692Z</time>
      </trkpt>
      <trkpt lat="43.78039" lon="7.67524">
        <ele>56.403897</ele>
        <time>2024-01-27T13:18:10.689Z</time>
      </trkpt>
      <trkpt lat="43.78028" lon="7.67517">
        <ele>56.503671</ele>
        <time>2024-01-27T13:18:13.695Z</time>
      </trkpt>
      <trkpt lat="43.78018" lon="7.67509">
        <ele>56.601361</ele>
        <time>2024-01-27T13:18:16.685Z</time>
      </trkpt>
      <trkpt lat="43.78008" lon="7.67502">
        <ele>56.700433</ele>
        <time>2024-01-27T13:18:19.689Z</time>
      </trkpt>
      <trkpt lat="43.77997" lon="7.67495">
        <ele>56.79652</ele>
        <time>2024-01-27T13:18:22.694Z</time>
      </trkpt>
      <trkpt lat="43.77988" lon="7.67486">
        <ele>56.891368</ele>
        <time>2024-01-27T13:18:25.676Z</time>
      </trkpt>
      <trkpt lat="43.77978" lon="7.67479">
        <ele>56.98532</ele>
        <time>2024-01-27T13:18:28.684Z</time>
      </trkpt>
      <trkpt lat="43.77968" lon="7.67473">
        <ele>57.077716</ele>
        <time>2024-01-27T13:18:31.688Z</time>
      </trkpt>
      <trkpt lat="43.77959" lon="7.67466">
        <ele>57.165592</ele>
        <time>2024-01-27T13:18:34.691Z</time>
      </trkpt>
      <trkpt lat="43.7795" lon="7.6746">
        <ele>57.24937</ele>
        <time>2024-01-27T13:18:37.692Z</time>
      </trkpt>
      <trkpt lat="43.7794" lon="7.67457">
        <ele>57.336778</ele>
        <time>2024-01-27T13:18:40.697Z</time>
      </trkpt>
      <trkpt lat="43.77929" lon="7.67454">
        <ele>57.43083</ele>
        <time>2024-01-27T13:18:43.667Z</time>
      </trkpt>
      <trkpt lat="43.77917" lon="7.67451">
        <ele>57.532971</ele>
        <time>2024-01-27T13:18:46.696Z</time>
      </trkpt>
      <trkpt lat="43.77908" lon="7.6745">
        <ele>57.608853</ele>
        <time>2024-01-27T13:18:48.703Z</time>
      </trkpt>
      <trkpt lat="43.77894" lon="7.67449">
        <ele>57.721736</ele>
        <time>2024-01-27T13:18:51.758Z</time>
      </trkpt>
      <trkpt lat="43.77881" lon="7.67448">
        <ele>57.801171</ele>
        <time>2024-01-27T13:18:54.672Z</time>
      </trkpt>
      <trkpt lat="43.77867" lon="7.67445">
        <ele>57.684298</ele>
        <time>2024-01-27T13:18:57.698Z</time>
      </trkpt>
      <trkpt lat="43.77858" lon="7.67442">
        <ele>57.60365</ele>
        <time>2024-01-27T13:18:59.691Z</time>
      </trkpt>
      <trkpt lat="43.77849" lon="7.67438">
        <ele>57.523444</ele>
        <time>2024-01-27T13:19:01.697Z</time>
      </trkpt>
      <trkpt lat="43.7784" lon="7.67434">
        <ele>57.438063</ele>
        <time>2024-01-27T13:19:03.702Z</time>
      </trkpt>
      <trkpt lat="43.77831" lon="7.67427">
        <ele>57.349272</ele>
        <time>2024-01-27T13:19:05.680Z</time>
      </trkpt>
      <trkpt lat="43.77822" lon="7.67419">
        <ele>57.26218</ele>
        <time>2024-01-27T13:19:07.699Z</time>
      </trkpt>
      <trkpt lat="43.77814" lon="7.67412">
        <ele>57.177666</ele>
        <time>2024-01-27T13:19:09.691Z</time>
      </trkpt>
      <trkpt lat="43.77806" lon="7.67404">
        <ele>57.091713</ele>
        <time>2024-01-27T13:19:11.678Z</time>
      </trkpt>
      <trkpt lat="43.77798" lon="7.67396">
        <ele>57.008253</ele>
        <time>2024-01-27T13:19:13.691Z</time>
      </trkpt>
      <trkpt lat="43.77789" lon="7.6739">
        <ele>56.92526</ele>
        <time>2024-01-27T13:19:15.703Z</time>
      </trkpt>
      <trkpt lat="43.77778" lon="7.67379">
        <ele>56.811583</ele>
        <time>2024-01-27T13:19:18.697Z</time>
      </trkpt>
      <trkpt lat="43.77769" lon="7.67366">
        <ele>56.697491</ele>
        <time>2024-01-27T13:19:21.690Z</time>
      </trkpt>
      <trkpt lat="43.77762" lon="7.67351">
        <ele>56.586993</ele>
        <time>2024-01-27T13:19:24.676Z</time>
      </trkpt>
      <trkpt lat="43.77759" lon="7.67335">
        <ele>56.489352</ele>
        <time>2024-01-27T13:19:27.703Z</time>
      </trkpt>
      <trkpt lat="43.7776" lon="7.67323">
        <ele>56.409559</ele>
        <time>2024-01-27T13:19:30.686Z</time>
      </trkpt>
      <trkpt lat="43.77764" lon="7.67309">
        <ele>56.321173</ele>
        <time>2024-01-27T13:19:34.700Z</time>
      </trkpt>
      <trkpt lat="43.77769" lon="7.67298">
        <ele>56.218439</ele>
        <time>2024-01-27T13:19:38.676Z</time>
      </trkpt>
      <trkpt lat="43.77759" lon="7.67307">
        <ele>56.054171</ele>
        <time>2024-01-27T13:20:01.717Z</time>
      </trkpt>
      <trkpt lat="43.77756" lon="7.67319">
        <ele>55.924315</ele>
        <time>2024-01-27T13:20:04.700Z</time>
      </trkpt>
      <trkpt lat="43.77755" lon="7.67335">
        <ele>55.760126</ele>
        <time>2024-01-27T13:20:08.696Z</time>
      </trkpt>
      <trkpt lat="43.77757" lon="7.67351">
        <ele>55.588765</ele>
        <time>2024-01-27T13:20:12.707Z</time>
      </trkpt>
      <trkpt lat="43.7776" lon="7.67363">
        <ele>55.455993</ele>
        <time>2024-01-27T13:20:15.688Z</time>
      </trkpt>
      <trkpt lat="43.77763" lon="7.67376">
        <ele>55.312346</ele>
        <time>2024-01-27T13:20:19.689Z</time>
      </trkpt>
      <trkpt lat="43.77753" lon="7.67377">
        <ele>55.177206</ele>
        <time>2024-01-27T13:20:22.679Z</time>
      </trkpt>
      <trkpt lat="43.77743" lon="7.67367">
        <ele>54.994003</ele>
        <time>2024-01-27T13:20:25.682Z</time>
      </trkpt>
      <trkpt lat="43.77736" lon="7.67357">
        <ele>54.856627</ele>
        <time>2024-01-27T13:20:27.690Z</time>
      </trkpt>
      <trkpt lat="43.77731" lon="7.67345">
        <ele>54.706925</ele>
        <time>2024-01-27T13:20:29.674Z</time>
      </trkpt>
      <trkpt lat="43.77727" lon="7.6733">
        <ele>54.547297</ele>
        <time>2024-01-27T13:20:31.684Z</time>
      </trkpt>
      <trkpt lat="43.77725" lon="7.67316">
        <ele>54.392228</ele>
        <time>2024-01-27T13:20:33.681Z</time>
      </trkpt>
      <trkpt lat="43.77716" lon="7.67307">
        <ele>54.244243</ele>
        <time>2024-01-27T13:20:37.692Z</time>
      </trkpt>
      <trkpt lat="43.77708" lon="7.67299">
        <ele>54.09763</ele>
        <time>2024-01-27T13:20:43.680Z</time>
      </trkpt>
      <trkpt lat="43.77705" lon="7.67284">
        <ele>53.935071</ele>
        <time>2024-01-27T13:20:47.695Z</time>
      </trkpt>
      <trkpt lat="43.77701" lon="7.67271">
        <ele>53.792783</ele>
        <time>2024-01-27T13:20:50.688Z</time>
      </trkpt>
      <trkpt lat="43.77699" lon="7.67256">
        <ele>53.631713</ele>
        <time>2024-01-27T13:20:53.700Z</time>
      </trkpt>
      <trkpt lat="43.77701" lon="7.67237">
        <ele>53.410282</ele>
        <time>2024-01-27T13:20:56.682Z</time>
      </trkpt>
      <trkpt lat="43.77704" lon="7.67224">
        <ele>53.251143</ele>
        <time>2024-01-27T13:20:58.686Z</time>
      </trkpt>
      <trkpt lat="43.77704" lon="7.67209">
        <ele>53.078812</ele>
        <time>2024-01-27T13:21:00.682Z</time>
      </trkpt>
      <trkpt lat="43.77704" lon="7.67194">
        <ele>52.903031</ele>
        <time>2024-01-27T13:21:02.687Z</time>
      </trkpt>
      <trkpt lat="43.77704" lon="7.67179">
        <ele>52.731963</ele>
        <time>2024-01-27T13:21:04.693Z</time>
      </trkpt>
      <trkpt lat="43.77706" lon="7.67166">
        <ele>52.572768</ele>
        <time>2024-01-27T13:21:06.668Z</time>
      </trkpt>
      <trkpt lat="43.77707" lon="7.67151">
        <ele>52.407243</ele>
        <time>2024-01-27T13:21:08.762Z</time>
      </trkpt>
      <trkpt lat="43.77709" lon="7.67138">
        <ele>52.245206</ele>
        <time>2024-01-27T13:21:10.678Z</time>
      </trkpt>
      <trkpt lat="43.7771" lon="7.67125">
        <ele>52.094417</ele>
        <time>2024-01-27T13:21:12.689Z</time>
      </trkpt>
      <trkpt lat="43.77712" lon="7.67112">
        <ele>51.94783</ele>
        <time>2024-01-27T13:21:14.688Z</time>
      </trkpt>
      <trkpt lat="43.77713" lon="7.67094">
        <ele>51.741634</ele>
        <time>2024-01-27T13:21:17.694Z</time>
      </trkpt>
      <trkpt lat="43.77714" lon="7.67077">
        <ele>51.537971</ele>
        <time>2024-01-27T13:21:20.692Z</time>
      </trkpt>
      <trkpt lat="43.77717" lon="7.67063">
        <ele>51.381353</ele>
        <time>2024-01-27T13:21:23.691Z</time>
      </trkpt>
      <trkpt lat="43.77714" lon="7.67049">
        <ele>51.204266</ele>
        <time>2024-01-27T13:21:27.697Z</time>
      </trkpt>
      <trkpt lat="43.77716" lon="7.67037">
        <ele>51.057551</ele>
        <time>2024-01-27T13:21:30.699Z</time>
      </trkpt>
      <trkpt lat="43.77717" lon="7.67023">
        <ele>50.903851</ele>
        <time>2024-01-27T13:21:33.686Z</time>
      </trkpt>
      <trkpt lat="43.77718" lon="7.67008">
        <ele>50.781735</ele>
        <time>2024-01-27T13:21:36.691Z</time>
      </trkpt>
      <trkpt lat="43.77719" lon="7.66993">
        <ele>50.704248</ele>
        <time>2024-01-27T13:21:39.709Z</time>
      </trkpt>
      <trkpt lat="43.7772" lon="7.66977">
        <ele>50.62618</ele>
        <time>2024-01-27T13:21:42.698Z</time>
      </trkpt>
      <trkpt lat="43.77721" lon="7.66962">
        <ele>50.548195</ele>
        <time>2024-01-27T13:21:45.688Z</time>
      </trkpt>
      <trkpt lat="43.77722" lon="7.66948">
        <ele>50.47794</ele>
        <time>2024-01-27T13:21:48.689Z</time>
      </trkpt>
      <trkpt lat="43.77722" lon="7.66934">
        <ele>50.406188</ele>
        <time>2024-01-27T13:21:51.716Z</time>
      </trkpt>
      <trkpt lat="43.77724" lon="7.66918">
        <ele>50.328253</ele>
        <time>2024-01-27T13:21:54.689Z</time>
      </trkpt>
      <trkpt lat="43.77726" lon="7.66903">
        <ele>50.250813</ele>
        <time>2024-01-27T13:21:57.688Z</time>
      </trkpt>
      <trkpt lat="43.77728" lon="7.66889">
        <ele>50.178567</ele>
        <time>2024-01-27T13:22:00.686Z</time>
      </trkpt>
      <trkpt lat="43.77728" lon="7.66875">
        <ele>50.10753</ele>
        <time>2024-01-27T13:22:03.674Z</time>
      </trkpt>
      <trkpt lat="43.7773" lon="7.6686">
        <ele>50.033548</ele>
        <time>2024-01-27T13:22:06.701Z</time>
      </trkpt>
      <trkpt lat="43.77732" lon="7.66847">
        <ele>49.967686</ele>
        <time>2024-01-27T13:22:09.697Z</time>
      </trkpt>
      <trkpt lat="43.77733" lon="7.66834">
        <ele>49.901827</ele>
        <time>2024-01-27T13:22:12.692Z</time>
      </trkpt>
      <trkpt lat="43.77735" lon="7.66821">
        <ele>49.832395</ele>
        <time>2024-01-27T13:22:15.685Z</time>
      </trkpt>
      <trkpt lat="43.77736" lon="7.66806">
        <ele>49.761274</ele>
        <time>2024-01-27T13:22:18.708Z</time>
      </trkpt>
      <trkpt lat="43.77737" lon="7.66793">
        <ele>49.692645</ele>
        <time>2024-01-27T13:22:21.703Z</time>
      </trkpt>
      <trkpt lat="43.77741" lon="7.66778">
        <ele>49.61289</ele>
        <time>2024-01-27T13:22:25.679Z</time>
      </trkpt>
      <trkpt lat="43.77744" lon="7.66765">
        <ele>49.573838</ele>
        <time>2024-01-27T13:22:28.693Z</time>
      </trkpt>
      <trkpt lat="43.77745" lon="7.66752">
        <ele>49.574104</ele>
        <time>2024-01-27T13:22:31.686Z</time>
      </trkpt>
      <trkpt lat="43.77746" lon="7.66737">
        <ele>49.574394</ele>
        <time>2024-01-27T13:22:34.678Z</time>
      </trkpt>
      <trkpt lat="43.77747" lon="7.66723">
        <ele>49.574684</ele>
        <time>2024-01-27T13:22:37.699Z</time>
      </trkpt>
      <trkpt lat="43.77747" lon="7.66708">
        <ele>49.574978</ele>
        <time>2024-01-27T13:22:40.705Z</time>
      </trkpt>
      <trkpt lat="43.77749" lon="7.66694">
        <ele>49.575263</ele>
        <time>2024-01-27T13:22:43.697Z</time>
      </trkpt>
      <trkpt lat="43.7775" lon="7.66679">
        <ele>49.575561</ele>
        <time>2024-01-27T13:22:46.706Z</time>
      </trkpt>
      <trkpt lat="43.77751" lon="7.66665">
        <ele>49.575844</ele>
        <time>2024-01-27T13:22:49.711Z</time>
      </trkpt>
      <trkpt lat="43.77753" lon="7.6665">
        <ele>49.576141</ele>
        <time>2024-01-27T13:22:52.687Z</time>
      </trkpt>
      <trkpt lat="43.77755" lon="7.66636">
        <ele>49.576421</ele>
        <time>2024-01-27T13:22:55.694Z</time>
      </trkpt>
      <trkpt lat="43.77756" lon="7.66622">
        <ele>49.576709</ele>
        <time>2024-01-27T13:22:58.703Z</time>
      </trkpt>
      <trkpt lat="43.77758" lon="7.66607">
        <ele>49.577002</ele>
        <time>2024-01-27T13:23:01.696Z</time>
      </trkpt>
      <trkpt lat="43.7776" lon="7.66593">
        <ele>49.577288</ele>
        <time>2024-01-27T13:23:04.690Z</time>
      </trkpt>
      <trkpt lat="43.77762" lon="7.66579">
        <ele>49.577571</ele>
        <time>2024-01-27T13:23:07.690Z</time>
      </trkpt>
      <trkpt lat="43.77766" lon="7.66567">
        <ele>49.577835</ele>
        <time>2024-01-27T13:23:10.684Z</time>
      </trkpt>
      <trkpt lat="43.77768" lon="7.66554">
        <ele>49.578103</ele>
        <time>2024-01-27T13:23:13.700Z</time>
      </trkpt>
      <trkpt lat="43.7777" lon="7.6654">
        <ele>49.57838</ele>
        <time>2024-01-27T13:23:16.692Z</time>
      </trkpt>
      <trkpt lat="43.77773" lon="7.66526">
        <ele>49.578663</ele>
        <time>2024-01-27T13:23:19.696Z</time>
      </trkpt>
      <trkpt lat="43.77776" lon="7.66513">
        <ele>49.573901</ele>
        <time>2024-01-27T13:23:22.690Z</time>
      </trkpt>
      <trkpt lat="43.77778" lon="7.66501">
        <ele>49.568992</ele>
        <time>2024-01-27T13:23:25.714Z</time>
      </trkpt>
      <trkpt lat="43.77782" lon="7.66487">
        <ele>49.563818</ele>
        <time>2024-01-27T13:23:28.692Z</time>
      </trkpt>
      <trkpt lat="43.77786" lon="7.66475">
        <ele>49.558628</ele>
        <time>2024-01-27T13:23:31.695Z</time>
      </trkpt>
      <trkpt lat="43.77789" lon="7.66462">
        <ele>49.553593</ele>
        <time>2024-01-27T13:23:34.684Z</time>
      </trkpt>
      <trkpt lat="43.77791" lon="7.66449">
        <ele>49.548615</ele>
        <time>2024-01-27T13:23:37.704Z</time>
      </trkpt>
      <trkpt lat="43.77794" lon="7.66434">
        <ele>49.543015</ele>
        <time>2024-01-27T13:23:41.699Z</time>
      </trkpt>
      <trkpt lat="43.77797" lon="7.66422">
        <ele>49.538239</ele>
        <time>2024-01-27T13:23:44.710Z</time>
      </trkpt>
      <trkpt lat="43.778" lon="7.66409">
        <ele>49.533342</ele>
        <time>2024-01-27T13:23:47.701Z</time>
      </trkpt>
      <trkpt lat="43.77803" lon="7.66396">
        <ele>49.528192</ele>
        <time>2024-01-27T13:23:50.687Z</time>
      </trkpt>
      <trkpt lat="43.77804" lon="7.66382">
        <ele>49.523004</ele>
        <time>2024-01-27T13:23:53.692Z</time>
      </trkpt>
      <trkpt lat="43.77811" lon="7.66371">
        <ele>49.517699</ele>
        <time>2024-01-27T13:23:56.702Z</time>
      </trkpt>
      <trkpt lat="43.77818" lon="7.66362">
        <ele>49.512641</ele>
        <time>2024-01-27T13:23:59.683Z</time>
      </trkpt>
      <trkpt lat="43.77821" lon="7.6635">
        <ele>49.507988</ele>
        <time>2024-01-27T13:24:02.694Z</time>
      </trkpt>
      <trkpt lat="43.77825" lon="7.66336">
        <ele>49.502588</ele>
        <time>2024-01-27T13:24:05.697Z</time>
      </trkpt>
      <trkpt lat="43.77828" lon="7.6632">
        <ele>49.496423</ele>
        <time>2024-01-27T13:24:08.712Z</time>
      </trkpt>
      <trkpt lat="43.77832" lon="7.66305">
        <ele>49.490514</ele>
        <time>2024-01-27T13:24:11.699Z</time>
      </trkpt>
      <trkpt lat="43.77835" lon="7.66289">
        <ele>49.530253</ele>
        <time>2024-01-27T13:24:14.703Z</time>
      </trkpt>
      <trkpt lat="43.77838" lon="7.66274">
        <ele>49.644318</ele>
        <time>2024-01-27T13:24:17.712Z</time>
      </trkpt>
      <trkpt lat="43.77842" lon="7.66259">
        <ele>49.758994</ele>
        <time>2024-01-27T13:24:20.714Z</time>
      </trkpt>
      <trkpt lat="43.77847" lon="7.66243">
        <ele>49.874357</ele>
        <time>2024-01-27T13:24:23.691Z</time>
      </trkpt>
      <trkpt lat="43.7785" lon="7.66228">
        <ele>49.98677</ele>
        <time>2024-01-27T13:24:26.697Z</time>
      </trkpt>
      <trkpt lat="43.77854" lon="7.66213">
        <ele>50.104122</ele>
        <time>2024-01-27T13:24:29.683Z</time>
      </trkpt>
      <trkpt lat="43.77858" lon="7.66197">
        <ele>50.223435</ele>
        <time>2024-01-27T13:24:32.683Z</time>
      </trkpt>
      <trkpt lat="43.77862" lon="7.66183">
        <ele>50.332709</ele>
        <time>2024-01-27T13:24:35.674Z</time>
      </trkpt>
      <trkpt lat="43.77867" lon="7.66168">
        <ele>50.448951</ele>
        <time>2024-01-27T13:24:38.689Z</time>
      </trkpt>
      <trkpt lat="43.77871" lon="7.66153">
        <ele>50.556968</ele>
        <time>2024-01-27T13:24:41.690Z</time>
      </trkpt>
      <trkpt lat="43.77874" lon="7.66138">
        <ele>50.670439</ele>
        <time>2024-01-27T13:24:44.708Z</time>
      </trkpt>
      <trkpt lat="43.77878" lon="7.66122">
        <ele>50.785665</ele>
        <time>2024-01-27T13:24:47.684Z</time>
      </trkpt>
      <trkpt lat="43.77881" lon="7.66107">
        <ele>50.899429</ele>
        <time>2024-01-27T13:24:50.699Z</time>
      </trkpt>
      <trkpt lat="43.77882" lon="7.66092">
        <ele>51.01074</ele>
        <time>2024-01-27T13:24:53.685Z</time>
      </trkpt>
      <trkpt lat="43.77881" lon="7.66076">
        <ele>51.123083</ele>
        <time>2024-01-27T13:24:56.684Z</time>
      </trkpt>
      <trkpt lat="43.7788" lon="7.66059">
        <ele>51.241949</ele>
        <time>2024-01-27T13:24:59.692Z</time>
      </trkpt>
      <trkpt lat="43.77885" lon="7.66044">
        <ele>51.246092</ele>
        <time>2024-01-27T13:25:02.698Z</time>
      </trkpt>
      <trkpt lat="43.77889" lon="7.66029">
        <ele>51.238831</ele>
        <time>2024-01-27T13:25:05.677Z</time>
      </trkpt>
      <trkpt lat="43.77893" lon="7.66014">
        <ele>51.231547</ele>
        <time>2024-01-27T13:25:08.675Z</time>
      </trkpt>
      <trkpt lat="43.77897" lon="7.65998">
        <ele>51.223779</ele>
        <time>2024-01-27T13:25:11.688Z</time>
      </trkpt>
      <trkpt lat="43.77901" lon="7.65981">
        <ele>51.215817</ele>
        <time>2024-01-27T13:25:14.688Z</time>
      </trkpt>
      <trkpt lat="43.77904" lon="7.65964">
        <ele>51.207905</ele>
        <time>2024-01-27T13:25:17.688Z</time>
      </trkpt>
      <trkpt lat="43.77908" lon="7.65947">
        <ele>51.199852</ele>
        <time>2024-01-27T13:25:20.701Z</time>
      </trkpt>
      <trkpt lat="43.77913" lon="7.6593">
        <ele>51.191839</ele>
        <time>2024-01-27T13:25:23.700Z</time>
      </trkpt>
      <trkpt lat="43.77916" lon="7.65913">
        <ele>51.183975</ele>
        <time>2024-01-27T13:25:26.688Z</time>
      </trkpt>
      <trkpt lat="43.7792" lon="7.65897">
        <ele>51.176222</ele>
        <time>2024-01-27T13:25:29.697Z</time>
      </trkpt>
      <trkpt lat="43.77924" lon="7.6588">
        <ele>51.168241</ele>
        <time>2024-01-27T13:25:32.686Z</time>
      </trkpt>
      <trkpt lat="43.77928" lon="7.65863">
        <ele>51.16037</ele>
        <time>2024-01-27T13:25:35.672Z</time>
      </trkpt>
      <trkpt lat="43.77933" lon="7.65847">
        <ele>51.152561</ele>
        <time>2024-01-27T13:25:38.688Z</time>
      </trkpt>
      <trkpt lat="43.77936" lon="7.6583">
        <ele>51.144591</ele>
        <time>2024-01-27T13:25:41.707Z</time>
      </trkpt>
      <trkpt lat="43.77939" lon="7.65812">
        <ele>51.134661</ele>
        <time>2024-01-27T13:25:44.704Z</time>
      </trkpt>
      <trkpt lat="43.77943" lon="7.65795">
        <ele>51.123266</ele>
        <time>2024-01-27T13:25:47.689Z</time>
      </trkpt>
      <trkpt lat="43.77948" lon="7.65779">
        <ele>51.112192</ele>
        <time>2024-01-27T13:25:50.683Z</time>
      </trkpt>
      <trkpt lat="43.77952" lon="7.65763">
        <ele>51.101453</ele>
        <time>2024-01-27T13:25:53.686Z</time>
      </trkpt>
      <trkpt lat="43.77956" lon="7.65747">
        <ele>51.090544</ele>
        <time>2024-01-27T13:25:56.690Z</time>
      </trkpt>
      <trkpt lat="43.77959" lon="7.65731">
        <ele>51.07999</ele>
        <time>2024-01-27T13:25:59.708Z</time>
      </trkpt>
      <trkpt lat="43.77962" lon="7.65714">
        <ele>51.069195</ele>
        <time>2024-01-27T13:26:02.691Z</time>
      </trkpt>
      <trkpt lat="43.77965" lon="7.65698">
        <ele>51.05838</ele>
        <time>2024-01-27T13:26:05.677Z</time>
      </trkpt>
      <trkpt lat="43.7797" lon="7.65682">
        <ele>51.04773</ele>
        <time>2024-01-27T13:26:08.687Z</time>
      </trkpt>
      <trkpt lat="43.77975" lon="7.65666">
        <ele>51.036999</ele>
        <time>2024-01-27T13:26:11.701Z</time>
      </trkpt>
      <trkpt lat="43.77978" lon="7.65651">
        <ele>51.02644</ele>
        <time>2024-01-27T13:26:14.688Z</time>
      </trkpt>
      <trkpt lat="43.77981" lon="7.65634">
        <ele>51.015748</ele>
        <time>2024-01-27T13:26:17.689Z</time>
      </trkpt>
      <trkpt lat="43.77985" lon="7.65618">
        <ele>51.004838</ele>
        <time>2024-01-27T13:26:20.695Z</time>
      </trkpt>
      <trkpt lat="43.7799" lon="7.65602">
        <ele>50.994063</ele>
        <time>2024-01-27T13:26:23.683Z</time>
      </trkpt>
      <trkpt lat="43.77993" lon="7.65585">
        <ele>50.982194</ele>
        <time>2024-01-27T13:26:26.679Z</time>
      </trkpt>
      <trkpt lat="43.77997" lon="7.6557">
        <ele>50.906892</ele>
        <time>2024-01-27T13:26:29.699Z</time>
      </trkpt>
      <trkpt lat="43.78001" lon="7.65555">
        <ele>50.83071</ele>
        <time>2024-01-27T13:26:32.699Z</time>
      </trkpt>
      <trkpt lat="43.78005" lon="7.65539">
        <ele>50.752321</ele>
        <time>2024-01-27T13:26:35.685Z</time>
      </trkpt>
      <trkpt lat="43.78008" lon="7.65524">
        <ele>50.679429</ele>
        <time>2024-01-27T13:26:38.689Z</time>
      </trkpt>
      <trkpt lat="43.7801" lon="7.65508">
        <ele>50.605342</ele>
        <time>2024-01-27T13:26:41.699Z</time>
      </trkpt>
      <trkpt lat="43.78015" lon="7.65493">
        <ele>50.529598</ele>
        <time>2024-01-27T13:26:44.687Z</time>
      </trkpt>
      <trkpt lat="43.78018" lon="7.65478">
        <ele>50.457369</ele>
        <time>2024-01-27T13:26:47.697Z</time>
      </trkpt>
      <trkpt lat="43.78022" lon="7.65464">
        <ele>50.387249</ele>
        <time>2024-01-27T13:26:50.690Z</time>
      </trkpt>
      <trkpt lat="43.78028" lon="7.65454">
        <ele>50.323543</ele>
        <time>2024-01-27T13:26:53.680Z</time>
      </trkpt>
      <trkpt lat="43.78038" lon="7.65453">
        <ele>50.263507</ele>
        <time>2024-01-27T13:26:56.690Z</time>
      </trkpt>
      <trkpt lat="43.78043" lon="7.65443">
        <ele>50.205372</ele>
        <time>2024-01-27T13:26:59.682Z</time>
      </trkpt>
      <trkpt lat="43.78046" lon="7.6543">
        <ele>50.139634</ele>
        <time>2024-01-27T13:27:02.681Z</time>
      </trkpt>
      <trkpt lat="43.7805" lon="7.65417">
        <ele>50.073743</ele>
        <time>2024-01-27T13:27:05.691Z</time>
      </trkpt>
      <trkpt lat="43.78053" lon="7.65402">
        <ele>50.004439</ele>
        <time>2024-01-27T13:27:08.699Z</time>
      </trkpt>
      <trkpt lat="43.78056" lon="7.65389">
        <ele>49.940281</ele>
        <time>2024-01-27T13:27:12.689Z</time>
      </trkpt>
      <trkpt lat="43.7806" lon="7.65377">
        <ele>49.878346</ele>
        <time>2024-01-27T13:27:15.682Z</time>
      </trkpt>
      <trkpt lat="43.78065" lon="7.65362">
        <ele>49.851482</ele>
        <time>2024-01-27T13:27:18.681Z</time>
      </trkpt>
      <trkpt lat="43.78068" lon="7.65349">
        <ele>49.928835</ele>
        <time>2024-01-27T13:27:21.678Z</time>
      </trkpt>
      <trkpt lat="43.78071" lon="7.65334">
        <ele>50.01041</ele>
        <time>2024-01-27T13:27:24.685Z</time>
      </trkpt>
      <trkpt lat="43.78074" lon="7.65321">
        <ele>50.086317</ele>
        <time>2024-01-27T13:27:27.688Z</time>
      </trkpt>
      <trkpt lat="43.78077" lon="7.65309">
        <ele>50.15753</ele>
        <time>2024-01-27T13:27:30.700Z</time>
      </trkpt>
      <trkpt lat="43.7808" lon="7.65296">
        <ele>50.228463</ele>
        <time>2024-01-27T13:27:33.701Z</time>
      </trkpt>
      <trkpt lat="43.78084" lon="7.65283">
        <ele>50.306067</ele>
        <time>2024-01-27T13:27:36.680Z</time>
      </trkpt>
      <trkpt lat="43.78088" lon="7.65269">
        <ele>50.390994</ele>
        <time>2024-01-27T13:27:39.678Z</time>
      </trkpt>
      <trkpt lat="43.78093" lon="7.65254">
        <ele>50.480332</ele>
        <time>2024-01-27T13:27:42.689Z</time>
      </trkpt>
      <trkpt lat="43.78097" lon="7.6524">
        <ele>50.561148</ele>
        <time>2024-01-27T13:27:45.675Z</time>
      </trkpt>
      <trkpt lat="43.781" lon="7.65226">
        <ele>50.641186</ele>
        <time>2024-01-27T13:27:48.710Z</time>
      </trkpt>
      <trkpt lat="43.78104" lon="7.65208">
        <ele>50.743451</ele>
        <time>2024-01-27T13:27:51.671Z</time>
      </trkpt>
      <trkpt lat="43.78109" lon="7.65195">
        <ele>50.8242</ele>
        <time>2024-01-27T13:27:53.689Z</time>
      </trkpt>
      <trkpt lat="43.78112" lon="7.65182">
        <ele>50.901036</ele>
        <time>2024-01-27T13:27:55.695Z</time>
      </trkpt>
      <trkpt lat="43.78116" lon="7.65169">
        <ele>50.975039</ele>
        <time>2024-01-27T13:27:57.693Z</time>
      </trkpt>
      <trkpt lat="43.78119" lon="7.65157">
        <ele>51.046487</ele>
        <time>2024-01-27T13:27:59.689Z</time>
      </trkpt>
      <trkpt lat="43.78123" lon="7.65145">
        <ele>51.118579</ele>
        <time>2024-01-27T13:28:01.710Z</time>
      </trkpt>
      <trkpt lat="43.78126" lon="7.65133">
        <ele>51.179767</ele>
        <time>2024-01-27T13:28:03.698Z</time>
      </trkpt>
      <trkpt lat="43.78129" lon="7.6512">
        <ele>51.089949</ele>
        <time>2024-01-27T13:28:05.690Z</time>
      </trkpt>
      <trkpt lat="43.78133" lon="7.65107">
        <ele>51.001296</ele>
        <time>2024-01-27T13:28:07.693Z</time>
      </trkpt>
      <trkpt lat="43.78135" lon="7.65095">
        <ele>50.918554</ele>
        <time>2024-01-27T13:28:09.687Z</time>
      </trkpt>
      <trkpt lat="43.78139" lon="7.65083">
        <ele>50.833061</ele>
        <time>2024-01-27T13:28:11.690Z</time>
      </trkpt>
      <trkpt lat="43.78141" lon="7.6507">
        <ele>50.748329</ele>
        <time>2024-01-27T13:28:13.700Z</time>
      </trkpt>
      <trkpt lat="43.78144" lon="7.65058">
        <ele>50.663338</ele>
        <time>2024-01-27T13:28:15.676Z</time>
      </trkpt>
      <trkpt lat="43.78146" lon="7.65046">
        <ele>50.578689</ele>
        <time>2024-01-27T13:28:17.691Z</time>
      </trkpt>
      <trkpt lat="43.78151" lon="7.65028">
        <ele>50.456785</ele>
        <time>2024-01-27T13:28:20.710Z</time>
      </trkpt>
      <trkpt lat="43.78155" lon="7.6501">
        <ele>50.334263</ele>
        <time>2024-01-27T13:28:23.691Z</time>
      </trkpt>
      <trkpt lat="43.78158" lon="7.64999">
        <ele>50.251246</ele>
        <time>2024-01-27T13:28:25.689Z</time>
      </trkpt>
      <trkpt lat="43.78161" lon="7.64986">
        <ele>50.165989</ele>
        <time>2024-01-27T13:28:27.690Z</time>
      </trkpt>
      <trkpt lat="43.78164" lon="7.64974">
        <ele>50.082609</ele>
        <time>2024-01-27T13:28:29.687Z</time>
      </trkpt>
      <trkpt lat="43.78167" lon="7.64962">
        <ele>49.996169</ele>
        <time>2024-01-27T13:28:31.705Z</time>
      </trkpt>
      <trkpt lat="43.7817" lon="7.64949">
        <ele>49.910991</ele>
        <time>2024-01-27T13:28:33.691Z</time>
      </trkpt>
      <trkpt lat="43.78173" lon="7.64937">
        <ele>49.823961</ele>
        <time>2024-01-27T13:28:35.683Z</time>
      </trkpt>
      <trkpt lat="43.78177" lon="7.64919">
        <ele>49.704043</ele>
        <time>2024-01-27T13:28:38.689Z</time>
      </trkpt>
      <trkpt lat="43.78181" lon="7.64904">
        <ele>49.596483</ele>
        <time>2024-01-27T13:28:41.688Z</time>
      </trkpt>
      <trkpt lat="43.78184" lon="7.6489">
        <ele>49.592424</ele>
        <time>2024-01-27T13:28:44.689Z</time>
      </trkpt>
      <trkpt lat="43.78184" lon="7.64878">
        <ele>49.665978</ele>
        <time>2024-01-27T13:28:48.679Z</time>
      </trkpt>
      <trkpt lat="43.78184" lon="7.64863">
        <ele>49.750586</ele>
        <time>2024-01-27T13:28:53.704Z</time>
      </trkpt>
      <trkpt lat="43.78188" lon="7.64851">
        <ele>49.825538</ele>
        <time>2024-01-27T13:28:58.679Z</time>
      </trkpt>
      <trkpt lat="43.7819" lon="7.64837">
        <ele>49.913165</ele>
        <time>2024-01-27T13:35:55.698Z</time>
      </trkpt>
      <trkpt lat="43.78193" lon="7.64823">
        <ele>49.999083</ele>
        <time>2024-01-27T13:35:59.686Z</time>
      </trkpt>
      <trkpt lat="43.78196" lon="7.6481">
        <ele>50.077343</ele>
        <time>2024-01-27T13:36:02.683Z</time>
      </trkpt>
      <trkpt lat="43.78199" lon="7.64796">
        <ele>50.161134</ele>
        <time>2024-01-27T13:36:05.682Z</time>
      </trkpt>
      <trkpt lat="43.78203" lon="7.64783">
        <ele>50.245885</ele>
        <time>2024-01-27T13:36:08.734Z</time>
      </trkpt>
      <trkpt lat="43.78206" lon="7.6477">
        <ele>50.329765</ele>
        <time>2024-01-27T13:36:11.680Z</time>
      </trkpt>
      <trkpt lat="43.78209" lon="7.64755">
        <ele>50.41974</ele>
        <time>2024-01-27T13:36:14.686Z</time>
      </trkpt>
      <trkpt lat="43.78213" lon="7.64741">
        <ele>50.505679</ele>
        <time>2024-01-27T13:36:17.689Z</time>
      </trkpt>
      <trkpt lat="43.78216" lon="7.64727">
        <ele>50.595563</ele>
        <time>2024-01-27T13:36:20.699Z</time>
      </trkpt>
      <trkpt lat="43.78219" lon="7.64712">
        <ele>50.68577</ele>
        <time>2024-01-27T13:36:23.695Z</time>
      </trkpt>
      <trkpt lat="43.78221" lon="7.64696">
        <ele>50.777561</ele>
        <time>2024-01-27T13:36:26.684Z</time>
      </trkpt>
      <trkpt lat="43.7822" lon="7.64681">
        <ele>50.86924</ele>
        <time>2024-01-27T13:36:29.673Z</time>
      </trkpt>
      <trkpt lat="43.78218" lon="7.64666">
        <ele>50.959374</ele>
        <time>2024-01-27T13:36:32.686Z</time>
      </trkpt>
      <trkpt lat="43.78216" lon="7.64651">
        <ele>50.999894</ele>
        <time>2024-01-27T13:36:35.692Z</time>
      </trkpt>
      <trkpt lat="43.78215" lon="7.64636">
        <ele>50.964438</ele>
        <time>2024-01-27T13:36:38.690Z</time>
      </trkpt>
      <trkpt lat="43.78218" lon="7.64621">
        <ele>50.927069</ele>
        <time>2024-01-27T13:36:41.683Z</time>
      </trkpt>
      <trkpt lat="43.7822" lon="7.64605">
        <ele>50.890045</ele>
        <time>2024-01-27T13:36:44.672Z</time>
      </trkpt>
      <trkpt lat="43.78223" lon="7.64592">
        <ele>50.856804</ele>
        <time>2024-01-27T13:36:47.690Z</time>
      </trkpt>
      <trkpt lat="43.78226" lon="7.6457">
        <ele>50.804841</ele>
        <time>2024-01-27T13:40:56.747Z</time>
      </trkpt>
      <trkpt lat="43.78229" lon="7.64556">
        <ele>50.770887</ele>
        <time>2024-01-27T13:41:00.683Z</time>
      </trkpt>
      <trkpt lat="43.7823" lon="7.64543">
        <ele>50.739094</ele>
        <time>2024-01-27T13:41:03.668Z</time>
      </trkpt>
      <trkpt lat="43.78228" lon="7.64529">
        <ele>50.705003</ele>
        <time>2024-01-27T13:41:06.690Z</time>
      </trkpt>
      <trkpt lat="43.78232" lon="7.64516">
        <ele>50.672211</ele>
        <time>2024-01-27T13:41:09.678Z</time>
      </trkpt>
      <trkpt lat="43.78234" lon="7.64501">
        <ele>50.636378</ele>
        <time>2024-01-27T13:41:12.694Z</time>
      </trkpt>
      <trkpt lat="43.78236" lon="7.64487">
        <ele>50.6022</ele>
        <time>2024-01-27T13:41:15.680Z</time>
      </trkpt>
      <trkpt lat="43.7824" lon="7.64472">
        <ele>50.566509</ele>
        <time>2024-01-27T13:41:18.712Z</time>
      </trkpt>
      <trkpt lat="43.78242" lon="7.64457">
        <ele>50.528993</ele>
        <time>2024-01-27T13:41:21.709Z</time>
      </trkpt>
      <trkpt lat="43.78245" lon="7.64441">
        <ele>50.490313</ele>
        <time>2024-01-27T13:41:24.703Z</time>
      </trkpt>
      <trkpt lat="43.78248" lon="7.64424">
        <ele>50.450254</ele>
        <time>2024-01-27T13:41:27.697Z</time>
      </trkpt>
      <trkpt lat="43.7825" lon="7.64408">
        <ele>50.437458</ele>
        <time>2024-01-27T13:41:30.685Z</time>
      </trkpt>
      <trkpt lat="43.78253" lon="7.64392">
        <ele>50.471047</ele>
        <time>2024-01-27T13:41:33.692Z</time>
      </trkpt>
      <trkpt lat="43.78256" lon="7.64375">
        <ele>50.506199</ele>
        <time>2024-01-27T13:41:36.691Z</time>
      </trkpt>
      <trkpt lat="43.78259" lon="7.64359">
        <ele>50.540902</ele>
        <time>2024-01-27T13:41:39.702Z</time>
      </trkpt>
      <trkpt lat="43.78261" lon="7.64343">
        <ele>50.572718</ele>
        <time>2024-01-27T13:41:42.683Z</time>
      </trkpt>
      <trkpt lat="43.78264" lon="7.64328">
        <ele>50.603999</ele>
        <time>2024-01-27T13:41:45.702Z</time>
      </trkpt>
      <trkpt lat="43.78267" lon="7.64313">
        <ele>50.636197</ele>
        <time>2024-01-27T13:41:48.700Z</time>
      </trkpt>
      <trkpt lat="43.78271" lon="7.64297">
        <ele>50.670476</ele>
        <time>2024-01-27T13:41:51.686Z</time>
      </trkpt>
      <trkpt lat="43.78274" lon="7.64281">
        <ele>50.703522</ele>
        <time>2024-01-27T13:41:54.681Z</time>
      </trkpt>
      <trkpt lat="43.78276" lon="7.64264">
        <ele>50.737525</ele>
        <time>2024-01-27T13:41:57.680Z</time>
      </trkpt>
      <trkpt lat="43.78278" lon="7.64249">
        <ele>50.769087</ele>
        <time>2024-01-27T13:42:00.695Z</time>
      </trkpt>
      <trkpt lat="43.7828" lon="7.64233">
        <ele>50.802658</ele>
        <time>2024-01-27T13:42:03.684Z</time>
      </trkpt>
      <trkpt lat="43.78283" lon="7.64217">
        <ele>50.836689</ele>
        <time>2024-01-27T13:42:06.688Z</time>
      </trkpt>
      <trkpt lat="43.78287" lon="7.64201">
        <ele>50.870486</ele>
        <time>2024-01-27T13:42:09.680Z</time>
      </trkpt>
      <trkpt lat="43.78289" lon="7.64184">
        <ele>50.905444</ele>
        <time>2024-01-27T13:42:12.685Z</time>
      </trkpt>
      <trkpt lat="43.78293" lon="7.64168">
        <ele>50.909157</ele>
        <time>2024-01-27T13:42:15.683Z</time>
      </trkpt>
      <trkpt lat="43.78295" lon="7.64154">
        <ele>50.834302</ele>
        <time>2024-01-27T13:42:18.692Z</time>
      </trkpt>
      <trkpt lat="43.78298" lon="7.64138">
        <ele>50.752186</ele>
        <time>2024-01-27T13:42:21.699Z</time>
      </trkpt>
      <trkpt lat="43.78301" lon="7.64123">
        <ele>50.675889</ele>
        <time>2024-01-27T13:42:24.693Z</time>
      </trkpt>
      <trkpt lat="43.78304" lon="7.64107">
        <ele>50.596912</ele>
        <time>2024-01-27T13:42:27.680Z</time>
      </trkpt>
      <trkpt lat="43.78307" lon="7.64092">
        <ele>50.518316</ele>
        <time>2024-01-27T13:42:30.661Z</time>
      </trkpt>
      <trkpt lat="43.7831" lon="7.64077">
        <ele>50.441208</ele>
        <time>2024-01-27T13:42:33.689Z</time>
      </trkpt>
      <trkpt lat="43.78312" lon="7.64063">
        <ele>50.368196</ele>
        <time>2024-01-27T13:42:36.680Z</time>
      </trkpt>
      <trkpt lat="43.78315" lon="7.64048">
        <ele>50.295684</ele>
        <time>2024-01-27T13:42:39.678Z</time>
      </trkpt>
      <trkpt lat="43.78317" lon="7.64034">
        <ele>50.222157</ele>
        <time>2024-01-27T13:42:42.674Z</time>
      </trkpt>
      <trkpt lat="43.78319" lon="7.64018">
        <ele>50.143543</ele>
        <time>2024-01-27T13:42:45.679Z</time>
      </trkpt>
      <trkpt lat="43.78322" lon="7.64003">
        <ele>50.065234</ele>
        <time>2024-01-27T13:42:48.690Z</time>
      </trkpt>
      <trkpt lat="43.78326" lon="7.63988">
        <ele>49.988207</ele>
        <time>2024-01-27T13:42:51.681Z</time>
      </trkpt>
      <trkpt lat="43.78329" lon="7.63973">
        <ele>49.910848</ele>
        <time>2024-01-27T13:42:54.700Z</time>
      </trkpt>
      <trkpt lat="43.78331" lon="7.63958">
        <ele>49.835004</ele>
        <time>2024-01-27T13:42:57.689Z</time>
      </trkpt>
      <trkpt lat="43.78331" lon="7.63941">
        <ele>49.752382</ele>
        <time>2024-01-27T13:43:00.674Z</time>
      </trkpt>
      <trkpt lat="43.78332" lon="7.63926">
        <ele>49.685478</ele>
        <time>2024-01-27T13:43:03.690Z</time>
      </trkpt>
      <trkpt lat="43.78334" lon="7.63912">
        <ele>49.651059</ele>
        <time>2024-01-27T13:43:06.683Z</time>
      </trkpt>
      <trkpt lat="43.78335" lon="7.63899">
        <ele>49.617239</ele>
        <time>2024-01-27T13:43:09.681Z</time>
      </trkpt>
      <trkpt lat="43.78336" lon="7.63884">
        <ele>49.580106</ele>
        <time>2024-01-27T13:43:12.690Z</time>
      </trkpt>
      <trkpt lat="43.78336" lon="7.63869">
        <ele>49.541066</ele>
        <time>2024-01-27T13:43:15.680Z</time>
      </trkpt>
      <trkpt lat="43.78338" lon="7.63856">
        <ele>49.507885</ele>
        <time>2024-01-27T13:43:18.682Z</time>
      </trkpt>
      <trkpt lat="43.78341" lon="7.63843">
        <ele>49.471914</ele>
        <time>2024-01-27T13:43:21.677Z</time>
      </trkpt>
      <trkpt lat="43.78343" lon="7.63829">
        <ele>49.43627</ele>
        <time>2024-01-27T13:43:24.691Z</time>
      </trkpt>
      <trkpt lat="43.78345" lon="7.63816">
        <ele>49.402477</ele>
        <time>2024-01-27T13:43:27.684Z</time>
      </trkpt>
      <trkpt lat="43.78347" lon="7.63802">
        <ele>49.367245</ele>
        <time>2024-01-27T13:43:30.671Z</time>
      </trkpt>
      <trkpt lat="43.78348" lon="7.63786">
        <ele>49.326732</ele>
        <time>2024-01-27T13:43:33.686Z</time>
      </trkpt>
      <trkpt lat="43.7835" lon="7.6377">
        <ele>49.285947</ele>
        <time>2024-01-27T13:43:36.679Z</time>
      </trkpt>
      <trkpt lat="43.78352" lon="7.63754">
        <ele>49.243606</ele>
        <time>2024-01-27T13:43:39.688Z</time>
      </trkpt>
      <trkpt lat="43.78353" lon="7.63738">
        <ele>49.202842</ele>
        <time>2024-01-27T13:43:42.669Z</time>
      </trkpt>
      <trkpt lat="43.78355" lon="7.63723">
        <ele>49.164187</ele>
        <time>2024-01-27T13:43:45.695Z</time>
      </trkpt>
      <trkpt lat="43.78357" lon="7.63709">
        <ele>49.129574</ele>
        <time>2024-01-27T13:43:48.676Z</time>
      </trkpt>
      <trkpt lat="43.78358" lon="7.63695">
        <ele>49.0914</ele>
        <time>2024-01-27T13:43:52.700Z</time>
      </trkpt>
      <trkpt lat="43.78361" lon="7.63679">
        <ele>49.039776</ele>
        <time>2024-01-27T13:43:56.673Z</time>
      </trkpt>
      <trkpt lat="43.78364" lon="7.63665">
        <ele>48.97781</ele>
        <time>2024-01-27T13:43:59.688Z</time>
      </trkpt>
      <trkpt lat="43.78366" lon="7.63649">
        <ele>48.909564</ele>
        <time>2024-01-27T13:44:02.693Z</time>
      </trkpt>
      <trkpt lat="43.78367" lon="7.63632">
        <ele>48.837727</ele>
        <time>2024-01-27T13:44:05.683Z</time>
      </trkpt>
      <trkpt lat="43.78368" lon="7.63615">
        <ele>48.766055</ele>
        <time>2024-01-27T13:44:08.689Z</time>
      </trkpt>
      <trkpt lat="43.78369" lon="7.63598">
        <ele>48.692868</ele>
        <time>2024-01-27T13:44:11.688Z</time>
      </trkpt>
      <trkpt lat="43.7837" lon="7.63581">
        <ele>48.618165</ele>
        <time>2024-01-27T13:44:14.681Z</time>
      </trkpt>
      <trkpt lat="43.78372" lon="7.63569">
        <ele>48.564939</ele>
        <time>2024-01-27T13:44:16.693Z</time>
      </trkpt>
      <trkpt lat="43.78375" lon="7.63551">
        <ele>48.48714</ele>
        <time>2024-01-27T13:44:19.683Z</time>
      </trkpt>
      <trkpt lat="43.78378" lon="7.63534">
        <ele>48.412955</ele>
        <time>2024-01-27T13:44:22.683Z</time>
      </trkpt>
      <trkpt lat="43.78381" lon="7.63515">
        <ele>48.332829</ele>
        <time>2024-01-27T13:44:25.689Z</time>
      </trkpt>
      <trkpt lat="43.78384" lon="7.63497">
        <ele>48.252703</ele>
        <time>2024-01-27T13:44:28.683Z</time>
      </trkpt>
      <trkpt lat="43.78387" lon="7.63479">
        <ele>48.173957</ele>
        <time>2024-01-27T13:44:31.689Z</time>
      </trkpt>
      <trkpt lat="43.78389" lon="7.63466">
        <ele>48.118516</ele>
        <time>2024-01-27T13:44:33.690Z</time>
      </trkpt>
      <trkpt lat="43.78392" lon="7.63454">
        <ele>48.063989</ele>
        <time>2024-01-27T13:44:35.677Z</time>
      </trkpt>
      <trkpt lat="43.78395" lon="7.63442">
        <ele>48.009871</ele>
        <time>2024-01-27T13:44:37.663Z</time>
      </trkpt>
      <trkpt lat="43.78397" lon="7.63429">
        <ele>48.027711</ele>
        <time>2024-01-27T13:44:39.683Z</time>
      </trkpt>
      <trkpt lat="43.784" lon="7.63417">
        <ele>48.049885</ele>
        <time>2024-01-27T13:44:41.686Z</time>
      </trkpt>
      <trkpt lat="43.78404" lon="7.634">
        <ele>48.082208</ele>
        <time>2024-01-27T13:44:44.686Z</time>
      </trkpt>
      <trkpt lat="43.78407" lon="7.63387">
        <ele>48.104573</ele>
        <time>2024-01-27T13:44:46.696Z</time>
      </trkpt>
      <trkpt lat="43.7841" lon="7.6337">
        <ele>48.135477</ele>
        <time>2024-01-27T13:44:49.690Z</time>
      </trkpt>
      <trkpt lat="43.78413" lon="7.63353">
        <ele>48.166779</ele>
        <time>2024-01-27T13:44:52.681Z</time>
      </trkpt>
      <trkpt lat="43.78416" lon="7.63341">
        <ele>48.188739</ele>
        <time>2024-01-27T13:44:54.677Z</time>
      </trkpt>
      <trkpt lat="43.78419" lon="7.63323">
        <ele>48.2207</ele>
        <time>2024-01-27T13:44:57.692Z</time>
      </trkpt>
      <trkpt lat="43.78422" lon="7.63306">
        <ele>48.252579</ele>
        <time>2024-01-27T13:45:00.688Z</time>
      </trkpt>
      <trkpt lat="43.78425" lon="7.63287">
        <ele>48.285412</ele>
        <time>2024-01-27T13:45:03.685Z</time>
      </trkpt>
      <trkpt lat="43.78429" lon="7.6327">
        <ele>48.316543</ele>
        <time>2024-01-27T13:45:06.683Z</time>
      </trkpt>
      <trkpt lat="43.78431" lon="7.63252">
        <ele>48.348109</ele>
        <time>2024-01-27T13:45:09.686Z</time>
      </trkpt>
      <trkpt lat="43.78437" lon="7.63237">
        <ele>48.378976</ele>
        <time>2024-01-27T13:45:12.672Z</time>
      </trkpt>
      <trkpt lat="43.78443" lon="7.63227">
        <ele>48.401457</ele>
        <time>2024-01-27T13:45:14.680Z</time>
      </trkpt>
      <trkpt lat="43.78447" lon="7.63216">
        <ele>48.423726</ele>
        <time>2024-01-27T13:45:16.675Z</time>
      </trkpt>
      <trkpt lat="43.78449" lon="7.63203">
        <ele>48.438315</ele>
        <time>2024-01-27T13:45:18.682Z</time>
      </trkpt>
      <trkpt lat="43.78453" lon="7.63186">
        <ele>48.401232</ele>
        <time>2024-01-27T13:45:21.693Z</time>
      </trkpt>
      <trkpt lat="43.78456" lon="7.63169">
        <ele>48.364913</ele>
        <time>2024-01-27T13:45:24.681Z</time>
      </trkpt>
      <trkpt lat="43.7846" lon="7.63152">
        <ele>48.328585</ele>
        <time>2024-01-27T13:45:27.699Z</time>
      </trkpt>
      <trkpt lat="43.78463" lon="7.63135">
        <ele>48.293604</ele>
        <time>2024-01-27T13:45:30.679Z</time>
      </trkpt>
      <trkpt lat="43.78466" lon="7.63119">
        <ele>48.26014</ele>
        <time>2024-01-27T13:45:33.683Z</time>
      </trkpt>
      <trkpt lat="43.78468" lon="7.63103">
        <ele>48.227169</ele>
        <time>2024-01-27T13:45:36.688Z</time>
      </trkpt>
      <trkpt lat="43.78471" lon="7.63089">
        <ele>48.197137</ele>
        <time>2024-01-27T13:45:39.711Z</time>
      </trkpt>
      <trkpt lat="43.78481" lon="7.63083">
        <ele>48.166709</ele>
        <time>2024-01-27T13:45:42.666Z</time>
      </trkpt>
      <trkpt lat="43.78493" lon="7.63086">
        <ele>48.132506</ele>
        <time>2024-01-27T13:45:45.677Z</time>
      </trkpt>
      <trkpt lat="43.78505" lon="7.63089">
        <ele>48.096786</ele>
        <time>2024-01-27T13:45:48.695Z</time>
      </trkpt>
      <trkpt lat="43.78514" lon="7.63091">
        <ele>48.071168</ele>
        <time>2024-01-27T13:45:50.688Z</time>
      </trkpt>
      <trkpt lat="43.78528" lon="7.63092">
        <ele>48.032697</ele>
        <time>2024-01-27T13:45:53.663Z</time>
      </trkpt>
      <trkpt lat="43.78541" lon="7.63097">
        <ele>47.993666</ele>
        <time>2024-01-27T13:45:56.688Z</time>
      </trkpt>
      <trkpt lat="43.7855" lon="7.63098">
        <ele>47.966896</ele>
        <time>2024-01-27T13:45:58.686Z</time>
      </trkpt>
      <trkpt lat="43.78563" lon="7.63102">
        <ele>47.953959</ele>
        <time>2024-01-27T13:46:01.692Z</time>
      </trkpt>
      <trkpt lat="43.78577" lon="7.63105">
        <ele>48.08299</ele>
        <time>2024-01-27T13:46:04.672Z</time>
      </trkpt>
      <trkpt lat="43.7859" lon="7.63108">
        <ele>48.210125</ele>
        <time>2024-01-27T13:46:07.681Z</time>
      </trkpt>
      <trkpt lat="43.78599" lon="7.6311">
        <ele>48.29673</ele>
        <time>2024-01-27T13:46:09.685Z</time>
      </trkpt>
      <trkpt lat="43.78612" lon="7.63113">
        <ele>48.426593</ele>
        <time>2024-01-27T13:46:12.688Z</time>
      </trkpt>
      <trkpt lat="43.78621" lon="7.63115">
        <ele>48.515104</ele>
        <time>2024-01-27T13:46:14.686Z</time>
      </trkpt>
      <trkpt lat="43.78634" lon="7.63117">
        <ele>48.644876</ele>
        <time>2024-01-27T13:46:17.678Z</time>
      </trkpt>
      <trkpt lat="43.78644" lon="7.63119">
        <ele>48.736911</ele>
        <time>2024-01-27T13:46:19.690Z</time>
      </trkpt>
      <trkpt lat="43.78653" lon="7.63122">
        <ele>48.831913</ele>
        <time>2024-01-27T13:46:21.676Z</time>
      </trkpt>
      <trkpt lat="43.78663" lon="7.63124">
        <ele>48.929301</ele>
        <time>2024-01-27T13:46:23.661Z</time>
      </trkpt>
      <trkpt lat="43.78675" lon="7.63125">
        <ele>49.045255</ele>
        <time>2024-01-27T13:46:26.684Z</time>
      </trkpt>
      <trkpt lat="43.78687" lon="7.63126">
        <ele>49.153475</ele>
        <time>2024-01-27T13:46:30.678Z</time>
      </trkpt>
      <trkpt lat="43.78697" lon="7.63128">
        <ele>49.2578</ele>
        <time>2024-01-27T13:46:34.678Z</time>
      </trkpt>
      <trkpt lat="43.78703" lon="7.63114">
        <ele>49.367497</ele>
        <time>2024-01-27T13:46:39.665Z</time>
      </trkpt>
      <trkpt lat="43.78703" lon="7.63099">
        <ele>49.47594</ele>
        <time>2024-01-27T13:46:43.673Z</time>
      </trkpt>
      <trkpt lat="43.78705" lon="7.63086">
        <ele>49.567092</ele>
        <time>2024-01-27T13:46:46.701Z</time>
      </trkpt>
      <trkpt lat="43.78706" lon="7.63071">
        <ele>49.66945</ele>
        <time>2024-01-27T13:46:49.676Z</time>
      </trkpt>
      <trkpt lat="43.78707" lon="7.63056">
        <ele>49.720705</ele>
        <time>2024-01-27T13:46:52.676Z</time>
      </trkpt>
      <trkpt lat="43.78709" lon="7.63043">
        <ele>49.768033</ele>
        <time>2024-01-27T13:46:55.676Z</time>
      </trkpt>
      <trkpt lat="43.78709" lon="7.6303">
        <ele>49.816217</ele>
        <time>2024-01-27T13:46:58.675Z</time>
      </trkpt>
      <trkpt lat="43.78711" lon="7.63017">
        <ele>49.864376</ele>
        <time>2024-01-27T13:47:01.692Z</time>
      </trkpt>
      <trkpt lat="43.78711" lon="7.63002">
        <ele>49.919645</ele>
        <time>2024-01-27T13:47:04.663Z</time>
      </trkpt>
      <trkpt lat="43.78712" lon="7.62988">
        <ele>49.970009</ele>
        <time>2024-01-27T13:47:06.683Z</time>
      </trkpt>
      <trkpt lat="43.7871" lon="7.62974">
        <ele>50.019371</ele>
        <time>2024-01-27T13:47:08.671Z</time>
      </trkpt>
      <trkpt lat="43.78705" lon="7.62962">
        <ele>50.071397</ele>
        <time>2024-01-27T13:47:10.660Z</time>
      </trkpt>
      <trkpt lat="43.787" lon="7.62949">
        <ele>50.120885</ele>
        <time>2024-01-27T13:47:12.668Z</time>
      </trkpt>
      <trkpt lat="43.78694" lon="7.62934">
        <ele>50.184757</ele>
        <time>2024-01-27T13:47:15.669Z</time>
      </trkpt>
      <trkpt lat="43.78682" lon="7.6293">
        <ele>50.245149</ele>
        <time>2024-01-27T13:47:18.681Z</time>
      </trkpt>
      <trkpt lat="43.78669" lon="7.6293">
        <ele>50.306793</ele>
        <time>2024-01-27T13:47:21.676Z</time>
      </trkpt>
      <trkpt lat="43.78657" lon="7.62928">
        <ele>50.368495</ele>
        <time>2024-01-27T13:47:24.680Z</time>
      </trkpt>
      <trkpt lat="43.78644" lon="7.62924">
        <ele>50.434959</ele>
        <time>2024-01-27T13:47:27.680Z</time>
      </trkpt>
      <trkpt lat="43.78635" lon="7.62922">
        <ele>50.480456</ele>
        <time>2024-01-27T13:47:29.695Z</time>
      </trkpt>
      <trkpt lat="43.78626" lon="7.62919">
        <ele>50.525509</ele>
        <time>2024-01-27T13:47:31.684Z</time>
      </trkpt>
      <trkpt lat="43.78617" lon="7.62916">
        <ele>50.55506</ele>
        <time>2024-01-27T13:47:33.681Z</time>
      </trkpt>
      <trkpt lat="43.78608" lon="7.62913">
        <ele>50.529385</ele>
        <time>2024-01-27T13:47:35.688Z</time>
      </trkpt>
      <trkpt lat="43.78596" lon="7.62909">
        <ele>50.4941</ele>
        <time>2024-01-27T13:47:38.680Z</time>
      </trkpt>
      <trkpt lat="43.78584" lon="7.62901">
        <ele>50.4569</ele>
        <time>2024-01-27T13:47:41.671Z</time>
      </trkpt>
      <trkpt lat="43.78576" lon="7.62895">
        <ele>50.429661</ele>
        <time>2024-01-27T13:47:43.691Z</time>
      </trkpt>
      <trkpt lat="43.78567" lon="7.6289">
        <ele>50.402345</ele>
        <time>2024-01-27T13:47:45.670Z</time>
      </trkpt>
      <trkpt lat="43.78556" lon="7.62883">
        <ele>50.368111</ele>
        <time>2024-01-27T13:47:48.675Z</time>
      </trkpt>
      <trkpt lat="43.78547" lon="7.62889">
        <ele>50.33941</ele>
        <time>2024-01-27T13:47:52.673Z</time>
      </trkpt>
      <trkpt lat="43.78538" lon="7.62895">
        <ele>50.312694</ele>
        <time>2024-01-27T13:47:55.687Z</time>
      </trkpt>
      <trkpt lat="43.78529" lon="7.62892">
        <ele>50.286744</ele>
        <time>2024-01-27T13:47:58.681Z</time>
      </trkpt>
      <trkpt lat="43.78522" lon="7.62881">
        <ele>50.25707</ele>
        <time>2024-01-27T13:48:02.673Z</time>
      </trkpt>
      <trkpt lat="43.78517" lon="7.62871">
        <ele>50.231125</ele>
        <time>2024-01-27T13:48:06.683Z</time>
      </trkpt>
      <trkpt lat="43.78514" lon="7.62856">
        <ele>50.200368</ele>
        <time>2024-01-27T13:48:10.690Z</time>
      </trkpt>
      <trkpt lat="43.78511" lon="7.6284">
        <ele>50.166782</ele>
        <time>2024-01-27T13:48:14.690Z</time>
      </trkpt>
      <trkpt lat="43.78512" lon="7.62827">
        <ele>50.138429</ele>
        <time>2024-01-27T13:48:17.672Z</time>
      </trkpt>
      <trkpt lat="43.78515" lon="7.62811">
        <ele>50.105822</ele>
        <time>2024-01-27T13:48:20.675Z</time>
      </trkpt>
      <trkpt lat="43.78518" lon="7.62796">
        <ele>50.072906</ele>
        <time>2024-01-27T13:48:23.678Z</time>
      </trkpt>
      <trkpt lat="43.78522" lon="7.62781">
        <ele>50.04614</ele>
        <time>2024-01-27T13:48:26.676Z</time>
      </trkpt>
      <trkpt lat="43.78524" lon="7.62766">
        <ele>50.032484</ele>
        <time>2024-01-27T13:48:29.675Z</time>
      </trkpt>
      <trkpt lat="43.78527" lon="7.6275">
        <ele>50.018652</ele>
        <time>2024-01-27T13:48:32.677Z</time>
      </trkpt>
      <trkpt lat="43.78525" lon="7.62734">
        <ele>50.003644</ele>
        <time>2024-01-27T13:48:35.686Z</time>
      </trkpt>
      <trkpt lat="43.78523" lon="7.62718">
        <ele>49.989526</ele>
        <time>2024-01-27T13:48:38.677Z</time>
      </trkpt>
      <trkpt lat="43.7852" lon="7.62703">
        <ele>49.97528</ele>
        <time>2024-01-27T13:48:41.685Z</time>
      </trkpt>
      <trkpt lat="43.78517" lon="7.62687">
        <ele>49.960777</ele>
        <time>2024-01-27T13:48:44.692Z</time>
      </trkpt>
      <trkpt lat="43.78514" lon="7.62672">
        <ele>49.946543</ele>
        <time>2024-01-27T13:48:47.672Z</time>
      </trkpt>
      <trkpt lat="43.7851" lon="7.62656">
        <ele>49.931784</ele>
        <time>2024-01-27T13:48:50.688Z</time>
      </trkpt>
      <trkpt lat="43.78507" lon="7.62639">
        <ele>49.916034</ele>
        <time>2024-01-27T13:48:53.686Z</time>
      </trkpt>
      <trkpt lat="43.78504" lon="7.62621">
        <ele>49.8999</ele>
        <time>2024-01-27T13:48:56.685Z</time>
      </trkpt>
      <trkpt lat="43.78501" lon="7.62604">
        <ele>49.884743</ele>
        <time>2024-01-27T13:48:59.688Z</time>
      </trkpt>
      <trkpt lat="43.78497" lon="7.62588">
        <ele>49.869625</ele>
        <time>2024-01-27T13:49:02.676Z</time>
      </trkpt>
      <trkpt lat="43.78495" lon="7.62571">
        <ele>49.854498</ele>
        <time>2024-01-27T13:49:05.672Z</time>
      </trkpt>
      <trkpt lat="43.78491" lon="7.62555">
        <ele>49.839636</ele>
        <time>2024-01-27T13:49:08.680Z</time>
      </trkpt>
      <trkpt lat="43.78488" lon="7.6254">
        <ele>49.844792</ele>
        <time>2024-01-27T13:49:11.685Z</time>
      </trkpt>
      <trkpt lat="43.78486" lon="7.62526">
        <ele>49.902434</ele>
        <time>2024-01-27T13:49:14.681Z</time>
      </trkpt>
      <trkpt lat="43.78485" lon="7.62511">
        <ele>49.95826</ele>
        <time>2024-01-27T13:49:17.681Z</time>
      </trkpt>
      <trkpt lat="43.78485" lon="7.62496">
        <ele>50.017841</ele>
        <time>2024-01-27T13:49:20.688Z</time>
      </trkpt>
      <trkpt lat="43.78487" lon="7.6248">
        <ele>50.07944</ele>
        <time>2024-01-27T13:49:23.687Z</time>
      </trkpt>
      <trkpt lat="43.78488" lon="7.62464">
        <ele>50.140425</ele>
        <time>2024-01-27T13:49:26.681Z</time>
      </trkpt>
      <trkpt lat="43.7849" lon="7.62448">
        <ele>50.203561</ele>
        <time>2024-01-27T13:49:29.684Z</time>
      </trkpt>
      <trkpt lat="43.78494" lon="7.62432">
        <ele>50.266745</ele>
        <time>2024-01-27T13:49:32.689Z</time>
      </trkpt>
      <trkpt lat="43.78497" lon="7.62416">
        <ele>50.329642</ele>
        <time>2024-01-27T13:49:35.689Z</time>
      </trkpt>
      <trkpt lat="43.785" lon="7.624">
        <ele>50.39351</ele>
        <time>2024-01-27T13:49:38.677Z</time>
      </trkpt>
      <trkpt lat="43.78503" lon="7.62384">
        <ele>50.458542</ele>
        <time>2024-01-27T13:49:41.689Z</time>
      </trkpt>
      <trkpt lat="43.78506" lon="7.62368">
        <ele>50.52158</ele>
        <time>2024-01-27T13:49:44.679Z</time>
      </trkpt>
      <trkpt lat="43.78509" lon="7.62352">
        <ele>50.585219</ele>
        <time>2024-01-27T13:49:47.691Z</time>
      </trkpt>
      <trkpt lat="43.78512" lon="7.62336">
        <ele>50.650081</ele>
        <time>2024-01-27T13:49:50.681Z</time>
      </trkpt>
      <trkpt lat="43.78515" lon="7.62319">
        <ele>50.713824</ele>
        <time>2024-01-27T13:49:53.688Z</time>
      </trkpt>
      <trkpt lat="43.78517" lon="7.62303">
        <ele>50.777729</ele>
        <time>2024-01-27T13:49:56.669Z</time>
      </trkpt>
      <trkpt lat="43.78521" lon="7.62287">
        <ele>50.835607</ele>
        <time>2024-01-27T13:49:59.681Z</time>
      </trkpt>
      <trkpt lat="43.78525" lon="7.62271">
        <ele>50.891779</ele>
        <time>2024-01-27T13:50:02.682Z</time>
      </trkpt>
      <trkpt lat="43.78528" lon="7.62256">
        <ele>50.944507</ele>
        <time>2024-01-27T13:50:05.675Z</time>
      </trkpt>
      <trkpt lat="43.78531" lon="7.62241">
        <ele>50.998559</ele>
        <time>2024-01-27T13:50:08.686Z</time>
      </trkpt>
      <trkpt lat="43.78533" lon="7.62224">
        <ele>51.053604</ele>
        <time>2024-01-27T13:50:11.687Z</time>
      </trkpt>
      <trkpt lat="43.78535" lon="7.62208">
        <ele>51.110354</ele>
        <time>2024-01-27T13:50:14.680Z</time>
      </trkpt>
      <trkpt lat="43.78537" lon="7.62191">
        <ele>51.166029</ele>
        <time>2024-01-27T13:50:17.693Z</time>
      </trkpt>
      <trkpt lat="43.78539" lon="7.62175">
        <ele>51.221503</ele>
        <time>2024-01-27T13:50:20.679Z</time>
      </trkpt>
      <trkpt lat="43.78542" lon="7.62159">
        <ele>51.27627</ele>
        <time>2024-01-27T13:50:23.687Z</time>
      </trkpt>
      <trkpt lat="43.78544" lon="7.62142">
        <ele>51.334373</ele>
        <time>2024-01-27T13:50:26.688Z</time>
      </trkpt>
      <trkpt lat="43.78547" lon="7.62126">
        <ele>51.391539</ele>
        <time>2024-01-27T13:50:29.682Z</time>
      </trkpt>
      <trkpt lat="43.78548" lon="7.62109">
        <ele>51.449185</ele>
        <time>2024-01-27T13:50:32.689Z</time>
      </trkpt>
      <trkpt lat="43.7855" lon="7.62092">
        <ele>51.506294</ele>
        <time>2024-01-27T13:50:35.680Z</time>
      </trkpt>
      <trkpt lat="43.78553" lon="7.62075">
        <ele>51.564049</ele>
        <time>2024-01-27T13:50:38.681Z</time>
      </trkpt>
      <trkpt lat="43.78556" lon="7.6206">
        <ele>51.618257</ele>
        <time>2024-01-27T13:50:41.683Z</time>
      </trkpt>
      <trkpt lat="43.78558" lon="7.62044">
        <ele>51.657027</ele>
        <time>2024-01-27T13:50:44.673Z</time>
      </trkpt>
      <trkpt lat="43.78562" lon="7.62028">
        <ele>51.694748</ele>
        <time>2024-01-27T13:50:47.680Z</time>
      </trkpt>
      <trkpt lat="43.78565" lon="7.62012">
        <ele>51.733127</ele>
        <time>2024-01-27T13:50:50.686Z</time>
      </trkpt>
      <trkpt lat="43.78568" lon="7.61995">
        <ele>51.771725</ele>
        <time>2024-01-27T13:50:53.688Z</time>
      </trkpt>
      <trkpt lat="43.78571" lon="7.61979">
        <ele>51.810164</ele>
        <time>2024-01-27T13:50:56.678Z</time>
      </trkpt>
      <trkpt lat="43.78574" lon="7.61963">
        <ele>51.847864</ele>
        <time>2024-01-27T13:50:59.699Z</time>
      </trkpt>
      <trkpt lat="43.78577" lon="7.61947">
        <ele>51.884904</ele>
        <time>2024-01-27T13:51:02.688Z</time>
      </trkpt>
      <trkpt lat="43.78579" lon="7.6193">
        <ele>51.923928</ele>
        <time>2024-01-27T13:51:05.678Z</time>
      </trkpt>
      <trkpt lat="43.78583" lon="7.61913">
        <ele>51.963624</ele>
        <time>2024-01-27T13:51:08.675Z</time>
      </trkpt>
      <trkpt lat="43.78586" lon="7.61896">
        <ele>52.003164</ele>
        <time>2024-01-27T13:51:11.673Z</time>
      </trkpt>
      <trkpt lat="43.78588" lon="7.6188">
        <ele>52.041382</ele>
        <time>2024-01-27T13:51:14.674Z</time>
      </trkpt>
      <trkpt lat="43.78592" lon="7.61864">
        <ele>52.079712</ele>
        <time>2024-01-27T13:51:17.687Z</time>
      </trkpt>
      <trkpt lat="43.78594" lon="7.61848">
        <ele>52.117195</ele>
        <time>2024-01-27T13:51:20.689Z</time>
      </trkpt>
      <trkpt lat="43.78597" lon="7.61831">
        <ele>52.156371</ele>
        <time>2024-01-27T13:51:23.694Z</time>
      </trkpt>
      <trkpt lat="43.786" lon="7.61814">
        <ele>52.189096</ele>
        <time>2024-01-27T13:51:26.679Z</time>
      </trkpt>
      <trkpt lat="43.78603" lon="7.61798">
        <ele>52.181265</ele>
        <time>2024-01-27T13:51:29.687Z</time>
      </trkpt>
      <trkpt lat="43.78606" lon="7.61782">
        <ele>52.173671</ele>
        <time>2024-01-27T13:51:32.679Z</time>
      </trkpt>
      <trkpt lat="43.78609" lon="7.61766">
        <ele>52.166227</ele>
        <time>2024-01-27T13:51:35.691Z</time>
      </trkpt>
      <trkpt lat="43.78612" lon="7.6175">
        <ele>52.158455</ele>
        <time>2024-01-27T13:51:38.676Z</time>
      </trkpt>
      <trkpt lat="43.78614" lon="7.61733">
        <ele>52.150713</ele>
        <time>2024-01-27T13:51:41.657Z</time>
      </trkpt>
      <trkpt lat="43.78617" lon="7.61718">
        <ele>52.143563</ele>
        <time>2024-01-27T13:51:44.679Z</time>
      </trkpt>
      <trkpt lat="43.7862" lon="7.61703">
        <ele>52.136224</ele>
        <time>2024-01-27T13:51:47.686Z</time>
      </trkpt>
      <trkpt lat="43.78623" lon="7.61687">
        <ele>52.128712</ele>
        <time>2024-01-27T13:51:50.683Z</time>
      </trkpt>
      <trkpt lat="43.78626" lon="7.6167">
        <ele>52.120895</ele>
        <time>2024-01-27T13:51:53.692Z</time>
      </trkpt>
      <trkpt lat="43.78629" lon="7.61656">
        <ele>52.114086</ele>
        <time>2024-01-27T13:51:56.697Z</time>
      </trkpt>
      <trkpt lat="43.78632" lon="7.61642">
        <ele>52.107566</ele>
        <time>2024-01-27T13:51:59.690Z</time>
      </trkpt>
      <trkpt lat="43.78634" lon="7.61629">
        <ele>52.101343</ele>
        <time>2024-01-27T13:52:02.692Z</time>
      </trkpt>
      <trkpt lat="43.78636" lon="7.61615">
        <ele>52.094747</ele>
        <time>2024-01-27T13:52:06.677Z</time>
      </trkpt>
      <trkpt lat="43.78637" lon="7.61602">
        <ele>52.088621</ele>
        <time>2024-01-27T13:52:10.656Z</time>
      </trkpt>
      <trkpt lat="43.78638" lon="7.61587">
        <ele>52.081849</ele>
        <time>2024-01-27T13:52:14.684Z</time>
      </trkpt>
      <trkpt lat="43.7864" lon="7.61574">
        <ele>52.075669</ele>
        <time>2024-01-27T13:52:18.687Z</time>
      </trkpt>
      <trkpt lat="43.78643" lon="7.61561">
        <ele>52.119528</ele>
        <time>2024-01-27T13:52:23.673Z</time>
      </trkpt>
      <trkpt lat="43.78652" lon="7.6154">
        <ele>52.19859</ele>
        <time>2024-01-27T13:53:08.664Z</time>
      </trkpt>
      <trkpt lat="43.78655" lon="7.61528">
        <ele>52.241792</ele>
        <time>2024-01-27T13:53:11.671Z</time>
      </trkpt>
      <trkpt lat="43.78658" lon="7.61512">
        <ele>52.293361</ele>
        <time>2024-01-27T13:53:14.693Z</time>
      </trkpt>
      <trkpt lat="43.78661" lon="7.61496">
        <ele>52.346805</ele>
        <time>2024-01-27T13:53:17.682Z</time>
      </trkpt>
      <trkpt lat="43.78665" lon="7.6148">
        <ele>52.402664</ele>
        <time>2024-01-27T13:53:20.683Z</time>
      </trkpt>
      <trkpt lat="43.78669" lon="7.61464">
        <ele>52.456673</ele>
        <time>2024-01-27T13:53:23.681Z</time>
      </trkpt>
      <trkpt lat="43.78673" lon="7.61449">
        <ele>52.508551</ele>
        <time>2024-01-27T13:53:26.689Z</time>
      </trkpt>
      <trkpt lat="43.78677" lon="7.61433">
        <ele>52.562986</ele>
        <time>2024-01-27T13:53:29.688Z</time>
      </trkpt>
      <trkpt lat="43.78681" lon="7.61418">
        <ele>52.61438</ele>
        <time>2024-01-27T13:53:32.681Z</time>
      </trkpt>
      <trkpt lat="43.78684" lon="7.61402">
        <ele>52.667433</ele>
        <time>2024-01-27T13:53:35.673Z</time>
      </trkpt>
      <trkpt lat="43.78688" lon="7.61386">
        <ele>52.721442</ele>
        <time>2024-01-27T13:53:38.683Z</time>
      </trkpt>
      <trkpt lat="43.78692" lon="7.61371">
        <ele>52.774665</ele>
        <time>2024-01-27T13:53:41.680Z</time>
      </trkpt>
      <trkpt lat="43.78696" lon="7.61354">
        <ele>52.831759</ele>
        <time>2024-01-27T13:53:44.710Z</time>
      </trkpt>
      <trkpt lat="43.787" lon="7.61338">
        <ele>52.878476</ele>
        <time>2024-01-27T13:53:47.685Z</time>
      </trkpt>
      <trkpt lat="43.78704" lon="7.61322">
        <ele>52.856356</ele>
        <time>2024-01-27T13:53:50.682Z</time>
      </trkpt>
      <trkpt lat="43.78709" lon="7.61305">
        <ele>52.833635</ele>
        <time>2024-01-27T13:53:53.690Z</time>
      </trkpt>
      <trkpt lat="43.78713" lon="7.61288">
        <ele>52.810479</ele>
        <time>2024-01-27T13:53:56.683Z</time>
      </trkpt>
      <trkpt lat="43.78717" lon="7.61271">
        <ele>52.787938</ele>
        <time>2024-01-27T13:53:59.678Z</time>
      </trkpt>
      <trkpt lat="43.78723" lon="7.61256">
        <ele>52.765738</ele>
        <time>2024-01-27T13:54:02.685Z</time>
      </trkpt>
      <trkpt lat="43.78727" lon="7.61241">
        <ele>52.745247</ele>
        <time>2024-01-27T13:54:05.684Z</time>
      </trkpt>
      <trkpt lat="43.7873" lon="7.61225">
        <ele>52.724311</ele>
        <time>2024-01-27T13:54:08.681Z</time>
      </trkpt>
      <trkpt lat="43.78734" lon="7.61209">
        <ele>52.702293</ele>
        <time>2024-01-27T13:54:11.697Z</time>
      </trkpt>
      <trkpt lat="43.78739" lon="7.61194">
        <ele>52.681428</ele>
        <time>2024-01-27T13:54:14.694Z</time>
      </trkpt>
      <trkpt lat="43.78744" lon="7.61179">
        <ele>52.659832</ele>
        <time>2024-01-27T13:54:17.699Z</time>
      </trkpt>
      <trkpt lat="43.78748" lon="7.61164">
        <ele>52.639489</ele>
        <time>2024-01-27T13:54:20.682Z</time>
      </trkpt>
      <trkpt lat="43.78752" lon="7.61149">
        <ele>52.618696</ele>
        <time>2024-01-27T13:54:23.688Z</time>
      </trkpt>
      <trkpt lat="43.78756" lon="7.61133">
        <ele>52.597598</ele>
        <time>2024-01-27T13:54:26.690Z</time>
      </trkpt>
      <trkpt lat="43.7876" lon="7.61119">
        <ele>52.578248</ele>
        <time>2024-01-27T13:54:29.714Z</time>
      </trkpt>
      <trkpt lat="43.78763" lon="7.61106">
        <ele>52.557766</ele>
        <time>2024-01-27T13:54:32.678Z</time>
      </trkpt>
      <trkpt lat="43.78765" lon="7.6109">
        <ele>52.4826</ele>
        <time>2024-01-27T13:54:36.693Z</time>
      </trkpt>
      <trkpt lat="43.78768" lon="7.61077">
        <ele>52.418778</ele>
        <time>2024-01-27T13:54:39.672Z</time>
      </trkpt>
      <trkpt lat="43.78771" lon="7.61063">
        <ele>52.35138</ele>
        <time>2024-01-27T13:54:42.682Z</time>
      </trkpt>
      <trkpt lat="43.78774" lon="7.61049">
        <ele>52.285057</ele>
        <time>2024-01-27T13:54:45.676Z</time>
      </trkpt>
      <trkpt lat="43.78777" lon="7.61036">
        <ele>52.221129</ele>
        <time>2024-01-27T13:54:48.689Z</time>
      </trkpt>
      <trkpt lat="43.7878" lon="7.61023">
        <ele>52.15549</ele>
        <time>2024-01-27T13:54:51.702Z</time>
      </trkpt>
      <trkpt lat="43.78784" lon="7.61007">
        <ele>52.077916</ele>
        <time>2024-01-27T13:54:54.689Z</time>
      </trkpt>
      <trkpt lat="43.78787" lon="7.60989">
        <ele>51.995416</ele>
        <time>2024-01-27T13:54:57.668Z</time>
      </trkpt>
      <trkpt lat="43.78792" lon="7.60973">
        <ele>51.916093</ele>
        <time>2024-01-27T13:55:00.681Z</time>
      </trkpt>
      <trkpt lat="43.78795" lon="7.60957">
        <ele>51.834954</ele>
        <time>2024-01-27T13:55:03.697Z</time>
      </trkpt>
      <trkpt lat="43.78799" lon="7.6094">
        <ele>51.755862</ele>
        <time>2024-01-27T13:55:06.696Z</time>
      </trkpt>
      <trkpt lat="43.78804" lon="7.60924">
        <ele>51.676562</ele>
        <time>2024-01-27T13:55:09.680Z</time>
      </trkpt>
      <trkpt lat="43.78807" lon="7.60909">
        <ele>51.604486</ele>
        <time>2024-01-27T13:55:12.668Z</time>
      </trkpt>
      <trkpt lat="43.78811" lon="7.60894">
        <ele>51.532134</ele>
        <time>2024-01-27T13:55:15.667Z</time>
      </trkpt>
      <trkpt lat="43.78814" lon="7.6088">
        <ele>51.462173</ele>
        <time>2024-01-27T13:55:18.689Z</time>
      </trkpt>
      <trkpt lat="43.78818" lon="7.60868">
        <ele>51.370774</ele>
        <time>2024-01-27T13:55:21.658Z</time>
      </trkpt>
      <trkpt lat="43.78821" lon="7.60852">
        <ele>51.132639</ele>
        <time>2024-01-27T13:55:26.675Z</time>
      </trkpt>
      <trkpt lat="43.78823" lon="7.60839">
        <ele>50.932758</ele>
        <time>2024-01-27T13:55:29.695Z</time>
      </trkpt>
      <trkpt lat="43.78826" lon="7.60824">
        <ele>50.709379</ele>
        <time>2024-01-27T13:55:32.677Z</time>
      </trkpt>
      <trkpt lat="43.78829" lon="7.6081">
        <ele>50.490517</ele>
        <time>2024-01-27T13:55:35.670Z</time>
      </trkpt>
      <trkpt lat="43.78832" lon="7.60796">
        <ele>50.270164</ele>
        <time>2024-01-27T13:55:38.695Z</time>
      </trkpt>
      <trkpt lat="43.7884" lon="7.60787">
        <ele>50.064574</ele>
        <time>2024-01-27T13:55:41.673Z</time>
      </trkpt>
      <trkpt lat="43.78852" lon="7.60784">
        <ele>49.829644</ele>
        <time>2024-01-27T13:55:44.679Z</time>
      </trkpt>
      <trkpt lat="43.78863" lon="7.60781">
        <ele>49.596504</ele>
        <time>2024-01-27T13:55:47.675Z</time>
      </trkpt>
      <trkpt lat="43.78874" lon="7.60778">
        <ele>49.359856</ele>
        <time>2024-01-27T13:55:50.682Z</time>
      </trkpt>
      <trkpt lat="43.78886" lon="7.60774">
        <ele>49.119935</ele>
        <time>2024-01-27T13:55:53.682Z</time>
      </trkpt>
      <trkpt lat="43.78897" lon="7.6077">
        <ele>48.881288</ele>
        <time>2024-01-27T13:55:56.686Z</time>
      </trkpt>
      <trkpt lat="43.78908" lon="7.60766">
        <ele>48.635581</ele>
        <time>2024-01-27T13:55:59.684Z</time>
      </trkpt>
      <trkpt lat="43.7892" lon="7.60763">
        <ele>48.388966</ele>
        <time>2024-01-27T13:56:02.661Z</time>
      </trkpt>
      <trkpt lat="43.78932" lon="7.60759">
        <ele>48.145726</ele>
        <time>2024-01-27T13:56:05.681Z</time>
      </trkpt>
      <trkpt lat="43.78943" lon="7.60756">
        <ele>47.903418</ele>
        <time>2024-01-27T13:56:08.697Z</time>
      </trkpt>
      <trkpt lat="43.78955" lon="7.60752">
        <ele>47.651932</ele>
        <time>2024-01-27T13:56:11.675Z</time>
      </trkpt>
      <trkpt lat="43.78967" lon="7.60748">
        <ele>47.371937</ele>
        <time>2024-01-27T13:56:14.675Z</time>
      </trkpt>
      <trkpt lat="43.78976" lon="7.6075">
        <ele>47.141378</ele>
        <time>2024-01-27T13:56:18.675Z</time>
      </trkpt>
      <trkpt lat="43.78977" lon="7.60751">
        <ele>47.115272</ele>
        <time>2024-01-27T13:56:49.317Z</time>
      </trkpt>
      <trkpt lat="43.78991" lon="7.60759">
        <ele>46.778105</ele>
        <time>2024-01-27T13:59:01.680Z</time>
      </trkpt>
      <trkpt lat="43.79001" lon="7.60766">
        <ele>46.505828</ele>
        <time>2024-01-27T13:59:05.690Z</time>
      </trkpt>
      <trkpt lat="43.79008" lon="7.60775">
        <ele>46.278596</ele>
        <time>2024-01-27T13:59:09.679Z</time>
      </trkpt>
      <trkpt lat="43.79006" lon="7.60791">
        <ele>46.008796</ele>
        <time>2024-01-27T13:59:13.680Z</time>
      </trkpt>
      <trkpt lat="43.79" lon="7.60803">
        <ele>45.756393</ele>
        <time>2024-01-27T13:59:17.679Z</time>
      </trkpt>
      <trkpt lat="43.78993" lon="7.60812">
        <ele>45.53442</ele>
        <time>2024-01-27T13:59:22.688Z</time>
      </trkpt>
      <trkpt lat="43.7899" lon="7.60824">
        <ele>45.316865</ele>
        <time>2024-01-27T13:59:33.677Z</time>
      </trkpt>
      <trkpt lat="43.78983" lon="7.60835">
        <ele>45.073029</ele>
        <time>2024-01-27T13:59:37.690Z</time>
      </trkpt>
      <trkpt lat="43.78977" lon="7.60846">
        <ele>44.856078</ele>
        <time>2024-01-27T13:59:40.691Z</time>
      </trkpt>
      <trkpt lat="43.78972" lon="7.60858">
        <ele>44.608639</ele>
        <time>2024-01-27T13:59:43.697Z</time>
      </trkpt>
      <trkpt lat="43.78967" lon="7.6087">
        <ele>44.388116</ele>
        <time>2024-01-27T13:59:45.674Z</time>
      </trkpt>
      <trkpt lat="43.7896" lon="7.60885">
        <ele>44.087697</ele>
        <time>2024-01-27T13:59:48.697Z</time>
      </trkpt>
      <trkpt lat="43.78954" lon="7.60898">
        <ele>43.831626</ele>
        <time>2024-01-27T13:59:51.698Z</time>
      </trkpt>
      <trkpt lat="43.7895" lon="7.6091">
        <ele>43.594692</ele>
        <time>2024-01-27T13:59:54.679Z</time>
      </trkpt>
      <trkpt lat="43.78945" lon="7.60923">
        <ele>44.129177</ele>
        <time>2024-01-27T13:59:57.689Z</time>
      </trkpt>
      <trkpt lat="43.7894" lon="7.60935">
        <ele>44.903276</ele>
        <time>2024-01-27T14:00:00.685Z</time>
      </trkpt>
      <trkpt lat="43.78935" lon="7.60949">
        <ele>45.712313</ele>
        <time>2024-01-27T14:00:03.685Z</time>
      </trkpt>
      <trkpt lat="43.78936" lon="7.60964">
        <ele>46.497422</ele>
        <time>2024-01-27T14:00:06.682Z</time>
      </trkpt>
      <trkpt lat="43.78941" lon="7.60978">
        <ele>47.338838</ele>
        <time>2024-01-27T14:00:09.677Z</time>
      </trkpt>
      <trkpt lat="43.78951" lon="7.60987">
        <ele>48.212644</ele>
        <time>2024-01-27T14:00:12.680Z</time>
      </trkpt>
      <trkpt lat="43.78962" lon="7.60994">
        <ele>49.162062</ele>
        <time>2024-01-27T14:00:15.690Z</time>
      </trkpt>
      <trkpt lat="43.78971" lon="7.60997">
        <ele>49.847675</ele>
        <time>2024-01-27T14:00:17.674Z</time>
      </trkpt>
      <trkpt lat="43.78981" lon="7.61006">
        <ele>50.718394</ele>
        <time>2024-01-27T14:00:20.688Z</time>
      </trkpt>
      <trkpt lat="43.78989" lon="7.61014">
        <ele>51.436389</ele>
        <time>2024-01-27T14:00:23.684Z</time>
      </trkpt>
      <trkpt lat="43.78997" lon="7.61022">
        <ele>52.157756</ele>
        <time>2024-01-27T14:00:28.688Z</time>
      </trkpt>
      <trkpt lat="43.78997" lon="7.61043">
        <ele>53.295284</ele>
        <time>2024-01-27T14:01:13.700Z</time>
      </trkpt>
      <trkpt lat="43.78992" lon="7.61051">
        <ele>53.881863</ele>
        <time>2024-01-27T14:01:28.152Z</time>
      </trkpt>
      <trkpt lat="43.79" lon="7.61067">
        <ele>54.939587</ele>
        <time>2024-01-27T14:02:26.939Z</time>
      </trkpt>
      <trkpt lat="43.79009" lon="7.61059">
        <ele>55.712783</ele>
        <time>2024-01-27T14:02:27.712Z</time>
      </trkpt>
      <trkpt lat="43.79012" lon="7.6106">
        <ele>55.93106</ele>
        <time>2024-01-27T14:02:30.812Z</time>
      </trkpt>
      <trkpt lat="43.79005" lon="7.61051">
        <ele>56.639178</ele>
        <time>2024-01-27T14:08:22.812Z</time>
      </trkpt>
      <trkpt lat="43.79003" lon="7.61037">
        <ele>56.763519</ele>
        <time>2024-01-27T14:09:05.691Z</time>
      </trkpt>
      <trkpt lat="43.78997" lon="7.61026">
        <ele>56.544819</ele>
        <time>2024-01-27T14:09:11.701Z</time>
      </trkpt>
      <trkpt lat="43.78989" lon="7.6102">
        <ele>56.332638</ele>
        <time>2024-01-27T14:09:16.687Z</time>
      </trkpt>
      <trkpt lat="43.78982" lon="7.61012">
        <ele>56.127878</ele>
        <time>2024-01-27T14:09:19.717Z</time>
      </trkpt>
      <trkpt lat="43.78973" lon="7.61006">
        <ele>55.912291</ele>
        <time>2024-01-27T14:09:22.691Z</time>
      </trkpt>
      <trkpt lat="43.78964" lon="7.60999">
        <ele>55.696449</ele>
        <time>2024-01-27T14:09:25.692Z</time>
      </trkpt>
      <trkpt lat="43.78954" lon="7.60994">
        <ele>55.454102</ele>
        <time>2024-01-27T14:09:28.662Z</time>
      </trkpt>
      <trkpt lat="43.78946" lon="7.60987">
        <ele>55.241145</ele>
        <time>2024-01-27T14:09:31.683Z</time>
      </trkpt>
      <trkpt lat="43.78938" lon="7.60978">
        <ele>55.026182</ele>
        <time>2024-01-27T14:09:34.697Z</time>
      </trkpt>
      <trkpt lat="43.78932" lon="7.60969">
        <ele>54.817734</ele>
        <time>2024-01-27T14:09:37.695Z</time>
      </trkpt>
      <trkpt lat="43.78932" lon="7.60957">
        <ele>54.616582</ele>
        <time>2024-01-27T14:09:40.691Z</time>
      </trkpt>
      <trkpt lat="43.78937" lon="7.60944">
        <ele>54.373822</ele>
        <time>2024-01-27T14:09:43.701Z</time>
      </trkpt>
      <trkpt lat="43.78943" lon="7.6093">
        <ele>54.116703</ele>
        <time>2024-01-27T14:09:46.703Z</time>
      </trkpt>
      <trkpt lat="43.7895" lon="7.60918">
        <ele>53.875977</ele>
        <time>2024-01-27T14:09:49.696Z</time>
      </trkpt>
      <trkpt lat="43.78957" lon="7.60908">
        <ele>53.652872</ele>
        <time>2024-01-27T14:09:52.681Z</time>
      </trkpt>
      <trkpt lat="43.78963" lon="7.60897">
        <ele>53.431256</ele>
        <time>2024-01-27T14:09:55.678Z</time>
      </trkpt>
      <trkpt lat="43.78969" lon="7.60882">
        <ele>53.157032</ele>
        <time>2024-01-27T14:09:58.697Z</time>
      </trkpt>
      <trkpt lat="43.78975" lon="7.60865">
        <ele>52.951426</ele>
        <time>2024-01-27T14:10:01.692Z</time>
      </trkpt>
      <trkpt lat="43.78981" lon="7.60849">
        <ele>53.035898</ele>
        <time>2024-01-27T14:10:04.689Z</time>
      </trkpt>
      <trkpt lat="43.78988" lon="7.60833">
        <ele>53.117573</ele>
        <time>2024-01-27T14:10:07.692Z</time>
      </trkpt>
      <trkpt lat="43.78993" lon="7.60818">
        <ele>53.190429</ele>
        <time>2024-01-27T14:10:10.695Z</time>
      </trkpt>
      <trkpt lat="43.78999" lon="7.60805">
        <ele>53.263279</ele>
        <time>2024-01-27T14:10:13.691Z</time>
      </trkpt>
      <trkpt lat="43.79006" lon="7.60793">
        <ele>53.328181</ele>
        <time>2024-01-27T14:10:16.685Z</time>
      </trkpt>
      <trkpt lat="43.79012" lon="7.60783">
        <ele>53.388025</ele>
        <time>2024-01-27T14:10:19.696Z</time>
      </trkpt>
      <trkpt lat="43.79017" lon="7.60772">
        <ele>53.447237</ele>
        <time>2024-01-27T14:10:22.687Z</time>
      </trkpt>
      <trkpt lat="43.79022" lon="7.6076">
        <ele>53.508077</ele>
        <time>2024-01-27T14:10:25.682Z</time>
      </trkpt>
      <trkpt lat="43.79027" lon="7.60748">
        <ele>53.571108</ele>
        <time>2024-01-27T14:10:28.679Z</time>
      </trkpt>
      <trkpt lat="43.79033" lon="7.60736">
        <ele>53.636008</ele>
        <time>2024-01-27T14:10:31.677Z</time>
      </trkpt>
      <trkpt lat="43.79038" lon="7.60724">
        <ele>53.700812</ele>
        <time>2024-01-27T14:10:34.700Z</time>
      </trkpt>
      <trkpt lat="43.79047" lon="7.60714">
        <ele>53.771178</ele>
        <time>2024-01-27T14:10:37.687Z</time>
      </trkpt>
      <trkpt lat="43.79059" lon="7.60709">
        <ele>53.84497</ele>
        <time>2024-01-27T14:10:40.658Z</time>
      </trkpt>
      <trkpt lat="43.79069" lon="7.60703">
        <ele>53.917466</ele>
        <time>2024-01-27T14:10:43.689Z</time>
      </trkpt>
      <trkpt lat="43.79079" lon="7.60695">
        <ele>53.986947</ele>
        <time>2024-01-27T14:10:46.695Z</time>
      </trkpt>
      <trkpt lat="43.7909" lon="7.60687">
        <ele>54.062071</ele>
        <time>2024-01-27T14:10:49.676Z</time>
      </trkpt>
      <trkpt lat="43.791" lon="7.6068">
        <ele>54.136767</ele>
        <time>2024-01-27T14:10:52.714Z</time>
      </trkpt>
      <trkpt lat="43.79111" lon="7.60671">
        <ele>54.216362</ele>
        <time>2024-01-27T14:10:55.669Z</time>
      </trkpt>
      <trkpt lat="43.79122" lon="7.60663">
        <ele>54.293051</ele>
        <time>2024-01-27T14:10:58.676Z</time>
      </trkpt>
      <trkpt lat="43.79132" lon="7.60654">
        <ele>54.371357</ele>
        <time>2024-01-27T14:11:01.686Z</time>
      </trkpt>
      <trkpt lat="43.79141" lon="7.60645">
        <ele>54.441457</ele>
        <time>2024-01-27T14:11:04.674Z</time>
      </trkpt>
      <trkpt lat="43.79151" lon="7.60636">
        <ele>54.51446</ele>
        <time>2024-01-27T14:11:07.695Z</time>
      </trkpt>
      <trkpt lat="43.79161" lon="7.60629">
        <ele>54.583375</ele>
        <time>2024-01-27T14:11:10.689Z</time>
      </trkpt>
      <trkpt lat="43.79171" lon="7.60621">
        <ele>54.655046</ele>
        <time>2024-01-27T14:11:13.676Z</time>
      </trkpt>
      <trkpt lat="43.79178" lon="7.60613">
        <ele>54.71399</ele>
        <time>2024-01-27T14:11:16.687Z</time>
      </trkpt>
      <trkpt lat="43.79185" lon="7.60604">
        <ele>54.775185</ele>
        <time>2024-01-27T14:11:19.685Z</time>
      </trkpt>
      <trkpt lat="43.79192" lon="7.60595">
        <ele>54.832517</ele>
        <time>2024-01-27T14:11:22.688Z</time>
      </trkpt>
      <trkpt lat="43.79201" lon="7.6059">
        <ele>54.893301</ele>
        <time>2024-01-27T14:11:27.698Z</time>
      </trkpt>
      <trkpt lat="43.7921" lon="7.60589">
        <ele>54.951374</ele>
        <time>2024-01-27T14:11:31.686Z</time>
      </trkpt>
      <trkpt lat="43.79215" lon="7.60579">
        <ele>55.010305</ele>
        <time>2024-01-27T14:11:35.681Z</time>
      </trkpt>
      <trkpt lat="43.79222" lon="7.60569">
        <ele>55.070126</ele>
        <time>2024-01-27T14:11:43.671Z</time>
      </trkpt>
      <trkpt lat="43.79228" lon="7.60558">
        <ele>55.133532</ele>
        <time>2024-01-27T14:11:47.674Z</time>
      </trkpt>
      <trkpt lat="43.79235" lon="7.60549">
        <ele>55.201356</ele>
        <time>2024-01-27T14:11:52.676Z</time>
      </trkpt>
      <trkpt lat="43.79242" lon="7.60542">
        <ele>55.350121</ele>
        <time>2024-01-27T14:11:58.678Z</time>
      </trkpt>
      <trkpt lat="43.79252" lon="7.60537">
        <ele>55.520325</ele>
        <time>2024-01-27T14:12:04.679Z</time>
      </trkpt>
      <trkpt lat="43.79259" lon="7.60529">
        <ele>55.664411</ele>
        <time>2024-01-27T14:12:09.675Z</time>
      </trkpt>
      <trkpt lat="43.79268" lon="7.60523">
        <ele>55.818034</ele>
        <time>2024-01-27T14:12:15.688Z</time>
      </trkpt>
      <trkpt lat="43.79267" lon="7.6051">
        <ele>55.968597</ele>
        <time>2024-01-27T14:12:34.669Z</time>
      </trkpt>
      <trkpt lat="43.79268" lon="7.60496">
        <ele>56.132128</ele>
        <time>2024-01-27T14:12:45.688Z</time>
      </trkpt>
      <trkpt lat="43.79264" lon="7.60483">
        <ele>56.294966</ele>
        <time>2024-01-27T14:12:50.687Z</time>
      </trkpt>
      <trkpt lat="43.79257" lon="7.6047">
        <ele>56.482485</ele>
        <time>2024-01-27T14:12:54.692Z</time>
      </trkpt>
      <trkpt lat="43.79252" lon="7.60459">
        <ele>56.636214</ele>
        <time>2024-01-27T14:12:57.699Z</time>
      </trkpt>
      <trkpt lat="43.79246" lon="7.60448">
        <ele>56.7993</ele>
        <time>2024-01-27T14:13:00.687Z</time>
      </trkpt>
      <trkpt lat="43.79241" lon="7.60436">
        <ele>56.955074</ele>
        <time>2024-01-27T14:13:03.675Z</time>
      </trkpt>
      <trkpt lat="43.79235" lon="7.60423">
        <ele>57.1375</ele>
        <time>2024-01-27T14:13:07.703Z</time>
      </trkpt>
      <trkpt lat="43.79229" lon="7.60412">
        <ele>57.289417</ele>
        <time>2024-01-27T14:13:10.678Z</time>
      </trkpt>
      <trkpt lat="43.79223" lon="7.60399">
        <ele>57.473522</ele>
        <time>2024-01-27T14:13:14.716Z</time>
      </trkpt>
      <trkpt lat="43.79216" lon="7.60388">
        <ele>57.642171</ele>
        <time>2024-01-27T14:13:19.679Z</time>
      </trkpt>
      <trkpt lat="43.7921" lon="7.60379">
        <ele>57.790215</ele>
        <time>2024-01-27T14:13:24.683Z</time>
      </trkpt>
      <trkpt lat="43.79212" lon="7.60366">
        <ele>57.941189</ele>
        <time>2024-01-27T14:13:31.671Z</time>
      </trkpt>
      <trkpt lat="43.79205" lon="7.60354">
        <ele>58.061652</ele>
        <time>2024-01-27T14:13:58.687Z</time>
      </trkpt>
      <trkpt lat="43.79198" lon="7.60345">
        <ele>58.057684</ele>
        <time>2024-01-27T14:14:01.680Z</time>
      </trkpt>
      <trkpt lat="43.79188" lon="7.60336">
        <ele>58.052741</ele>
        <time>2024-01-27T14:14:05.669Z</time>
      </trkpt>
      <trkpt lat="43.79181" lon="7.60327">
        <ele>58.04857</ele>
        <time>2024-01-27T14:14:09.683Z</time>
      </trkpt>
      <trkpt lat="43.79175" lon="7.60315">
        <ele>58.043999</ele>
        <time>2024-01-27T14:14:14.682Z</time>
      </trkpt>
      <trkpt lat="43.79169" lon="7.60305">
        <ele>58.04006</ele>
        <time>2024-01-27T14:14:19.666Z</time>
      </trkpt>
      <trkpt lat="43.79159" lon="7.60297">
        <ele>58.035202</ele>
        <time>2024-01-27T14:14:23.666Z</time>
      </trkpt>
      <trkpt lat="43.7915" lon="7.60292">
        <ele>58.030828</ele>
        <time>2024-01-27T14:14:27.672Z</time>
      </trkpt>
      <trkpt lat="43.79143" lon="7.60281">
        <ele>58.026352</ele>
        <time>2024-01-27T14:14:31.684Z</time>
      </trkpt>
      <trkpt lat="43.79141" lon="7.60265">
        <ele>58.021352</ele>
        <time>2024-01-27T14:14:35.664Z</time>
      </trkpt>
      <trkpt lat="43.79135" lon="7.60253">
        <ele>58.016786</ele>
        <time>2024-01-27T14:14:38.688Z</time>
      </trkpt>
      <trkpt lat="43.79127" lon="7.60243">
        <ele>58.011983</ele>
        <time>2024-01-27T14:14:40.661Z</time>
      </trkpt>
      <trkpt lat="43.79119" lon="7.60235">
        <ele>58.007623</ele>
        <time>2024-01-27T14:14:41.657Z</time>
      </trkpt>
      <trkpt lat="43.79106" lon="7.6022">
        <ele>58.000457</ele>
        <time>2024-01-27T14:14:43.685Z</time>
      </trkpt>
      <trkpt lat="43.79097" lon="7.60206">
        <ele>57.994748</ele>
        <time>2024-01-27T14:14:45.663Z</time>
      </trkpt>
      <trkpt lat="43.79088" lon="7.60194">
        <ele>57.98946</ele>
        <time>2024-01-27T14:14:47.667Z</time>
      </trkpt>
      <trkpt lat="43.79082" lon="7.60182">
        <ele>57.905232</ele>
        <time>2024-01-27T14:14:49.645Z</time>
      </trkpt>
      <trkpt lat="43.79075" lon="7.60169">
        <ele>57.539344</ele>
        <time>2024-01-27T14:14:51.680Z</time>
      </trkpt>
      <trkpt lat="43.79069" lon="7.60155">
        <ele>57.165777</ele>
        <time>2024-01-27T14:14:54.667Z</time>
      </trkpt>
      <trkpt lat="43.79063" lon="7.60144">
        <ele>56.858711</ele>
        <time>2024-01-27T14:14:57.661Z</time>
      </trkpt>
      <trkpt lat="43.79045" lon="7.60131">
        <ele>56.201306</ele>
        <time>2024-01-27T14:14:59.668Z</time>
      </trkpt>
      <trkpt lat="43.79028" lon="7.60131">
        <ele>55.677267</ele>
        <time>2024-01-27T14:15:00.677Z</time>
      </trkpt>
      <trkpt lat="43.79017" lon="7.60123">
        <ele>55.292804</ele>
        <time>2024-01-27T14:15:02.668Z</time>
      </trkpt>
      <trkpt lat="43.79014" lon="7.60111">
        <ele>54.990031</ele>
        <time>2024-01-27T14:15:05.673Z</time>
      </trkpt>
      <trkpt lat="43.79015" lon="7.60096">
        <ele>54.646772</ele>
        <time>2024-01-27T14:15:09.700Z</time>
      </trkpt>
      <trkpt lat="43.79018" lon="7.60084">
        <ele>54.356289</ele>
        <time>2024-01-27T14:15:13.689Z</time>
      </trkpt>
      <trkpt lat="43.79025" lon="7.60076">
        <ele>54.070271</ele>
        <time>2024-01-27T14:15:19.685Z</time>
      </trkpt>
      <trkpt lat="43.79016" lon="7.60071">
        <ele>53.777917</ele>
        <time>2024-01-27T14:15:28.676Z</time>
      </trkpt>
      <trkpt lat="43.79011" lon="7.60084">
        <ele>53.452718</ele>
        <time>2024-01-27T14:15:47.696Z</time>
      </trkpt>
      <trkpt lat="43.79005" lon="7.60093">
        <ele>53.162998</ele>
        <time>2024-01-27T14:15:50.691Z</time>
      </trkpt>
      <trkpt lat="43.78996" lon="7.60102">
        <ele>52.820465</ele>
        <time>2024-01-27T14:15:53.689Z</time>
      </trkpt>
      <trkpt lat="43.78991" lon="7.60112">
        <ele>52.528513</ele>
        <time>2024-01-27T14:15:56.681Z</time>
      </trkpt>
      <trkpt lat="43.78992" lon="7.60125">
        <ele>52.300109</ele>
        <time>2024-01-27T14:15:59.683Z</time>
      </trkpt>
      <trkpt lat="43.7899" lon="7.6014">
        <ele>52.261001</ele>
        <time>2024-01-27T14:16:02.685Z</time>
      </trkpt>
      <trkpt lat="43.78984" lon="7.60157">
        <ele>52.214289</ele>
        <time>2024-01-27T14:16:05.690Z</time>
      </trkpt>
      <trkpt lat="43.78979" lon="7.60171">
        <ele>52.172041</ele>
        <time>2024-01-27T14:16:08.673Z</time>
      </trkpt>
      <trkpt lat="43.78973" lon="7.60185">
        <ele>52.129542</ele>
        <time>2024-01-27T14:16:11.705Z</time>
      </trkpt>
      <trkpt lat="43.78968" lon="7.60199">
        <ele>52.090616</ele>
        <time>2024-01-27T14:16:14.689Z</time>
      </trkpt>
      <trkpt lat="43.78963" lon="7.60215">
        <ele>52.044921</ele>
        <time>2024-01-27T14:16:17.695Z</time>
      </trkpt>
      <trkpt lat="43.78961" lon="7.60232">
        <ele>52.001489</ele>
        <time>2024-01-27T14:16:20.684Z</time>
      </trkpt>
      <trkpt lat="43.78958" lon="7.60248">
        <ele>51.958813</ele>
        <time>2024-01-27T14:16:23.696Z</time>
      </trkpt>
      <trkpt lat="43.78952" lon="7.60265">
        <ele>51.911458</ele>
        <time>2024-01-27T14:16:26.700Z</time>
      </trkpt>
      <trkpt lat="43.78948" lon="7.60281">
        <ele>51.867932</ele>
        <time>2024-01-27T14:16:29.686Z</time>
      </trkpt>
      <trkpt lat="43.78945" lon="7.60297">
        <ele>51.824051</ele>
        <time>2024-01-27T14:16:32.707Z</time>
      </trkpt>
      <trkpt lat="43.78942" lon="7.60314">
        <ele>51.77963</ele>
        <time>2024-01-27T14:16:35.692Z</time>
      </trkpt>
      <trkpt lat="43.78938" lon="7.60331">
        <ele>51.732786</ele>
        <time>2024-01-27T14:16:38.694Z</time>
      </trkpt>
      <trkpt lat="43.78935" lon="7.60347">
        <ele>51.690456</ele>
        <time>2024-01-27T14:16:41.699Z</time>
      </trkpt>
      <trkpt lat="43.78931" lon="7.60362">
        <ele>51.695508</ele>
        <time>2024-01-27T14:16:44.685Z</time>
      </trkpt>
      <trkpt lat="43.78928" lon="7.60376">
        <ele>51.759054</ele>
        <time>2024-01-27T14:16:47.703Z</time>
      </trkpt>
      <trkpt lat="43.78925" lon="7.6039">
        <ele>51.819646</ele>
        <time>2024-01-27T14:16:50.706Z</time>
      </trkpt>
      <trkpt lat="43.78921" lon="7.60404">
        <ele>51.884454</ele>
        <time>2024-01-27T14:16:53.713Z</time>
      </trkpt>
      <trkpt lat="43.78918" lon="7.60417">
        <ele>51.942591</ele>
        <time>2024-01-27T14:16:56.703Z</time>
      </trkpt>
      <trkpt lat="43.78915" lon="7.60429">
        <ele>51.999912</ele>
        <time>2024-01-27T14:16:59.703Z</time>
      </trkpt>
      <trkpt lat="43.78912" lon="7.60442">
        <ele>52.058503</ele>
        <time>2024-01-27T14:17:02.696Z</time>
      </trkpt>
      <trkpt lat="43.78908" lon="7.60456">
        <ele>52.12356</ele>
        <time>2024-01-27T14:17:05.689Z</time>
      </trkpt>
      <trkpt lat="43.78905" lon="7.60471">
        <ele>52.191084</ele>
        <time>2024-01-27T14:17:08.691Z</time>
      </trkpt>
      <trkpt lat="43.78901" lon="7.60487">
        <ele>52.261165</ele>
        <time>2024-01-27T14:17:11.691Z</time>
      </trkpt>
      <trkpt lat="43.78899" lon="7.60499">
        <ele>52.316849</ele>
        <time>2024-01-27T14:17:14.691Z</time>
      </trkpt>
      <trkpt lat="43.78904" lon="7.60512">
        <ele>52.377158</ele>
        <time>2024-01-27T14:17:19.681Z</time>
      </trkpt>
      <trkpt lat="43.78915" lon="7.60513">
        <ele>52.447377</ele>
        <time>2024-01-27T14:17:23.694Z</time>
      </trkpt>
      <trkpt lat="43.78927" lon="7.60516">
        <ele>52.51498</ele>
        <time>2024-01-27T14:17:27.685Z</time>
      </trkpt>
      <trkpt lat="43.78938" lon="7.60518">
        <ele>52.581695</ele>
        <time>2024-01-27T14:17:31.705Z</time>
      </trkpt>
      <trkpt lat="43.78949" lon="7.60517">
        <ele>52.649745</ele>
        <time>2024-01-27T14:17:35.687Z</time>
      </trkpt>
      <trkpt lat="43.7896" lon="7.60516">
        <ele>52.717382</ele>
        <time>2024-01-27T14:17:39.699Z</time>
      </trkpt>
      <trkpt lat="43.78972" lon="7.60516">
        <ele>52.905018</ele>
        <time>2024-01-27T14:17:43.700Z</time>
      </trkpt>
      <trkpt lat="43.78984" lon="7.60516">
        <ele>53.152853</ele>
        <time>2024-01-27T14:17:47.688Z</time>
      </trkpt>
      <trkpt lat="43.78994" lon="7.60517">
        <ele>53.351794</ele>
        <time>2024-01-27T14:17:50.682Z</time>
      </trkpt>
      <trkpt lat="43.79001" lon="7.60525">
        <ele>53.551473</ele>
        <time>2024-01-27T14:17:54.699Z</time>
      </trkpt>
      <trkpt lat="43.79012" lon="7.60524">
        <ele>53.77112</ele>
        <time>2024-01-27T14:17:59.687Z</time>
      </trkpt>
      <trkpt lat="43.79021" lon="7.60517">
        <ele>53.987268</ele>
        <time>2024-01-27T14:18:03.687Z</time>
      </trkpt>
      <trkpt lat="43.7903" lon="7.60507">
        <ele>54.227513</ele>
        <time>2024-01-27T14:18:07.705Z</time>
      </trkpt>
      <trkpt lat="43.79041" lon="7.60499">
        <ele>54.477528</ele>
        <time>2024-01-27T14:18:11.682Z</time>
      </trkpt>
      <trkpt lat="43.79049" lon="7.60491">
        <ele>54.683807</ele>
        <time>2024-01-27T14:18:14.696Z</time>
      </trkpt>
      <trkpt lat="43.79057" lon="7.60484">
        <ele>54.883379</ele>
        <time>2024-01-27T14:18:17.677Z</time>
      </trkpt>
      <trkpt lat="43.79065" lon="7.60478">
        <ele>55.070605</ele>
        <time>2024-01-27T14:18:20.699Z</time>
      </trkpt>
      <trkpt lat="43.79074" lon="7.6047">
        <ele>55.283823</ele>
        <time>2024-01-27T14:18:23.692Z</time>
      </trkpt>
      <trkpt lat="43.79084" lon="7.60462">
        <ele>55.520492</ele>
        <time>2024-01-27T14:18:27.694Z</time>
      </trkpt>
      <trkpt lat="43.79092" lon="7.60455">
        <ele>55.718637</ele>
        <time>2024-01-27T14:18:30.706Z</time>
      </trkpt>
      <trkpt lat="43.791" lon="7.60447">
        <ele>55.922408</ele>
        <time>2024-01-27T14:18:33.687Z</time>
      </trkpt>
      <trkpt lat="43.79109" lon="7.6044">
        <ele>56.1272</ele>
        <time>2024-01-27T14:18:36.711Z</time>
      </trkpt>
      <trkpt lat="43.79117" lon="7.60432">
        <ele>56.338572</ele>
        <time>2024-01-27T14:18:39.695Z</time>
      </trkpt>
      <trkpt lat="43.79127" lon="7.60423">
        <ele>56.51685</ele>
        <time>2024-01-27T14:18:42.667Z</time>
      </trkpt>
      <trkpt lat="43.79137" lon="7.60417">
        <ele>56.631731</ele>
        <time>2024-01-27T14:18:45.692Z</time>
      </trkpt>
      <trkpt lat="43.79146" lon="7.60409">
        <ele>56.747248</ele>
        <time>2024-01-27T14:18:48.685Z</time>
      </trkpt>
      <trkpt lat="43.79155" lon="7.60402">
        <ele>56.854065</ele>
        <time>2024-01-27T14:18:51.693Z</time>
      </trkpt>
      <trkpt lat="43.79166" lon="7.60399">
        <ele>56.970591</ele>
        <time>2024-01-27T14:18:55.684Z</time>
      </trkpt>
      <trkpt lat="43.79174" lon="7.6039">
        <ele>57.075074</ele>
        <time>2024-01-27T14:18:59.689Z</time>
      </trkpt>
      <trkpt lat="43.79183" lon="7.60384">
        <ele>57.175468</ele>
        <time>2024-01-27T14:19:03.676Z</time>
      </trkpt>
      <trkpt lat="43.79203" lon="7.60365">
        <ele>57.430645</ele>
        <time>2024-01-27T14:19:27.701Z</time>
      </trkpt>
      <trkpt lat="43.792" lon="7.6035">
        <ele>57.54795</ele>
        <time>2024-01-27T14:19:31.680Z</time>
      </trkpt>
      <trkpt lat="43.79191" lon="7.6034">
        <ele>57.669348</ele>
        <time>2024-01-27T14:19:34.673Z</time>
      </trkpt>
      <trkpt lat="43.79181" lon="7.60333">
        <ele>57.784258</ele>
        <time>2024-01-27T14:19:37.705Z</time>
      </trkpt>
      <trkpt lat="43.7917" lon="7.6033">
        <ele>57.896918</ele>
        <time>2024-01-27T14:19:40.671Z</time>
      </trkpt>
      <trkpt lat="43.79161" lon="7.60334">
        <ele>57.9994</ele>
        <time>2024-01-27T14:19:43.697Z</time>
      </trkpt>
      <trkpt lat="43.79152" lon="7.60341">
        <ele>58.106734</ele>
        <time>2024-01-27T14:19:46.680Z</time>
      </trkpt>
      <trkpt lat="43.79144" lon="7.60348">
        <ele>58.206352</ele>
        <time>2024-01-27T14:19:49.680Z</time>
      </trkpt>
      <trkpt lat="43.79134" lon="7.60357">
        <ele>58.33095</ele>
        <time>2024-01-27T14:19:53.701Z</time>
      </trkpt>
      <trkpt lat="43.79125" lon="7.60365">
        <ele>58.821147</ele>
        <time>2024-01-27T14:19:57.685Z</time>
      </trkpt>
      <trkpt lat="43.79115" lon="7.60373">
        <ele>59.321491</ele>
        <time>2024-01-27T14:20:01.687Z</time>
      </trkpt>
      <trkpt lat="43.79105" lon="7.6038">
        <ele>59.833482</ele>
        <time>2024-01-27T14:20:05.665Z</time>
      </trkpt>
      <trkpt lat="43.79095" lon="7.60387">
        <ele>60.297162</ele>
        <time>2024-01-27T14:20:09.693Z</time>
      </trkpt>
      <trkpt lat="43.79086" lon="7.60394">
        <ele>60.779129</ele>
        <time>2024-01-27T14:20:13.679Z</time>
      </trkpt>
      <trkpt lat="43.79076" lon="7.60399">
        <ele>61.255855</ele>
        <time>2024-01-27T14:20:17.673Z</time>
      </trkpt>
      <trkpt lat="43.79066" lon="7.60407">
        <ele>61.75458</ele>
        <time>2024-01-27T14:20:22.684Z</time>
      </trkpt>
      <trkpt lat="43.79058" lon="7.60413">
        <ele>62.177809</ele>
        <time>2024-01-27T14:20:27.675Z</time>
      </trkpt>
      <trkpt lat="43.79048" lon="7.60419">
        <ele>62.650179</ele>
        <time>2024-01-27T14:20:32.680Z</time>
      </trkpt>
      <trkpt lat="43.79038" lon="7.60426">
        <ele>63.135046</ele>
        <time>2024-01-27T14:20:37.681Z</time>
      </trkpt>
      <trkpt lat="43.79029" lon="7.60434">
        <ele>63.634455</ele>
        <time>2024-01-27T14:20:42.685Z</time>
      </trkpt>
      <trkpt lat="43.79019" lon="7.6044">
        <ele>64.103064</ele>
        <time>2024-01-27T14:20:47.695Z</time>
      </trkpt>
      <trkpt lat="43.79009" lon="7.60446">
        <ele>64.570866</ele>
        <time>2024-01-27T14:20:52.683Z</time>
      </trkpt>
      <trkpt lat="43.78999" lon="7.60448">
        <ele>65.033243</ele>
        <time>2024-01-27T14:20:56.659Z</time>
      </trkpt>
      <trkpt lat="43.7899" lon="7.60445">
        <ele>65.436084</ele>
        <time>2024-01-27T14:21:00.678Z</time>
      </trkpt>
      <trkpt lat="43.78981" lon="7.60437">
        <ele>65.919511</ele>
        <time>2024-01-27T14:21:05.683Z</time>
      </trkpt>
      <trkpt lat="43.78975" lon="7.60426">
        <ele>66.422759</ele>
        <time>2024-01-27T14:21:10.669Z</time>
      </trkpt>
      <trkpt lat="43.78973" lon="7.60413">
        <ele>67.140937</ele>
        <time>2024-01-27T14:21:15.695Z</time>
      </trkpt>
      <trkpt lat="43.78975" lon="7.604">
        <ele>67.87103</ele>
        <time>2024-01-27T14:21:20.663Z</time>
      </trkpt>
      <trkpt lat="43.78977" lon="7.60386">
        <ele>68.689056</ele>
        <time>2024-01-27T14:21:25.666Z</time>
      </trkpt>
      <trkpt lat="43.78979" lon="7.60372">
        <ele>69.455266</ele>
        <time>2024-01-27T14:21:30.669Z</time>
      </trkpt>
      <trkpt lat="43.78982" lon="7.6036">
        <ele>70.174586</ele>
        <time>2024-01-27T14:21:35.678Z</time>
      </trkpt>
      <trkpt lat="43.78984" lon="7.60346">
        <ele>70.978198</ele>
        <time>2024-01-27T14:21:40.684Z</time>
      </trkpt>
      <trkpt lat="43.78986" lon="7.60333">
        <ele>71.70322</ele>
        <time>2024-01-27T14:21:44.685Z</time>
      </trkpt>
      <trkpt lat="43.7899" lon="7.6032">
        <ele>72.503736</ele>
        <time>2024-01-27T14:21:49.696Z</time>
      </trkpt>
      <trkpt lat="43.78995" lon="7.60306">
        <ele>73.358802</ele>
        <time>2024-01-27T14:21:55.697Z</time>
      </trkpt>
      <trkpt lat="43.79" lon="7.60293">
        <ele>74.179372</ele>
        <time>2024-01-27T14:22:00.692Z</time>
      </trkpt>
      <trkpt lat="43.79003" lon="7.60281">
        <ele>74.876811</ele>
        <time>2024-01-27T14:22:04.685Z</time>
      </trkpt>
      <trkpt lat="43.79008" lon="7.60269">
        <ele>75.697067</ele>
        <time>2024-01-27T14:22:09.687Z</time>
      </trkpt>
      <trkpt lat="43.79013" lon="7.60257">
        <ele>76.408663</ele>
        <time>2024-01-27T14:22:13.696Z</time>
      </trkpt>
      <trkpt lat="43.79019" lon="7.60247">
        <ele>77.158725</ele>
        <time>2024-01-27T14:22:18.687Z</time>
      </trkpt>
      <trkpt lat="43.79025" lon="7.60234">
        <ele>78.003364</ele>
        <time>2024-01-27T14:23:00.681Z</time>
      </trkpt>
      <trkpt lat="43.79033" lon="7.60226">
        <ele>78.809411</ele>
        <time>2024-01-27T14:23:05.670Z</time>
      </trkpt>
      <trkpt lat="43.7904" lon="7.60218">
        <ele>79.502667</ele>
        <time>2024-01-27T14:23:09.682Z</time>
      </trkpt>
      <trkpt lat="43.79049" lon="7.60208">
        <ele>80.365846</ele>
        <time>2024-01-27T14:23:14.684Z</time>
      </trkpt>
      <trkpt lat="43.79056" lon="7.602">
        <ele>81.024485</ele>
        <time>2024-01-27T14:23:18.688Z</time>
      </trkpt>
      <trkpt lat="43.79063" lon="7.60189">
        <ele>81.759437</ele>
        <time>2024-01-27T14:23:22.676Z</time>
      </trkpt>
      <trkpt lat="43.7907" lon="7.60179">
        <ele>82.45567</ele>
        <time>2024-01-27T14:23:26.689Z</time>
      </trkpt>
      <trkpt lat="43.79076" lon="7.60168">
        <ele>83.186789</ele>
        <time>2024-01-27T14:23:30.667Z</time>
      </trkpt>
      <trkpt lat="43.79082" lon="7.60157">
        <ele>83.917463</ele>
        <time>2024-01-27T14:23:34.684Z</time>
      </trkpt>
      <trkpt lat="43.79089" lon="7.60146">
        <ele>84.632446</ele>
        <time>2024-01-27T14:23:38.680Z</time>
      </trkpt>
      <trkpt lat="43.79095" lon="7.60134">
        <ele>85.396616</ele>
        <time>2024-01-27T14:23:42.688Z</time>
      </trkpt>
      <trkpt lat="43.79101" lon="7.60122">
        <ele>86.144031</ele>
        <time>2024-01-27T14:23:46.696Z</time>
      </trkpt>
      <trkpt lat="43.79106" lon="7.6011">
        <ele>86.850919</ele>
        <time>2024-01-27T14:23:50.683Z</time>
      </trkpt>
      <trkpt lat="43.79111" lon="7.60098">
        <ele>87.540367</ele>
        <time>2024-01-27T14:23:54.696Z</time>
      </trkpt>
      <trkpt lat="43.79116" lon="7.60087">
        <ele>88.217415</ele>
        <time>2024-01-27T14:23:58.695Z</time>
      </trkpt>
      <trkpt lat="43.79121" lon="7.60077">
        <ele>88.861724</ele>
        <time>2024-01-27T14:24:02.682Z</time>
      </trkpt>
      <trkpt lat="43.79126" lon="7.60064">
        <ele>89.641235</ele>
        <time>2024-01-27T14:24:07.687Z</time>
      </trkpt>
      <trkpt lat="43.79129" lon="7.60049">
        <ele>90.44595</ele>
        <time>2024-01-27T14:24:12.680Z</time>
      </trkpt>
      <trkpt lat="43.79131" lon="7.60036">
        <ele>91.126866</ele>
        <time>2024-01-27T14:24:16.674Z</time>
      </trkpt>
      <trkpt lat="43.79136" lon="7.60016">
        <ele>92.197257</ele>
        <time>2024-01-27T14:30:37.710Z</time>
      </trkpt>
      <trkpt lat="43.79139" lon="7.60005">
        <ele>92.842686</ele>
        <time>2024-01-27T14:30:51.661Z</time>
      </trkpt>
      <trkpt lat="43.79144" lon="7.59993">
        <ele>93.44663</ele>
        <time>2024-01-27T14:31:00.659Z</time>
      </trkpt>
      <trkpt lat="43.79153" lon="7.59986">
        <ele>94.039402</ele>
        <time>2024-01-27T14:31:16.669Z</time>
      </trkpt>
      <trkpt lat="43.7916" lon="7.59975">
        <ele>94.653561</ele>
        <time>2024-01-27T14:31:21.658Z</time>
      </trkpt>
      <trkpt lat="43.79165" lon="7.59964">
        <ele>95.237038</ele>
        <time>2024-01-27T14:31:26.673Z</time>
      </trkpt>
      <trkpt lat="43.79169" lon="7.59952">
        <ele>95.781116</ele>
        <time>2024-01-27T14:31:30.671Z</time>
      </trkpt>
      <trkpt lat="43.7917" lon="7.5994">
        <ele>96.316086</ele>
        <time>2024-01-27T14:31:34.683Z</time>
      </trkpt>
      <trkpt lat="43.7917" lon="7.59926">
        <ele>96.886482</ele>
        <time>2024-01-27T14:31:38.669Z</time>
      </trkpt>
      <trkpt lat="43.79169" lon="7.59913">
        <ele>97.440447</ele>
        <time>2024-01-27T14:31:42.681Z</time>
      </trkpt>
      <trkpt lat="43.79164" lon="7.59901">
        <ele>98.044767</ele>
        <time>2024-01-27T14:31:46.669Z</time>
      </trkpt>
      <trkpt lat="43.79159" lon="7.59887">
        <ele>98.704064</ele>
        <time>2024-01-27T14:31:50.696Z</time>
      </trkpt>
      <trkpt lat="43.79153" lon="7.59875">
        <ele>99.335435</ele>
        <time>2024-01-27T14:31:54.681Z</time>
      </trkpt>
      <trkpt lat="43.79145" lon="7.59863">
        <ele>100.002546</ele>
        <time>2024-01-27T14:31:58.660Z</time>
      </trkpt>
      <trkpt lat="43.79139" lon="7.59853">
        <ele>100.564604</ele>
        <time>2024-01-27T14:32:01.698Z</time>
      </trkpt>
      <trkpt lat="43.79133" lon="7.59843">
        <ele>101.130155</ele>
        <time>2024-01-27T14:32:04.685Z</time>
      </trkpt>
      <trkpt lat="43.79127" lon="7.59829">
        <ele>101.800334</ele>
        <time>2024-01-27T14:32:08.684Z</time>
      </trkpt>
      <trkpt lat="43.79121" lon="7.59817">
        <ele>102.432758</ele>
        <time>2024-01-27T14:32:12.687Z</time>
      </trkpt>
      <trkpt lat="43.79115" lon="7.59804">
        <ele>103.089461</ele>
        <time>2024-01-27T14:32:16.680Z</time>
      </trkpt>
      <trkpt lat="43.79111" lon="7.59792">
        <ele>103.670869</ele>
        <time>2024-01-27T14:32:20.688Z</time>
      </trkpt>
      <trkpt lat="43.79107" lon="7.59779">
        <ele>104.328601</ele>
        <time>2024-01-27T14:32:24.685Z</time>
      </trkpt>
      <trkpt lat="43.79102" lon="7.59769">
        <ele>104.975483</ele>
        <time>2024-01-27T14:32:28.689Z</time>
      </trkpt>
      <trkpt lat="43.79097" lon="7.59758">
        <ele>105.646079</ele>
        <time>2024-01-27T14:32:32.700Z</time>
      </trkpt>
      <trkpt lat="43.79092" lon="7.59747">
        <ele>106.27895</ele>
        <time>2024-01-27T14:32:36.687Z</time>
      </trkpt>
      <trkpt lat="43.79087" lon="7.59736">
        <ele>106.91182</ele>
        <time>2024-01-27T14:32:40.681Z</time>
      </trkpt>
      <trkpt lat="43.79083" lon="7.59724">
        <ele>107.586369</ele>
        <time>2024-01-27T14:32:44.676Z</time>
      </trkpt>
      <trkpt lat="43.79079" lon="7.5971">
        <ele>108.34791</ele>
        <time>2024-01-27T14:32:49.675Z</time>
      </trkpt>
      <trkpt lat="43.79077" lon="7.59696">
        <ele>109.038595</ele>
        <time>2024-01-27T14:32:53.678Z</time>
      </trkpt>
      <trkpt lat="43.79076" lon="7.59684">
        <ele>109.684797</ele>
        <time>2024-01-27T14:32:57.679Z</time>
      </trkpt>
      <trkpt lat="43.79074" lon="7.59669">
        <ele>110.439869</ele>
        <time>2024-01-27T14:33:02.685Z</time>
      </trkpt>
      <trkpt lat="43.79073" lon="7.59656">
        <ele>111.087781</ele>
        <time>2024-01-27T14:33:06.693Z</time>
      </trkpt>
      <trkpt lat="43.79075" lon="7.59641">
        <ele>111.847436</ele>
        <time>2024-01-27T14:33:11.705Z</time>
      </trkpt>
      <trkpt lat="43.79074" lon="7.59627">
        <ele>112.564518</ele>
        <time>2024-01-27T14:33:17.674Z</time>
      </trkpt>
      <trkpt lat="43.79072" lon="7.59614">
        <ele>113.209427</ele>
        <time>2024-01-27T14:33:23.670Z</time>
      </trkpt>
      <trkpt lat="43.79072" lon="7.59602">
        <ele>113.847369</ele>
        <time>2024-01-27T14:33:30.672Z</time>
      </trkpt>
      <trkpt lat="43.7907" lon="7.59587">
        <ele>114.588645</ele>
        <time>2024-01-27T14:33:38.671Z</time>
      </trkpt>
      <trkpt lat="43.79071" lon="7.59573">
        <ele>115.275411</ele>
        <time>2024-01-27T14:33:43.685Z</time>
      </trkpt>
      <trkpt lat="43.79072" lon="7.59559">
        <ele>116.004897</ele>
        <time>2024-01-27T14:33:48.696Z</time>
      </trkpt>
      <trkpt lat="43.79073" lon="7.59546">
        <ele>116.227382</ele>
        <time>2024-01-27T14:33:52.692Z</time>
      </trkpt>
      <trkpt lat="43.79075" lon="7.59531">
        <ele>116.381834</ele>
        <time>2024-01-27T14:33:57.686Z</time>
      </trkpt>
      <trkpt lat="43.79079" lon="7.59518">
        <ele>116.529904</ele>
        <time>2024-01-27T14:34:02.694Z</time>
      </trkpt>
      <trkpt lat="43.79084" lon="7.59505">
        <ele>116.675802</ele>
        <time>2024-01-27T14:34:07.688Z</time>
      </trkpt>
      <trkpt lat="43.79092" lon="7.59496">
        <ele>116.82737</ele>
        <time>2024-01-27T14:34:12.684Z</time>
      </trkpt>
      <trkpt lat="43.79099" lon="7.59486">
        <ele>116.956163</ele>
        <time>2024-01-27T14:34:16.678Z</time>
      </trkpt>
      <trkpt lat="43.79105" lon="7.59477">
        <ele>117.085176</ele>
        <time>2024-01-27T14:34:20.688Z</time>
      </trkpt>
      <trkpt lat="43.79113" lon="7.59469">
        <ele>117.220219</ele>
        <time>2024-01-27T14:34:24.693Z</time>
      </trkpt>
      <trkpt lat="43.7912" lon="7.5946">
        <ele>117.35621</ele>
        <time>2024-01-27T14:34:28.686Z</time>
      </trkpt>
      <trkpt lat="43.79127" lon="7.5945">
        <ele>117.501515</ele>
        <time>2024-01-27T14:34:32.677Z</time>
      </trkpt>
      <trkpt lat="43.79134" lon="7.5944">
        <ele>117.643493</ele>
        <time>2024-01-27T14:34:36.679Z</time>
      </trkpt>
      <trkpt lat="43.79142" lon="7.59431">
        <ele>117.781607</ele>
        <time>2024-01-27T14:34:40.679Z</time>
      </trkpt>
      <trkpt lat="43.79149" lon="7.59421">
        <ele>117.925299</ele>
        <time>2024-01-27T14:34:44.698Z</time>
      </trkpt>
      <trkpt lat="43.79156" lon="7.59412">
        <ele>118.067843</ele>
        <time>2024-01-27T14:34:48.695Z</time>
      </trkpt>
      <trkpt lat="43.79164" lon="7.59402">
        <ele>118.212534</ele>
        <time>2024-01-27T14:34:52.688Z</time>
      </trkpt>
      <trkpt lat="43.79169" lon="7.59389">
        <ele>118.361962</ele>
        <time>2024-01-27T14:34:56.684Z</time>
      </trkpt>
      <trkpt lat="43.79174" lon="7.59376">
        <ele>118.515979</ele>
        <time>2024-01-27T14:35:00.682Z</time>
      </trkpt>
      <trkpt lat="43.79181" lon="7.59362">
        <ele>118.686216</ele>
        <time>2024-01-27T14:35:04.683Z</time>
      </trkpt>
      <trkpt lat="43.79188" lon="7.5935">
        <ele>118.88504</ele>
        <time>2024-01-27T14:35:08.685Z</time>
      </trkpt>
      <trkpt lat="43.79195" lon="7.59338">
        <ele>119.066527</ele>
        <time>2024-01-27T14:35:12.692Z</time>
      </trkpt>
      <trkpt lat="43.79202" lon="7.59326">
        <ele>119.25548</ele>
        <time>2024-01-27T14:35:16.699Z</time>
      </trkpt>
      <trkpt lat="43.79208" lon="7.59312">
        <ele>119.447435</ele>
        <time>2024-01-27T14:35:20.686Z</time>
      </trkpt>
      <trkpt lat="43.79215" lon="7.593">
        <ele>119.636389</ele>
        <time>2024-01-27T14:35:24.687Z</time>
      </trkpt>
      <trkpt lat="43.79222" lon="7.59289">
        <ele>119.79737</ele>
        <time>2024-01-27T14:35:28.665Z</time>
      </trkpt>
      <trkpt lat="43.79227" lon="7.59277">
        <ele>119.974983</ele>
        <time>2024-01-27T14:35:32.676Z</time>
      </trkpt>
      <trkpt lat="43.79231" lon="7.59265">
        <ele>120.131097</ele>
        <time>2024-01-27T14:35:36.672Z</time>
      </trkpt>
      <trkpt lat="43.79235" lon="7.59231">
        <ele>120.548422</ele>
        <time>2024-01-27T14:36:15.665Z</time>
      </trkpt>
      <trkpt lat="43.79236" lon="7.59217">
        <ele>120.71132</ele>
        <time>2024-01-27T14:36:18.675Z</time>
      </trkpt>
      <trkpt lat="43.79238" lon="7.59202">
        <ele>120.898078</ele>
        <time>2024-01-27T14:36:21.679Z</time>
      </trkpt>
      <trkpt lat="43.79241" lon="7.59186">
        <ele>121.096863</ele>
        <time>2024-01-27T14:36:24.669Z</time>
      </trkpt>
      <trkpt lat="43.79243" lon="7.59169">
        <ele>121.300078</ele>
        <time>2024-01-27T14:36:27.685Z</time>
      </trkpt>
      <trkpt lat="43.79246" lon="7.59154">
        <ele>121.492258</ele>
        <time>2024-01-27T14:36:30.671Z</time>
      </trkpt>
      <trkpt lat="43.7925" lon="7.5914">
        <ele>121.598256</ele>
        <time>2024-01-27T14:36:33.684Z</time>
      </trkpt>
      <trkpt lat="43.79254" lon="7.59124">
        <ele>121.30703</ele>
        <time>2024-01-27T14:36:36.661Z</time>
      </trkpt>
      <trkpt lat="43.79259" lon="7.5911">
        <ele>121.030296</ele>
        <time>2024-01-27T14:36:39.685Z</time>
      </trkpt>
      <trkpt lat="43.79262" lon="7.59093">
        <ele>120.715869</ele>
        <time>2024-01-27T14:36:42.662Z</time>
      </trkpt>
      <trkpt lat="43.79266" lon="7.59076">
        <ele>120.3987</ele>
        <time>2024-01-27T14:36:45.694Z</time>
      </trkpt>
      <trkpt lat="43.7927" lon="7.59059">
        <ele>120.075706</ele>
        <time>2024-01-27T14:36:48.686Z</time>
      </trkpt>
      <trkpt lat="43.79272" lon="7.59041">
        <ele>119.754107</ele>
        <time>2024-01-27T14:36:51.663Z</time>
      </trkpt>
      <trkpt lat="43.79275" lon="7.59028">
        <ele>119.515763</ele>
        <time>2024-01-27T14:36:53.741Z</time>
      </trkpt>
      <trkpt lat="43.79277" lon="7.59015">
        <ele>119.28153</ele>
        <time>2024-01-27T14:36:55.682Z</time>
      </trkpt>
      <trkpt lat="43.7928" lon="7.59003">
        <ele>119.047238</ele>
        <time>2024-01-27T14:36:57.688Z</time>
      </trkpt>
      <trkpt lat="43.79282" lon="7.58989">
        <ele>118.79732</ele>
        <time>2024-01-27T14:36:59.675Z</time>
      </trkpt>
      <trkpt lat="43.79284" lon="7.58974">
        <ele>118.524185</ele>
        <time>2024-01-27T14:37:01.673Z</time>
      </trkpt>
      <trkpt lat="43.79286" lon="7.5896">
        <ele>118.261032</ele>
        <time>2024-01-27T14:37:03.689Z</time>
      </trkpt>
      <trkpt lat="43.79288" lon="7.58945">
        <ele>117.991539</ele>
        <time>2024-01-27T14:37:05.681Z</time>
      </trkpt>
      <trkpt lat="43.79291" lon="7.58931">
        <ele>117.73607</ele>
        <time>2024-01-27T14:37:07.670Z</time>
      </trkpt>
      <trkpt lat="43.79295" lon="7.58916">
        <ele>117.452305</ele>
        <time>2024-01-27T14:37:09.678Z</time>
      </trkpt>
      <trkpt lat="43.793" lon="7.58902">
        <ele>117.186461</ele>
        <time>2024-01-27T14:37:11.687Z</time>
      </trkpt>
      <trkpt lat="43.79306" lon="7.5889">
        <ele>117.073514</ele>
        <time>2024-01-27T14:37:13.689Z</time>
      </trkpt>
      <trkpt lat="43.79313" lon="7.58878">
        <ele>116.964204</ele>
        <time>2024-01-27T14:37:15.687Z</time>
      </trkpt>
      <trkpt lat="43.79317" lon="7.58863">
        <ele>116.844026</ele>
        <time>2024-01-27T14:37:17.674Z</time>
      </trkpt>
      <trkpt lat="43.79321" lon="7.58848">
        <ele>116.729935</ele>
        <time>2024-01-27T14:37:19.662Z</time>
      </trkpt>
      <trkpt lat="43.79324" lon="7.58833">
        <ele>116.61643</ele>
        <time>2024-01-27T14:37:21.671Z</time>
      </trkpt>
      <trkpt lat="43.79328" lon="7.58819">
        <ele>116.506397</ele>
        <time>2024-01-27T14:37:23.684Z</time>
      </trkpt>
      <trkpt lat="43.79333" lon="7.58807">
        <ele>116.397199</ele>
        <time>2024-01-27T14:37:25.733Z</time>
      </trkpt>
      <trkpt lat="43.79338" lon="7.58794">
        <ele>116.29011</ele>
        <time>2024-01-27T14:37:27.822Z</time>
      </trkpt>
      <trkpt lat="43.79343" lon="7.58781">
        <ele>116.18639</ele>
        <time>2024-01-27T14:37:29.673Z</time>
      </trkpt>
      <trkpt lat="43.79349" lon="7.58769">
        <ele>116.083302</ele>
        <time>2024-01-27T14:37:31.668Z</time>
      </trkpt>
      <trkpt lat="43.79354" lon="7.58757">
        <ele>115.979149</ele>
        <time>2024-01-27T14:37:33.669Z</time>
      </trkpt>
      <trkpt lat="43.79358" lon="7.58744">
        <ele>115.871665</ele>
        <time>2024-01-27T14:37:35.698Z</time>
      </trkpt>
      <trkpt lat="43.7936" lon="7.5873">
        <ele>115.765415</ele>
        <time>2024-01-27T14:37:37.704Z</time>
      </trkpt>
      <trkpt lat="43.79359" lon="7.58714">
        <ele>115.646934</ele>
        <time>2024-01-27T14:37:39.685Z</time>
      </trkpt>
      <trkpt lat="43.79357" lon="7.58697">
        <ele>115.517889</ele>
        <time>2024-01-27T14:37:41.735Z</time>
      </trkpt>
      <trkpt lat="43.79355" lon="7.58678">
        <ele>115.376998</ele>
        <time>2024-01-27T14:37:43.740Z</time>
      </trkpt>
      <trkpt lat="43.79354" lon="7.58659">
        <ele>115.281386</ele>
        <time>2024-01-27T14:37:45.795Z</time>
      </trkpt>
      <trkpt lat="43.79355" lon="7.58643">
        <ele>115.202516</ele>
        <time>2024-01-27T14:37:47.707Z</time>
      </trkpt>
      <trkpt lat="43.79356" lon="7.58627">
        <ele>115.123107</ele>
        <time>2024-01-27T14:37:49.671Z</time>
      </trkpt>
      <trkpt lat="43.79357" lon="7.58613">
        <ele>115.049694</ele>
        <time>2024-01-27T14:37:51.783Z</time>
      </trkpt>
      <trkpt lat="43.79358" lon="7.58598">
        <ele>114.975765</ele>
        <time>2024-01-27T14:37:53.708Z</time>
      </trkpt>
      <trkpt lat="43.79359" lon="7.58583">
        <ele>114.900748</ele>
        <time>2024-01-27T14:37:55.763Z</time>
      </trkpt>
      <trkpt lat="43.79359" lon="7.58567">
        <ele>114.823808</ele>
        <time>2024-01-27T14:37:57.675Z</time>
      </trkpt>
      <trkpt lat="43.79359" lon="7.58551">
        <ele>114.745471</ele>
        <time>2024-01-27T14:37:59.663Z</time>
      </trkpt>
      <trkpt lat="43.79357" lon="7.58536">
        <ele>114.666763</ele>
        <time>2024-01-27T14:38:01.668Z</time>
      </trkpt>
      <trkpt lat="43.79353" lon="7.5852">
        <ele>114.583578</ele>
        <time>2024-01-27T14:38:03.665Z</time>
      </trkpt>
      <trkpt lat="43.7935" lon="7.58504">
        <ele>114.503902</ele>
        <time>2024-01-27T14:38:05.660Z</time>
      </trkpt>
      <trkpt lat="43.79344" lon="7.5849">
        <ele>114.425087</ele>
        <time>2024-01-27T14:38:07.664Z</time>
      </trkpt>
      <trkpt lat="43.79339" lon="7.58475">
        <ele>114.344124</ele>
        <time>2024-01-27T14:38:09.660Z</time>
      </trkpt>
      <trkpt lat="43.79334" lon="7.58461">
        <ele>114.261068</ele>
        <time>2024-01-27T14:38:11.686Z</time>
      </trkpt>
      <trkpt lat="43.79328" lon="7.58446">
        <ele>114.180842</ele>
        <time>2024-01-27T14:38:13.704Z</time>
      </trkpt>
      <trkpt lat="43.79324" lon="7.5843">
        <ele>114.016075</ele>
        <time>2024-01-27T14:38:15.673Z</time>
      </trkpt>
      <trkpt lat="43.79322" lon="7.58413">
        <ele>113.722794</ele>
        <time>2024-01-27T14:38:17.665Z</time>
      </trkpt>
      <trkpt lat="43.79325" lon="7.58397">
        <ele>113.440797</ele>
        <time>2024-01-27T14:38:19.686Z</time>
      </trkpt>
      <trkpt lat="43.79331" lon="7.58383">
        <ele>113.171837</ele>
        <time>2024-01-27T14:38:21.670Z</time>
      </trkpt>
      <trkpt lat="43.79336" lon="7.5837">
        <ele>112.922798</ele>
        <time>2024-01-27T14:38:23.680Z</time>
      </trkpt>
      <trkpt lat="43.7934" lon="7.58359">
        <ele>112.711389</ele>
        <time>2024-01-27T14:38:28.681Z</time>
      </trkpt>
      <trkpt lat="43.79339" lon="7.58344">
        <ele>112.458351</ele>
        <time>2024-01-27T14:38:38.667Z</time>
      </trkpt>
      <trkpt lat="43.79336" lon="7.5833">
        <ele>112.204977</ele>
        <time>2024-01-27T14:38:42.679Z</time>
      </trkpt>
      <trkpt lat="43.79333" lon="7.58315">
        <ele>111.942694</ele>
        <time>2024-01-27T14:38:46.775Z</time>
      </trkpt>
      <trkpt lat="43.79332" lon="7.583">
        <ele>111.693392</ele>
        <time>2024-01-27T14:38:50.692Z</time>
      </trkpt>
      <trkpt lat="43.79335" lon="7.58284">
        <ele>111.41571</ele>
        <time>2024-01-27T14:38:54.667Z</time>
      </trkpt>
      <trkpt lat="43.79335" lon="7.5827">
        <ele>111.185534</ele>
        <time>2024-01-27T14:38:57.672Z</time>
      </trkpt>
      <trkpt lat="43.79333" lon="7.58254">
        <ele>110.900886</ele>
        <time>2024-01-27T14:39:00.678Z</time>
      </trkpt>
      <trkpt lat="43.79331" lon="7.58237">
        <ele>110.610135</ele>
        <time>2024-01-27T14:39:03.671Z</time>
      </trkpt>
      <trkpt lat="43.7933" lon="7.58224">
        <ele>110.39998</ele>
        <time>2024-01-27T14:39:05.676Z</time>
      </trkpt>
      <trkpt lat="43.7933" lon="7.58211">
        <ele>110.172626</ele>
        <time>2024-01-27T14:39:07.660Z</time>
      </trkpt>
      <trkpt lat="43.79332" lon="7.58197">
        <ele>109.937274</ele>
        <time>2024-01-27T14:39:09.671Z</time>
      </trkpt>
      <trkpt lat="43.79332" lon="7.58178">
        <ele>109.287552</ele>
        <time>2024-01-27T14:39:12.673Z</time>
      </trkpt>
      <trkpt lat="43.7933" lon="7.58165">
        <ele>108.817673</ele>
        <time>2024-01-27T14:39:14.673Z</time>
      </trkpt>
      <trkpt lat="43.79329" lon="7.58151">
        <ele>108.323156</ele>
        <time>2024-01-27T14:39:16.680Z</time>
      </trkpt>
      <trkpt lat="43.79328" lon="7.58135">
        <ele>107.784199</ele>
        <time>2024-01-27T14:39:18.677Z</time>
      </trkpt>
      <trkpt lat="43.79331" lon="7.58119">
        <ele>107.230926</ele>
        <time>2024-01-27T14:39:20.678Z</time>
      </trkpt>
      <trkpt lat="43.79335" lon="7.58103">
        <ele>106.638053</ele>
        <time>2024-01-27T14:39:22.670Z</time>
      </trkpt>
      <trkpt lat="43.7934" lon="7.58087">
        <ele>106.027049</ele>
        <time>2024-01-27T14:39:24.682Z</time>
      </trkpt>
      <trkpt lat="43.79346" lon="7.58071">
        <ele>105.41474</ele>
        <time>2024-01-27T14:39:26.674Z</time>
      </trkpt>
      <trkpt lat="43.7935" lon="7.58055">
        <ele>104.793946</ele>
        <time>2024-01-27T14:39:28.674Z</time>
      </trkpt>
      <trkpt lat="43.79355" lon="7.58038">
        <ele>104.174564</ele>
        <time>2024-01-27T14:39:30.674Z</time>
      </trkpt>
      <trkpt lat="43.7936" lon="7.58021">
        <ele>103.537843</ele>
        <time>2024-01-27T14:39:32.680Z</time>
      </trkpt>
      <trkpt lat="43.79363" lon="7.58002">
        <ele>102.880838</ele>
        <time>2024-01-27T14:39:34.674Z</time>
      </trkpt>
      <trkpt lat="43.79362" lon="7.57983">
        <ele>102.213341</ele>
        <time>2024-01-27T14:39:36.669Z</time>
      </trkpt>
      <trkpt lat="43.79354" lon="7.57963">
        <ele>101.445708</ele>
        <time>2024-01-27T14:39:38.679Z</time>
      </trkpt>
      <trkpt lat="43.79344" lon="7.57947">
        <ele>100.575778</ele>
        <time>2024-01-27T14:39:40.667Z</time>
      </trkpt>
      <trkpt lat="43.79332" lon="7.57933">
        <ele>99.731209</ele>
        <time>2024-01-27T14:39:42.681Z</time>
      </trkpt>
      <trkpt lat="43.79323" lon="7.5792">
        <ele>99.00348</ele>
        <time>2024-01-27T14:39:44.672Z</time>
      </trkpt>
      <trkpt lat="43.79317" lon="7.57906">
        <ele>98.324267</ele>
        <time>2024-01-27T14:39:46.672Z</time>
      </trkpt>
      <trkpt lat="43.79317" lon="7.57888">
        <ele>97.587165</ele>
        <time>2024-01-27T14:39:48.675Z</time>
      </trkpt>
      <trkpt lat="43.79324" lon="7.57871">
        <ele>96.79618</ele>
        <time>2024-01-27T14:39:50.680Z</time>
      </trkpt>
      <trkpt lat="43.79333" lon="7.57855">
        <ele>95.98885</ele>
        <time>2024-01-27T14:39:52.685Z</time>
      </trkpt>
      <trkpt lat="43.79337" lon="7.57836">
        <ele>95.174174</ele>
        <time>2024-01-27T14:39:54.675Z</time>
      </trkpt>
      <trkpt lat="43.7934" lon="7.57815">
        <ele>94.332716</ele>
        <time>2024-01-27T14:39:56.729Z</time>
      </trkpt>
      <trkpt lat="43.79344" lon="7.57796">
        <ele>93.519455</ele>
        <time>2024-01-27T14:39:58.685Z</time>
      </trkpt>
      <trkpt lat="43.79347" lon="7.57779">
        <ele>92.815686</ele>
        <time>2024-01-27T14:40:00.681Z</time>
      </trkpt>
      <trkpt lat="43.79349" lon="7.57764">
        <ele>92.209687</ele>
        <time>2024-01-27T14:40:02.681Z</time>
      </trkpt>
      <trkpt lat="43.79352" lon="7.57751">
        <ele>91.641687</ele>
        <time>2024-01-27T14:40:04.686Z</time>
      </trkpt>
      <trkpt lat="43.79353" lon="7.57737">
        <ele>91.095145</ele>
        <time>2024-01-27T14:40:06.690Z</time>
      </trkpt>
      <trkpt lat="43.79357" lon="7.57721">
        <ele>90.404329</ele>
        <time>2024-01-27T14:40:09.667Z</time>
      </trkpt>
      <trkpt lat="43.7936" lon="7.57702">
        <ele>89.610698</ele>
        <time>2024-01-27T14:40:12.690Z</time>
      </trkpt>
      <trkpt lat="43.79364" lon="7.57689">
        <ele>89.010006</ele>
        <time>2024-01-27T14:40:14.700Z</time>
      </trkpt>
      <trkpt lat="43.79368" lon="7.57674">
        <ele>88.327578</ele>
        <time>2024-01-27T14:40:16.682Z</time>
      </trkpt>
      <trkpt lat="43.79373" lon="7.57656">
        <ele>87.575377</ele>
        <time>2024-01-27T14:40:18.698Z</time>
      </trkpt>
      <trkpt lat="43.79377" lon="7.57639">
        <ele>86.798</ele>
        <time>2024-01-27T14:40:20.692Z</time>
      </trkpt>
      <trkpt lat="43.79382" lon="7.5762">
        <ele>85.974114</ele>
        <time>2024-01-27T14:40:22.681Z</time>
      </trkpt>
      <trkpt lat="43.79387" lon="7.57601">
        <ele>85.123085</ele>
        <time>2024-01-27T14:40:24.688Z</time>
      </trkpt>
      <trkpt lat="43.79393" lon="7.57581">
        <ele>84.248776</ele>
        <time>2024-01-27T14:40:26.695Z</time>
      </trkpt>
      <trkpt lat="43.794" lon="7.57561">
        <ele>83.3511</ele>
        <time>2024-01-27T14:40:28.686Z</time>
      </trkpt>
      <trkpt lat="43.79406" lon="7.57541">
        <ele>82.46816</ele>
        <time>2024-01-27T14:40:30.677Z</time>
      </trkpt>
      <trkpt lat="43.7941" lon="7.57521">
        <ele>81.603321</ele>
        <time>2024-01-27T14:40:32.673Z</time>
      </trkpt>
      <trkpt lat="43.79414" lon="7.57503">
        <ele>80.870161</ele>
        <time>2024-01-27T14:40:34.694Z</time>
      </trkpt>
      <trkpt lat="43.7942" lon="7.57485">
        <ele>80.372529</ele>
        <time>2024-01-27T14:40:36.714Z</time>
      </trkpt>
      <trkpt lat="43.79426" lon="7.57469">
        <ele>79.8721</ele>
        <time>2024-01-27T14:40:38.671Z</time>
      </trkpt>
      <trkpt lat="43.79432" lon="7.57454">
        <ele>79.440651</ele>
        <time>2024-01-27T14:40:40.682Z</time>
      </trkpt>
      <trkpt lat="43.79437" lon="7.57443">
        <ele>79.100947</ele>
        <time>2024-01-27T14:40:42.685Z</time>
      </trkpt>
      <trkpt lat="43.79441" lon="7.57432">
        <ele>78.762542</ele>
        <time>2024-01-27T14:40:44.696Z</time>
      </trkpt>
      <trkpt lat="43.79445" lon="7.57419">
        <ele>78.395345</ele>
        <time>2024-01-27T14:40:46.683Z</time>
      </trkpt>
      <trkpt lat="43.79448" lon="7.57403">
        <ele>77.973834</ele>
        <time>2024-01-27T14:40:48.670Z</time>
      </trkpt>
      <trkpt lat="43.7945" lon="7.57387">
        <ele>77.535122</ele>
        <time>2024-01-27T14:40:50.673Z</time>
      </trkpt>
      <trkpt lat="43.79451" lon="7.5737">
        <ele>77.102086</ele>
        <time>2024-01-27T14:40:52.663Z</time>
      </trkpt>
      <trkpt lat="43.7945" lon="7.57353">
        <ele>76.648222</ele>
        <time>2024-01-27T14:40:54.681Z</time>
      </trkpt>
      <trkpt lat="43.79447" lon="7.57338">
        <ele>76.237554</ele>
        <time>2024-01-27T14:40:56.680Z</time>
      </trkpt>
      <trkpt lat="43.79443" lon="7.57326">
        <ele>75.89562</ele>
        <time>2024-01-27T14:40:58.671Z</time>
      </trkpt>
      <trkpt lat="43.79438" lon="7.57314">
        <ele>75.519584</ele>
        <time>2024-01-27T14:41:00.675Z</time>
      </trkpt>
      <trkpt lat="43.79433" lon="7.57302">
        <ele>75.158534</ele>
        <time>2024-01-27T14:41:02.685Z</time>
      </trkpt>
      <trkpt lat="43.79429" lon="7.5729">
        <ele>74.80185</ele>
        <time>2024-01-27T14:41:04.694Z</time>
      </trkpt>
      <trkpt lat="43.7943" lon="7.57276">
        <ele>74.447444</ele>
        <time>2024-01-27T14:41:06.700Z</time>
      </trkpt>
      <trkpt lat="43.79432" lon="7.57263">
        <ele>74.302253</ele>
        <time>2024-01-27T14:41:08.673Z</time>
      </trkpt>
      <trkpt lat="43.79439" lon="7.57251">
        <ele>74.149584</ele>
        <time>2024-01-27T14:41:10.700Z</time>
      </trkpt>
      <trkpt lat="43.79447" lon="7.57243">
        <ele>74.003529</ele>
        <time>2024-01-27T14:41:12.680Z</time>
      </trkpt>
      <trkpt lat="43.79456" lon="7.57237">
        <ele>73.860118</ele>
        <time>2024-01-27T14:41:14.677Z</time>
      </trkpt>
      <trkpt lat="43.79464" lon="7.57232">
        <ele>73.723552</ele>
        <time>2024-01-27T14:41:16.699Z</time>
      </trkpt>
      <trkpt lat="43.79477" lon="7.57227">
        <ele>73.529833</ele>
        <time>2024-01-27T14:41:19.677Z</time>
      </trkpt>
      <trkpt lat="43.7949" lon="7.57222">
        <ele>73.334751</ele>
        <time>2024-01-27T14:41:22.681Z</time>
      </trkpt>
      <trkpt lat="43.79499" lon="7.57217">
        <ele>73.1988</ele>
        <time>2024-01-27T14:41:24.685Z</time>
      </trkpt>
      <trkpt lat="43.79507" lon="7.57212">
        <ele>73.06783</ele>
        <time>2024-01-27T14:41:26.694Z</time>
      </trkpt>
      <trkpt lat="43.79515" lon="7.57206">
        <ele>72.93282</ele>
        <time>2024-01-27T14:41:28.673Z</time>
      </trkpt>
      <trkpt lat="43.79522" lon="7.57198">
        <ele>72.798245</ele>
        <time>2024-01-27T14:41:30.712Z</time>
      </trkpt>
      <trkpt lat="43.79529" lon="7.57182">
        <ele>72.606995</ele>
        <time>2024-01-27T14:41:33.707Z</time>
      </trkpt>
      <trkpt lat="43.79529" lon="7.57169">
        <ele>72.46401</ele>
        <time>2024-01-27T14:41:35.677Z</time>
      </trkpt>
      <trkpt lat="43.79528" lon="7.57155">
        <ele>72.324138</ele>
        <time>2024-01-27T14:41:37.728Z</time>
      </trkpt>
      <trkpt lat="43.79524" lon="7.57142">
        <ele>72.170925</ele>
        <time>2024-01-27T14:41:39.733Z</time>
      </trkpt>
      <trkpt lat="43.79518" lon="7.57131">
        <ele>72.02715</ele>
        <time>2024-01-27T14:41:41.689Z</time>
      </trkpt>
      <trkpt lat="43.7951" lon="7.57123">
        <ele>71.885605</ele>
        <time>2024-01-27T14:41:43.727Z</time>
      </trkpt>
      <trkpt lat="43.79499" lon="7.57115">
        <ele>71.876956</ele>
        <time>2024-01-27T14:41:46.690Z</time>
      </trkpt>
      <trkpt lat="43.79487" lon="7.57106">
        <ele>71.944554</ele>
        <time>2024-01-27T14:41:49.689Z</time>
      </trkpt>
      <trkpt lat="43.79476" lon="7.57098">
        <ele>72.009089</ele>
        <time>2024-01-27T14:41:52.680Z</time>
      </trkpt>
      <trkpt lat="43.79464" lon="7.57092">
        <ele>72.074111</ele>
        <time>2024-01-27T14:41:55.705Z</time>
      </trkpt>
      <trkpt lat="43.79451" lon="7.57085">
        <ele>72.143067</ele>
        <time>2024-01-27T14:41:58.689Z</time>
      </trkpt>
      <trkpt lat="43.79443" lon="7.57081">
        <ele>72.19038</ele>
        <time>2024-01-27T14:42:00.721Z</time>
      </trkpt>
      <trkpt lat="43.79431" lon="7.57074">
        <ele>72.257845</ele>
        <time>2024-01-27T14:42:03.707Z</time>
      </trkpt>
      <trkpt lat="43.79423" lon="7.57066">
        <ele>72.30566</ele>
        <time>2024-01-27T14:42:05.706Z</time>
      </trkpt>
      <trkpt lat="43.79416" lon="7.57058">
        <ele>72.353823</ele>
        <time>2024-01-27T14:42:07.817Z</time>
      </trkpt>
      <trkpt lat="43.79409" lon="7.57049">
        <ele>72.40118</ele>
        <time>2024-01-27T14:42:09.690Z</time>
      </trkpt>
      <trkpt lat="43.79405" lon="7.57037">
        <ele>72.449816</ele>
        <time>2024-01-27T14:42:11.660Z</time>
      </trkpt>
      <trkpt lat="43.79401" lon="7.57026">
        <ele>72.495938</ele>
        <time>2024-01-27T14:42:13.706Z</time>
      </trkpt>
      <trkpt lat="43.79398" lon="7.57008">
        <ele>72.565714</ele>
        <time>2024-01-27T14:42:16.693Z</time>
      </trkpt>
      <trkpt lat="43.79397" lon="7.56995">
        <ele>72.613238</ele>
        <time>2024-01-27T14:42:18.674Z</time>
      </trkpt>
      <trkpt lat="43.79394" lon="7.56977">
        <ele>72.681771</ele>
        <time>2024-01-27T14:42:21.671Z</time>
      </trkpt>
      <trkpt lat="43.79392" lon="7.56958">
        <ele>72.750758</ele>
        <time>2024-01-27T14:42:24.702Z</time>
      </trkpt>
      <trkpt lat="43.7939" lon="7.5694">
        <ele>72.516177</ele>
        <time>2024-01-27T14:42:27.736Z</time>
      </trkpt>
      <trkpt lat="43.79389" lon="7.56927">
        <ele>72.352395</ele>
        <time>2024-01-27T14:42:29.725Z</time>
      </trkpt>
      <trkpt lat="43.79387" lon="7.56914">
        <ele>72.182502</ele>
        <time>2024-01-27T14:42:31.838Z</time>
      </trkpt>
      <trkpt lat="43.79385" lon="7.56901">
        <ele>72.006444</ele>
        <time>2024-01-27T14:42:33.702Z</time>
      </trkpt>
      <trkpt lat="43.79384" lon="7.56887">
        <ele>71.832916</ele>
        <time>2024-01-27T14:42:35.685Z</time>
      </trkpt>
      <trkpt lat="43.79382" lon="7.56875">
        <ele>71.668363</ele>
        <time>2024-01-27T14:42:37.707Z</time>
      </trkpt>
      <trkpt lat="43.79381" lon="7.56856">
        <ele>71.435003</ele>
        <time>2024-01-27T14:42:40.688Z</time>
      </trkpt>
      <trkpt lat="43.7938" lon="7.56844">
        <ele>71.266534</ele>
        <time>2024-01-27T14:42:42.695Z</time>
      </trkpt>
      <trkpt lat="43.79378" lon="7.5683">
        <ele>71.091993</ele>
        <time>2024-01-27T14:42:44.715Z</time>
      </trkpt>
      <trkpt lat="43.79377" lon="7.56817">
        <ele>70.927199</ele>
        <time>2024-01-27T14:42:46.691Z</time>
      </trkpt>
      <trkpt lat="43.79376" lon="7.56805">
        <ele>70.767492</ele>
        <time>2024-01-27T14:42:48.672Z</time>
      </trkpt>
      <trkpt lat="43.79374" lon="7.56792">
        <ele>70.597357</ele>
        <time>2024-01-27T14:42:50.699Z</time>
      </trkpt>
      <trkpt lat="43.79373" lon="7.56779">
        <ele>70.43108</ele>
        <time>2024-01-27T14:42:52.681Z</time>
      </trkpt>
      <trkpt lat="43.7937" lon="7.56766">
        <ele>70.258285</ele>
        <time>2024-01-27T14:42:54.667Z</time>
      </trkpt>
      <trkpt lat="43.79369" lon="7.56753">
        <ele>70.080319</ele>
        <time>2024-01-27T14:42:56.685Z</time>
      </trkpt>
      <trkpt lat="43.79368" lon="7.56739">
        <ele>69.902134</ele>
        <time>2024-01-27T14:42:58.663Z</time>
      </trkpt>
      <trkpt lat="43.79366" lon="7.56725">
        <ele>69.720705</ele>
        <time>2024-01-27T14:43:00.662Z</time>
      </trkpt>
      <trkpt lat="43.79364" lon="7.56711">
        <ele>69.54112</ele>
        <time>2024-01-27T14:43:02.659Z</time>
      </trkpt>
      <trkpt lat="43.79363" lon="7.56696">
        <ele>69.346653</ele>
        <time>2024-01-27T14:43:04.675Z</time>
      </trkpt>
      <trkpt lat="43.79361" lon="7.56682">
        <ele>69.157897</ele>
        <time>2024-01-27T14:43:06.667Z</time>
      </trkpt>
      <trkpt lat="43.79359" lon="7.56668">
        <ele>68.974693</ele>
        <time>2024-01-27T14:43:08.697Z</time>
      </trkpt>
      <trkpt lat="43.79358" lon="7.56653">
        <ele>68.789762</ele>
        <time>2024-01-27T14:43:10.700Z</time>
      </trkpt>
      <trkpt lat="43.79358" lon="7.56638">
        <ele>68.599223</ele>
        <time>2024-01-27T14:43:12.691Z</time>
      </trkpt>
      <trkpt lat="43.79359" lon="7.56624">
        <ele>68.407297</ele>
        <time>2024-01-27T14:43:14.665Z</time>
      </trkpt>
      <trkpt lat="43.79359" lon="7.56607">
        <ele>68.199782</ele>
        <time>2024-01-27T14:43:16.705Z</time>
      </trkpt>
      <trkpt lat="43.7936" lon="7.56592">
        <ele>67.999757</ele>
        <time>2024-01-27T14:43:18.693Z</time>
      </trkpt>
      <trkpt lat="43.79362" lon="7.56577">
        <ele>67.798947</ele>
        <time>2024-01-27T14:43:20.684Z</time>
      </trkpt>
      <trkpt lat="43.79365" lon="7.56561">
        <ele>67.596376</ele>
        <time>2024-01-27T14:43:22.788Z</time>
      </trkpt>
      <trkpt lat="43.79371" lon="7.56548">
        <ele>67.393402</ele>
        <time>2024-01-27T14:43:24.684Z</time>
      </trkpt>
      <trkpt lat="43.79379" lon="7.56536">
        <ele>67.188878</ele>
        <time>2024-01-27T14:43:26.675Z</time>
      </trkpt>
      <trkpt lat="43.79387" lon="7.56524">
        <ele>66.977669</ele>
        <time>2024-01-27T14:43:28.686Z</time>
      </trkpt>
      <trkpt lat="43.79394" lon="7.56512">
        <ele>66.766924</ele>
        <time>2024-01-27T14:43:30.690Z</time>
      </trkpt>
      <trkpt lat="43.79402" lon="7.56498">
        <ele>66.542096</ele>
        <time>2024-01-27T14:43:32.691Z</time>
      </trkpt>
      <trkpt lat="43.7941" lon="7.56486">
        <ele>66.343015</ele>
        <time>2024-01-27T14:43:34.678Z</time>
      </trkpt>
      <trkpt lat="43.79418" lon="7.56473">
        <ele>66.333316</ele>
        <time>2024-01-27T14:43:36.696Z</time>
      </trkpt>
      <trkpt lat="43.79425" lon="7.56462">
        <ele>66.324258</ele>
        <time>2024-01-27T14:43:38.683Z</time>
      </trkpt>
      <trkpt lat="43.79433" lon="7.5645">
        <ele>66.315036</ele>
        <time>2024-01-27T14:43:40.696Z</time>
      </trkpt>
      <trkpt lat="43.79441" lon="7.56439">
        <ele>66.306224</ele>
        <time>2024-01-27T14:43:42.665Z</time>
      </trkpt>
      <trkpt lat="43.79448" lon="7.56429">
        <ele>66.297647</ele>
        <time>2024-01-27T14:43:44.679Z</time>
      </trkpt>
      <trkpt lat="43.79454" lon="7.56418">
        <ele>66.289167</ele>
        <time>2024-01-27T14:43:46.683Z</time>
      </trkpt>
      <trkpt lat="43.79461" lon="7.56407">
        <ele>66.281334</ele>
        <time>2024-01-27T14:43:48.683Z</time>
      </trkpt>
      <trkpt lat="43.79468" lon="7.56392">
        <ele>66.270359</ele>
        <time>2024-01-27T14:43:51.669Z</time>
      </trkpt>
      <trkpt lat="43.79473" lon="7.56381">
        <ele>66.262608</ele>
        <time>2024-01-27T14:43:54.715Z</time>
      </trkpt>
      <trkpt lat="43.79477" lon="7.56367">
        <ele>66.25387</ele>
        <time>2024-01-27T14:43:59.683Z</time>
      </trkpt>
      <trkpt lat="43.79479" lon="7.56354">
        <ele>66.246014</ele>
        <time>2024-01-27T14:44:03.694Z</time>
      </trkpt>
      <trkpt lat="43.79477" lon="7.56339">
        <ele>66.23711</ele>
        <time>2024-01-27T14:44:07.722Z</time>
      </trkpt>
      <trkpt lat="43.79469" lon="7.5633">
        <ele>66.229191</ele>
        <time>2024-01-27T14:44:11.674Z</time>
      </trkpt>
      <trkpt lat="43.79461" lon="7.56323">
        <ele>66.221507</ele>
        <time>2024-01-27T14:44:15.701Z</time>
      </trkpt>
      <trkpt lat="43.79453" lon="7.56318">
        <ele>66.213792</ele>
        <time>2024-01-27T14:44:19.672Z</time>
      </trkpt>
      <trkpt lat="43.79443" lon="7.56314">
        <ele>66.205264</ele>
        <time>2024-01-27T14:44:24.677Z</time>
      </trkpt>
      <trkpt lat="43.79432" lon="7.56312">
        <ele>66.214651</ele>
        <time>2024-01-27T14:44:28.677Z</time>
      </trkpt>
      <trkpt lat="43.79421" lon="7.56311">
        <ele>66.374453</ele>
        <time>2024-01-27T14:44:32.691Z</time>
      </trkpt>
      <trkpt lat="43.7941" lon="7.5631">
        <ele>66.540454</ele>
        <time>2024-01-27T14:44:36.677Z</time>
      </trkpt>
      <trkpt lat="43.79401" lon="7.56311">
        <ele>66.683659</ele>
        <time>2024-01-27T14:44:39.692Z</time>
      </trkpt>
      <trkpt lat="43.7939" lon="7.56311">
        <ele>66.837271</ele>
        <time>2024-01-27T14:44:42.676Z</time>
      </trkpt>
      <trkpt lat="43.79381" lon="7.56312">
        <ele>66.984909</ele>
        <time>2024-01-27T14:44:45.661Z</time>
      </trkpt>
      <trkpt lat="43.79369" lon="7.56313">
        <ele>67.152656</ele>
        <time>2024-01-27T14:44:48.694Z</time>
      </trkpt>
      <trkpt lat="43.79359" lon="7.56314">
        <ele>67.312724</ele>
        <time>2024-01-27T14:44:51.668Z</time>
      </trkpt>
      <trkpt lat="43.79348" lon="7.56314">
        <ele>67.472378</ele>
        <time>2024-01-27T14:44:54.685Z</time>
      </trkpt>
      <trkpt lat="43.79339" lon="7.56312">
        <ele>67.619236</ele>
        <time>2024-01-27T14:44:57.657Z</time>
      </trkpt>
      <trkpt lat="43.7933" lon="7.5631">
        <ele>67.757251</ele>
        <time>2024-01-27T14:45:00.677Z</time>
      </trkpt>
      <trkpt lat="43.79319" lon="7.56304">
        <ele>67.934104</ele>
        <time>2024-01-27T14:45:04.665Z</time>
      </trkpt>
      <trkpt lat="43.79308" lon="7.56296">
        <ele>68.112627</ele>
        <time>2024-01-27T14:45:08.686Z</time>
      </trkpt>
      <trkpt lat="43.79301" lon="7.56288">
        <ele>68.250792</ele>
        <time>2024-01-27T14:45:11.687Z</time>
      </trkpt>
      <trkpt lat="43.79295" lon="7.56277">
        <ele>68.403521</ele>
        <time>2024-01-27T14:45:15.668Z</time>
      </trkpt>
      <trkpt lat="43.79287" lon="7.56269">
        <ele>68.543543</ele>
        <time>2024-01-27T14:45:21.677Z</time>
      </trkpt>
      <trkpt lat="43.79277" lon="7.5627">
        <ele>68.701792</ele>
        <time>2024-01-27T14:45:25.695Z</time>
      </trkpt>
      <trkpt lat="43.79268" lon="7.56276">
        <ele>68.854455</ele>
        <time>2024-01-27T14:45:29.699Z</time>
      </trkpt>
      <trkpt lat="43.79259" lon="7.5628">
        <ele>68.905626</ele>
        <time>2024-01-27T14:45:33.707Z</time>
      </trkpt>
      <trkpt lat="43.79249" lon="7.56281">
        <ele>68.905626</ele>
        <time>2024-01-27T14:45:37.680Z</time>
      </trkpt>
      <trkpt lat="43.79243" lon="7.56292">
        <ele>68.905626</ele>
        <time>2024-01-27T14:45:41.690Z</time>
      </trkpt>
      <trkpt lat="43.79239" lon="7.56305">
        <ele>68.905626</ele>
        <time>2024-01-27T14:45:44.688Z</time>
      </trkpt>
      <trkpt lat="43.79232" lon="7.56321">
        <ele>68.905626</ele>
        <time>2024-01-27T14:45:47.668Z</time>
      </trkpt>
      <trkpt lat="43.79226" lon="7.5633">
        <ele>68.905626</ele>
        <time>2024-01-27T14:45:49.669Z</time>
      </trkpt>
      <trkpt lat="43.79219" lon="7.56339">
        <ele>68.905626</ele>
        <time>2024-01-27T14:45:51.669Z</time>
      </trkpt>
      <trkpt lat="43.79212" lon="7.56349">
        <ele>68.905626</ele>
        <time>2024-01-27T14:45:53.687Z</time>
      </trkpt>
      <trkpt lat="43.79203" lon="7.5636">
        <ele>68.905626</ele>
        <time>2024-01-27T14:45:56.676Z</time>
      </trkpt>
      <trkpt lat="43.79196" lon="7.5637">
        <ele>68.905626</ele>
        <time>2024-01-27T14:45:59.680Z</time>
      </trkpt>
      <trkpt lat="43.79189" lon="7.56379">
        <ele>68.905626</ele>
        <time>2024-01-27T14:46:02.688Z</time>
      </trkpt>
      <trkpt lat="43.7918" lon="7.5639">
        <ele>68.905626</ele>
        <time>2024-01-27T14:46:06.658Z</time>
      </trkpt>
      <trkpt lat="43.79171" lon="7.56395">
        <ele>68.905626</ele>
        <time>2024-01-27T14:46:09.670Z</time>
      </trkpt>
      <trkpt lat="43.79162" lon="7.56397">
        <ele>68.905626</ele>
        <time>2024-01-27T14:46:12.683Z</time>
      </trkpt>
      <trkpt lat="43.79152" lon="7.56401">
        <ele>68.905626</ele>
        <time>2024-01-27T14:46:18.681Z</time>
      </trkpt>
      <trkpt lat="43.79143" lon="7.56405">
        <ele>68.905626</ele>
        <time>2024-01-27T14:46:23.675Z</time>
      </trkpt>
      <trkpt lat="43.79142" lon="7.56418">
        <ele>68.905626</ele>
        <time>2024-01-27T14:46:28.684Z</time>
      </trkpt>
      <trkpt lat="43.79147" lon="7.56428">
        <ele>68.905626</ele>
        <time>2024-01-27T14:46:32.678Z</time>
      </trkpt>
    </trkseg>
  </trk>
</gpx>